<?xml version="1.0" encoding="UTF-8" standalone="no" ?>
<gpx xmlns="http://www.topografix.com/GPX/1/1" xmlns:xsi="http://www.w3.org/2001/XMLSchema-instance" xsi:schemaLocation="http://www.topografix.com/GPX/1/1 http://www.topografix.com/GPX/1/1/gpx.xsd" version="1.1" creator="VisuGPX - https://www.visugpx.com">
  <metadata>
    <name>Roc Marathon</name>
    <desc><![CDATA[ROC Marathon 2016 - Fréjus - (24° - soleil)]]></desc>
  </metadata>
  <wpt lat="43.41998" lon="6.73765">
    <ele>1</ele>
    <name><![CDATA[Start]]></name>
    <desc><![CDATA[2016-10-07 06:17:28]]></desc>
  </wpt>
  <wpt lat="43.41622" lon="6.7385">
    <ele>1</ele>
    <name><![CDATA[Lap 1]]></name>
    <desc><![CDATA[81.55km, 374:31, 13.1kph]]></desc>
  </wpt>
  <trk>
    <name><![CDATA[07_10_2016 08_17_28_history]]></name>
    <desc><![CDATA[374:31 - 81.5km]]></desc>
    <trkseg>
      <trkpt lat="43.41998" lon="6.73765">
        <ele>1</ele>
        <time>2016-10-07T06:17:28Z</time>
      </trkpt>
      <trkpt lat="43.41998" lon="6.73765">
        <ele>1</ele>
        <time>2016-10-07T06:17:29Z</time>
      </trkpt>
      <trkpt lat="43.41976" lon="6.73729">
        <ele>1</ele>
        <time>2016-10-07T06:22:10Z</time>
      </trkpt>
      <trkpt lat="43.41971" lon="6.73723">
        <ele>2</ele>
        <time>2016-10-07T06:22:12Z</time>
      </trkpt>
      <trkpt lat="43.41949" lon="6.73714">
        <ele>2</ele>
        <time>2016-10-07T06:22:17Z</time>
      </trkpt>
      <trkpt lat="43.41912" lon="6.73705">
        <ele>2</ele>
        <time>2016-10-07T06:22:25Z</time>
      </trkpt>
      <trkpt lat="43.41891" lon="6.73704">
        <ele>2</ele>
        <time>2016-10-07T06:22:31Z</time>
      </trkpt>
      <trkpt lat="43.41874" lon="6.73711">
        <ele>2</ele>
        <time>2016-10-07T06:22:42Z</time>
      </trkpt>
      <trkpt lat="43.41842" lon="6.73699">
        <ele>2</ele>
        <time>2016-10-07T06:23:00Z</time>
      </trkpt>
      <trkpt lat="43.41834" lon="6.73697">
        <ele>2</ele>
        <time>2016-10-07T06:30:39Z</time>
      </trkpt>
      <trkpt lat="43.4179" lon="6.73684">
        <ele>1</ele>
        <time>2016-10-07T06:30:47Z</time>
      </trkpt>
      <trkpt lat="43.41703" lon="6.73668">
        <ele>1</ele>
        <time>2016-10-07T06:31:03Z</time>
      </trkpt>
      <trkpt lat="43.41675" lon="6.73655">
        <ele>1</ele>
        <time>2016-10-07T06:31:10Z</time>
      </trkpt>
      <trkpt lat="43.41658" lon="6.7363">
        <ele>1</ele>
        <time>2016-10-07T06:31:15Z</time>
      </trkpt>
      <trkpt lat="43.41627" lon="6.73575">
        <ele>1.2</ele>
        <time>2016-10-07T06:31:25Z</time>
      </trkpt>
      <trkpt lat="43.4162" lon="6.7355">
        <ele>1.4</ele>
        <time>2016-10-07T06:31:29Z</time>
      </trkpt>
      <trkpt lat="43.41628" lon="6.7351">
        <ele>1.8</ele>
        <time>2016-10-07T06:31:35Z</time>
      </trkpt>
      <trkpt lat="43.41647" lon="6.73493">
        <ele>1</ele>
        <time>2016-10-07T06:31:39Z</time>
      </trkpt>
      <trkpt lat="43.41689" lon="6.73463">
        <ele>1</ele>
        <time>2016-10-07T06:31:47Z</time>
      </trkpt>
      <trkpt lat="43.41713" lon="6.73433">
        <ele>1</ele>
        <time>2016-10-07T06:31:53Z</time>
      </trkpt>
      <trkpt lat="43.4173" lon="6.73378">
        <ele>1</ele>
        <time>2016-10-07T06:32:01Z</time>
      </trkpt>
      <trkpt lat="43.41741" lon="6.73311">
        <ele>1</ele>
        <time>2016-10-07T06:32:10Z</time>
      </trkpt>
      <trkpt lat="43.41738" lon="6.73201">
        <ele>1</ele>
        <time>2016-10-07T06:32:25Z</time>
      </trkpt>
      <trkpt lat="43.41731" lon="6.73139">
        <ele>1</ele>
        <time>2016-10-07T06:32:34Z</time>
      </trkpt>
      <trkpt lat="43.41711" lon="6.73026">
        <ele>2</ele>
        <time>2016-10-07T06:32:51Z</time>
      </trkpt>
      <trkpt lat="43.41676" lon="6.72898">
        <ele>3</ele>
        <time>2016-10-07T06:33:11Z</time>
      </trkpt>
      <trkpt lat="43.41654" lon="6.72839">
        <ele>4</ele>
        <time>2016-10-07T06:33:20Z</time>
      </trkpt>
      <trkpt lat="43.4164" lon="6.72823">
        <ele>4</ele>
        <time>2016-10-07T06:33:24Z</time>
      </trkpt>
      <trkpt lat="43.41619" lon="6.72815">
        <ele>5</ele>
        <time>2016-10-07T06:33:29Z</time>
      </trkpt>
      <trkpt lat="43.416" lon="6.72816">
        <ele>5</ele>
        <time>2016-10-07T06:33:34Z</time>
      </trkpt>
      <trkpt lat="43.41514" lon="6.72863">
        <ele>6</ele>
        <time>2016-10-07T06:33:53Z</time>
      </trkpt>
      <trkpt lat="43.41461" lon="6.72945">
        <ele>6</ele>
        <time>2016-10-07T06:34:18Z</time>
      </trkpt>
      <trkpt lat="43.41371" lon="6.73066">
        <ele>4</ele>
        <time>2016-10-07T06:34:38Z</time>
      </trkpt>
      <trkpt lat="43.41334" lon="6.73123">
        <ele>4</ele>
        <time>2016-10-07T06:34:46Z</time>
      </trkpt>
      <trkpt lat="43.41329" lon="6.73159">
        <ele>3</ele>
        <time>2016-10-07T06:34:51Z</time>
      </trkpt>
      <trkpt lat="43.41325" lon="6.7317">
        <ele>3</ele>
        <time>2016-10-07T06:34:53Z</time>
      </trkpt>
      <trkpt lat="43.41305" lon="6.73176">
        <ele>4</ele>
        <time>2016-10-07T06:34:57Z</time>
      </trkpt>
      <trkpt lat="43.4129" lon="6.73185">
        <ele>4</ele>
        <time>2016-10-07T06:35:00Z</time>
      </trkpt>
      <trkpt lat="43.41271" lon="6.73201">
        <ele>4</ele>
        <time>2016-10-07T06:35:06Z</time>
      </trkpt>
      <trkpt lat="43.41219" lon="6.73187">
        <ele>4</ele>
        <time>2016-10-07T06:35:33Z</time>
      </trkpt>
      <trkpt lat="43.41216" lon="6.7318">
        <ele>4</ele>
        <time>2016-10-07T06:35:35Z</time>
      </trkpt>
      <trkpt lat="43.4118" lon="6.73134">
        <ele>3</ele>
        <time>2016-10-07T06:35:49Z</time>
      </trkpt>
      <trkpt lat="43.41175" lon="6.73122">
        <ele>2</ele>
        <time>2016-10-07T06:35:57Z</time>
      </trkpt>
      <trkpt lat="43.41182" lon="6.73112">
        <ele>2</ele>
        <time>2016-10-07T06:36:03Z</time>
      </trkpt>
      <trkpt lat="43.41191" lon="6.7311">
        <ele>2</ele>
        <time>2016-10-07T06:36:07Z</time>
      </trkpt>
      <trkpt lat="43.41203" lon="6.73097">
        <ele>2</ele>
        <time>2016-10-07T06:36:12Z</time>
      </trkpt>
      <trkpt lat="43.41389" lon="6.7285">
        <ele>4</ele>
        <time>2016-10-07T06:36:55Z</time>
      </trkpt>
      <trkpt lat="43.41472" lon="6.72744">
        <ele>5</ele>
        <time>2016-10-07T06:37:14Z</time>
      </trkpt>
      <trkpt lat="43.41484" lon="6.72725">
        <ele>5</ele>
        <time>2016-10-07T06:37:18Z</time>
      </trkpt>
      <trkpt lat="43.41487" lon="6.72694">
        <ele>5</ele>
        <time>2016-10-07T06:37:23Z</time>
      </trkpt>
      <trkpt lat="43.41505" lon="6.72672">
        <ele>5</ele>
        <time>2016-10-07T06:37:28Z</time>
      </trkpt>
      <trkpt lat="43.41513" lon="6.72655">
        <ele>4</ele>
        <time>2016-10-07T06:37:32Z</time>
      </trkpt>
      <trkpt lat="43.4147" lon="6.72632">
        <ele>4</ele>
        <time>2016-10-07T06:37:41Z</time>
      </trkpt>
      <trkpt lat="43.41444" lon="6.72615">
        <ele>4</ele>
        <time>2016-10-07T06:37:47Z</time>
      </trkpt>
      <trkpt lat="43.41432" lon="6.72584">
        <ele>3</ele>
        <time>2016-10-07T06:37:53Z</time>
      </trkpt>
      <trkpt lat="43.41417" lon="6.72569">
        <ele>3</ele>
        <time>2016-10-07T06:37:56Z</time>
      </trkpt>
      <trkpt lat="43.41407" lon="6.72552">
        <ele>3</ele>
        <time>2016-10-07T06:38:02Z</time>
      </trkpt>
      <trkpt lat="43.41402" lon="6.72532">
        <ele>3</ele>
        <time>2016-10-07T06:38:09Z</time>
      </trkpt>
      <trkpt lat="43.41357" lon="6.72467">
        <ele>2</ele>
        <time>2016-10-07T06:38:26Z</time>
      </trkpt>
      <trkpt lat="43.41334" lon="6.72451">
        <ele>2</ele>
        <time>2016-10-07T06:38:32Z</time>
      </trkpt>
      <trkpt lat="43.41325" lon="6.72451">
        <ele>2</ele>
        <time>2016-10-07T06:38:34Z</time>
      </trkpt>
      <trkpt lat="43.41303" lon="6.72457">
        <ele>3</ele>
        <time>2016-10-07T06:38:39Z</time>
      </trkpt>
      <trkpt lat="43.41274" lon="6.72474">
        <ele>3</ele>
        <time>2016-10-07T06:38:46Z</time>
      </trkpt>
      <trkpt lat="43.41223" lon="6.72478">
        <ele>4</ele>
        <time>2016-10-07T06:38:58Z</time>
      </trkpt>
      <trkpt lat="43.41172" lon="6.72456">
        <ele>3</ele>
        <time>2016-10-07T06:39:20Z</time>
      </trkpt>
      <trkpt lat="43.41155" lon="6.72467">
        <ele>3</ele>
        <time>2016-10-07T06:39:27Z</time>
      </trkpt>
      <trkpt lat="43.41112" lon="6.72451">
        <ele>3</ele>
        <time>2016-10-07T06:39:37Z</time>
      </trkpt>
      <trkpt lat="43.41106" lon="6.72446">
        <ele>3</ele>
        <time>2016-10-07T06:39:39Z</time>
      </trkpt>
      <trkpt lat="43.411" lon="6.72431">
        <ele>3</ele>
        <time>2016-10-07T06:39:44Z</time>
      </trkpt>
      <trkpt lat="43.41096" lon="6.72438">
        <ele>3</ele>
        <time>2016-10-07T06:39:46Z</time>
      </trkpt>
      <trkpt lat="43.41075" lon="6.7244">
        <ele>3</ele>
        <time>2016-10-07T06:39:53Z</time>
      </trkpt>
      <trkpt lat="43.4105" lon="6.72433">
        <ele>3</ele>
        <time>2016-10-07T06:39:59Z</time>
      </trkpt>
      <trkpt lat="43.41045" lon="6.72426">
        <ele>3</ele>
        <time>2016-10-07T06:40:00Z</time>
      </trkpt>
      <trkpt lat="43.41017" lon="6.72415">
        <ele>3</ele>
        <time>2016-10-07T06:40:04Z</time>
      </trkpt>
      <trkpt lat="43.40953" lon="6.72415">
        <ele>3</ele>
        <time>2016-10-07T06:40:13Z</time>
      </trkpt>
      <trkpt lat="43.40916" lon="6.72425">
        <ele>3</ele>
        <time>2016-10-07T06:40:19Z</time>
      </trkpt>
      <trkpt lat="43.40908" lon="6.72411">
        <ele>3</ele>
        <time>2016-10-07T06:40:21Z</time>
      </trkpt>
      <trkpt lat="43.409" lon="6.72367">
        <ele>2</ele>
        <time>2016-10-07T06:40:26Z</time>
      </trkpt>
      <trkpt lat="43.40883" lon="6.72349">
        <ele>2</ele>
        <time>2016-10-07T06:40:29Z</time>
      </trkpt>
      <trkpt lat="43.40853" lon="6.72335">
        <ele>2</ele>
        <time>2016-10-07T06:40:33Z</time>
      </trkpt>
      <trkpt lat="43.40823" lon="6.72335">
        <ele>2</ele>
        <time>2016-10-07T06:40:37Z</time>
      </trkpt>
      <trkpt lat="43.40747" lon="6.72302">
        <ele>1</ele>
        <time>2016-10-07T06:40:48Z</time>
      </trkpt>
      <trkpt lat="43.40735" lon="6.72292">
        <ele>1</ele>
        <time>2016-10-07T06:40:50Z</time>
      </trkpt>
      <trkpt lat="43.40727" lon="6.72279">
        <ele>1</ele>
        <time>2016-10-07T06:40:52Z</time>
      </trkpt>
      <trkpt lat="43.40729" lon="6.72252">
        <ele>1</ele>
        <time>2016-10-07T06:40:55Z</time>
      </trkpt>
      <trkpt lat="43.40784" lon="6.72131">
        <ele>2</ele>
        <time>2016-10-07T06:41:09Z</time>
      </trkpt>
      <trkpt lat="43.40787" lon="6.72122">
        <ele>2</ele>
        <time>2016-10-07T06:41:10Z</time>
      </trkpt>
      <trkpt lat="43.4079" lon="6.72044">
        <ele>2</ele>
        <time>2016-10-07T06:41:18Z</time>
      </trkpt>
      <trkpt lat="43.40803" lon="6.7198">
        <ele>1</ele>
        <time>2016-10-07T06:41:25Z</time>
      </trkpt>
      <trkpt lat="43.40834" lon="6.71896">
        <ele>1</ele>
        <time>2016-10-07T06:41:34Z</time>
      </trkpt>
      <trkpt lat="43.40864" lon="6.71827">
        <ele>1</ele>
        <time>2016-10-07T06:41:42Z</time>
      </trkpt>
      <trkpt lat="43.40893" lon="6.71782">
        <ele>2</ele>
        <time>2016-10-07T06:41:48Z</time>
      </trkpt>
      <trkpt lat="43.40896" lon="6.71773">
        <ele>2</ele>
        <time>2016-10-07T06:41:49Z</time>
      </trkpt>
      <trkpt lat="43.40902" lon="6.71734">
        <ele>2</ele>
        <time>2016-10-07T06:41:53Z</time>
      </trkpt>
      <trkpt lat="43.40915" lon="6.71679">
        <ele>2</ele>
        <time>2016-10-07T06:41:59Z</time>
      </trkpt>
      <trkpt lat="43.40943" lon="6.71525">
        <ele>2</ele>
        <time>2016-10-07T06:42:16Z</time>
      </trkpt>
      <trkpt lat="43.40942" lon="6.71509">
        <ele>2</ele>
        <time>2016-10-07T06:42:18Z</time>
      </trkpt>
      <trkpt lat="43.40933" lon="6.71488">
        <ele>2</ele>
        <time>2016-10-07T06:42:22Z</time>
      </trkpt>
      <trkpt lat="43.40933" lon="6.71481">
        <ele>2</ele>
        <time>2016-10-07T06:42:25Z</time>
      </trkpt>
      <trkpt lat="43.40948" lon="6.71444">
        <ele>3</ele>
        <time>2016-10-07T06:42:35Z</time>
      </trkpt>
      <trkpt lat="43.40957" lon="6.7143">
        <ele>3</ele>
        <time>2016-10-07T06:42:40Z</time>
      </trkpt>
      <trkpt lat="43.40965" lon="6.71433">
        <ele>2</ele>
        <time>2016-10-07T06:42:42Z</time>
      </trkpt>
      <trkpt lat="43.40971" lon="6.71412">
        <ele>2</ele>
        <time>2016-10-07T06:42:48Z</time>
      </trkpt>
      <trkpt lat="43.40993" lon="6.71391">
        <ele>2</ele>
        <time>2016-10-07T06:42:54Z</time>
      </trkpt>
      <trkpt lat="43.41022" lon="6.71376">
        <ele>2</ele>
        <time>2016-10-07T06:42:59Z</time>
      </trkpt>
      <trkpt lat="43.41099" lon="6.71261">
        <ele>2</ele>
        <time>2016-10-07T06:43:16Z</time>
      </trkpt>
      <trkpt lat="43.41098" lon="6.71242">
        <ele>3</ele>
        <time>2016-10-07T06:43:18Z</time>
      </trkpt>
      <trkpt lat="43.41068" lon="6.71136">
        <ele>3</ele>
        <time>2016-10-07T06:43:31Z</time>
      </trkpt>
      <trkpt lat="43.41038" lon="6.71046">
        <ele>3</ele>
        <time>2016-10-07T06:43:42Z</time>
      </trkpt>
      <trkpt lat="43.41008" lon="6.70913">
        <ele>4</ele>
        <time>2016-10-07T06:43:59Z</time>
      </trkpt>
      <trkpt lat="43.40997" lon="6.70875">
        <ele>4</ele>
        <time>2016-10-07T06:44:04Z</time>
      </trkpt>
      <trkpt lat="43.40972" lon="6.70854">
        <ele>4</ele>
        <time>2016-10-07T06:44:09Z</time>
      </trkpt>
      <trkpt lat="43.40969" lon="6.7083">
        <ele>6</ele>
        <time>2016-10-07T06:44:12Z</time>
      </trkpt>
      <trkpt lat="43.4098" lon="6.70811">
        <ele>6</ele>
        <time>2016-10-07T06:44:16Z</time>
      </trkpt>
      <trkpt lat="43.41056" lon="6.70776">
        <ele>9</ele>
        <time>2016-10-07T06:44:30Z</time>
      </trkpt>
      <trkpt lat="43.41067" lon="6.70783">
        <ele>8</ele>
        <time>2016-10-07T06:44:32Z</time>
      </trkpt>
      <trkpt lat="43.41109" lon="6.70793">
        <ele>7</ele>
        <time>2016-10-07T06:44:38Z</time>
      </trkpt>
      <trkpt lat="43.41144" lon="6.7079">
        <ele>6</ele>
        <time>2016-10-07T06:44:43Z</time>
      </trkpt>
      <trkpt lat="43.41161" lon="6.70775">
        <ele>6</ele>
        <time>2016-10-07T06:44:46Z</time>
      </trkpt>
      <trkpt lat="43.41208" lon="6.7067">
        <ele>8</ele>
        <time>2016-10-07T06:44:59Z</time>
      </trkpt>
      <trkpt lat="43.41218" lon="6.70631">
        <ele>12</ele>
        <time>2016-10-07T06:45:04Z</time>
      </trkpt>
      <trkpt lat="43.41236" lon="6.70579">
        <ele>11</ele>
        <time>2016-10-07T06:45:10Z</time>
      </trkpt>
      <trkpt lat="43.41316" lon="6.70391">
        <ele>13</ele>
        <time>2016-10-07T06:45:38Z</time>
      </trkpt>
      <trkpt lat="43.41328" lon="6.70348">
        <ele>13</ele>
        <time>2016-10-07T06:45:44Z</time>
      </trkpt>
      <trkpt lat="43.4133" lon="6.703">
        <ele>18</ele>
        <time>2016-10-07T06:45:49Z</time>
      </trkpt>
      <trkpt lat="43.41322" lon="6.70236">
        <ele>17</ele>
        <time>2016-10-07T06:45:56Z</time>
      </trkpt>
      <trkpt lat="43.41309" lon="6.7018">
        <ele>17</ele>
        <time>2016-10-07T06:46:06Z</time>
      </trkpt>
      <trkpt lat="43.41297" lon="6.70152">
        <ele>16</ele>
        <time>2016-10-07T06:46:20Z</time>
      </trkpt>
      <trkpt lat="43.41288" lon="6.70141">
        <ele>18</ele>
        <time>2016-10-07T06:46:29Z</time>
      </trkpt>
      <trkpt lat="43.41275" lon="6.7008">
        <ele>19</ele>
        <time>2016-10-07T06:46:49Z</time>
      </trkpt>
      <trkpt lat="43.41277" lon="6.70056">
        <ele>18</ele>
        <time>2016-10-07T06:46:56Z</time>
      </trkpt>
      <trkpt lat="43.41274" lon="6.70028">
        <ele>18</ele>
        <time>2016-10-07T06:46:59Z</time>
      </trkpt>
      <trkpt lat="43.41246" lon="6.69886">
        <ele>22</ele>
        <time>2016-10-07T06:47:15Z</time>
      </trkpt>
      <trkpt lat="43.41231" lon="6.69847">
        <ele>19</ele>
        <time>2016-10-07T06:47:20Z</time>
      </trkpt>
      <trkpt lat="43.41208" lon="6.69807">
        <ele>16</ele>
        <time>2016-10-07T06:47:26Z</time>
      </trkpt>
      <trkpt lat="43.41194" lon="6.69754">
        <ele>15</ele>
        <time>2016-10-07T06:47:33Z</time>
      </trkpt>
      <trkpt lat="43.41172" lon="6.69705">
        <ele>9</ele>
        <time>2016-10-07T06:47:40Z</time>
      </trkpt>
      <trkpt lat="43.41149" lon="6.6968">
        <ele>9</ele>
        <time>2016-10-07T06:47:46Z</time>
      </trkpt>
      <trkpt lat="43.41137" lon="6.69683">
        <ele>10</ele>
        <time>2016-10-07T06:47:48Z</time>
      </trkpt>
      <trkpt lat="43.41114" lon="6.69753">
        <ele>17</ele>
        <time>2016-10-07T06:48:00Z</time>
      </trkpt>
      <trkpt lat="43.41091" lon="6.69788">
        <ele>18</ele>
        <time>2016-10-07T06:48:12Z</time>
      </trkpt>
      <trkpt lat="43.4107" lon="6.69839">
        <ele>21</ele>
        <time>2016-10-07T06:48:25Z</time>
      </trkpt>
      <trkpt lat="43.41059" lon="6.6987">
        <ele>23</ele>
        <time>2016-10-07T06:48:33Z</time>
      </trkpt>
      <trkpt lat="43.41046" lon="6.69887">
        <ele>23</ele>
        <time>2016-10-07T06:48:40Z</time>
      </trkpt>
      <trkpt lat="43.41043" lon="6.699">
        <ele>24</ele>
        <time>2016-10-07T06:48:44Z</time>
      </trkpt>
      <trkpt lat="43.41048" lon="6.69909">
        <ele>25</ele>
        <time>2016-10-07T06:48:47Z</time>
      </trkpt>
      <trkpt lat="43.41051" lon="6.69918">
        <ele>32</ele>
        <time>2016-10-07T06:48:50Z</time>
      </trkpt>
      <trkpt lat="43.4103" lon="6.69964">
        <ele>34</ele>
        <time>2016-10-07T06:49:08Z</time>
      </trkpt>
      <trkpt lat="43.41028" lon="6.69975">
        <ele>35</ele>
        <time>2016-10-07T06:49:12Z</time>
      </trkpt>
      <trkpt lat="43.41034" lon="6.70032">
        <ele>44</ele>
        <time>2016-10-07T06:49:40Z</time>
      </trkpt>
      <trkpt lat="43.41041" lon="6.70064">
        <ele>45</ele>
        <time>2016-10-07T06:49:53Z</time>
      </trkpt>
      <trkpt lat="43.41046" lon="6.70073">
        <ele>46</ele>
        <time>2016-10-07T06:49:57Z</time>
      </trkpt>
      <trkpt lat="43.4105" lon="6.70097">
        <ele>50</ele>
        <time>2016-10-07T06:50:09Z</time>
      </trkpt>
      <trkpt lat="43.4105" lon="6.70103">
        <ele>51</ele>
        <time>2016-10-07T06:50:13Z</time>
      </trkpt>
      <trkpt lat="43.41036" lon="6.70128">
        <ele>51</ele>
        <time>2016-10-07T06:50:29Z</time>
      </trkpt>
      <trkpt lat="43.41028" lon="6.70128">
        <ele>51</ele>
        <time>2016-10-07T06:50:34Z</time>
      </trkpt>
      <trkpt lat="43.41015" lon="6.70136">
        <ele>51</ele>
        <time>2016-10-07T06:50:43Z</time>
      </trkpt>
      <trkpt lat="43.41011" lon="6.70155">
        <ele>52</ele>
        <time>2016-10-07T06:50:51Z</time>
      </trkpt>
      <trkpt lat="43.41005" lon="6.70159">
        <ele>52</ele>
        <time>2016-10-07T06:50:54Z</time>
      </trkpt>
      <trkpt lat="43.4098" lon="6.70139">
        <ele>53</ele>
        <time>2016-10-07T06:51:00Z</time>
      </trkpt>
      <trkpt lat="43.40969" lon="6.70138">
        <ele>53</ele>
        <time>2016-10-07T06:51:03Z</time>
      </trkpt>
      <trkpt lat="43.40961" lon="6.70149">
        <ele>53</ele>
        <time>2016-10-07T06:51:09Z</time>
      </trkpt>
      <trkpt lat="43.40956" lon="6.70152">
        <ele>54</ele>
        <time>2016-10-07T06:51:12Z</time>
      </trkpt>
      <trkpt lat="43.4095" lon="6.70162">
        <ele>54</ele>
        <time>2016-10-07T06:51:17Z</time>
      </trkpt>
      <trkpt lat="43.40934" lon="6.70177">
        <ele>57</ele>
        <time>2016-10-07T06:51:26Z</time>
      </trkpt>
      <trkpt lat="43.40917" lon="6.70174">
        <ele>58</ele>
        <time>2016-10-07T06:51:31Z</time>
      </trkpt>
      <trkpt lat="43.40893" lon="6.70182">
        <ele>57</ele>
        <time>2016-10-07T06:51:37Z</time>
      </trkpt>
      <trkpt lat="43.40877" lon="6.70222">
        <ele>56</ele>
        <time>2016-10-07T06:51:44Z</time>
      </trkpt>
      <trkpt lat="43.40856" lon="6.70231">
        <ele>56</ele>
        <time>2016-10-07T06:51:48Z</time>
      </trkpt>
      <trkpt lat="43.40847" lon="6.70244">
        <ele>56</ele>
        <time>2016-10-07T06:51:50Z</time>
      </trkpt>
      <trkpt lat="43.40811" lon="6.70248">
        <ele>55</ele>
        <time>2016-10-07T06:51:55Z</time>
      </trkpt>
      <trkpt lat="43.40769" lon="6.70224">
        <ele>56</ele>
        <time>2016-10-07T06:52:03Z</time>
      </trkpt>
      <trkpt lat="43.40754" lon="6.70205">
        <ele>56</ele>
        <time>2016-10-07T06:52:07Z</time>
      </trkpt>
      <trkpt lat="43.40715" lon="6.70181">
        <ele>59</ele>
        <time>2016-10-07T06:52:21Z</time>
      </trkpt>
      <trkpt lat="43.40686" lon="6.70159">
        <ele>62</ele>
        <time>2016-10-07T06:52:32Z</time>
      </trkpt>
      <trkpt lat="43.40647" lon="6.70147">
        <ele>65</ele>
        <time>2016-10-07T06:52:44Z</time>
      </trkpt>
      <trkpt lat="43.40577" lon="6.70112">
        <ele>65</ele>
        <time>2016-10-07T06:52:58Z</time>
      </trkpt>
      <trkpt lat="43.40563" lon="6.70112">
        <ele>66</ele>
        <time>2016-10-07T06:53:00Z</time>
      </trkpt>
      <trkpt lat="43.40502" lon="6.70101">
        <ele>67</ele>
        <time>2016-10-07T06:53:11Z</time>
      </trkpt>
      <trkpt lat="43.40463" lon="6.70107">
        <ele>70</ele>
        <time>2016-10-07T06:53:25Z</time>
      </trkpt>
      <trkpt lat="43.40396" lon="6.70071">
        <ele>77</ele>
        <time>2016-10-07T06:53:55Z</time>
      </trkpt>
      <trkpt lat="43.4036" lon="6.70055">
        <ele>77</ele>
        <time>2016-10-07T06:54:06Z</time>
      </trkpt>
      <trkpt lat="43.40334" lon="6.70037">
        <ele>77</ele>
        <time>2016-10-07T06:54:13Z</time>
      </trkpt>
      <trkpt lat="43.40299" lon="6.70008">
        <ele>77</ele>
        <time>2016-10-07T06:54:22Z</time>
      </trkpt>
      <trkpt lat="43.40269" lon="6.69971">
        <ele>76</ele>
        <time>2016-10-07T06:54:29Z</time>
      </trkpt>
      <trkpt lat="43.40233" lon="6.69944">
        <ele>71</ele>
        <time>2016-10-07T06:54:35Z</time>
      </trkpt>
      <trkpt lat="43.40217" lon="6.69941">
        <ele>70</ele>
        <time>2016-10-07T06:54:37Z</time>
      </trkpt>
      <trkpt lat="43.4021" lon="6.69944">
        <ele>69</ele>
        <time>2016-10-07T06:54:38Z</time>
      </trkpt>
      <trkpt lat="43.40181" lon="6.69973">
        <ele>67</ele>
        <time>2016-10-07T06:54:42Z</time>
      </trkpt>
      <trkpt lat="43.40118" lon="6.70047">
        <ele>64</ele>
        <time>2016-10-07T06:54:50Z</time>
      </trkpt>
      <trkpt lat="43.40085" lon="6.70108">
        <ele>68</ele>
        <time>2016-10-07T06:55:03Z</time>
      </trkpt>
      <trkpt lat="43.40071" lon="6.70125">
        <ele>77</ele>
        <time>2016-10-07T06:55:13Z</time>
      </trkpt>
      <trkpt lat="43.40064" lon="6.70129">
        <ele>78</ele>
        <time>2016-10-07T06:55:18Z</time>
      </trkpt>
      <trkpt lat="43.40019" lon="6.70105">
        <ele>80</ele>
        <time>2016-10-07T06:55:42Z</time>
      </trkpt>
      <trkpt lat="43.40008" lon="6.70103">
        <ele>80</ele>
        <time>2016-10-07T06:55:49Z</time>
      </trkpt>
      <trkpt lat="43.39989" lon="6.70107">
        <ele>87</ele>
        <time>2016-10-07T06:55:59Z</time>
      </trkpt>
      <trkpt lat="43.3995" lon="6.70124">
        <ele>91</ele>
        <time>2016-10-07T06:56:22Z</time>
      </trkpt>
      <trkpt lat="43.39911" lon="6.70137">
        <ele>96</ele>
        <time>2016-10-07T06:56:48Z</time>
      </trkpt>
      <trkpt lat="43.39895" lon="6.70146">
        <ele>96</ele>
        <time>2016-10-07T06:56:57Z</time>
      </trkpt>
      <trkpt lat="43.39877" lon="6.70161">
        <ele>96</ele>
        <time>2016-10-07T06:57:06Z</time>
      </trkpt>
      <trkpt lat="43.39872" lon="6.70169">
        <ele>101</ele>
        <time>2016-10-07T06:57:09Z</time>
      </trkpt>
      <trkpt lat="43.39854" lon="6.70186">
        <ele>101</ele>
        <time>2016-10-07T06:57:16Z</time>
      </trkpt>
      <trkpt lat="43.39842" lon="6.70187">
        <ele>101</ele>
        <time>2016-10-07T06:57:19Z</time>
      </trkpt>
      <trkpt lat="43.39732" lon="6.70173">
        <ele>100</ele>
        <time>2016-10-07T06:57:41Z</time>
      </trkpt>
      <trkpt lat="43.39688" lon="6.70153">
        <ele>99</ele>
        <time>2016-10-07T06:57:48Z</time>
      </trkpt>
      <trkpt lat="43.39654" lon="6.7012">
        <ele>103</ele>
        <time>2016-10-07T06:57:57Z</time>
      </trkpt>
      <trkpt lat="43.39646" lon="6.70109">
        <ele>103</ele>
        <time>2016-10-07T06:58:01Z</time>
      </trkpt>
      <trkpt lat="43.39631" lon="6.70077">
        <ele>99</ele>
        <time>2016-10-07T06:58:12Z</time>
      </trkpt>
      <trkpt lat="43.39625" lon="6.70069">
        <ele>100</ele>
        <time>2016-10-07T06:58:15Z</time>
      </trkpt>
      <trkpt lat="43.39614" lon="6.70062">
        <ele>100</ele>
        <time>2016-10-07T06:58:19Z</time>
      </trkpt>
      <trkpt lat="43.39605" lon="6.70061">
        <ele>101</ele>
        <time>2016-10-07T06:58:22Z</time>
      </trkpt>
      <trkpt lat="43.39584" lon="6.70068">
        <ele>104</ele>
        <time>2016-10-07T06:58:28Z</time>
      </trkpt>
      <trkpt lat="43.39522" lon="6.70102">
        <ele>105</ele>
        <time>2016-10-07T06:58:39Z</time>
      </trkpt>
      <trkpt lat="43.39501" lon="6.70107">
        <ele>105</ele>
        <time>2016-10-07T06:58:42Z</time>
      </trkpt>
      <trkpt lat="43.3947" lon="6.70108">
        <ele>102</ele>
        <time>2016-10-07T06:58:47Z</time>
      </trkpt>
      <trkpt lat="43.39404" lon="6.70094">
        <ele>101</ele>
        <time>2016-10-07T06:58:56Z</time>
      </trkpt>
      <trkpt lat="43.39371" lon="6.70077">
        <ele>99</ele>
        <time>2016-10-07T06:59:01Z</time>
      </trkpt>
      <trkpt lat="43.39257" lon="6.6994">
        <ele>98</ele>
        <time>2016-10-07T06:59:28Z</time>
      </trkpt>
      <trkpt lat="43.39221" lon="6.69924">
        <ele>98</ele>
        <time>2016-10-07T06:59:35Z</time>
      </trkpt>
      <trkpt lat="43.39181" lon="6.69871">
        <ele>102</ele>
        <time>2016-10-07T06:59:43Z</time>
      </trkpt>
      <trkpt lat="43.39139" lon="6.69843">
        <ele>105</ele>
        <time>2016-10-07T07:00:01Z</time>
      </trkpt>
      <trkpt lat="43.39131" lon="6.69823">
        <ele>110</ele>
        <time>2016-10-07T07:00:09Z</time>
      </trkpt>
      <trkpt lat="43.39129" lon="6.69805">
        <ele>110</ele>
        <time>2016-10-07T07:00:14Z</time>
      </trkpt>
      <trkpt lat="43.39129" lon="6.69725">
        <ele>119</ele>
        <time>2016-10-07T07:00:42Z</time>
      </trkpt>
      <trkpt lat="43.39126" lon="6.69706">
        <ele>120</ele>
        <time>2016-10-07T07:00:50Z</time>
      </trkpt>
      <trkpt lat="43.39111" lon="6.69657">
        <ele>128</ele>
        <time>2016-10-07T07:01:12Z</time>
      </trkpt>
      <trkpt lat="43.39099" lon="6.69587">
        <ele>134</ele>
        <time>2016-10-07T07:01:42Z</time>
      </trkpt>
      <trkpt lat="43.39088" lon="6.69554">
        <ele>139</ele>
        <time>2016-10-07T07:02:00Z</time>
      </trkpt>
      <trkpt lat="43.39071" lon="6.69529">
        <ele>142</ele>
        <time>2016-10-07T07:02:16Z</time>
      </trkpt>
      <trkpt lat="43.3903" lon="6.69498">
        <ele>150</ele>
        <time>2016-10-07T07:02:44Z</time>
      </trkpt>
      <trkpt lat="43.39014" lon="6.69481">
        <ele>151</ele>
        <time>2016-10-07T07:02:55Z</time>
      </trkpt>
      <trkpt lat="43.39" lon="6.69473">
        <ele>152</ele>
        <time>2016-10-07T07:03:04Z</time>
      </trkpt>
      <trkpt lat="43.38971" lon="6.69445">
        <ele>153</ele>
        <time>2016-10-07T07:03:24Z</time>
      </trkpt>
      <trkpt lat="43.38955" lon="6.69403">
        <ele>163</ele>
        <time>2016-10-07T07:03:47Z</time>
      </trkpt>
      <trkpt lat="43.38946" lon="6.69373">
        <ele>166</ele>
        <time>2016-10-07T07:04:01Z</time>
      </trkpt>
      <trkpt lat="43.3893" lon="6.69333">
        <ele>176</ele>
        <time>2016-10-07T07:04:25Z</time>
      </trkpt>
      <trkpt lat="43.38913" lon="6.69305">
        <ele>182</ele>
        <time>2016-10-07T07:04:44Z</time>
      </trkpt>
      <trkpt lat="43.38844" lon="6.69272">
        <ele>188</ele>
        <time>2016-10-07T07:05:32Z</time>
      </trkpt>
      <trkpt lat="43.38824" lon="6.69256">
        <ele>190</ele>
        <time>2016-10-07T07:05:48Z</time>
      </trkpt>
      <trkpt lat="43.38791" lon="6.69209">
        <ele>201</ele>
        <time>2016-10-07T07:06:18Z</time>
      </trkpt>
      <trkpt lat="43.38741" lon="6.69156">
        <ele>210</ele>
        <time>2016-10-07T07:06:49Z</time>
      </trkpt>
      <trkpt lat="43.38718" lon="6.69139">
        <ele>209</ele>
        <time>2016-10-07T07:06:58Z</time>
      </trkpt>
      <trkpt lat="43.38715" lon="6.69128">
        <ele>210</ele>
        <time>2016-10-07T07:07:01Z</time>
      </trkpt>
      <trkpt lat="43.38717" lon="6.69118">
        <ele>211</ele>
        <time>2016-10-07T07:07:08Z</time>
      </trkpt>
      <trkpt lat="43.38736" lon="6.69103">
        <ele>214</ele>
        <time>2016-10-07T07:07:25Z</time>
      </trkpt>
      <trkpt lat="43.38749" lon="6.69103">
        <ele>215</ele>
        <time>2016-10-07T07:07:32Z</time>
      </trkpt>
      <trkpt lat="43.38775" lon="6.69121">
        <ele>217</ele>
        <time>2016-10-07T07:07:45Z</time>
      </trkpt>
      <trkpt lat="43.3879" lon="6.69125">
        <ele>217</ele>
        <time>2016-10-07T07:07:51Z</time>
      </trkpt>
      <trkpt lat="43.38815" lon="6.69142">
        <ele>216</ele>
        <time>2016-10-07T07:07:59Z</time>
      </trkpt>
      <trkpt lat="43.38861" lon="6.69104">
        <ele>213</ele>
        <time>2016-10-07T07:08:10Z</time>
      </trkpt>
      <trkpt lat="43.38881" lon="6.69091">
        <ele>211</ele>
        <time>2016-10-07T07:08:13Z</time>
      </trkpt>
      <trkpt lat="43.38917" lon="6.69059">
        <ele>214</ele>
        <time>2016-10-07T07:08:19Z</time>
      </trkpt>
      <trkpt lat="43.38934" lon="6.6905">
        <ele>206</ele>
        <time>2016-10-07T07:08:21Z</time>
      </trkpt>
      <trkpt lat="43.39019" lon="6.69026">
        <ele>188</ele>
        <time>2016-10-07T07:08:31Z</time>
      </trkpt>
      <trkpt lat="43.39049" lon="6.69012">
        <ele>183</ele>
        <time>2016-10-07T07:08:35Z</time>
      </trkpt>
      <trkpt lat="43.39072" lon="6.68996">
        <ele>183</ele>
        <time>2016-10-07T07:08:39Z</time>
      </trkpt>
      <trkpt lat="43.39088" lon="6.68989">
        <ele>174</ele>
        <time>2016-10-07T07:08:42Z</time>
      </trkpt>
      <trkpt lat="43.39098" lon="6.68981">
        <ele>172</ele>
        <time>2016-10-07T07:08:44Z</time>
      </trkpt>
      <trkpt lat="43.39114" lon="6.68949">
        <ele>169</ele>
        <time>2016-10-07T07:08:48Z</time>
      </trkpt>
      <trkpt lat="43.39125" lon="6.68943">
        <ele>168</ele>
        <time>2016-10-07T07:08:50Z</time>
      </trkpt>
      <trkpt lat="43.39145" lon="6.68947">
        <ele>166</ele>
        <time>2016-10-07T07:08:54Z</time>
      </trkpt>
      <trkpt lat="43.3919" lon="6.68916">
        <ele>153</ele>
        <time>2016-10-07T07:09:01Z</time>
      </trkpt>
      <trkpt lat="43.39243" lon="6.68914">
        <ele>149</ele>
        <time>2016-10-07T07:09:07Z</time>
      </trkpt>
      <trkpt lat="43.39276" lon="6.68919">
        <ele>139</ele>
        <time>2016-10-07T07:09:12Z</time>
      </trkpt>
      <trkpt lat="43.39295" lon="6.68911">
        <ele>141</ele>
        <time>2016-10-07T07:09:15Z</time>
      </trkpt>
      <trkpt lat="43.39338" lon="6.68882">
        <ele>134</ele>
        <time>2016-10-07T07:09:21Z</time>
      </trkpt>
      <trkpt lat="43.39349" lon="6.68883">
        <ele>133</ele>
        <time>2016-10-07T07:09:23Z</time>
      </trkpt>
      <trkpt lat="43.39395" lon="6.68904">
        <ele>129</ele>
        <time>2016-10-07T07:09:29Z</time>
      </trkpt>
      <trkpt lat="43.39426" lon="6.68924">
        <ele>117</ele>
        <time>2016-10-07T07:09:33Z</time>
      </trkpt>
      <trkpt lat="43.39442" lon="6.68927">
        <ele>112</ele>
        <time>2016-10-07T07:09:35Z</time>
      </trkpt>
      <trkpt lat="43.39448" lon="6.68924">
        <ele>111</ele>
        <time>2016-10-07T07:09:36Z</time>
      </trkpt>
      <trkpt lat="43.39481" lon="6.68896">
        <ele>115</ele>
        <time>2016-10-07T07:09:41Z</time>
      </trkpt>
      <trkpt lat="43.3951" lon="6.68875">
        <ele>105</ele>
        <time>2016-10-07T07:09:45Z</time>
      </trkpt>
      <trkpt lat="43.3952" lon="6.68862">
        <ele>105</ele>
        <time>2016-10-07T07:09:47Z</time>
      </trkpt>
      <trkpt lat="43.39537" lon="6.68826">
        <ele>102</ele>
        <time>2016-10-07T07:09:52Z</time>
      </trkpt>
      <trkpt lat="43.39535" lon="6.68816">
        <ele>102</ele>
        <time>2016-10-07T07:09:54Z</time>
      </trkpt>
      <trkpt lat="43.39519" lon="6.68787">
        <ele>102</ele>
        <time>2016-10-07T07:09:59Z</time>
      </trkpt>
      <trkpt lat="43.39481" lon="6.68746">
        <ele>102</ele>
        <time>2016-10-07T07:10:06Z</time>
      </trkpt>
      <trkpt lat="43.39471" lon="6.68729">
        <ele>102</ele>
        <time>2016-10-07T07:10:08Z</time>
      </trkpt>
      <trkpt lat="43.39458" lon="6.68684">
        <ele>100</ele>
        <time>2016-10-07T07:10:13Z</time>
      </trkpt>
      <trkpt lat="43.39461" lon="6.68645">
        <ele>93</ele>
        <time>2016-10-07T07:10:17Z</time>
      </trkpt>
      <trkpt lat="43.39477" lon="6.68552">
        <ele>87</ele>
        <time>2016-10-07T07:10:25Z</time>
      </trkpt>
      <trkpt lat="43.39476" lon="6.68536">
        <ele>87</ele>
        <time>2016-10-07T07:10:27Z</time>
      </trkpt>
      <trkpt lat="43.39469" lon="6.68524">
        <ele>87</ele>
        <time>2016-10-07T07:10:29Z</time>
      </trkpt>
      <trkpt lat="43.39464" lon="6.68518">
        <ele>87</ele>
        <time>2016-10-07T07:10:30Z</time>
      </trkpt>
      <trkpt lat="43.39445" lon="6.68515">
        <ele>86</ele>
        <time>2016-10-07T07:10:33Z</time>
      </trkpt>
      <trkpt lat="43.39433" lon="6.68505">
        <ele>86</ele>
        <time>2016-10-07T07:10:35Z</time>
      </trkpt>
      <trkpt lat="43.39406" lon="6.68472">
        <ele>83</ele>
        <time>2016-10-07T07:10:39Z</time>
      </trkpt>
      <trkpt lat="43.3938" lon="6.68426">
        <ele>81</ele>
        <time>2016-10-07T07:10:44Z</time>
      </trkpt>
      <trkpt lat="43.39366" lon="6.68412">
        <ele>77</ele>
        <time>2016-10-07T07:10:47Z</time>
      </trkpt>
      <trkpt lat="43.39359" lon="6.68389">
        <ele>76</ele>
        <time>2016-10-07T07:10:50Z</time>
      </trkpt>
      <trkpt lat="43.39355" lon="6.68366">
        <ele>75</ele>
        <time>2016-10-07T07:10:53Z</time>
      </trkpt>
      <trkpt lat="43.39344" lon="6.68338">
        <ele>72</ele>
        <time>2016-10-07T07:10:57Z</time>
      </trkpt>
      <trkpt lat="43.39336" lon="6.68333">
        <ele>69</ele>
        <time>2016-10-07T07:10:59Z</time>
      </trkpt>
      <trkpt lat="43.39327" lon="6.68339">
        <ele>71</ele>
        <time>2016-10-07T07:11:02Z</time>
      </trkpt>
      <trkpt lat="43.39312" lon="6.68335">
        <ele>73</ele>
        <time>2016-10-07T07:11:06Z</time>
      </trkpt>
      <trkpt lat="43.39306" lon="6.68326">
        <ele>73</ele>
        <time>2016-10-07T07:11:08Z</time>
      </trkpt>
      <trkpt lat="43.39315" lon="6.68299">
        <ele>73</ele>
        <time>2016-10-07T07:11:13Z</time>
      </trkpt>
      <trkpt lat="43.39315" lon="6.6828">
        <ele>73</ele>
        <time>2016-10-07T07:11:17Z</time>
      </trkpt>
      <trkpt lat="43.39311" lon="6.68269">
        <ele>73</ele>
        <time>2016-10-07T07:11:22Z</time>
      </trkpt>
      <trkpt lat="43.39305" lon="6.68262">
        <ele>73</ele>
        <time>2016-10-07T07:11:26Z</time>
      </trkpt>
      <trkpt lat="43.39273" lon="6.68237">
        <ele>76</ele>
        <time>2016-10-07T07:11:47Z</time>
      </trkpt>
      <trkpt lat="43.3927" lon="6.68209">
        <ele>75</ele>
        <time>2016-10-07T07:11:55Z</time>
      </trkpt>
      <trkpt lat="43.39277" lon="6.6818">
        <ele>75</ele>
        <time>2016-10-07T07:12:00Z</time>
      </trkpt>
      <trkpt lat="43.39294" lon="6.68143">
        <ele>74</ele>
        <time>2016-10-07T07:12:09Z</time>
      </trkpt>
      <trkpt lat="43.39321" lon="6.68105">
        <ele>75</ele>
        <time>2016-10-07T07:12:21Z</time>
      </trkpt>
      <trkpt lat="43.39328" lon="6.68084">
        <ele>76</ele>
        <time>2016-10-07T07:12:30Z</time>
      </trkpt>
      <trkpt lat="43.39325" lon="6.68071">
        <ele>75</ele>
        <time>2016-10-07T07:12:34Z</time>
      </trkpt>
      <trkpt lat="43.39326" lon="6.68036">
        <ele>74</ele>
        <time>2016-10-07T07:12:43Z</time>
      </trkpt>
      <trkpt lat="43.39335" lon="6.68006">
        <ele>75</ele>
        <time>2016-10-07T07:12:50Z</time>
      </trkpt>
      <trkpt lat="43.39335" lon="6.67988">
        <ele>72</ele>
        <time>2016-10-07T07:12:53Z</time>
      </trkpt>
      <trkpt lat="43.39331" lon="6.67967">
        <ele>69</ele>
        <time>2016-10-07T07:12:57Z</time>
      </trkpt>
      <trkpt lat="43.39321" lon="6.67948">
        <ele>67</ele>
        <time>2016-10-07T07:13:02Z</time>
      </trkpt>
      <trkpt lat="43.39311" lon="6.67897">
        <ele>59</ele>
        <time>2016-10-07T07:13:19Z</time>
      </trkpt>
      <trkpt lat="43.39301" lon="6.67882">
        <ele>56</ele>
        <time>2016-10-07T07:13:28Z</time>
      </trkpt>
      <trkpt lat="43.393" lon="6.67874">
        <ele>56</ele>
        <time>2016-10-07T07:13:31Z</time>
      </trkpt>
      <trkpt lat="43.3931" lon="6.67858">
        <ele>55</ele>
        <time>2016-10-07T07:13:38Z</time>
      </trkpt>
      <trkpt lat="43.39313" lon="6.67847">
        <ele>54</ele>
        <time>2016-10-07T07:13:42Z</time>
      </trkpt>
      <trkpt lat="43.39318" lon="6.67842">
        <ele>53</ele>
        <time>2016-10-07T07:13:46Z</time>
      </trkpt>
      <trkpt lat="43.39316" lon="6.6782">
        <ele>46</ele>
        <time>2016-10-07T07:13:56Z</time>
      </trkpt>
      <trkpt lat="43.3931" lon="6.67803">
        <ele>44</ele>
        <time>2016-10-07T07:14:03Z</time>
      </trkpt>
      <trkpt lat="43.3931" lon="6.67795">
        <ele>43</ele>
        <time>2016-10-07T07:14:07Z</time>
      </trkpt>
      <trkpt lat="43.3932" lon="6.67783">
        <ele>42</ele>
        <time>2016-10-07T07:14:20Z</time>
      </trkpt>
      <trkpt lat="43.39324" lon="6.67779">
        <ele>42</ele>
        <time>2016-10-07T07:14:22Z</time>
      </trkpt>
      <trkpt lat="43.39333" lon="6.67749">
        <ele>38</ele>
        <time>2016-10-07T07:14:32Z</time>
      </trkpt>
      <trkpt lat="43.39323" lon="6.67724">
        <ele>32</ele>
        <time>2016-10-07T07:14:49Z</time>
      </trkpt>
      <trkpt lat="43.39305" lon="6.67714">
        <ele>30</ele>
        <time>2016-10-07T07:14:57Z</time>
      </trkpt>
      <trkpt lat="43.39296" lon="6.67701">
        <ele>29</ele>
        <time>2016-10-07T07:15:04Z</time>
      </trkpt>
      <trkpt lat="43.39288" lon="6.67696">
        <ele>28</ele>
        <time>2016-10-07T07:15:08Z</time>
      </trkpt>
      <trkpt lat="43.39269" lon="6.67664">
        <ele>23</ele>
        <time>2016-10-07T07:15:19Z</time>
      </trkpt>
      <trkpt lat="43.39256" lon="6.67661">
        <ele>22</ele>
        <time>2016-10-07T07:15:24Z</time>
      </trkpt>
      <trkpt lat="43.39235" lon="6.67667">
        <ele>23</ele>
        <time>2016-10-07T07:15:32Z</time>
      </trkpt>
      <trkpt lat="43.39219" lon="6.67656">
        <ele>24</ele>
        <time>2016-10-07T07:15:38Z</time>
      </trkpt>
      <trkpt lat="43.39222" lon="6.67642">
        <ele>25</ele>
        <time>2016-10-07T07:15:42Z</time>
      </trkpt>
      <trkpt lat="43.39218" lon="6.67639">
        <ele>25</ele>
        <time>2016-10-07T07:15:45Z</time>
      </trkpt>
      <trkpt lat="43.39219" lon="6.67625">
        <ele>26</ele>
        <time>2016-10-07T07:15:50Z</time>
      </trkpt>
      <trkpt lat="43.39246" lon="6.6762">
        <ele>26</ele>
        <time>2016-10-07T07:15:58Z</time>
      </trkpt>
      <trkpt lat="43.39257" lon="6.67623">
        <ele>25</ele>
        <time>2016-10-07T07:16:01Z</time>
      </trkpt>
      <trkpt lat="43.39281" lon="6.67615">
        <ele>25</ele>
        <time>2016-10-07T07:16:07Z</time>
      </trkpt>
      <trkpt lat="43.3931" lon="6.67615">
        <ele>25</ele>
        <time>2016-10-07T07:16:13Z</time>
      </trkpt>
      <trkpt lat="43.39342" lon="6.67608">
        <ele>24</ele>
        <time>2016-10-07T07:16:19Z</time>
      </trkpt>
      <trkpt lat="43.39391" lon="6.67581">
        <ele>25</ele>
        <time>2016-10-07T07:16:29Z</time>
      </trkpt>
      <trkpt lat="43.39397" lon="6.67574">
        <ele>24</ele>
        <time>2016-10-07T07:16:32Z</time>
      </trkpt>
      <trkpt lat="43.39406" lon="6.67571">
        <ele>24</ele>
        <time>2016-10-07T07:16:35Z</time>
      </trkpt>
      <trkpt lat="43.39428" lon="6.6758">
        <ele>21</ele>
        <time>2016-10-07T07:16:41Z</time>
      </trkpt>
      <trkpt lat="43.39449" lon="6.67579">
        <ele>21</ele>
        <time>2016-10-07T07:16:46Z</time>
      </trkpt>
      <trkpt lat="43.39464" lon="6.67573">
        <ele>21</ele>
        <time>2016-10-07T07:16:49Z</time>
      </trkpt>
      <trkpt lat="43.39483" lon="6.67554">
        <ele>22</ele>
        <time>2016-10-07T07:16:53Z</time>
      </trkpt>
      <trkpt lat="43.39515" lon="6.67547">
        <ele>19</ele>
        <time>2016-10-07T07:16:59Z</time>
      </trkpt>
      <trkpt lat="43.39533" lon="6.67524">
        <ele>20</ele>
        <time>2016-10-07T07:17:04Z</time>
      </trkpt>
      <trkpt lat="43.39571" lon="6.67502">
        <ele>18</ele>
        <time>2016-10-07T07:17:11Z</time>
      </trkpt>
      <trkpt lat="43.39618" lon="6.67487">
        <ele>16</ele>
        <time>2016-10-07T07:17:19Z</time>
      </trkpt>
      <trkpt lat="43.39683" lon="6.67472">
        <ele>15</ele>
        <time>2016-10-07T07:17:31Z</time>
      </trkpt>
      <trkpt lat="43.39704" lon="6.67478">
        <ele>15</ele>
        <time>2016-10-07T07:17:35Z</time>
      </trkpt>
      <trkpt lat="43.39717" lon="6.67495">
        <ele>15</ele>
        <time>2016-10-07T07:17:39Z</time>
      </trkpt>
      <trkpt lat="43.39727" lon="6.67493">
        <ele>15</ele>
        <time>2016-10-07T07:17:48Z</time>
      </trkpt>
      <trkpt lat="43.39728" lon="6.67491">
        <ele>15</ele>
        <time>2016-10-07T07:17:55Z</time>
      </trkpt>
      <trkpt lat="43.39731" lon="6.67469">
        <ele>15</ele>
        <time>2016-10-07T07:17:59Z</time>
      </trkpt>
      <trkpt lat="43.39732" lon="6.6744">
        <ele>15</ele>
        <time>2016-10-07T07:18:05Z</time>
      </trkpt>
      <trkpt lat="43.39742" lon="6.67381">
        <ele>15</ele>
        <time>2016-10-07T07:18:14Z</time>
      </trkpt>
      <trkpt lat="43.39746" lon="6.67323">
        <ele>16</ele>
        <time>2016-10-07T07:18:22Z</time>
      </trkpt>
      <trkpt lat="43.39741" lon="6.67297">
        <ele>17</ele>
        <time>2016-10-07T07:18:26Z</time>
      </trkpt>
      <trkpt lat="43.39729" lon="6.67261">
        <ele>18</ele>
        <time>2016-10-07T07:18:32Z</time>
      </trkpt>
      <trkpt lat="43.39688" lon="6.67218">
        <ele>18</ele>
        <time>2016-10-07T07:18:43Z</time>
      </trkpt>
      <trkpt lat="43.39657" lon="6.67199">
        <ele>17</ele>
        <time>2016-10-07T07:18:49Z</time>
      </trkpt>
      <trkpt lat="43.39638" lon="6.67201">
        <ele>17</ele>
        <time>2016-10-07T07:18:52Z</time>
      </trkpt>
      <trkpt lat="43.39585" lon="6.67224">
        <ele>18</ele>
        <time>2016-10-07T07:19:02Z</time>
      </trkpt>
      <trkpt lat="43.39568" lon="6.67218">
        <ele>20</ele>
        <time>2016-10-07T07:19:05Z</time>
      </trkpt>
      <trkpt lat="43.39534" lon="6.67164">
        <ele>18</ele>
        <time>2016-10-07T07:19:15Z</time>
      </trkpt>
      <trkpt lat="43.39512" lon="6.67147">
        <ele>18</ele>
        <time>2016-10-07T07:19:20Z</time>
      </trkpt>
      <trkpt lat="43.39494" lon="6.67119">
        <ele>19</ele>
        <time>2016-10-07T07:19:25Z</time>
      </trkpt>
      <trkpt lat="43.39462" lon="6.67091">
        <ele>19</ele>
        <time>2016-10-07T07:19:34Z</time>
      </trkpt>
      <trkpt lat="43.39443" lon="6.67065">
        <ele>18</ele>
        <time>2016-10-07T07:19:40Z</time>
      </trkpt>
      <trkpt lat="43.39392" lon="6.66974">
        <ele>22</ele>
        <time>2016-10-07T07:19:57Z</time>
      </trkpt>
      <trkpt lat="43.39384" lon="6.66964">
        <ele>22</ele>
        <time>2016-10-07T07:19:59Z</time>
      </trkpt>
      <trkpt lat="43.39324" lon="6.66918">
        <ele>20</ele>
        <time>2016-10-07T07:20:12Z</time>
      </trkpt>
      <trkpt lat="43.39284" lon="6.66879">
        <ele>21</ele>
        <time>2016-10-07T07:20:21Z</time>
      </trkpt>
      <trkpt lat="43.39276" lon="6.6686">
        <ele>21</ele>
        <time>2016-10-07T07:20:24Z</time>
      </trkpt>
      <trkpt lat="43.39273" lon="6.66838">
        <ele>21</ele>
        <time>2016-10-07T07:20:27Z</time>
      </trkpt>
      <trkpt lat="43.39274" lon="6.66808">
        <ele>23</ele>
        <time>2016-10-07T07:20:31Z</time>
      </trkpt>
      <trkpt lat="43.39287" lon="6.66778">
        <ele>24</ele>
        <time>2016-10-07T07:20:36Z</time>
      </trkpt>
      <trkpt lat="43.39303" lon="6.66727">
        <ele>28</ele>
        <time>2016-10-07T07:20:48Z</time>
      </trkpt>
      <trkpt lat="43.39323" lon="6.66628">
        <ele>32</ele>
        <time>2016-10-07T07:21:18Z</time>
      </trkpt>
      <trkpt lat="43.39335" lon="6.66591">
        <ele>34</ele>
        <time>2016-10-07T07:21:27Z</time>
      </trkpt>
      <trkpt lat="43.39344" lon="6.66523">
        <ele>36</ele>
        <time>2016-10-07T07:21:42Z</time>
      </trkpt>
      <trkpt lat="43.39356" lon="6.66505">
        <ele>36</ele>
        <time>2016-10-07T07:21:48Z</time>
      </trkpt>
      <trkpt lat="43.39375" lon="6.66493">
        <ele>36</ele>
        <time>2016-10-07T07:21:55Z</time>
      </trkpt>
      <trkpt lat="43.39452" lon="6.6646">
        <ele>42</ele>
        <time>2016-10-07T07:22:24Z</time>
      </trkpt>
      <trkpt lat="43.39539" lon="6.66436">
        <ele>48</ele>
        <time>2016-10-07T07:23:00Z</time>
      </trkpt>
      <trkpt lat="43.39559" lon="6.66436">
        <ele>49</ele>
        <time>2016-10-07T07:23:08Z</time>
      </trkpt>
      <trkpt lat="43.39591" lon="6.66446">
        <ele>53</ele>
        <time>2016-10-07T07:23:19Z</time>
      </trkpt>
      <trkpt lat="43.3961" lon="6.66445">
        <ele>54</ele>
        <time>2016-10-07T07:23:24Z</time>
      </trkpt>
      <trkpt lat="43.39643" lon="6.66433">
        <ele>55</ele>
        <time>2016-10-07T07:23:36Z</time>
      </trkpt>
      <trkpt lat="43.39663" lon="6.66421">
        <ele>57</ele>
        <time>2016-10-07T07:23:44Z</time>
      </trkpt>
      <trkpt lat="43.39677" lon="6.66421">
        <ele>59</ele>
        <time>2016-10-07T07:23:51Z</time>
      </trkpt>
      <trkpt lat="43.39685" lon="6.66427">
        <ele>59</ele>
        <time>2016-10-07T07:23:55Z</time>
      </trkpt>
      <trkpt lat="43.39695" lon="6.66444">
        <ele>60</ele>
        <time>2016-10-07T07:24:01Z</time>
      </trkpt>
      <trkpt lat="43.39701" lon="6.66447">
        <ele>60</ele>
        <time>2016-10-07T07:24:03Z</time>
      </trkpt>
      <trkpt lat="43.39703" lon="6.66446">
        <ele>60</ele>
        <time>2016-10-07T07:24:04Z</time>
      </trkpt>
      <trkpt lat="43.397" lon="6.66413">
        <ele>61</ele>
        <time>2016-10-07T07:24:12Z</time>
      </trkpt>
      <trkpt lat="43.39702" lon="6.66401">
        <ele>61</ele>
        <time>2016-10-07T07:24:15Z</time>
      </trkpt>
      <trkpt lat="43.39709" lon="6.6639">
        <ele>61</ele>
        <time>2016-10-07T07:24:20Z</time>
      </trkpt>
      <trkpt lat="43.3972" lon="6.66388">
        <ele>62</ele>
        <time>2016-10-07T07:24:25Z</time>
      </trkpt>
      <trkpt lat="43.39759" lon="6.6641">
        <ele>66</ele>
        <time>2016-10-07T07:24:43Z</time>
      </trkpt>
      <trkpt lat="43.39771" lon="6.66412">
        <ele>66</ele>
        <time>2016-10-07T07:24:49Z</time>
      </trkpt>
      <trkpt lat="43.39781" lon="6.66408">
        <ele>67</ele>
        <time>2016-10-07T07:24:54Z</time>
      </trkpt>
      <trkpt lat="43.39791" lon="6.66395">
        <ele>67</ele>
        <time>2016-10-07T07:25:00Z</time>
      </trkpt>
      <trkpt lat="43.39798" lon="6.66362">
        <ele>68</ele>
        <time>2016-10-07T07:25:10Z</time>
      </trkpt>
      <trkpt lat="43.398" lon="6.66332">
        <ele>73</ele>
        <time>2016-10-07T07:25:18Z</time>
      </trkpt>
      <trkpt lat="43.39793" lon="6.66311">
        <ele>74</ele>
        <time>2016-10-07T07:25:23Z</time>
      </trkpt>
      <trkpt lat="43.39772" lon="6.66288">
        <ele>75</ele>
        <time>2016-10-07T07:25:33Z</time>
      </trkpt>
      <trkpt lat="43.39767" lon="6.66276">
        <ele>76</ele>
        <time>2016-10-07T07:25:37Z</time>
      </trkpt>
      <trkpt lat="43.39769" lon="6.66267">
        <ele>76</ele>
        <time>2016-10-07T07:25:40Z</time>
      </trkpt>
      <trkpt lat="43.39772" lon="6.66263">
        <ele>76</ele>
        <time>2016-10-07T07:25:42Z</time>
      </trkpt>
      <trkpt lat="43.39784" lon="6.66268">
        <ele>76</ele>
        <time>2016-10-07T07:25:49Z</time>
      </trkpt>
      <trkpt lat="43.39791" lon="6.66267">
        <ele>77</ele>
        <time>2016-10-07T07:25:52Z</time>
      </trkpt>
      <trkpt lat="43.39793" lon="6.66263">
        <ele>77</ele>
        <time>2016-10-07T07:25:54Z</time>
      </trkpt>
      <trkpt lat="43.39793" lon="6.66252">
        <ele>77</ele>
        <time>2016-10-07T07:25:58Z</time>
      </trkpt>
      <trkpt lat="43.39773" lon="6.66225">
        <ele>83</ele>
        <time>2016-10-07T07:26:10Z</time>
      </trkpt>
      <trkpt lat="43.39771" lon="6.66216">
        <ele>83</ele>
        <time>2016-10-07T07:26:13Z</time>
      </trkpt>
      <trkpt lat="43.39773" lon="6.66209">
        <ele>84</ele>
        <time>2016-10-07T07:26:16Z</time>
      </trkpt>
      <trkpt lat="43.39798" lon="6.6621">
        <ele>85</ele>
        <time>2016-10-07T07:26:27Z</time>
      </trkpt>
      <trkpt lat="43.39807" lon="6.66206">
        <ele>86</ele>
        <time>2016-10-07T07:26:31Z</time>
      </trkpt>
      <trkpt lat="43.39831" lon="6.66161">
        <ele>95</ele>
        <time>2016-10-07T07:26:51Z</time>
      </trkpt>
      <trkpt lat="43.39871" lon="6.66104">
        <ele>98</ele>
        <time>2016-10-07T07:27:16Z</time>
      </trkpt>
      <trkpt lat="43.39893" lon="6.66059">
        <ele>106</ele>
        <time>2016-10-07T07:27:35Z</time>
      </trkpt>
      <trkpt lat="43.39901" lon="6.66018">
        <ele>109</ele>
        <time>2016-10-07T07:27:50Z</time>
      </trkpt>
      <trkpt lat="43.39907" lon="6.66001">
        <ele>109</ele>
        <time>2016-10-07T07:27:56Z</time>
      </trkpt>
      <trkpt lat="43.39912" lon="6.65972">
        <ele>113</ele>
        <time>2016-10-07T07:28:05Z</time>
      </trkpt>
      <trkpt lat="43.39915" lon="6.65937">
        <ele>115</ele>
        <time>2016-10-07T07:28:16Z</time>
      </trkpt>
      <trkpt lat="43.39906" lon="6.65847">
        <ele>119</ele>
        <time>2016-10-07T07:28:46Z</time>
      </trkpt>
      <trkpt lat="43.39911" lon="6.65837">
        <ele>121</ele>
        <time>2016-10-07T07:28:50Z</time>
      </trkpt>
      <trkpt lat="43.39932" lon="6.65819">
        <ele>123</ele>
        <time>2016-10-07T07:29:01Z</time>
      </trkpt>
      <trkpt lat="43.39966" lon="6.65797">
        <ele>124</ele>
        <time>2016-10-07T07:29:17Z</time>
      </trkpt>
      <trkpt lat="43.39992" lon="6.65789">
        <ele>125</ele>
        <time>2016-10-07T07:29:28Z</time>
      </trkpt>
      <trkpt lat="43.40011" lon="6.65769">
        <ele>123</ele>
        <time>2016-10-07T07:29:40Z</time>
      </trkpt>
      <trkpt lat="43.40016" lon="6.65758">
        <ele>124</ele>
        <time>2016-10-07T07:29:44Z</time>
      </trkpt>
      <trkpt lat="43.40032" lon="6.65688">
        <ele>129</ele>
        <time>2016-10-07T07:30:09Z</time>
      </trkpt>
      <trkpt lat="43.40034" lon="6.65663">
        <ele>134</ele>
        <time>2016-10-07T07:30:18Z</time>
      </trkpt>
      <trkpt lat="43.40031" lon="6.65624">
        <ele>135</ele>
        <time>2016-10-07T07:30:33Z</time>
      </trkpt>
      <trkpt lat="43.40014" lon="6.65553">
        <ele>142</ele>
        <time>2016-10-07T07:31:00Z</time>
      </trkpt>
      <trkpt lat="43.40003" lon="6.65528">
        <ele>145</ele>
        <time>2016-10-07T07:31:11Z</time>
      </trkpt>
      <trkpt lat="43.3997" lon="6.65495">
        <ele>156</ele>
        <time>2016-10-07T07:31:28Z</time>
      </trkpt>
      <trkpt lat="43.39919" lon="6.6547">
        <ele>156</ele>
        <time>2016-10-07T07:31:54Z</time>
      </trkpt>
      <trkpt lat="43.39904" lon="6.65455">
        <ele>153</ele>
        <time>2016-10-07T07:32:02Z</time>
      </trkpt>
      <trkpt lat="43.39895" lon="6.65439">
        <ele>155</ele>
        <time>2016-10-07T07:32:09Z</time>
      </trkpt>
      <trkpt lat="43.39892" lon="6.65418">
        <ele>156</ele>
        <time>2016-10-07T07:32:16Z</time>
      </trkpt>
      <trkpt lat="43.39892" lon="6.65405">
        <ele>164</ele>
        <time>2016-10-07T07:32:20Z</time>
      </trkpt>
      <trkpt lat="43.39883" lon="6.6536">
        <ele>167</ele>
        <time>2016-10-07T07:32:32Z</time>
      </trkpt>
      <trkpt lat="43.39877" lon="6.65351">
        <ele>168</ele>
        <time>2016-10-07T07:32:35Z</time>
      </trkpt>
      <trkpt lat="43.39853" lon="6.65345">
        <ele>166</ele>
        <time>2016-10-07T07:32:44Z</time>
      </trkpt>
      <trkpt lat="43.39844" lon="6.65338">
        <ele>167</ele>
        <time>2016-10-07T07:32:48Z</time>
      </trkpt>
      <trkpt lat="43.39831" lon="6.65321">
        <ele>173</ele>
        <time>2016-10-07T07:32:55Z</time>
      </trkpt>
      <trkpt lat="43.39816" lon="6.65293">
        <ele>180</ele>
        <time>2016-10-07T07:33:03Z</time>
      </trkpt>
      <trkpt lat="43.39808" lon="6.65289">
        <ele>181</ele>
        <time>2016-10-07T07:33:06Z</time>
      </trkpt>
      <trkpt lat="43.398" lon="6.65289">
        <ele>181</ele>
        <time>2016-10-07T07:33:09Z</time>
      </trkpt>
      <trkpt lat="43.39789" lon="6.65303">
        <ele>180</ele>
        <time>2016-10-07T07:33:14Z</time>
      </trkpt>
      <trkpt lat="43.39783" lon="6.65316">
        <ele>179</ele>
        <time>2016-10-07T07:33:18Z</time>
      </trkpt>
      <trkpt lat="43.3974" lon="6.65343">
        <ele>177</ele>
        <time>2016-10-07T07:33:33Z</time>
      </trkpt>
      <trkpt lat="43.39722" lon="6.65361">
        <ele>177</ele>
        <time>2016-10-07T07:33:40Z</time>
      </trkpt>
      <trkpt lat="43.3971" lon="6.65386">
        <ele>175</ele>
        <time>2016-10-07T07:33:47Z</time>
      </trkpt>
      <trkpt lat="43.39701" lon="6.65397">
        <ele>175</ele>
        <time>2016-10-07T07:33:51Z</time>
      </trkpt>
      <trkpt lat="43.39679" lon="6.65411">
        <ele>175</ele>
        <time>2016-10-07T07:34:00Z</time>
      </trkpt>
      <trkpt lat="43.39666" lon="6.6541">
        <ele>174</ele>
        <time>2016-10-07T07:34:04Z</time>
      </trkpt>
      <trkpt lat="43.39653" lon="6.65404">
        <ele>175</ele>
        <time>2016-10-07T07:34:09Z</time>
      </trkpt>
      <trkpt lat="43.39628" lon="6.65379">
        <ele>176</ele>
        <time>2016-10-07T07:34:19Z</time>
      </trkpt>
      <trkpt lat="43.39588" lon="6.65328">
        <ele>184</ele>
        <time>2016-10-07T07:34:32Z</time>
      </trkpt>
      <trkpt lat="43.39573" lon="6.65315">
        <ele>183</ele>
        <time>2016-10-07T07:34:36Z</time>
      </trkpt>
      <trkpt lat="43.39531" lon="6.65291">
        <ele>184</ele>
        <time>2016-10-07T07:34:46Z</time>
      </trkpt>
      <trkpt lat="43.39468" lon="6.65241">
        <ele>191</ele>
        <time>2016-10-07T07:35:10Z</time>
      </trkpt>
      <trkpt lat="43.39444" lon="6.65228">
        <ele>190</ele>
        <time>2016-10-07T07:35:18Z</time>
      </trkpt>
      <trkpt lat="43.39427" lon="6.65212">
        <ele>191</ele>
        <time>2016-10-07T07:35:24Z</time>
      </trkpt>
      <trkpt lat="43.39385" lon="6.6515">
        <ele>186</ele>
        <time>2016-10-07T07:35:40Z</time>
      </trkpt>
      <trkpt lat="43.3938" lon="6.65148">
        <ele>186</ele>
        <time>2016-10-07T07:35:41Z</time>
      </trkpt>
      <trkpt lat="43.39354" lon="6.65169">
        <ele>183</ele>
        <time>2016-10-07T07:35:48Z</time>
      </trkpt>
      <trkpt lat="43.39348" lon="6.65179">
        <ele>183</ele>
        <time>2016-10-07T07:35:50Z</time>
      </trkpt>
      <trkpt lat="43.39348" lon="6.65219">
        <ele>182</ele>
        <time>2016-10-07T07:35:56Z</time>
      </trkpt>
      <trkpt lat="43.39343" lon="6.65231">
        <ele>181</ele>
        <time>2016-10-07T07:35:58Z</time>
      </trkpt>
      <trkpt lat="43.39339" lon="6.65235">
        <ele>180</ele>
        <time>2016-10-07T07:35:59Z</time>
      </trkpt>
      <trkpt lat="43.39323" lon="6.65239">
        <ele>174</ele>
        <time>2016-10-07T07:36:02Z</time>
      </trkpt>
      <trkpt lat="43.39302" lon="6.65258">
        <ele>166</ele>
        <time>2016-10-07T07:36:07Z</time>
      </trkpt>
      <trkpt lat="43.39299" lon="6.65268">
        <ele>165</ele>
        <time>2016-10-07T07:36:09Z</time>
      </trkpt>
      <trkpt lat="43.39303" lon="6.65297">
        <ele>162</ele>
        <time>2016-10-07T07:36:14Z</time>
      </trkpt>
      <trkpt lat="43.393" lon="6.6531">
        <ele>161</ele>
        <time>2016-10-07T07:36:16Z</time>
      </trkpt>
      <trkpt lat="43.39293" lon="6.65328">
        <ele>159</ele>
        <time>2016-10-07T07:36:19Z</time>
      </trkpt>
      <trkpt lat="43.39281" lon="6.6537">
        <ele>149</ele>
        <time>2016-10-07T07:36:24Z</time>
      </trkpt>
      <trkpt lat="43.3927" lon="6.6539">
        <ele>148</ele>
        <time>2016-10-07T07:36:27Z</time>
      </trkpt>
      <trkpt lat="43.39251" lon="6.65455">
        <ele>142</ele>
        <time>2016-10-07T07:36:35Z</time>
      </trkpt>
      <trkpt lat="43.39225" lon="6.65476">
        <ele>146</ele>
        <time>2016-10-07T07:36:40Z</time>
      </trkpt>
      <trkpt lat="43.39201" lon="6.65503">
        <ele>149</ele>
        <time>2016-10-07T07:36:45Z</time>
      </trkpt>
      <trkpt lat="43.39182" lon="6.65516">
        <ele>150</ele>
        <time>2016-10-07T07:36:50Z</time>
      </trkpt>
      <trkpt lat="43.39147" lon="6.65555">
        <ele>156</ele>
        <time>2016-10-07T07:37:10Z</time>
      </trkpt>
      <trkpt lat="43.39147" lon="6.6556">
        <ele>156</ele>
        <time>2016-10-07T07:37:12Z</time>
      </trkpt>
      <trkpt lat="43.39164" lon="6.65587">
        <ele>159</ele>
        <time>2016-10-07T07:37:21Z</time>
      </trkpt>
      <trkpt lat="43.39168" lon="6.6561">
        <ele>155</ele>
        <time>2016-10-07T07:37:27Z</time>
      </trkpt>
      <trkpt lat="43.39159" lon="6.65654">
        <ele>162</ele>
        <time>2016-10-07T07:37:40Z</time>
      </trkpt>
      <trkpt lat="43.39155" lon="6.65698">
        <ele>157</ele>
        <time>2016-10-07T07:37:51Z</time>
      </trkpt>
      <trkpt lat="43.3915" lon="6.65706">
        <ele>156</ele>
        <time>2016-10-07T07:37:53Z</time>
      </trkpt>
      <trkpt lat="43.39124" lon="6.65712">
        <ele>155</ele>
        <time>2016-10-07T07:37:58Z</time>
      </trkpt>
      <trkpt lat="43.39113" lon="6.6571">
        <ele>154</ele>
        <time>2016-10-07T07:38:00Z</time>
      </trkpt>
      <trkpt lat="43.39064" lon="6.65716">
        <ele>146</ele>
        <time>2016-10-07T07:38:09Z</time>
      </trkpt>
      <trkpt lat="43.39016" lon="6.65713">
        <ele>143</ele>
        <time>2016-10-07T07:38:17Z</time>
      </trkpt>
      <trkpt lat="43.38929" lon="6.65699">
        <ele>130</ele>
        <time>2016-10-07T07:38:36Z</time>
      </trkpt>
      <trkpt lat="43.38911" lon="6.65684">
        <ele>125</ele>
        <time>2016-10-07T07:38:41Z</time>
      </trkpt>
      <trkpt lat="43.38895" lon="6.65683">
        <ele>122</ele>
        <time>2016-10-07T07:38:45Z</time>
      </trkpt>
      <trkpt lat="43.38808" lon="6.65661">
        <ele>122</ele>
        <time>2016-10-07T07:39:02Z</time>
      </trkpt>
      <trkpt lat="43.38773" lon="6.65686">
        <ele>111</ele>
        <time>2016-10-07T07:39:09Z</time>
      </trkpt>
      <trkpt lat="43.38727" lon="6.65692">
        <ele>109</ele>
        <time>2016-10-07T07:39:18Z</time>
      </trkpt>
      <trkpt lat="43.38696" lon="6.65721">
        <ele>108</ele>
        <time>2016-10-07T07:39:25Z</time>
      </trkpt>
      <trkpt lat="43.38678" lon="6.65744">
        <ele>109</ele>
        <time>2016-10-07T07:39:30Z</time>
      </trkpt>
      <trkpt lat="43.38674" lon="6.65758">
        <ele>107</ele>
        <time>2016-10-07T07:39:32Z</time>
      </trkpt>
      <trkpt lat="43.3867" lon="6.65796">
        <ele>104</ele>
        <time>2016-10-07T07:39:36Z</time>
      </trkpt>
      <trkpt lat="43.38669" lon="6.65826">
        <ele>103</ele>
        <time>2016-10-07T07:39:39Z</time>
      </trkpt>
      <trkpt lat="43.38656" lon="6.65918">
        <ele>93</ele>
        <time>2016-10-07T07:39:49Z</time>
      </trkpt>
      <trkpt lat="43.38655" lon="6.65938">
        <ele>92</ele>
        <time>2016-10-07T07:39:51Z</time>
      </trkpt>
      <trkpt lat="43.38648" lon="6.65983">
        <ele>89</ele>
        <time>2016-10-07T07:39:56Z</time>
      </trkpt>
      <trkpt lat="43.38645" lon="6.6599">
        <ele>89</ele>
        <time>2016-10-07T07:39:57Z</time>
      </trkpt>
      <trkpt lat="43.3864" lon="6.65994">
        <ele>89</ele>
        <time>2016-10-07T07:39:58Z</time>
      </trkpt>
      <trkpt lat="43.3862" lon="6.65999">
        <ele>88</ele>
        <time>2016-10-07T07:40:01Z</time>
      </trkpt>
      <trkpt lat="43.38599" lon="6.65996">
        <ele>87</ele>
        <time>2016-10-07T07:40:04Z</time>
      </trkpt>
      <trkpt lat="43.38588" lon="6.66001">
        <ele>84</ele>
        <time>2016-10-07T07:40:06Z</time>
      </trkpt>
      <trkpt lat="43.38582" lon="6.6601">
        <ele>81</ele>
        <time>2016-10-07T07:40:08Z</time>
      </trkpt>
      <trkpt lat="43.38579" lon="6.66043">
        <ele>78</ele>
        <time>2016-10-07T07:40:14Z</time>
      </trkpt>
      <trkpt lat="43.38576" lon="6.66051">
        <ele>78</ele>
        <time>2016-10-07T07:40:16Z</time>
      </trkpt>
      <trkpt lat="43.3857" lon="6.66051">
        <ele>78</ele>
        <time>2016-10-07T07:40:18Z</time>
      </trkpt>
      <trkpt lat="43.38552" lon="6.66036">
        <ele>77</ele>
        <time>2016-10-07T07:40:23Z</time>
      </trkpt>
      <trkpt lat="43.38502" lon="6.65976">
        <ele>76</ele>
        <time>2016-10-07T07:40:34Z</time>
      </trkpt>
      <trkpt lat="43.38494" lon="6.65959">
        <ele>69</ele>
        <time>2016-10-07T07:40:36Z</time>
      </trkpt>
      <trkpt lat="43.38489" lon="6.65928">
        <ele>71</ele>
        <time>2016-10-07T07:40:39Z</time>
      </trkpt>
      <trkpt lat="43.38487" lon="6.65868">
        <ele>70</ele>
        <time>2016-10-07T07:40:45Z</time>
      </trkpt>
      <trkpt lat="43.38495" lon="6.65855">
        <ele>70</ele>
        <time>2016-10-07T07:40:47Z</time>
      </trkpt>
      <trkpt lat="43.38516" lon="6.65839">
        <ele>79</ele>
        <time>2016-10-07T07:40:51Z</time>
      </trkpt>
      <trkpt lat="43.38518" lon="6.65829">
        <ele>80</ele>
        <time>2016-10-07T07:40:53Z</time>
      </trkpt>
      <trkpt lat="43.38513" lon="6.65824">
        <ele>80</ele>
        <time>2016-10-07T07:40:54Z</time>
      </trkpt>
      <trkpt lat="43.38484" lon="6.65816">
        <ele>70</ele>
        <time>2016-10-07T07:41:00Z</time>
      </trkpt>
      <trkpt lat="43.38447" lon="6.65811">
        <ele>66</ele>
        <time>2016-10-07T07:41:07Z</time>
      </trkpt>
      <trkpt lat="43.38441" lon="6.65802">
        <ele>65</ele>
        <time>2016-10-07T07:41:09Z</time>
      </trkpt>
      <trkpt lat="43.38442" lon="6.65739">
        <ele>62</ele>
        <time>2016-10-07T07:41:17Z</time>
      </trkpt>
      <trkpt lat="43.38482" lon="6.65676">
        <ele>67</ele>
        <time>2016-10-07T07:41:27Z</time>
      </trkpt>
      <trkpt lat="43.38492" lon="6.65638">
        <ele>62</ele>
        <time>2016-10-07T07:41:32Z</time>
      </trkpt>
      <trkpt lat="43.38494" lon="6.65603">
        <ele>60</ele>
        <time>2016-10-07T07:41:36Z</time>
      </trkpt>
      <trkpt lat="43.38492" lon="6.65585">
        <ele>61</ele>
        <time>2016-10-07T07:41:38Z</time>
      </trkpt>
      <trkpt lat="43.38494" lon="6.65567">
        <ele>59</ele>
        <time>2016-10-07T07:41:40Z</time>
      </trkpt>
      <trkpt lat="43.38504" lon="6.65541">
        <ele>68</ele>
        <time>2016-10-07T07:41:43Z</time>
      </trkpt>
      <trkpt lat="43.38519" lon="6.65513">
        <ele>67</ele>
        <time>2016-10-07T07:41:49Z</time>
      </trkpt>
      <trkpt lat="43.38513" lon="6.6551">
        <ele>66</ele>
        <time>2016-10-07T07:41:51Z</time>
      </trkpt>
      <trkpt lat="43.38472" lon="6.65524">
        <ele>57</ele>
        <time>2016-10-07T07:42:03Z</time>
      </trkpt>
      <trkpt lat="43.38461" lon="6.65517">
        <ele>56</ele>
        <time>2016-10-07T07:42:07Z</time>
      </trkpt>
      <trkpt lat="43.3846" lon="6.65508">
        <ele>56</ele>
        <time>2016-10-07T07:42:09Z</time>
      </trkpt>
      <trkpt lat="43.38468" lon="6.65492">
        <ele>57</ele>
        <time>2016-10-07T07:42:14Z</time>
      </trkpt>
      <trkpt lat="43.38509" lon="6.65447">
        <ele>68</ele>
        <time>2016-10-07T07:42:34Z</time>
      </trkpt>
      <trkpt lat="43.38521" lon="6.65428">
        <ele>68</ele>
        <time>2016-10-07T07:42:38Z</time>
      </trkpt>
      <trkpt lat="43.38521" lon="6.65409">
        <ele>73</ele>
        <time>2016-10-07T07:42:41Z</time>
      </trkpt>
      <trkpt lat="43.38512" lon="6.65389">
        <ele>74</ele>
        <time>2016-10-07T07:42:45Z</time>
      </trkpt>
      <trkpt lat="43.38487" lon="6.6536">
        <ele>66</ele>
        <time>2016-10-07T07:43:01Z</time>
      </trkpt>
      <trkpt lat="43.38483" lon="6.65348">
        <ele>67</ele>
        <time>2016-10-07T07:43:07Z</time>
      </trkpt>
      <trkpt lat="43.38484" lon="6.65319">
        <ele>73</ele>
        <time>2016-10-07T07:43:20Z</time>
      </trkpt>
      <trkpt lat="43.38481" lon="6.65309">
        <ele>72</ele>
        <time>2016-10-07T07:43:25Z</time>
      </trkpt>
      <trkpt lat="43.38484" lon="6.6528">
        <ele>75</ele>
        <time>2016-10-07T07:43:40Z</time>
      </trkpt>
      <trkpt lat="43.38492" lon="6.65262">
        <ele>80</ele>
        <time>2016-10-07T07:43:49Z</time>
      </trkpt>
      <trkpt lat="43.3849" lon="6.65231">
        <ele>82</ele>
        <time>2016-10-07T07:44:02Z</time>
      </trkpt>
      <trkpt lat="43.38496" lon="6.65186">
        <ele>83</ele>
        <time>2016-10-07T07:44:18Z</time>
      </trkpt>
      <trkpt lat="43.38528" lon="6.65147">
        <ele>98</ele>
        <time>2016-10-07T07:44:36Z</time>
      </trkpt>
      <trkpt lat="43.38544" lon="6.65113">
        <ele>100</ele>
        <time>2016-10-07T07:44:47Z</time>
      </trkpt>
      <trkpt lat="43.38559" lon="6.65093">
        <ele>103</ele>
        <time>2016-10-07T07:44:56Z</time>
      </trkpt>
      <trkpt lat="43.38572" lon="6.65086">
        <ele>106</ele>
        <time>2016-10-07T07:45:02Z</time>
      </trkpt>
      <trkpt lat="43.38582" lon="6.65075">
        <ele>107</ele>
        <time>2016-10-07T07:45:07Z</time>
      </trkpt>
      <trkpt lat="43.38587" lon="6.65062">
        <ele>119</ele>
        <time>2016-10-07T07:45:12Z</time>
      </trkpt>
      <trkpt lat="43.38589" lon="6.65027">
        <ele>121</ele>
        <time>2016-10-07T07:45:24Z</time>
      </trkpt>
      <trkpt lat="43.38585" lon="6.64985">
        <ele>118</ele>
        <time>2016-10-07T07:45:41Z</time>
      </trkpt>
      <trkpt lat="43.38585" lon="6.64919">
        <ele>115</ele>
        <time>2016-10-07T07:46:08Z</time>
      </trkpt>
      <trkpt lat="43.38587" lon="6.64913">
        <ele>114</ele>
        <time>2016-10-07T07:46:11Z</time>
      </trkpt>
      <trkpt lat="43.38608" lon="6.6489">
        <ele>115</ele>
        <time>2016-10-07T07:46:29Z</time>
      </trkpt>
      <trkpt lat="43.38667" lon="6.64858">
        <ele>130</ele>
        <time>2016-10-07T07:46:55Z</time>
      </trkpt>
      <trkpt lat="43.38691" lon="6.64855">
        <ele>133</ele>
        <time>2016-10-07T07:47:06Z</time>
      </trkpt>
      <trkpt lat="43.38734" lon="6.64842">
        <ele>139</ele>
        <time>2016-10-07T07:47:27Z</time>
      </trkpt>
      <trkpt lat="43.38747" lon="6.64834">
        <ele>140</ele>
        <time>2016-10-07T07:47:34Z</time>
      </trkpt>
      <trkpt lat="43.38754" lon="6.64824">
        <ele>141</ele>
        <time>2016-10-07T07:47:38Z</time>
      </trkpt>
      <trkpt lat="43.3876" lon="6.64809">
        <ele>142</ele>
        <time>2016-10-07T07:47:42Z</time>
      </trkpt>
      <trkpt lat="43.38764" lon="6.64773">
        <ele>138</ele>
        <time>2016-10-07T07:47:51Z</time>
      </trkpt>
      <trkpt lat="43.38772" lon="6.6475">
        <ele>129</ele>
        <time>2016-10-07T07:47:59Z</time>
      </trkpt>
      <trkpt lat="43.3878" lon="6.64742">
        <ele>129</ele>
        <time>2016-10-07T07:48:04Z</time>
      </trkpt>
      <trkpt lat="43.38821" lon="6.64741">
        <ele>137</ele>
        <time>2016-10-07T07:48:24Z</time>
      </trkpt>
      <trkpt lat="43.38858" lon="6.64753">
        <ele>155</ele>
        <time>2016-10-07T07:48:44Z</time>
      </trkpt>
      <trkpt lat="43.38874" lon="6.64751">
        <ele>158</ele>
        <time>2016-10-07T07:48:52Z</time>
      </trkpt>
      <trkpt lat="43.38925" lon="6.64716">
        <ele>157</ele>
        <time>2016-10-07T07:49:18Z</time>
      </trkpt>
      <trkpt lat="43.38953" lon="6.64705">
        <ele>158</ele>
        <time>2016-10-07T07:49:29Z</time>
      </trkpt>
      <trkpt lat="43.38985" lon="6.64686">
        <ele>161</ele>
        <time>2016-10-07T07:49:45Z</time>
      </trkpt>
      <trkpt lat="43.39028" lon="6.64632">
        <ele>164</ele>
        <time>2016-10-07T07:50:18Z</time>
      </trkpt>
      <trkpt lat="43.39041" lon="6.64625">
        <ele>164</ele>
        <time>2016-10-07T07:50:25Z</time>
      </trkpt>
      <trkpt lat="43.39065" lon="6.64619">
        <ele>166</ele>
        <time>2016-10-07T07:50:36Z</time>
      </trkpt>
      <trkpt lat="43.39093" lon="6.64617">
        <ele>176</ele>
        <time>2016-10-07T07:50:50Z</time>
      </trkpt>
      <trkpt lat="43.39123" lon="6.6461">
        <ele>177</ele>
        <time>2016-10-07T07:51:08Z</time>
      </trkpt>
      <trkpt lat="43.39168" lon="6.64612">
        <ele>184</ele>
        <time>2016-10-07T07:51:28Z</time>
      </trkpt>
      <trkpt lat="43.39182" lon="6.64605">
        <ele>183</ele>
        <time>2016-10-07T07:51:36Z</time>
      </trkpt>
      <trkpt lat="43.39231" lon="6.6459">
        <ele>186</ele>
        <time>2016-10-07T07:52:00Z</time>
      </trkpt>
      <trkpt lat="43.39258" lon="6.64577">
        <ele>181</ele>
        <time>2016-10-07T07:52:10Z</time>
      </trkpt>
      <trkpt lat="43.39283" lon="6.64577">
        <ele>177</ele>
        <time>2016-10-07T07:52:20Z</time>
      </trkpt>
      <trkpt lat="43.39312" lon="6.64586">
        <ele>187</ele>
        <time>2016-10-07T07:52:33Z</time>
      </trkpt>
      <trkpt lat="43.39327" lon="6.646">
        <ele>186</ele>
        <time>2016-10-07T07:52:41Z</time>
      </trkpt>
      <trkpt lat="43.39333" lon="6.64612">
        <ele>187</ele>
        <time>2016-10-07T07:52:45Z</time>
      </trkpt>
      <trkpt lat="43.39345" lon="6.64621">
        <ele>188</ele>
        <time>2016-10-07T07:52:49Z</time>
      </trkpt>
      <trkpt lat="43.3937" lon="6.64609">
        <ele>187</ele>
        <time>2016-10-07T07:52:54Z</time>
      </trkpt>
      <trkpt lat="43.39421" lon="6.64597">
        <ele>190</ele>
        <time>2016-10-07T07:53:03Z</time>
      </trkpt>
      <trkpt lat="43.39432" lon="6.64591">
        <ele>191</ele>
        <time>2016-10-07T07:53:05Z</time>
      </trkpt>
      <trkpt lat="43.3946" lon="6.64563">
        <ele>188</ele>
        <time>2016-10-07T07:53:11Z</time>
      </trkpt>
      <trkpt lat="43.39491" lon="6.64512">
        <ele>188</ele>
        <time>2016-10-07T07:53:20Z</time>
      </trkpt>
      <trkpt lat="43.39512" lon="6.6445">
        <ele>190</ele>
        <time>2016-10-07T07:53:29Z</time>
      </trkpt>
      <trkpt lat="43.39528" lon="6.64428">
        <ele>189</ele>
        <time>2016-10-07T07:53:34Z</time>
      </trkpt>
      <trkpt lat="43.39558" lon="6.64408">
        <ele>181</ele>
        <time>2016-10-07T07:53:41Z</time>
      </trkpt>
      <trkpt lat="43.39645" lon="6.64369">
        <ele>189</ele>
        <time>2016-10-07T07:53:58Z</time>
      </trkpt>
      <trkpt lat="43.39697" lon="6.64335">
        <ele>193</ele>
        <time>2016-10-07T07:54:07Z</time>
      </trkpt>
      <trkpt lat="43.39723" lon="6.64331">
        <ele>180</ele>
        <time>2016-10-07T07:54:11Z</time>
      </trkpt>
      <trkpt lat="43.39781" lon="6.64313">
        <ele>183</ele>
        <time>2016-10-07T07:54:19Z</time>
      </trkpt>
      <trkpt lat="43.39842" lon="6.64311">
        <ele>191</ele>
        <time>2016-10-07T07:54:27Z</time>
      </trkpt>
      <trkpt lat="43.39854" lon="6.64304">
        <ele>190</ele>
        <time>2016-10-07T07:54:29Z</time>
      </trkpt>
      <trkpt lat="43.39858" lon="6.64297">
        <ele>190</ele>
        <time>2016-10-07T07:54:30Z</time>
      </trkpt>
      <trkpt lat="43.39862" lon="6.64272">
        <ele>187</ele>
        <time>2016-10-07T07:54:33Z</time>
      </trkpt>
      <trkpt lat="43.39867" lon="6.64256">
        <ele>186</ele>
        <time>2016-10-07T07:54:35Z</time>
      </trkpt>
      <trkpt lat="43.39886" lon="6.64231">
        <ele>179</ele>
        <time>2016-10-07T07:54:39Z</time>
      </trkpt>
      <trkpt lat="43.39904" lon="6.64221">
        <ele>180</ele>
        <time>2016-10-07T07:54:43Z</time>
      </trkpt>
      <trkpt lat="43.39923" lon="6.64217">
        <ele>188</ele>
        <time>2016-10-07T07:54:48Z</time>
      </trkpt>
      <trkpt lat="43.3996" lon="6.64222">
        <ele>190</ele>
        <time>2016-10-07T07:55:01Z</time>
      </trkpt>
      <trkpt lat="43.40002" lon="6.64212">
        <ele>194</ele>
        <time>2016-10-07T07:55:15Z</time>
      </trkpt>
      <trkpt lat="43.40033" lon="6.64195">
        <ele>193</ele>
        <time>2016-10-07T07:55:27Z</time>
      </trkpt>
      <trkpt lat="43.40038" lon="6.64186">
        <ele>193</ele>
        <time>2016-10-07T07:55:30Z</time>
      </trkpt>
      <trkpt lat="43.40038" lon="6.64177">
        <ele>192</ele>
        <time>2016-10-07T07:55:35Z</time>
      </trkpt>
      <trkpt lat="43.4004" lon="6.64181">
        <ele>193</ele>
        <time>2016-10-07T07:58:56Z</time>
      </trkpt>
      <trkpt lat="43.40059" lon="6.64211">
        <ele>194</ele>
        <time>2016-10-07T07:59:05Z</time>
      </trkpt>
      <trkpt lat="43.40072" lon="6.64223">
        <ele>196</ele>
        <time>2016-10-07T07:59:10Z</time>
      </trkpt>
      <trkpt lat="43.40081" lon="6.64226">
        <ele>196</ele>
        <time>2016-10-07T07:59:13Z</time>
      </trkpt>
      <trkpt lat="43.40101" lon="6.6422">
        <ele>194</ele>
        <time>2016-10-07T07:59:18Z</time>
      </trkpt>
      <trkpt lat="43.4012" lon="6.64226">
        <ele>194</ele>
        <time>2016-10-07T07:59:22Z</time>
      </trkpt>
      <trkpt lat="43.40192" lon="6.64259">
        <ele>206</ele>
        <time>2016-10-07T07:59:48Z</time>
      </trkpt>
      <trkpt lat="43.4024" lon="6.64271">
        <ele>207</ele>
        <time>2016-10-07T08:00:13Z</time>
      </trkpt>
      <trkpt lat="43.40269" lon="6.64286">
        <ele>211</ele>
        <time>2016-10-07T08:00:33Z</time>
      </trkpt>
      <trkpt lat="43.40281" lon="6.64299">
        <ele>214</ele>
        <time>2016-10-07T08:00:46Z</time>
      </trkpt>
      <trkpt lat="43.40293" lon="6.64307">
        <ele>215</ele>
        <time>2016-10-07T08:00:58Z</time>
      </trkpt>
      <trkpt lat="43.40301" lon="6.64315">
        <ele>216</ele>
        <time>2016-10-07T08:01:03Z</time>
      </trkpt>
      <trkpt lat="43.40332" lon="6.64332">
        <ele>224</ele>
        <time>2016-10-07T08:01:30Z</time>
      </trkpt>
      <trkpt lat="43.40353" lon="6.64353">
        <ele>232</ele>
        <time>2016-10-07T08:01:49Z</time>
      </trkpt>
      <trkpt lat="43.40361" lon="6.64357">
        <ele>232</ele>
        <time>2016-10-07T08:01:55Z</time>
      </trkpt>
      <trkpt lat="43.40405" lon="6.64409">
        <ele>239</ele>
        <time>2016-10-07T08:02:31Z</time>
      </trkpt>
      <trkpt lat="43.40437" lon="6.64413">
        <ele>233</ele>
        <time>2016-10-07T08:02:43Z</time>
      </trkpt>
      <trkpt lat="43.40465" lon="6.64431">
        <ele>246</ele>
        <time>2016-10-07T08:02:56Z</time>
      </trkpt>
      <trkpt lat="43.40483" lon="6.64449">
        <ele>248</ele>
        <time>2016-10-07T08:03:09Z</time>
      </trkpt>
      <trkpt lat="43.40504" lon="6.64479">
        <ele>248</ele>
        <time>2016-10-07T08:03:26Z</time>
      </trkpt>
      <trkpt lat="43.40521" lon="6.64494">
        <ele>248</ele>
        <time>2016-10-07T08:03:37Z</time>
      </trkpt>
      <trkpt lat="43.40554" lon="6.64532">
        <ele>263</ele>
        <time>2016-10-07T08:04:04Z</time>
      </trkpt>
      <trkpt lat="43.4057" lon="6.64545">
        <ele>264</ele>
        <time>2016-10-07T08:04:12Z</time>
      </trkpt>
      <trkpt lat="43.40588" lon="6.64573">
        <ele>270</ele>
        <time>2016-10-07T08:04:25Z</time>
      </trkpt>
      <trkpt lat="43.40594" lon="6.64577">
        <ele>270</ele>
        <time>2016-10-07T08:04:28Z</time>
      </trkpt>
      <trkpt lat="43.40616" lon="6.64567">
        <ele>266</ele>
        <time>2016-10-07T08:04:40Z</time>
      </trkpt>
      <trkpt lat="43.40679" lon="6.64554">
        <ele>269</ele>
        <time>2016-10-07T08:05:16Z</time>
      </trkpt>
      <trkpt lat="43.40699" lon="6.64556">
        <ele>270</ele>
        <time>2016-10-07T08:05:26Z</time>
      </trkpt>
      <trkpt lat="43.4074" lon="6.6455">
        <ele>271</ele>
        <time>2016-10-07T08:05:37Z</time>
      </trkpt>
      <trkpt lat="43.4076" lon="6.64541">
        <ele>273</ele>
        <time>2016-10-07T08:05:40Z</time>
      </trkpt>
      <trkpt lat="43.40782" lon="6.64538">
        <ele>273</ele>
        <time>2016-10-07T08:05:46Z</time>
      </trkpt>
      <trkpt lat="43.4082" lon="6.64544">
        <ele>275</ele>
        <time>2016-10-07T08:06:04Z</time>
      </trkpt>
      <trkpt lat="43.40841" lon="6.64545">
        <ele>274</ele>
        <time>2016-10-07T08:06:16Z</time>
      </trkpt>
      <trkpt lat="43.4086" lon="6.64552">
        <ele>274</ele>
        <time>2016-10-07T08:06:29Z</time>
      </trkpt>
      <trkpt lat="43.40864" lon="6.64557">
        <ele>274</ele>
        <time>2016-10-07T08:06:32Z</time>
      </trkpt>
      <trkpt lat="43.40867" lon="6.64565">
        <ele>275</ele>
        <time>2016-10-07T08:06:37Z</time>
      </trkpt>
      <trkpt lat="43.40866" lon="6.64582">
        <ele>276</ele>
        <time>2016-10-07T08:06:47Z</time>
      </trkpt>
      <trkpt lat="43.40861" lon="6.64604">
        <ele>283</ele>
        <time>2016-10-07T08:07:01Z</time>
      </trkpt>
      <trkpt lat="43.4086" lon="6.64617">
        <ele>283</ele>
        <time>2016-10-07T08:07:11Z</time>
      </trkpt>
      <trkpt lat="43.40857" lon="6.64639">
        <ele>285</ele>
        <time>2016-10-07T08:07:23Z</time>
      </trkpt>
      <trkpt lat="43.40856" lon="6.64643">
        <ele>286</ele>
        <time>2016-10-07T08:07:25Z</time>
      </trkpt>
      <trkpt lat="43.40856" lon="6.64676">
        <ele>289</ele>
        <time>2016-10-07T08:07:42Z</time>
      </trkpt>
      <trkpt lat="43.40842" lon="6.64721">
        <ele>289</ele>
        <time>2016-10-07T08:08:03Z</time>
      </trkpt>
      <trkpt lat="43.40828" lon="6.64738">
        <ele>303</ele>
        <time>2016-10-07T08:08:14Z</time>
      </trkpt>
      <trkpt lat="43.40809" lon="6.64785">
        <ele>303</ele>
        <time>2016-10-07T08:08:34Z</time>
      </trkpt>
      <trkpt lat="43.40804" lon="6.64808">
        <ele>302</ele>
        <time>2016-10-07T08:08:40Z</time>
      </trkpt>
      <trkpt lat="43.40804" lon="6.64857">
        <ele>300</ele>
        <time>2016-10-07T08:08:51Z</time>
      </trkpt>
      <trkpt lat="43.408" lon="6.64889">
        <ele>300</ele>
        <time>2016-10-07T08:08:56Z</time>
      </trkpt>
      <trkpt lat="43.40803" lon="6.649">
        <ele>301</ele>
        <time>2016-10-07T08:08:58Z</time>
      </trkpt>
      <trkpt lat="43.40823" lon="6.6492">
        <ele>305</ele>
        <time>2016-10-07T08:09:07Z</time>
      </trkpt>
      <trkpt lat="43.40845" lon="6.64931">
        <ele>307</ele>
        <time>2016-10-07T08:09:16Z</time>
      </trkpt>
      <trkpt lat="43.40853" lon="6.64942">
        <ele>306</ele>
        <time>2016-10-07T08:09:21Z</time>
      </trkpt>
      <trkpt lat="43.40854" lon="6.64951">
        <ele>307</ele>
        <time>2016-10-07T08:09:25Z</time>
      </trkpt>
      <trkpt lat="43.40847" lon="6.64966">
        <ele>308</ele>
        <time>2016-10-07T08:09:32Z</time>
      </trkpt>
      <trkpt lat="43.40845" lon="6.64989">
        <ele>311</ele>
        <time>2016-10-07T08:09:42Z</time>
      </trkpt>
      <trkpt lat="43.40854" lon="6.65047">
        <ele>316</ele>
        <time>2016-10-07T08:10:02Z</time>
      </trkpt>
      <trkpt lat="43.40851" lon="6.65077">
        <ele>315</ele>
        <time>2016-10-07T08:10:07Z</time>
      </trkpt>
      <trkpt lat="43.40828" lon="6.6514">
        <ele>298</ele>
        <time>2016-10-07T08:10:16Z</time>
      </trkpt>
      <trkpt lat="43.40827" lon="6.65147">
        <ele>298</ele>
        <time>2016-10-07T08:10:17Z</time>
      </trkpt>
      <trkpt lat="43.40835" lon="6.65185">
        <ele>303</ele>
        <time>2016-10-07T08:10:23Z</time>
      </trkpt>
      <trkpt lat="43.40841" lon="6.65192">
        <ele>303</ele>
        <time>2016-10-07T08:10:25Z</time>
      </trkpt>
      <trkpt lat="43.40867" lon="6.65196">
        <ele>304</ele>
        <time>2016-10-07T08:10:33Z</time>
      </trkpt>
      <trkpt lat="43.40896" lon="6.65225">
        <ele>303</ele>
        <time>2016-10-07T08:10:42Z</time>
      </trkpt>
      <trkpt lat="43.40982" lon="6.65266">
        <ele>301</ele>
        <time>2016-10-07T08:11:01Z</time>
      </trkpt>
      <trkpt lat="43.41006" lon="6.65288">
        <ele>297</ele>
        <time>2016-10-07T08:11:06Z</time>
      </trkpt>
      <trkpt lat="43.4103" lon="6.65301">
        <ele>294</ele>
        <time>2016-10-07T08:11:10Z</time>
      </trkpt>
      <trkpt lat="43.41044" lon="6.65315">
        <ele>292</ele>
        <time>2016-10-07T08:11:13Z</time>
      </trkpt>
      <trkpt lat="43.41054" lon="6.65318">
        <ele>291</ele>
        <time>2016-10-07T08:11:15Z</time>
      </trkpt>
      <trkpt lat="43.41114" lon="6.65294">
        <ele>282</ele>
        <time>2016-10-07T08:11:24Z</time>
      </trkpt>
      <trkpt lat="43.41147" lon="6.65259">
        <ele>281</ele>
        <time>2016-10-07T08:11:30Z</time>
      </trkpt>
      <trkpt lat="43.41182" lon="6.65243">
        <ele>274</ele>
        <time>2016-10-07T08:11:34Z</time>
      </trkpt>
      <trkpt lat="43.41206" lon="6.65226">
        <ele>270</ele>
        <time>2016-10-07T08:11:38Z</time>
      </trkpt>
      <trkpt lat="43.41214" lon="6.65223">
        <ele>268</ele>
        <time>2016-10-07T08:11:40Z</time>
      </trkpt>
      <trkpt lat="43.41226" lon="6.65241">
        <ele>265</ele>
        <time>2016-10-07T08:11:46Z</time>
      </trkpt>
      <trkpt lat="43.41236" lon="6.65266">
        <ele>259</ele>
        <time>2016-10-07T08:11:53Z</time>
      </trkpt>
      <trkpt lat="43.41238" lon="6.65282">
        <ele>258</ele>
        <time>2016-10-07T08:11:57Z</time>
      </trkpt>
      <trkpt lat="43.41242" lon="6.65295">
        <ele>257</ele>
        <time>2016-10-07T08:12:05Z</time>
      </trkpt>
      <trkpt lat="43.41247" lon="6.65301">
        <ele>256</ele>
        <time>2016-10-07T08:12:20Z</time>
      </trkpt>
      <trkpt lat="43.41261" lon="6.65328">
        <ele>241</ele>
        <time>2016-10-07T08:12:28Z</time>
      </trkpt>
      <trkpt lat="43.41261" lon="6.65343">
        <ele>237</ele>
        <time>2016-10-07T08:12:32Z</time>
      </trkpt>
      <trkpt lat="43.41264" lon="6.65351">
        <ele>235</ele>
        <time>2016-10-07T08:12:34Z</time>
      </trkpt>
      <trkpt lat="43.41276" lon="6.65361">
        <ele>231</ele>
        <time>2016-10-07T08:12:38Z</time>
      </trkpt>
      <trkpt lat="43.41286" lon="6.65375">
        <ele>229</ele>
        <time>2016-10-07T08:12:42Z</time>
      </trkpt>
      <trkpt lat="43.41297" lon="6.65378">
        <ele>228</ele>
        <time>2016-10-07T08:12:45Z</time>
      </trkpt>
      <trkpt lat="43.41304" lon="6.65398">
        <ele>227</ele>
        <time>2016-10-07T08:12:50Z</time>
      </trkpt>
      <trkpt lat="43.41322" lon="6.65414">
        <ele>225</ele>
        <time>2016-10-07T08:12:54Z</time>
      </trkpt>
      <trkpt lat="43.41344" lon="6.65447">
        <ele>215</ele>
        <time>2016-10-07T08:13:00Z</time>
      </trkpt>
      <trkpt lat="43.41358" lon="6.65476">
        <ele>213</ele>
        <time>2016-10-07T08:13:04Z</time>
      </trkpt>
      <trkpt lat="43.41369" lon="6.65515">
        <ele>204</ele>
        <time>2016-10-07T08:13:11Z</time>
      </trkpt>
      <trkpt lat="43.4138" lon="6.65528">
        <ele>203</ele>
        <time>2016-10-07T08:13:15Z</time>
      </trkpt>
      <trkpt lat="43.41387" lon="6.65545">
        <ele>201</ele>
        <time>2016-10-07T08:13:20Z</time>
      </trkpt>
      <trkpt lat="43.41396" lon="6.65554">
        <ele>200</ele>
        <time>2016-10-07T08:13:24Z</time>
      </trkpt>
      <trkpt lat="43.41404" lon="6.65578">
        <ele>198</ele>
        <time>2016-10-07T08:13:31Z</time>
      </trkpt>
      <trkpt lat="43.41402" lon="6.65588">
        <ele>190</ele>
        <time>2016-10-07T08:13:33Z</time>
      </trkpt>
      <trkpt lat="43.41411" lon="6.65641">
        <ele>181</ele>
        <time>2016-10-07T08:13:55Z</time>
      </trkpt>
      <trkpt lat="43.41409" lon="6.65647">
        <ele>180</ele>
        <time>2016-10-07T08:13:57Z</time>
      </trkpt>
      <trkpt lat="43.41412" lon="6.65673">
        <ele>173</ele>
        <time>2016-10-07T08:14:05Z</time>
      </trkpt>
      <trkpt lat="43.4141" lon="6.65695">
        <ele>168</ele>
        <time>2016-10-07T08:14:15Z</time>
      </trkpt>
      <trkpt lat="43.41406" lon="6.6571">
        <ele>165</ele>
        <time>2016-10-07T08:14:22Z</time>
      </trkpt>
      <trkpt lat="43.41404" lon="6.65734">
        <ele>162</ele>
        <time>2016-10-07T08:14:31Z</time>
      </trkpt>
      <trkpt lat="43.41401" lon="6.65743">
        <ele>161</ele>
        <time>2016-10-07T08:14:35Z</time>
      </trkpt>
      <trkpt lat="43.414" lon="6.65765">
        <ele>152</ele>
        <time>2016-10-07T08:14:42Z</time>
      </trkpt>
      <trkpt lat="43.41398" lon="6.65775">
        <ele>150</ele>
        <time>2016-10-07T08:14:45Z</time>
      </trkpt>
      <trkpt lat="43.41403" lon="6.65812">
        <ele>146</ele>
        <time>2016-10-07T08:14:56Z</time>
      </trkpt>
      <trkpt lat="43.41402" lon="6.65847">
        <ele>137</ele>
        <time>2016-10-07T08:15:09Z</time>
      </trkpt>
      <trkpt lat="43.4141" lon="6.65872">
        <ele>133</ele>
        <time>2016-10-07T08:15:19Z</time>
      </trkpt>
      <trkpt lat="43.41419" lon="6.65884">
        <ele>130</ele>
        <time>2016-10-07T08:15:27Z</time>
      </trkpt>
      <trkpt lat="43.41442" lon="6.65889">
        <ele>128</ele>
        <time>2016-10-07T08:15:33Z</time>
      </trkpt>
      <trkpt lat="43.41459" lon="6.65919">
        <ele>119</ele>
        <time>2016-10-07T08:15:44Z</time>
      </trkpt>
      <trkpt lat="43.41469" lon="6.65954">
        <ele>117</ele>
        <time>2016-10-07T08:15:54Z</time>
      </trkpt>
      <trkpt lat="43.41464" lon="6.65969">
        <ele>117</ele>
        <time>2016-10-07T08:15:59Z</time>
      </trkpt>
      <trkpt lat="43.41462" lon="6.65971">
        <ele>116</ele>
        <time>2016-10-07T08:16:01Z</time>
      </trkpt>
      <trkpt lat="43.41448" lon="6.65982">
        <ele>116</ele>
        <time>2016-10-07T08:16:19Z</time>
      </trkpt>
      <trkpt lat="43.41443" lon="6.65987">
        <ele>115</ele>
        <time>2016-10-07T08:16:21Z</time>
      </trkpt>
      <trkpt lat="43.41383" lon="6.66017">
        <ele>104</ele>
        <time>2016-10-07T08:16:36Z</time>
      </trkpt>
      <trkpt lat="43.41378" lon="6.66029">
        <ele>103</ele>
        <time>2016-10-07T08:16:39Z</time>
      </trkpt>
      <trkpt lat="43.41352" lon="6.66057">
        <ele>100</ele>
        <time>2016-10-07T08:16:53Z</time>
      </trkpt>
      <trkpt lat="43.41358" lon="6.66102">
        <ele>93</ele>
        <time>2016-10-07T08:17:02Z</time>
      </trkpt>
      <trkpt lat="43.41354" lon="6.66115">
        <ele>93</ele>
        <time>2016-10-07T08:17:05Z</time>
      </trkpt>
      <trkpt lat="43.41324" lon="6.66135">
        <ele>88</ele>
        <time>2016-10-07T08:17:12Z</time>
      </trkpt>
      <trkpt lat="43.41312" lon="6.66147">
        <ele>87</ele>
        <time>2016-10-07T08:17:15Z</time>
      </trkpt>
      <trkpt lat="43.41298" lon="6.66154">
        <ele>87</ele>
        <time>2016-10-07T08:17:18Z</time>
      </trkpt>
      <trkpt lat="43.41289" lon="6.66164">
        <ele>86</ele>
        <time>2016-10-07T08:17:22Z</time>
      </trkpt>
      <trkpt lat="43.41288" lon="6.66171">
        <ele>81</ele>
        <time>2016-10-07T08:17:27Z</time>
      </trkpt>
      <trkpt lat="43.41286" lon="6.66178">
        <ele>81</ele>
        <time>2016-10-07T08:19:56Z</time>
      </trkpt>
      <trkpt lat="43.41321" lon="6.662">
        <ele>80</ele>
        <time>2016-10-07T08:20:04Z</time>
      </trkpt>
      <trkpt lat="43.4133" lon="6.66209">
        <ele>80</ele>
        <time>2016-10-07T08:20:06Z</time>
      </trkpt>
      <trkpt lat="43.41345" lon="6.66233">
        <ele>79</ele>
        <time>2016-10-07T08:20:09Z</time>
      </trkpt>
      <trkpt lat="43.41353" lon="6.66269">
        <ele>74</ele>
        <time>2016-10-07T08:20:13Z</time>
      </trkpt>
      <trkpt lat="43.41354" lon="6.66335">
        <ele>69</ele>
        <time>2016-10-07T08:20:20Z</time>
      </trkpt>
      <trkpt lat="43.41364" lon="6.66378">
        <ele>68</ele>
        <time>2016-10-07T08:20:24Z</time>
      </trkpt>
      <trkpt lat="43.41377" lon="6.66408">
        <ele>66</ele>
        <time>2016-10-07T08:20:27Z</time>
      </trkpt>
      <trkpt lat="43.41388" lon="6.66421">
        <ele>61</ele>
        <time>2016-10-07T08:20:29Z</time>
      </trkpt>
      <trkpt lat="43.41416" lon="6.66437">
        <ele>60</ele>
        <time>2016-10-07T08:20:34Z</time>
      </trkpt>
      <trkpt lat="43.41429" lon="6.66452">
        <ele>56</ele>
        <time>2016-10-07T08:20:37Z</time>
      </trkpt>
      <trkpt lat="43.41435" lon="6.66473">
        <ele>56</ele>
        <time>2016-10-07T08:20:40Z</time>
      </trkpt>
      <trkpt lat="43.41446" lon="6.66491">
        <ele>56</ele>
        <time>2016-10-07T08:20:43Z</time>
      </trkpt>
      <trkpt lat="43.41454" lon="6.66495">
        <ele>56</ele>
        <time>2016-10-07T08:20:45Z</time>
      </trkpt>
      <trkpt lat="43.41509" lon="6.66498">
        <ele>54</ele>
        <time>2016-10-07T08:21:00Z</time>
      </trkpt>
      <trkpt lat="43.4152" lon="6.66503">
        <ele>57</ele>
        <time>2016-10-07T08:21:04Z</time>
      </trkpt>
      <trkpt lat="43.41549" lon="6.66496">
        <ele>53</ele>
        <time>2016-10-07T08:21:15Z</time>
      </trkpt>
      <trkpt lat="43.41569" lon="6.66512">
        <ele>56</ele>
        <time>2016-10-07T08:21:23Z</time>
      </trkpt>
      <trkpt lat="43.41575" lon="6.6651">
        <ele>55</ele>
        <time>2016-10-07T08:21:25Z</time>
      </trkpt>
      <trkpt lat="43.41591" lon="6.66494">
        <ele>51</ele>
        <time>2016-10-07T08:21:31Z</time>
      </trkpt>
      <trkpt lat="43.41612" lon="6.66483">
        <ele>50</ele>
        <time>2016-10-07T08:21:36Z</time>
      </trkpt>
      <trkpt lat="43.41629" lon="6.66484">
        <ele>50</ele>
        <time>2016-10-07T08:21:39Z</time>
      </trkpt>
      <trkpt lat="43.41638" lon="6.66494">
        <ele>50</ele>
        <time>2016-10-07T08:21:41Z</time>
      </trkpt>
      <trkpt lat="43.41644" lon="6.66516">
        <ele>55</ele>
        <time>2016-10-07T08:21:44Z</time>
      </trkpt>
      <trkpt lat="43.41655" lon="6.6652">
        <ele>54</ele>
        <time>2016-10-07T08:21:47Z</time>
      </trkpt>
      <trkpt lat="43.41674" lon="6.66501">
        <ele>51</ele>
        <time>2016-10-07T08:21:53Z</time>
      </trkpt>
      <trkpt lat="43.41739" lon="6.6648">
        <ele>45</ele>
        <time>2016-10-07T08:22:07Z</time>
      </trkpt>
      <trkpt lat="43.41747" lon="6.66484">
        <ele>45</ele>
        <time>2016-10-07T08:22:09Z</time>
      </trkpt>
      <trkpt lat="43.41747" lon="6.66499">
        <ele>46</ele>
        <time>2016-10-07T08:22:12Z</time>
      </trkpt>
      <trkpt lat="43.41744" lon="6.66511">
        <ele>49</ele>
        <time>2016-10-07T08:22:14Z</time>
      </trkpt>
      <trkpt lat="43.41744" lon="6.66529">
        <ele>52</ele>
        <time>2016-10-07T08:22:17Z</time>
      </trkpt>
      <trkpt lat="43.41766" lon="6.66569">
        <ele>54</ele>
        <time>2016-10-07T08:22:26Z</time>
      </trkpt>
      <trkpt lat="43.41776" lon="6.66565">
        <ele>53</ele>
        <time>2016-10-07T08:22:29Z</time>
      </trkpt>
      <trkpt lat="43.41794" lon="6.6654">
        <ele>50</ele>
        <time>2016-10-07T08:22:35Z</time>
      </trkpt>
      <trkpt lat="43.41819" lon="6.66516">
        <ele>47</ele>
        <time>2016-10-07T08:22:41Z</time>
      </trkpt>
      <trkpt lat="43.41844" lon="6.66508">
        <ele>43</ele>
        <time>2016-10-07T08:22:45Z</time>
      </trkpt>
      <trkpt lat="43.41871" lon="6.66517">
        <ele>44</ele>
        <time>2016-10-07T08:22:49Z</time>
      </trkpt>
      <trkpt lat="43.41903" lon="6.66513">
        <ele>41</ele>
        <time>2016-10-07T08:22:55Z</time>
      </trkpt>
      <trkpt lat="43.41951" lon="6.66485">
        <ele>33</ele>
        <time>2016-10-07T08:23:03Z</time>
      </trkpt>
      <trkpt lat="43.41987" lon="6.66467">
        <ele>32</ele>
        <time>2016-10-07T08:23:08Z</time>
      </trkpt>
      <trkpt lat="43.42018" lon="6.6643">
        <ele>29</ele>
        <time>2016-10-07T08:23:21Z</time>
      </trkpt>
      <trkpt lat="43.42024" lon="6.66419">
        <ele>29</ele>
        <time>2016-10-07T08:23:25Z</time>
      </trkpt>
      <trkpt lat="43.42025" lon="6.66392">
        <ele>26</ele>
        <time>2016-10-07T08:23:31Z</time>
      </trkpt>
      <trkpt lat="43.42031" lon="6.66375">
        <ele>26</ele>
        <time>2016-10-07T08:23:38Z</time>
      </trkpt>
      <trkpt lat="43.42036" lon="6.66378">
        <ele>26</ele>
        <time>2016-10-07T08:23:44Z</time>
      </trkpt>
      <trkpt lat="43.42044" lon="6.66382">
        <ele>26</ele>
        <time>2016-10-07T08:23:48Z</time>
      </trkpt>
      <trkpt lat="43.4205" lon="6.66381">
        <ele>26</ele>
        <time>2016-10-07T08:23:49Z</time>
      </trkpt>
      <trkpt lat="43.42079" lon="6.66389">
        <ele>25</ele>
        <time>2016-10-07T08:23:55Z</time>
      </trkpt>
      <trkpt lat="43.42096" lon="6.66389">
        <ele>23</ele>
        <time>2016-10-07T08:23:58Z</time>
      </trkpt>
      <trkpt lat="43.42114" lon="6.66385">
        <ele>23</ele>
        <time>2016-10-07T08:24:01Z</time>
      </trkpt>
      <trkpt lat="43.42135" lon="6.66374">
        <ele>23</ele>
        <time>2016-10-07T08:24:05Z</time>
      </trkpt>
      <trkpt lat="43.42196" lon="6.66382">
        <ele>21</ele>
        <time>2016-10-07T08:24:15Z</time>
      </trkpt>
      <trkpt lat="43.42283" lon="6.66433">
        <ele>20</ele>
        <time>2016-10-07T08:24:32Z</time>
      </trkpt>
      <trkpt lat="43.42296" lon="6.6646">
        <ele>20</ele>
        <time>2016-10-07T08:24:36Z</time>
      </trkpt>
      <trkpt lat="43.42348" lon="6.66514">
        <ele>21</ele>
        <time>2016-10-07T08:24:48Z</time>
      </trkpt>
      <trkpt lat="43.42384" lon="6.66526">
        <ele>21</ele>
        <time>2016-10-07T08:24:54Z</time>
      </trkpt>
      <trkpt lat="43.42428" lon="6.66533">
        <ele>21</ele>
        <time>2016-10-07T08:25:01Z</time>
      </trkpt>
      <trkpt lat="43.4246" lon="6.66526">
        <ele>21</ele>
        <time>2016-10-07T08:25:06Z</time>
      </trkpt>
      <trkpt lat="43.42537" lon="6.66487">
        <ele>18</ele>
        <time>2016-10-07T08:25:19Z</time>
      </trkpt>
      <trkpt lat="43.42601" lon="6.66461">
        <ele>16</ele>
        <time>2016-10-07T08:25:29Z</time>
      </trkpt>
      <trkpt lat="43.42611" lon="6.66449">
        <ele>15</ele>
        <time>2016-10-07T08:25:31Z</time>
      </trkpt>
      <trkpt lat="43.42613" lon="6.66429">
        <ele>15</ele>
        <time>2016-10-07T08:25:34Z</time>
      </trkpt>
      <trkpt lat="43.42601" lon="6.66404">
        <ele>15</ele>
        <time>2016-10-07T08:25:37Z</time>
      </trkpt>
      <trkpt lat="43.4259" lon="6.66368">
        <ele>15</ele>
        <time>2016-10-07T08:25:42Z</time>
      </trkpt>
      <trkpt lat="43.42589" lon="6.66359">
        <ele>15</ele>
        <time>2016-10-07T08:25:43Z</time>
      </trkpt>
      <trkpt lat="43.42599" lon="6.66332">
        <ele>15</ele>
        <time>2016-10-07T08:25:47Z</time>
      </trkpt>
      <trkpt lat="43.42622" lon="6.66285">
        <ele>15</ele>
        <time>2016-10-07T08:25:55Z</time>
      </trkpt>
      <trkpt lat="43.42685" lon="6.66193">
        <ele>17</ele>
        <time>2016-10-07T08:26:13Z</time>
      </trkpt>
      <trkpt lat="43.42698" lon="6.66182">
        <ele>17</ele>
        <time>2016-10-07T08:26:16Z</time>
      </trkpt>
      <trkpt lat="43.42761" lon="6.66164">
        <ele>19</ele>
        <time>2016-10-07T08:26:26Z</time>
      </trkpt>
      <trkpt lat="43.42898" lon="6.6608">
        <ele>21</ele>
        <time>2016-10-07T08:26:51Z</time>
      </trkpt>
      <trkpt lat="43.42906" lon="6.66067">
        <ele>21</ele>
        <time>2016-10-07T08:26:55Z</time>
      </trkpt>
      <trkpt lat="43.42901" lon="6.66061">
        <ele>22</ele>
        <time>2016-10-07T08:26:59Z</time>
      </trkpt>
      <trkpt lat="43.42887" lon="6.66057">
        <ele>23</ele>
        <time>2016-10-07T08:27:03Z</time>
      </trkpt>
      <trkpt lat="43.42865" lon="6.66026">
        <ele>25</ele>
        <time>2016-10-07T08:27:17Z</time>
      </trkpt>
      <trkpt lat="43.42854" lon="6.65991">
        <ele>32</ele>
        <time>2016-10-07T08:27:31Z</time>
      </trkpt>
      <trkpt lat="43.42832" lon="6.65958">
        <ele>37</ele>
        <time>2016-10-07T08:27:54Z</time>
      </trkpt>
      <trkpt lat="43.42824" lon="6.65938">
        <ele>38</ele>
        <time>2016-10-07T08:28:07Z</time>
      </trkpt>
      <trkpt lat="43.42815" lon="6.65925">
        <ele>38</ele>
        <time>2016-10-07T08:28:17Z</time>
      </trkpt>
      <trkpt lat="43.42796" lon="6.65926">
        <ele>39</ele>
        <time>2016-10-07T08:28:29Z</time>
      </trkpt>
      <trkpt lat="43.4279" lon="6.65934">
        <ele>39</ele>
        <time>2016-10-07T08:28:35Z</time>
      </trkpt>
      <trkpt lat="43.42791" lon="6.65955">
        <ele>39</ele>
        <time>2016-10-07T08:28:47Z</time>
      </trkpt>
      <trkpt lat="43.42786" lon="6.65961">
        <ele>39</ele>
        <time>2016-10-07T08:28:53Z</time>
      </trkpt>
      <trkpt lat="43.4278" lon="6.65955">
        <ele>39</ele>
        <time>2016-10-07T08:28:58Z</time>
      </trkpt>
      <trkpt lat="43.42768" lon="6.65918">
        <ele>42</ele>
        <time>2016-10-07T08:29:14Z</time>
      </trkpt>
      <trkpt lat="43.42749" lon="6.65884">
        <ele>46</ele>
        <time>2016-10-07T08:29:32Z</time>
      </trkpt>
      <trkpt lat="43.42737" lon="6.65867">
        <ele>46</ele>
        <time>2016-10-07T08:29:41Z</time>
      </trkpt>
      <trkpt lat="43.42733" lon="6.65856">
        <ele>46</ele>
        <time>2016-10-07T08:29:47Z</time>
      </trkpt>
      <trkpt lat="43.4272" lon="6.65854">
        <ele>46</ele>
        <time>2016-10-07T08:29:54Z</time>
      </trkpt>
      <trkpt lat="43.42711" lon="6.65862">
        <ele>47</ele>
        <time>2016-10-07T08:29:59Z</time>
      </trkpt>
      <trkpt lat="43.42702" lon="6.65857">
        <ele>47</ele>
        <time>2016-10-07T08:30:03Z</time>
      </trkpt>
      <trkpt lat="43.42695" lon="6.65847">
        <ele>48</ele>
        <time>2016-10-07T08:30:07Z</time>
      </trkpt>
      <trkpt lat="43.42681" lon="6.65722">
        <ele>55</ele>
        <time>2016-10-07T08:30:42Z</time>
      </trkpt>
      <trkpt lat="43.42675" lon="6.65705">
        <ele>55</ele>
        <time>2016-10-07T08:30:48Z</time>
      </trkpt>
      <trkpt lat="43.42669" lon="6.65648">
        <ele>61</ele>
        <time>2016-10-07T08:31:10Z</time>
      </trkpt>
      <trkpt lat="43.42663" lon="6.65631">
        <ele>65</ele>
        <time>2016-10-07T08:31:18Z</time>
      </trkpt>
      <trkpt lat="43.42649" lon="6.65614">
        <ele>66</ele>
        <time>2016-10-07T08:31:30Z</time>
      </trkpt>
      <trkpt lat="43.42627" lon="6.65568">
        <ele>70</ele>
        <time>2016-10-07T08:31:55Z</time>
      </trkpt>
      <trkpt lat="43.42616" lon="6.65553">
        <ele>70</ele>
        <time>2016-10-07T08:32:01Z</time>
      </trkpt>
      <trkpt lat="43.42615" lon="6.65542">
        <ele>71</ele>
        <time>2016-10-07T08:32:04Z</time>
      </trkpt>
      <trkpt lat="43.4265" lon="6.65497">
        <ele>73</ele>
        <time>2016-10-07T08:32:18Z</time>
      </trkpt>
      <trkpt lat="43.42677" lon="6.65471">
        <ele>72</ele>
        <time>2016-10-07T08:32:26Z</time>
      </trkpt>
      <trkpt lat="43.42695" lon="6.65467">
        <ele>72</ele>
        <time>2016-10-07T08:32:30Z</time>
      </trkpt>
      <trkpt lat="43.42704" lon="6.65454">
        <ele>72</ele>
        <time>2016-10-07T08:32:33Z</time>
      </trkpt>
      <trkpt lat="43.42713" lon="6.65431">
        <ele>72</ele>
        <time>2016-10-07T08:32:39Z</time>
      </trkpt>
      <trkpt lat="43.42711" lon="6.65423">
        <ele>72</ele>
        <time>2016-10-07T08:32:42Z</time>
      </trkpt>
      <trkpt lat="43.42688" lon="6.6541">
        <ele>72</ele>
        <time>2016-10-07T08:32:50Z</time>
      </trkpt>
      <trkpt lat="43.42642" lon="6.65402">
        <ele>75</ele>
        <time>2016-10-07T08:33:02Z</time>
      </trkpt>
      <trkpt lat="43.42627" lon="6.65402">
        <ele>75</ele>
        <time>2016-10-07T08:33:06Z</time>
      </trkpt>
      <trkpt lat="43.42523" lon="6.65361">
        <ele>81</ele>
        <time>2016-10-07T08:33:41Z</time>
      </trkpt>
      <trkpt lat="43.42494" lon="6.65332">
        <ele>86</ele>
        <time>2016-10-07T08:33:57Z</time>
      </trkpt>
      <trkpt lat="43.42473" lon="6.65292">
        <ele>91</ele>
        <time>2016-10-07T08:34:16Z</time>
      </trkpt>
      <trkpt lat="43.42447" lon="6.65266">
        <ele>93</ele>
        <time>2016-10-07T08:34:36Z</time>
      </trkpt>
      <trkpt lat="43.42418" lon="6.65221">
        <ele>94</ele>
        <time>2016-10-07T08:34:58Z</time>
      </trkpt>
      <trkpt lat="43.42416" lon="6.65213">
        <ele>97</ele>
        <time>2016-10-07T08:35:02Z</time>
      </trkpt>
      <trkpt lat="43.42406" lon="6.65193">
        <ele>97</ele>
        <time>2016-10-07T08:35:10Z</time>
      </trkpt>
      <trkpt lat="43.42386" lon="6.6517">
        <ele>96</ele>
        <time>2016-10-07T08:35:17Z</time>
      </trkpt>
      <trkpt lat="43.4237" lon="6.65142">
        <ele>96</ele>
        <time>2016-10-07T08:35:23Z</time>
      </trkpt>
      <trkpt lat="43.4234" lon="6.6508">
        <ele>98</ele>
        <time>2016-10-07T08:35:37Z</time>
      </trkpt>
      <trkpt lat="43.42318" lon="6.6504">
        <ele>101</ele>
        <time>2016-10-07T08:35:49Z</time>
      </trkpt>
      <trkpt lat="43.42299" lon="6.65014">
        <ele>102</ele>
        <time>2016-10-07T08:35:59Z</time>
      </trkpt>
      <trkpt lat="43.42287" lon="6.6498">
        <ele>109</ele>
        <time>2016-10-07T08:36:12Z</time>
      </trkpt>
      <trkpt lat="43.42275" lon="6.64962">
        <ele>110</ele>
        <time>2016-10-07T08:36:18Z</time>
      </trkpt>
      <trkpt lat="43.42254" lon="6.64954">
        <ele>111</ele>
        <time>2016-10-07T08:36:24Z</time>
      </trkpt>
      <trkpt lat="43.4222" lon="6.64983">
        <ele>110</ele>
        <time>2016-10-07T08:36:36Z</time>
      </trkpt>
      <trkpt lat="43.42203" lon="6.65007">
        <ele>104</ele>
        <time>2016-10-07T08:36:42Z</time>
      </trkpt>
      <trkpt lat="43.42192" lon="6.65013">
        <ele>104</ele>
        <time>2016-10-07T08:36:45Z</time>
      </trkpt>
      <trkpt lat="43.42185" lon="6.65011">
        <ele>105</ele>
        <time>2016-10-07T08:36:47Z</time>
      </trkpt>
      <trkpt lat="43.4216" lon="6.64975">
        <ele>109</ele>
        <time>2016-10-07T08:36:55Z</time>
      </trkpt>
      <trkpt lat="43.42122" lon="6.64895">
        <ele>120</ele>
        <time>2016-10-07T08:37:11Z</time>
      </trkpt>
      <trkpt lat="43.42093" lon="6.64903">
        <ele>117</ele>
        <time>2016-10-07T08:37:17Z</time>
      </trkpt>
      <trkpt lat="43.42085" lon="6.64911">
        <ele>115</ele>
        <time>2016-10-07T08:37:19Z</time>
      </trkpt>
      <trkpt lat="43.42052" lon="6.64912">
        <ele>113</ele>
        <time>2016-10-07T08:37:27Z</time>
      </trkpt>
      <trkpt lat="43.42034" lon="6.6488">
        <ele>114</ele>
        <time>2016-10-07T08:37:34Z</time>
      </trkpt>
      <trkpt lat="43.42031" lon="6.6485">
        <ele>116</ele>
        <time>2016-10-07T08:37:46Z</time>
      </trkpt>
      <trkpt lat="43.42023" lon="6.64816">
        <ele>123</ele>
        <time>2016-10-07T08:38:04Z</time>
      </trkpt>
      <trkpt lat="43.42024" lon="6.64804">
        <ele>124</ele>
        <time>2016-10-07T08:38:09Z</time>
      </trkpt>
      <trkpt lat="43.42029" lon="6.648">
        <ele>125</ele>
        <time>2016-10-07T08:38:13Z</time>
      </trkpt>
      <trkpt lat="43.42044" lon="6.64814">
        <ele>125</ele>
        <time>2016-10-07T08:38:25Z</time>
      </trkpt>
      <trkpt lat="43.42053" lon="6.64818">
        <ele>126</ele>
        <time>2016-10-07T08:38:31Z</time>
      </trkpt>
      <trkpt lat="43.42071" lon="6.64817">
        <ele>126</ele>
        <time>2016-10-07T08:38:43Z</time>
      </trkpt>
      <trkpt lat="43.42082" lon="6.6481">
        <ele>127</ele>
        <time>2016-10-07T08:38:51Z</time>
      </trkpt>
      <trkpt lat="43.42085" lon="6.64805">
        <ele>131</ele>
        <time>2016-10-07T08:38:55Z</time>
      </trkpt>
      <trkpt lat="43.4209" lon="6.64779">
        <ele>134</ele>
        <time>2016-10-07T08:39:09Z</time>
      </trkpt>
      <trkpt lat="43.42086" lon="6.64749">
        <ele>138</ele>
        <time>2016-10-07T08:39:23Z</time>
      </trkpt>
      <trkpt lat="43.42108" lon="6.64686">
        <ele>145</ele>
        <time>2016-10-07T08:39:55Z</time>
      </trkpt>
      <trkpt lat="43.42115" lon="6.64676">
        <ele>145</ele>
        <time>2016-10-07T08:40:03Z</time>
      </trkpt>
      <trkpt lat="43.42134" lon="6.64662">
        <ele>152</ele>
        <time>2016-10-07T08:40:19Z</time>
      </trkpt>
      <trkpt lat="43.42139" lon="6.64664">
        <ele>153</ele>
        <time>2016-10-07T08:40:23Z</time>
      </trkpt>
      <trkpt lat="43.42153" lon="6.6468">
        <ele>150</ele>
        <time>2016-10-07T08:40:31Z</time>
      </trkpt>
      <trkpt lat="43.42183" lon="6.64687">
        <ele>154</ele>
        <time>2016-10-07T08:40:49Z</time>
      </trkpt>
      <trkpt lat="43.42197" lon="6.64683">
        <ele>154</ele>
        <time>2016-10-07T08:40:57Z</time>
      </trkpt>
      <trkpt lat="43.42213" lon="6.64686">
        <ele>155</ele>
        <time>2016-10-07T08:41:09Z</time>
      </trkpt>
      <trkpt lat="43.42239" lon="6.64674">
        <ele>159</ele>
        <time>2016-10-07T08:41:25Z</time>
      </trkpt>
      <trkpt lat="43.42254" lon="6.64664">
        <ele>166</ele>
        <time>2016-10-07T08:41:35Z</time>
      </trkpt>
      <trkpt lat="43.42277" lon="6.64641">
        <ele>173</ele>
        <time>2016-10-07T08:41:54Z</time>
      </trkpt>
      <trkpt lat="43.42284" lon="6.6464">
        <ele>173</ele>
        <time>2016-10-07T08:41:58Z</time>
      </trkpt>
      <trkpt lat="43.42314" lon="6.64649">
        <ele>173</ele>
        <time>2016-10-07T08:42:16Z</time>
      </trkpt>
      <trkpt lat="43.42395" lon="6.64655">
        <ele>176</ele>
        <time>2016-10-07T08:42:57Z</time>
      </trkpt>
      <trkpt lat="43.42411" lon="6.64652">
        <ele>175</ele>
        <time>2016-10-07T08:43:03Z</time>
      </trkpt>
      <trkpt lat="43.42434" lon="6.64613">
        <ele>182</ele>
        <time>2016-10-07T08:43:18Z</time>
      </trkpt>
      <trkpt lat="43.42445" lon="6.64608">
        <ele>183</ele>
        <time>2016-10-07T08:43:23Z</time>
      </trkpt>
      <trkpt lat="43.42465" lon="6.6461">
        <ele>183</ele>
        <time>2016-10-07T08:43:29Z</time>
      </trkpt>
      <trkpt lat="43.42507" lon="6.64635">
        <ele>182</ele>
        <time>2016-10-07T08:43:40Z</time>
      </trkpt>
      <trkpt lat="43.42531" lon="6.64644">
        <ele>183</ele>
        <time>2016-10-07T08:43:46Z</time>
      </trkpt>
      <trkpt lat="43.42545" lon="6.64653">
        <ele>184</ele>
        <time>2016-10-07T08:43:50Z</time>
      </trkpt>
      <trkpt lat="43.4261" lon="6.64737">
        <ele>178</ele>
        <time>2016-10-07T08:44:06Z</time>
      </trkpt>
      <trkpt lat="43.42615" lon="6.6474">
        <ele>178</ele>
        <time>2016-10-07T08:44:07Z</time>
      </trkpt>
      <trkpt lat="43.42624" lon="6.64738">
        <ele>179</ele>
        <time>2016-10-07T08:44:09Z</time>
      </trkpt>
      <trkpt lat="43.42631" lon="6.64727">
        <ele>180</ele>
        <time>2016-10-07T08:44:12Z</time>
      </trkpt>
      <trkpt lat="43.42631" lon="6.64715">
        <ele>181</ele>
        <time>2016-10-07T08:44:16Z</time>
      </trkpt>
      <trkpt lat="43.42625" lon="6.647">
        <ele>181</ele>
        <time>2016-10-07T08:44:24Z</time>
      </trkpt>
      <trkpt lat="43.42619" lon="6.64673">
        <ele>183</ele>
        <time>2016-10-07T08:44:37Z</time>
      </trkpt>
      <trkpt lat="43.42607" lon="6.64643">
        <ele>188</ele>
        <time>2016-10-07T08:44:54Z</time>
      </trkpt>
      <trkpt lat="43.42574" lon="6.64605">
        <ele>189</ele>
        <time>2016-10-07T08:45:15Z</time>
      </trkpt>
      <trkpt lat="43.42547" lon="6.64594">
        <ele>188</ele>
        <time>2016-10-07T08:45:26Z</time>
      </trkpt>
      <trkpt lat="43.42459" lon="6.64541">
        <ele>191</ele>
        <time>2016-10-07T08:45:49Z</time>
      </trkpt>
      <trkpt lat="43.42436" lon="6.64524">
        <ele>191</ele>
        <time>2016-10-07T08:45:54Z</time>
      </trkpt>
      <trkpt lat="43.42378" lon="6.64514">
        <ele>192</ele>
        <time>2016-10-07T08:46:06Z</time>
      </trkpt>
      <trkpt lat="43.42346" lon="6.64503">
        <ele>193</ele>
        <time>2016-10-07T08:46:14Z</time>
      </trkpt>
      <trkpt lat="43.42292" lon="6.64495">
        <ele>191</ele>
        <time>2016-10-07T08:46:26Z</time>
      </trkpt>
      <trkpt lat="43.42278" lon="6.64488">
        <ele>191</ele>
        <time>2016-10-07T08:46:29Z</time>
      </trkpt>
      <trkpt lat="43.42265" lon="6.64477">
        <ele>191</ele>
        <time>2016-10-07T08:46:32Z</time>
      </trkpt>
      <trkpt lat="43.42248" lon="6.64441">
        <ele>186</ele>
        <time>2016-10-07T08:46:37Z</time>
      </trkpt>
      <trkpt lat="43.42241" lon="6.64429">
        <ele>187</ele>
        <time>2016-10-07T08:46:39Z</time>
      </trkpt>
      <trkpt lat="43.42222" lon="6.64412">
        <ele>184</ele>
        <time>2016-10-07T08:46:43Z</time>
      </trkpt>
      <trkpt lat="43.42203" lon="6.64377">
        <ele>181</ele>
        <time>2016-10-07T08:46:48Z</time>
      </trkpt>
      <trkpt lat="43.42186" lon="6.64357">
        <ele>181</ele>
        <time>2016-10-07T08:46:51Z</time>
      </trkpt>
      <trkpt lat="43.42158" lon="6.64334">
        <ele>178</ele>
        <time>2016-10-07T08:46:55Z</time>
      </trkpt>
      <trkpt lat="43.42134" lon="6.64305">
        <ele>177</ele>
        <time>2016-10-07T08:47:00Z</time>
      </trkpt>
      <trkpt lat="43.42131" lon="6.64295">
        <ele>177</ele>
        <time>2016-10-07T08:47:04Z</time>
      </trkpt>
      <trkpt lat="43.42138" lon="6.64285">
        <ele>177</ele>
        <time>2016-10-07T08:47:08Z</time>
      </trkpt>
      <trkpt lat="43.42139" lon="6.6427">
        <ele>176</ele>
        <time>2016-10-07T08:47:12Z</time>
      </trkpt>
      <trkpt lat="43.42137" lon="6.64263">
        <ele>176</ele>
        <time>2016-10-07T08:47:14Z</time>
      </trkpt>
      <trkpt lat="43.42128" lon="6.64245">
        <ele>173</ele>
        <time>2016-10-07T08:47:17Z</time>
      </trkpt>
      <trkpt lat="43.42114" lon="6.6421">
        <ele>171</ele>
        <time>2016-10-07T08:47:21Z</time>
      </trkpt>
      <trkpt lat="43.42103" lon="6.64189">
        <ele>171</ele>
        <time>2016-10-07T08:47:24Z</time>
      </trkpt>
      <trkpt lat="43.421" lon="6.64172">
        <ele>172</ele>
        <time>2016-10-07T08:47:27Z</time>
      </trkpt>
      <trkpt lat="43.42101" lon="6.64139">
        <ele>161</ele>
        <time>2016-10-07T08:47:31Z</time>
      </trkpt>
      <trkpt lat="43.42096" lon="6.64113">
        <ele>159</ele>
        <time>2016-10-07T08:47:34Z</time>
      </trkpt>
      <trkpt lat="43.42072" lon="6.64067">
        <ele>163</ele>
        <time>2016-10-07T08:47:39Z</time>
      </trkpt>
      <trkpt lat="43.42036" lon="6.63989">
        <ele>158</ele>
        <time>2016-10-07T08:47:50Z</time>
      </trkpt>
      <trkpt lat="43.42036" lon="6.63976">
        <ele>158</ele>
        <time>2016-10-07T08:47:53Z</time>
      </trkpt>
      <trkpt lat="43.4204" lon="6.63973">
        <ele>157</ele>
        <time>2016-10-07T08:47:55Z</time>
      </trkpt>
      <trkpt lat="43.42049" lon="6.63974">
        <ele>156</ele>
        <time>2016-10-07T08:47:57Z</time>
      </trkpt>
      <trkpt lat="43.42061" lon="6.6398">
        <ele>155</ele>
        <time>2016-10-07T08:47:59Z</time>
      </trkpt>
      <trkpt lat="43.42086" lon="6.64004">
        <ele>147</ele>
        <time>2016-10-07T08:48:03Z</time>
      </trkpt>
      <trkpt lat="43.42154" lon="6.64028">
        <ele>142</ele>
        <time>2016-10-07T08:48:13Z</time>
      </trkpt>
      <trkpt lat="43.4217" lon="6.64042">
        <ele>131</ele>
        <time>2016-10-07T08:48:16Z</time>
      </trkpt>
      <trkpt lat="43.42181" lon="6.64063">
        <ele>132</ele>
        <time>2016-10-07T08:48:19Z</time>
      </trkpt>
      <trkpt lat="43.42188" lon="6.64085">
        <ele>135</ele>
        <time>2016-10-07T08:48:22Z</time>
      </trkpt>
      <trkpt lat="43.42191" lon="6.64109">
        <ele>136</ele>
        <time>2016-10-07T08:48:25Z</time>
      </trkpt>
      <trkpt lat="43.42196" lon="6.64123">
        <ele>136</ele>
        <time>2016-10-07T08:48:27Z</time>
      </trkpt>
      <trkpt lat="43.4224" lon="6.64154">
        <ele>134</ele>
        <time>2016-10-07T08:48:38Z</time>
      </trkpt>
      <trkpt lat="43.42264" lon="6.64183">
        <ele>134</ele>
        <time>2016-10-07T08:48:44Z</time>
      </trkpt>
      <trkpt lat="43.42306" lon="6.64218">
        <ele>135</ele>
        <time>2016-10-07T08:48:53Z</time>
      </trkpt>
      <trkpt lat="43.42372" lon="6.64265">
        <ele>142</ele>
        <time>2016-10-07T08:49:07Z</time>
      </trkpt>
      <trkpt lat="43.42384" lon="6.6427">
        <ele>141</ele>
        <time>2016-10-07T08:49:10Z</time>
      </trkpt>
      <trkpt lat="43.42395" lon="6.64279">
        <ele>141</ele>
        <time>2016-10-07T08:49:13Z</time>
      </trkpt>
      <trkpt lat="43.42408" lon="6.64279">
        <ele>140</ele>
        <time>2016-10-07T08:49:16Z</time>
      </trkpt>
      <trkpt lat="43.42438" lon="6.64267">
        <ele>134</ele>
        <time>2016-10-07T08:49:24Z</time>
      </trkpt>
      <trkpt lat="43.4249" lon="6.64255">
        <ele>129</ele>
        <time>2016-10-07T08:49:32Z</time>
      </trkpt>
      <trkpt lat="43.42546" lon="6.64259">
        <ele>127</ele>
        <time>2016-10-07T08:49:40Z</time>
      </trkpt>
      <trkpt lat="43.42567" lon="6.64265">
        <ele>125</ele>
        <time>2016-10-07T08:49:43Z</time>
      </trkpt>
      <trkpt lat="43.42594" lon="6.64287">
        <ele>122</ele>
        <time>2016-10-07T08:49:51Z</time>
      </trkpt>
      <trkpt lat="43.4261" lon="6.64297">
        <ele>123</ele>
        <time>2016-10-07T08:49:59Z</time>
      </trkpt>
      <trkpt lat="43.42655" lon="6.64341">
        <ele>134</ele>
        <time>2016-10-07T08:50:15Z</time>
      </trkpt>
      <trkpt lat="43.42679" lon="6.64358">
        <ele>133</ele>
        <time>2016-10-07T08:50:28Z</time>
      </trkpt>
      <trkpt lat="43.42691" lon="6.6437">
        <ele>136</ele>
        <time>2016-10-07T08:50:35Z</time>
      </trkpt>
      <trkpt lat="43.42709" lon="6.6437">
        <ele>135</ele>
        <time>2016-10-07T08:50:42Z</time>
      </trkpt>
      <trkpt lat="43.42733" lon="6.64375">
        <ele>135</ele>
        <time>2016-10-07T08:50:50Z</time>
      </trkpt>
      <trkpt lat="43.42764" lon="6.64372">
        <ele>130</ele>
        <time>2016-10-07T08:50:59Z</time>
      </trkpt>
      <trkpt lat="43.42797" lon="6.64374">
        <ele>129</ele>
        <time>2016-10-07T08:51:10Z</time>
      </trkpt>
      <trkpt lat="43.42859" lon="6.64396">
        <ele>124</ele>
        <time>2016-10-07T08:51:30Z</time>
      </trkpt>
      <trkpt lat="43.42886" lon="6.64408">
        <ele>124</ele>
        <time>2016-10-07T08:51:35Z</time>
      </trkpt>
      <trkpt lat="43.42954" lon="6.64419">
        <ele>124</ele>
        <time>2016-10-07T08:51:45Z</time>
      </trkpt>
      <trkpt lat="43.42967" lon="6.64429">
        <ele>122</ele>
        <time>2016-10-07T08:51:47Z</time>
      </trkpt>
      <trkpt lat="43.42982" lon="6.64449">
        <ele>122</ele>
        <time>2016-10-07T08:51:50Z</time>
      </trkpt>
      <trkpt lat="43.42989" lon="6.64476">
        <ele>124</ele>
        <time>2016-10-07T08:51:53Z</time>
      </trkpt>
      <trkpt lat="43.43057" lon="6.64502">
        <ele>115</ele>
        <time>2016-10-07T08:52:07Z</time>
      </trkpt>
      <trkpt lat="43.43082" lon="6.64521">
        <ele>114</ele>
        <time>2016-10-07T08:52:11Z</time>
      </trkpt>
      <trkpt lat="43.43099" lon="6.64526">
        <ele>107</ele>
        <time>2016-10-07T08:52:14Z</time>
      </trkpt>
      <trkpt lat="43.43103" lon="6.64529">
        <ele>108</ele>
        <time>2016-10-07T08:52:15Z</time>
      </trkpt>
      <trkpt lat="43.43099" lon="6.6455">
        <ele>109</ele>
        <time>2016-10-07T08:52:18Z</time>
      </trkpt>
      <trkpt lat="43.43104" lon="6.64558">
        <ele>110</ele>
        <time>2016-10-07T08:52:20Z</time>
      </trkpt>
      <trkpt lat="43.43121" lon="6.64566">
        <ele>109</ele>
        <time>2016-10-07T08:52:25Z</time>
      </trkpt>
      <trkpt lat="43.43158" lon="6.64591">
        <ele>114</ele>
        <time>2016-10-07T08:52:39Z</time>
      </trkpt>
      <trkpt lat="43.43173" lon="6.64592">
        <ele>112</ele>
        <time>2016-10-07T08:52:45Z</time>
      </trkpt>
      <trkpt lat="43.43193" lon="6.64602">
        <ele>113</ele>
        <time>2016-10-07T08:52:51Z</time>
      </trkpt>
      <trkpt lat="43.43245" lon="6.64634">
        <ele>113</ele>
        <time>2016-10-07T08:53:07Z</time>
      </trkpt>
      <trkpt lat="43.43255" lon="6.6465">
        <ele>111</ele>
        <time>2016-10-07T08:53:12Z</time>
      </trkpt>
      <trkpt lat="43.43254" lon="6.64699">
        <ele>112</ele>
        <time>2016-10-07T08:53:23Z</time>
      </trkpt>
      <trkpt lat="43.43261" lon="6.64724">
        <ele>112</ele>
        <time>2016-10-07T08:53:28Z</time>
      </trkpt>
      <trkpt lat="43.4326" lon="6.64757">
        <ele>112</ele>
        <time>2016-10-07T08:53:33Z</time>
      </trkpt>
      <trkpt lat="43.43252" lon="6.64819">
        <ele>109</ele>
        <time>2016-10-07T08:53:42Z</time>
      </trkpt>
      <trkpt lat="43.43239" lon="6.64845">
        <ele>111</ele>
        <time>2016-10-07T08:53:46Z</time>
      </trkpt>
      <trkpt lat="43.43237" lon="6.64859">
        <ele>111</ele>
        <time>2016-10-07T08:53:49Z</time>
      </trkpt>
      <trkpt lat="43.43242" lon="6.64867">
        <ele>110</ele>
        <time>2016-10-07T08:53:52Z</time>
      </trkpt>
      <trkpt lat="43.43256" lon="6.64864">
        <ele>101</ele>
        <time>2016-10-07T08:53:57Z</time>
      </trkpt>
      <trkpt lat="43.43262" lon="6.64869">
        <ele>100</ele>
        <time>2016-10-07T08:53:59Z</time>
      </trkpt>
      <trkpt lat="43.43262" lon="6.64879">
        <ele>99</ele>
        <time>2016-10-07T08:54:01Z</time>
      </trkpt>
      <trkpt lat="43.43255" lon="6.64899">
        <ele>99</ele>
        <time>2016-10-07T08:54:05Z</time>
      </trkpt>
      <trkpt lat="43.43257" lon="6.64914">
        <ele>99</ele>
        <time>2016-10-07T08:54:07Z</time>
      </trkpt>
      <trkpt lat="43.43264" lon="6.6494">
        <ele>93</ele>
        <time>2016-10-07T08:54:10Z</time>
      </trkpt>
      <trkpt lat="43.43266" lon="6.65008">
        <ele>86</ele>
        <time>2016-10-07T08:54:16Z</time>
      </trkpt>
      <trkpt lat="43.4327" lon="6.65027">
        <ele>83</ele>
        <time>2016-10-07T08:54:18Z</time>
      </trkpt>
      <trkpt lat="43.43301" lon="6.65056">
        <ele>79</ele>
        <time>2016-10-07T08:54:26Z</time>
      </trkpt>
      <trkpt lat="43.43318" lon="6.65067">
        <ele>77</ele>
        <time>2016-10-07T08:54:29Z</time>
      </trkpt>
      <trkpt lat="43.43339" lon="6.65092">
        <ele>67</ele>
        <time>2016-10-07T08:54:35Z</time>
      </trkpt>
      <trkpt lat="43.43352" lon="6.65088">
        <ele>65</ele>
        <time>2016-10-07T08:54:39Z</time>
      </trkpt>
      <trkpt lat="43.43357" lon="6.65081">
        <ele>69</ele>
        <time>2016-10-07T08:54:41Z</time>
      </trkpt>
      <trkpt lat="43.43376" lon="6.65043">
        <ele>68</ele>
        <time>2016-10-07T08:54:46Z</time>
      </trkpt>
      <trkpt lat="43.43393" lon="6.65016">
        <ele>67</ele>
        <time>2016-10-07T08:54:49Z</time>
      </trkpt>
      <trkpt lat="43.43404" lon="6.65004">
        <ele>66</ele>
        <time>2016-10-07T08:54:51Z</time>
      </trkpt>
      <trkpt lat="43.43415" lon="6.65005">
        <ele>65</ele>
        <time>2016-10-07T08:54:53Z</time>
      </trkpt>
      <trkpt lat="43.43435" lon="6.65017">
        <ele>59</ele>
        <time>2016-10-07T08:54:57Z</time>
      </trkpt>
      <trkpt lat="43.43453" lon="6.65013">
        <ele>57</ele>
        <time>2016-10-07T08:55:00Z</time>
      </trkpt>
      <trkpt lat="43.43461" lon="6.65001">
        <ele>57</ele>
        <time>2016-10-07T08:55:03Z</time>
      </trkpt>
      <trkpt lat="43.43462" lon="6.64987">
        <ele>60</ele>
        <time>2016-10-07T08:55:07Z</time>
      </trkpt>
      <trkpt lat="43.43472" lon="6.64968">
        <ele>60</ele>
        <time>2016-10-07T08:55:13Z</time>
      </trkpt>
      <trkpt lat="43.43478" lon="6.64964">
        <ele>60</ele>
        <time>2016-10-07T08:55:15Z</time>
      </trkpt>
      <trkpt lat="43.43524" lon="6.64957">
        <ele>52</ele>
        <time>2016-10-07T08:55:30Z</time>
      </trkpt>
      <trkpt lat="43.43547" lon="6.64966">
        <ele>50</ele>
        <time>2016-10-07T08:55:35Z</time>
      </trkpt>
      <trkpt lat="43.43571" lon="6.64988">
        <ele>47</ele>
        <time>2016-10-07T08:55:40Z</time>
      </trkpt>
      <trkpt lat="43.43581" lon="6.64992">
        <ele>45</ele>
        <time>2016-10-07T08:55:43Z</time>
      </trkpt>
      <trkpt lat="43.43587" lon="6.64999">
        <ele>43</ele>
        <time>2016-10-07T08:55:46Z</time>
      </trkpt>
      <trkpt lat="43.43594" lon="6.64994">
        <ele>42</ele>
        <time>2016-10-07T08:55:49Z</time>
      </trkpt>
      <trkpt lat="43.43599" lon="6.64982">
        <ele>41</ele>
        <time>2016-10-07T08:55:53Z</time>
      </trkpt>
      <trkpt lat="43.43601" lon="6.64954">
        <ele>42</ele>
        <time>2016-10-07T08:56:00Z</time>
      </trkpt>
      <trkpt lat="43.43617" lon="6.64931">
        <ele>41</ele>
        <time>2016-10-07T08:56:08Z</time>
      </trkpt>
      <trkpt lat="43.43627" lon="6.64904">
        <ele>41</ele>
        <time>2016-10-07T08:56:13Z</time>
      </trkpt>
      <trkpt lat="43.43623" lon="6.64875">
        <ele>42</ele>
        <time>2016-10-07T08:56:18Z</time>
      </trkpt>
      <trkpt lat="43.43602" lon="6.6483">
        <ele>46</ele>
        <time>2016-10-07T08:56:30Z</time>
      </trkpt>
      <trkpt lat="43.43603" lon="6.64818">
        <ele>46</ele>
        <time>2016-10-07T08:56:34Z</time>
      </trkpt>
      <trkpt lat="43.43611" lon="6.64804">
        <ele>45</ele>
        <time>2016-10-07T08:56:57Z</time>
      </trkpt>
      <trkpt lat="43.43625" lon="6.64782">
        <ele>44</ele>
        <time>2016-10-07T08:57:04Z</time>
      </trkpt>
      <trkpt lat="43.43625" lon="6.64772">
        <ele>45</ele>
        <time>2016-10-07T08:57:15Z</time>
      </trkpt>
      <trkpt lat="43.43621" lon="6.64762">
        <ele>45</ele>
        <time>2016-10-07T08:57:19Z</time>
      </trkpt>
      <trkpt lat="43.43614" lon="6.64753">
        <ele>47</ele>
        <time>2016-10-07T08:57:27Z</time>
      </trkpt>
      <trkpt lat="43.43614" lon="6.64743">
        <ele>48</ele>
        <time>2016-10-07T08:57:41Z</time>
      </trkpt>
      <trkpt lat="43.43608" lon="6.64708">
        <ele>48</ele>
        <time>2016-10-07T08:58:05Z</time>
      </trkpt>
      <trkpt lat="43.4361" lon="6.64696">
        <ele>48</ele>
        <time>2016-10-07T08:58:13Z</time>
      </trkpt>
      <trkpt lat="43.43617" lon="6.64684">
        <ele>47</ele>
        <time>2016-10-07T08:58:23Z</time>
      </trkpt>
      <trkpt lat="43.43626" lon="6.64637">
        <ele>43</ele>
        <time>2016-10-07T08:58:34Z</time>
      </trkpt>
      <trkpt lat="43.43621" lon="6.64626">
        <ele>44</ele>
        <time>2016-10-07T08:58:38Z</time>
      </trkpt>
      <trkpt lat="43.43607" lon="6.64613">
        <ele>45</ele>
        <time>2016-10-07T08:58:48Z</time>
      </trkpt>
      <trkpt lat="43.43606" lon="6.64606">
        <ele>45</ele>
        <time>2016-10-07T08:58:52Z</time>
      </trkpt>
      <trkpt lat="43.43605" lon="6.64589">
        <ele>46</ele>
        <time>2016-10-07T08:59:18Z</time>
      </trkpt>
      <trkpt lat="43.43605" lon="6.64586">
        <ele>46</ele>
        <time>2016-10-07T08:59:19Z</time>
      </trkpt>
      <trkpt lat="43.43607" lon="6.64566">
        <ele>41</ele>
        <time>2016-10-07T08:59:29Z</time>
      </trkpt>
      <trkpt lat="43.43596" lon="6.64551">
        <ele>41</ele>
        <time>2016-10-07T08:59:39Z</time>
      </trkpt>
      <trkpt lat="43.43585" lon="6.64523">
        <ele>39</ele>
        <time>2016-10-07T08:59:52Z</time>
      </trkpt>
      <trkpt lat="43.43585" lon="6.64508">
        <ele>39</ele>
        <time>2016-10-07T08:59:57Z</time>
      </trkpt>
      <trkpt lat="43.43575" lon="6.64459">
        <ele>41</ele>
        <time>2016-10-07T09:00:10Z</time>
      </trkpt>
      <trkpt lat="43.43578" lon="6.64447">
        <ele>40</ele>
        <time>2016-10-07T09:00:15Z</time>
      </trkpt>
      <trkpt lat="43.43578" lon="6.64411">
        <ele>38</ele>
        <time>2016-10-07T09:00:34Z</time>
      </trkpt>
      <trkpt lat="43.43581" lon="6.64407">
        <ele>38</ele>
        <time>2016-10-07T09:00:37Z</time>
      </trkpt>
      <trkpt lat="43.43583" lon="6.64402">
        <ele>38</ele>
        <time>2016-10-07T09:00:41Z</time>
      </trkpt>
      <trkpt lat="43.43581" lon="6.64399">
        <ele>39</ele>
        <time>2016-10-07T09:00:44Z</time>
      </trkpt>
      <trkpt lat="43.43582" lon="6.64382">
        <ele>39</ele>
        <time>2016-10-07T09:00:55Z</time>
      </trkpt>
      <trkpt lat="43.43579" lon="6.64358">
        <ele>40</ele>
        <time>2016-10-07T09:01:08Z</time>
      </trkpt>
      <trkpt lat="43.43589" lon="6.64318">
        <ele>40</ele>
        <time>2016-10-07T09:01:30Z</time>
      </trkpt>
      <trkpt lat="43.43594" lon="6.64278">
        <ele>41</ele>
        <time>2016-10-07T09:01:38Z</time>
      </trkpt>
      <trkpt lat="43.436" lon="6.64266">
        <ele>41</ele>
        <time>2016-10-07T09:01:40Z</time>
      </trkpt>
      <trkpt lat="43.4365" lon="6.64247">
        <ele>41</ele>
        <time>2016-10-07T09:01:58Z</time>
      </trkpt>
      <trkpt lat="43.4368" lon="6.64224">
        <ele>40</ele>
        <time>2016-10-07T09:02:16Z</time>
      </trkpt>
      <trkpt lat="43.43681" lon="6.64217">
        <ele>41</ele>
        <time>2016-10-07T09:02:19Z</time>
      </trkpt>
      <trkpt lat="43.43678" lon="6.64205">
        <ele>41</ele>
        <time>2016-10-07T09:02:23Z</time>
      </trkpt>
      <trkpt lat="43.4368" lon="6.64197">
        <ele>42</ele>
        <time>2016-10-07T09:02:25Z</time>
      </trkpt>
      <trkpt lat="43.43692" lon="6.64178">
        <ele>42</ele>
        <time>2016-10-07T09:02:28Z</time>
      </trkpt>
      <trkpt lat="43.43725" lon="6.6414">
        <ele>47</ele>
        <time>2016-10-07T09:02:34Z</time>
      </trkpt>
      <trkpt lat="43.43738" lon="6.64132">
        <ele>47</ele>
        <time>2016-10-07T09:02:38Z</time>
      </trkpt>
      <trkpt lat="43.43748" lon="6.64108">
        <ele>48</ele>
        <time>2016-10-07T09:02:43Z</time>
      </trkpt>
      <trkpt lat="43.43772" lon="6.64088">
        <ele>46</ele>
        <time>2016-10-07T09:02:50Z</time>
      </trkpt>
      <trkpt lat="43.43805" lon="6.64072">
        <ele>48</ele>
        <time>2016-10-07T09:02:59Z</time>
      </trkpt>
      <trkpt lat="43.43923" lon="6.63868">
        <ele>37</ele>
        <time>2016-10-07T09:03:32Z</time>
      </trkpt>
      <trkpt lat="43.43956" lon="6.63829">
        <ele>36</ele>
        <time>2016-10-07T09:03:38Z</time>
      </trkpt>
      <trkpt lat="43.43954" lon="6.63824">
        <ele>36</ele>
        <time>2016-10-07T09:03:40Z</time>
      </trkpt>
      <trkpt lat="43.43923" lon="6.63812">
        <ele>37</ele>
        <time>2016-10-07T09:03:50Z</time>
      </trkpt>
      <trkpt lat="43.43889" lon="6.63803">
        <ele>42</ele>
        <time>2016-10-07T09:04:04Z</time>
      </trkpt>
      <trkpt lat="43.43861" lon="6.63787">
        <ele>43</ele>
        <time>2016-10-07T09:04:22Z</time>
      </trkpt>
      <trkpt lat="43.43839" lon="6.6377">
        <ele>44</ele>
        <time>2016-10-07T09:04:33Z</time>
      </trkpt>
      <trkpt lat="43.43835" lon="6.63762">
        <ele>45</ele>
        <time>2016-10-07T09:04:37Z</time>
      </trkpt>
      <trkpt lat="43.43826" lon="6.6376">
        <ele>49</ele>
        <time>2016-10-07T09:04:44Z</time>
      </trkpt>
      <trkpt lat="43.43796" lon="6.63754">
        <ele>53</ele>
        <time>2016-10-07T09:05:31Z</time>
      </trkpt>
      <trkpt lat="43.43751" lon="6.63744">
        <ele>60</ele>
        <time>2016-10-07T09:06:01Z</time>
      </trkpt>
      <trkpt lat="43.43742" lon="6.63748">
        <ele>63</ele>
        <time>2016-10-07T09:06:13Z</time>
      </trkpt>
      <trkpt lat="43.43735" lon="6.63758">
        <ele>64</ele>
        <time>2016-10-07T09:06:28Z</time>
      </trkpt>
      <trkpt lat="43.43733" lon="6.63769">
        <ele>65</ele>
        <time>2016-10-07T09:06:38Z</time>
      </trkpt>
      <trkpt lat="43.43723" lon="6.63774">
        <ele>67</ele>
        <time>2016-10-07T09:06:48Z</time>
      </trkpt>
      <trkpt lat="43.4371" lon="6.63774">
        <ele>68</ele>
        <time>2016-10-07T09:07:00Z</time>
      </trkpt>
      <trkpt lat="43.43699" lon="6.63761">
        <ele>69</ele>
        <time>2016-10-07T09:07:11Z</time>
      </trkpt>
      <trkpt lat="43.43685" lon="6.63751">
        <ele>70</ele>
        <time>2016-10-07T09:07:21Z</time>
      </trkpt>
      <trkpt lat="43.4367" lon="6.63747">
        <ele>72</ele>
        <time>2016-10-07T09:07:30Z</time>
      </trkpt>
      <trkpt lat="43.43649" lon="6.63721">
        <ele>78</ele>
        <time>2016-10-07T09:07:47Z</time>
      </trkpt>
      <trkpt lat="43.43641" lon="6.63716">
        <ele>78</ele>
        <time>2016-10-07T09:07:53Z</time>
      </trkpt>
      <trkpt lat="43.43606" lon="6.63714">
        <ele>80</ele>
        <time>2016-10-07T09:08:18Z</time>
      </trkpt>
      <trkpt lat="43.43589" lon="6.63707">
        <ele>80</ele>
        <time>2016-10-07T09:08:31Z</time>
      </trkpt>
      <trkpt lat="43.43562" lon="6.63668">
        <ele>80</ele>
        <time>2016-10-07T09:08:47Z</time>
      </trkpt>
      <trkpt lat="43.4354" lon="6.63644">
        <ele>84</ele>
        <time>2016-10-07T09:08:57Z</time>
      </trkpt>
      <trkpt lat="43.43516" lon="6.63608">
        <ele>85</ele>
        <time>2016-10-07T09:09:09Z</time>
      </trkpt>
      <trkpt lat="43.43488" lon="6.63536">
        <ele>87</ele>
        <time>2016-10-07T09:09:33Z</time>
      </trkpt>
      <trkpt lat="43.43478" lon="6.635">
        <ele>92</ele>
        <time>2016-10-07T09:09:46Z</time>
      </trkpt>
      <trkpt lat="43.43481" lon="6.63494">
        <ele>93</ele>
        <time>2016-10-07T09:09:49Z</time>
      </trkpt>
      <trkpt lat="43.43502" lon="6.63527">
        <ele>93</ele>
        <time>2016-10-07T09:09:59Z</time>
      </trkpt>
      <trkpt lat="43.43515" lon="6.63531">
        <ele>94</ele>
        <time>2016-10-07T09:10:03Z</time>
      </trkpt>
      <trkpt lat="43.43527" lon="6.63546">
        <ele>94</ele>
        <time>2016-10-07T09:10:08Z</time>
      </trkpt>
      <trkpt lat="43.43531" lon="6.63573">
        <ele>92</ele>
        <time>2016-10-07T09:10:14Z</time>
      </trkpt>
      <trkpt lat="43.43558" lon="6.63623">
        <ele>86</ele>
        <time>2016-10-07T09:10:27Z</time>
      </trkpt>
      <trkpt lat="43.43586" lon="6.6363">
        <ele>88</ele>
        <time>2016-10-07T09:10:34Z</time>
      </trkpt>
      <trkpt lat="43.4359" lon="6.6364">
        <ele>87</ele>
        <time>2016-10-07T09:10:36Z</time>
      </trkpt>
      <trkpt lat="43.43599" lon="6.63647">
        <ele>87</ele>
        <time>2016-10-07T09:10:39Z</time>
      </trkpt>
      <trkpt lat="43.43629" lon="6.63627">
        <ele>88</ele>
        <time>2016-10-07T09:10:48Z</time>
      </trkpt>
      <trkpt lat="43.43647" lon="6.63644">
        <ele>85</ele>
        <time>2016-10-07T09:10:54Z</time>
      </trkpt>
      <trkpt lat="43.43666" lon="6.63651">
        <ele>83</ele>
        <time>2016-10-07T09:10:59Z</time>
      </trkpt>
      <trkpt lat="43.43685" lon="6.63642">
        <ele>80</ele>
        <time>2016-10-07T09:11:07Z</time>
      </trkpt>
      <trkpt lat="43.43699" lon="6.6363">
        <ele>80</ele>
        <time>2016-10-07T09:11:16Z</time>
      </trkpt>
      <trkpt lat="43.43725" lon="6.63597">
        <ele>81</ele>
        <time>2016-10-07T09:11:24Z</time>
      </trkpt>
      <trkpt lat="43.43748" lon="6.63536">
        <ele>91</ele>
        <time>2016-10-07T09:11:38Z</time>
      </trkpt>
      <trkpt lat="43.43756" lon="6.63539">
        <ele>79</ele>
        <time>2016-10-07T09:11:40Z</time>
      </trkpt>
      <trkpt lat="43.43774" lon="6.63527">
        <ele>79</ele>
        <time>2016-10-07T09:11:45Z</time>
      </trkpt>
      <trkpt lat="43.438" lon="6.6348">
        <ele>80</ele>
        <time>2016-10-07T09:11:53Z</time>
      </trkpt>
      <trkpt lat="43.43804" lon="6.63406">
        <ele>83</ele>
        <time>2016-10-07T09:12:05Z</time>
      </trkpt>
      <trkpt lat="43.43801" lon="6.63384">
        <ele>85</ele>
        <time>2016-10-07T09:12:10Z</time>
      </trkpt>
      <trkpt lat="43.43805" lon="6.63378">
        <ele>84</ele>
        <time>2016-10-07T09:12:12Z</time>
      </trkpt>
      <trkpt lat="43.43811" lon="6.6338">
        <ele>83</ele>
        <time>2016-10-07T09:12:14Z</time>
      </trkpt>
      <trkpt lat="43.43818" lon="6.63374">
        <ele>83</ele>
        <time>2016-10-07T09:12:19Z</time>
      </trkpt>
      <trkpt lat="43.43825" lon="6.63376">
        <ele>82</ele>
        <time>2016-10-07T09:12:22Z</time>
      </trkpt>
      <trkpt lat="43.43835" lon="6.63374">
        <ele>69</ele>
        <time>2016-10-07T09:12:24Z</time>
      </trkpt>
      <trkpt lat="43.43862" lon="6.63356">
        <ele>69</ele>
        <time>2016-10-07T09:12:29Z</time>
      </trkpt>
      <trkpt lat="43.4387" lon="6.63357">
        <ele>68</ele>
        <time>2016-10-07T09:12:31Z</time>
      </trkpt>
      <trkpt lat="43.43896" lon="6.63338">
        <ele>65</ele>
        <time>2016-10-07T09:12:40Z</time>
      </trkpt>
      <trkpt lat="43.43901" lon="6.63337">
        <ele>64</ele>
        <time>2016-10-07T09:12:42Z</time>
      </trkpt>
      <trkpt lat="43.43916" lon="6.63324">
        <ele>65</ele>
        <time>2016-10-07T09:12:48Z</time>
      </trkpt>
      <trkpt lat="43.43934" lon="6.6334">
        <ele>57</ele>
        <time>2016-10-07T09:12:55Z</time>
      </trkpt>
      <trkpt lat="43.43945" lon="6.6336">
        <ele>55</ele>
        <time>2016-10-07T09:13:00Z</time>
      </trkpt>
      <trkpt lat="43.43961" lon="6.63374">
        <ele>53</ele>
        <time>2016-10-07T09:13:06Z</time>
      </trkpt>
      <trkpt lat="43.43972" lon="6.63377">
        <ele>52</ele>
        <time>2016-10-07T09:13:09Z</time>
      </trkpt>
      <trkpt lat="43.4399" lon="6.63405">
        <ele>49</ele>
        <time>2016-10-07T09:13:15Z</time>
      </trkpt>
      <trkpt lat="43.44005" lon="6.63412">
        <ele>45</ele>
        <time>2016-10-07T09:13:19Z</time>
      </trkpt>
      <trkpt lat="43.44006" lon="6.63409">
        <ele>45</ele>
        <time>2016-10-07T09:13:21Z</time>
      </trkpt>
      <trkpt lat="43.44005" lon="6.63408">
        <ele>45</ele>
        <time>2016-10-07T09:13:24Z</time>
      </trkpt>
      <trkpt lat="43.43996" lon="6.63385">
        <ele>50</ele>
        <time>2016-10-07T09:19:03Z</time>
      </trkpt>
      <trkpt lat="43.43995" lon="6.63382">
        <ele>51</ele>
        <time>2016-10-07T09:19:04Z</time>
      </trkpt>
      <trkpt lat="43.4399" lon="6.63325">
        <ele>53</ele>
        <time>2016-10-07T09:19:21Z</time>
      </trkpt>
      <trkpt lat="43.43974" lon="6.63292">
        <ele>57</ele>
        <time>2016-10-07T09:19:35Z</time>
      </trkpt>
      <trkpt lat="43.43943" lon="6.63254">
        <ele>61</ele>
        <time>2016-10-07T09:19:53Z</time>
      </trkpt>
      <trkpt lat="43.43938" lon="6.63243">
        <ele>65</ele>
        <time>2016-10-07T09:19:58Z</time>
      </trkpt>
      <trkpt lat="43.43928" lon="6.63208">
        <ele>65</ele>
        <time>2016-10-07T09:20:10Z</time>
      </trkpt>
      <trkpt lat="43.43923" lon="6.63177">
        <ele>68</ele>
        <time>2016-10-07T09:20:19Z</time>
      </trkpt>
      <trkpt lat="43.43918" lon="6.63166">
        <ele>70</ele>
        <time>2016-10-07T09:20:24Z</time>
      </trkpt>
      <trkpt lat="43.43902" lon="6.63151">
        <ele>78</ele>
        <time>2016-10-07T09:20:34Z</time>
      </trkpt>
      <trkpt lat="43.43895" lon="6.63139">
        <ele>81</ele>
        <time>2016-10-07T09:20:39Z</time>
      </trkpt>
      <trkpt lat="43.43894" lon="6.63133">
        <ele>81</ele>
        <time>2016-10-07T09:20:41Z</time>
      </trkpt>
      <trkpt lat="43.43897" lon="6.63126">
        <ele>81</ele>
        <time>2016-10-07T09:20:43Z</time>
      </trkpt>
      <trkpt lat="43.43903" lon="6.63123">
        <ele>81</ele>
        <time>2016-10-07T09:20:45Z</time>
      </trkpt>
      <trkpt lat="43.43944" lon="6.63124">
        <ele>73</ele>
        <time>2016-10-07T09:21:04Z</time>
      </trkpt>
      <trkpt lat="43.43953" lon="6.63117">
        <ele>73</ele>
        <time>2016-10-07T09:21:10Z</time>
      </trkpt>
      <trkpt lat="43.43932" lon="6.631">
        <ele>75</ele>
        <time>2016-10-07T09:21:22Z</time>
      </trkpt>
      <trkpt lat="43.43885" lon="6.6307">
        <ele>87</ele>
        <time>2016-10-07T09:21:46Z</time>
      </trkpt>
      <trkpt lat="43.43864" lon="6.63062">
        <ele>89</ele>
        <time>2016-10-07T09:21:56Z</time>
      </trkpt>
      <trkpt lat="43.43847" lon="6.6305">
        <ele>90</ele>
        <time>2016-10-07T09:22:06Z</time>
      </trkpt>
      <trkpt lat="43.43834" lon="6.63044">
        <ele>91</ele>
        <time>2016-10-07T09:22:13Z</time>
      </trkpt>
      <trkpt lat="43.43827" lon="6.63045">
        <ele>101</ele>
        <time>2016-10-07T09:22:16Z</time>
      </trkpt>
      <trkpt lat="43.43821" lon="6.63052">
        <ele>100</ele>
        <time>2016-10-07T09:22:19Z</time>
      </trkpt>
      <trkpt lat="43.43819" lon="6.63074">
        <ele>97</ele>
        <time>2016-10-07T09:22:25Z</time>
      </trkpt>
      <trkpt lat="43.43837" lon="6.63149">
        <ele>89</ele>
        <time>2016-10-07T09:22:47Z</time>
      </trkpt>
      <trkpt lat="43.43834" lon="6.6317">
        <ele>92</ele>
        <time>2016-10-07T09:22:53Z</time>
      </trkpt>
      <trkpt lat="43.43835" lon="6.63205">
        <ele>84</ele>
        <time>2016-10-07T09:23:03Z</time>
      </trkpt>
      <trkpt lat="43.43831" lon="6.6321">
        <ele>100</ele>
        <time>2016-10-07T09:23:05Z</time>
      </trkpt>
      <trkpt lat="43.43827" lon="6.63209">
        <ele>100</ele>
        <time>2016-10-07T09:23:07Z</time>
      </trkpt>
      <trkpt lat="43.43817" lon="6.63165">
        <ele>100</ele>
        <time>2016-10-07T09:23:24Z</time>
      </trkpt>
      <trkpt lat="43.43778" lon="6.63105">
        <ele>107</ele>
        <time>2016-10-07T09:23:53Z</time>
      </trkpt>
      <trkpt lat="43.43761" lon="6.63057">
        <ele>108</ele>
        <time>2016-10-07T09:24:10Z</time>
      </trkpt>
      <trkpt lat="43.43755" lon="6.63035">
        <ele>107</ele>
        <time>2016-10-07T09:24:18Z</time>
      </trkpt>
      <trkpt lat="43.43756" lon="6.63025">
        <ele>107</ele>
        <time>2016-10-07T09:24:21Z</time>
      </trkpt>
      <trkpt lat="43.4375" lon="6.63">
        <ele>111</ele>
        <time>2016-10-07T09:24:30Z</time>
      </trkpt>
      <trkpt lat="43.43757" lon="6.6299">
        <ele>111</ele>
        <time>2016-10-07T09:24:35Z</time>
      </trkpt>
      <trkpt lat="43.4376" lon="6.62989">
        <ele>111</ele>
        <time>2016-10-07T09:24:39Z</time>
      </trkpt>
      <trkpt lat="43.43774" lon="6.62971">
        <ele>111</ele>
        <time>2016-10-07T09:24:48Z</time>
      </trkpt>
      <trkpt lat="43.43799" lon="6.62958">
        <ele>111</ele>
        <time>2016-10-07T09:25:01Z</time>
      </trkpt>
      <trkpt lat="43.43812" lon="6.62941">
        <ele>112</ele>
        <time>2016-10-07T09:25:11Z</time>
      </trkpt>
      <trkpt lat="43.43816" lon="6.62924">
        <ele>113</ele>
        <time>2016-10-07T09:25:18Z</time>
      </trkpt>
      <trkpt lat="43.43819" lon="6.62887">
        <ele>118</ele>
        <time>2016-10-07T09:25:34Z</time>
      </trkpt>
      <trkpt lat="43.43825" lon="6.6285">
        <ele>121</ele>
        <time>2016-10-07T09:25:48Z</time>
      </trkpt>
      <trkpt lat="43.43835" lon="6.62823">
        <ele>120</ele>
        <time>2016-10-07T09:25:55Z</time>
      </trkpt>
      <trkpt lat="43.43836" lon="6.62806">
        <ele>117</ele>
        <time>2016-10-07T09:25:59Z</time>
      </trkpt>
      <trkpt lat="43.43853" lon="6.62747">
        <ele>113</ele>
        <time>2016-10-07T09:26:09Z</time>
      </trkpt>
      <trkpt lat="43.43857" lon="6.62743">
        <ele>112</ele>
        <time>2016-10-07T09:26:10Z</time>
      </trkpt>
      <trkpt lat="43.43867" lon="6.62703">
        <ele>108</ele>
        <time>2016-10-07T09:26:22Z</time>
      </trkpt>
      <trkpt lat="43.43879" lon="6.62674">
        <ele>107</ele>
        <time>2016-10-07T09:26:29Z</time>
      </trkpt>
      <trkpt lat="43.43888" lon="6.62633">
        <ele>100</ele>
        <time>2016-10-07T09:26:39Z</time>
      </trkpt>
      <trkpt lat="43.43893" lon="6.62626">
        <ele>99</ele>
        <time>2016-10-07T09:26:42Z</time>
      </trkpt>
      <trkpt lat="43.43903" lon="6.6259">
        <ele>97</ele>
        <time>2016-10-07T09:26:51Z</time>
      </trkpt>
      <trkpt lat="43.43936" lon="6.62543">
        <ele>83</ele>
        <time>2016-10-07T09:27:02Z</time>
      </trkpt>
      <trkpt lat="43.43945" lon="6.62526">
        <ele>81</ele>
        <time>2016-10-07T09:27:09Z</time>
      </trkpt>
      <trkpt lat="43.43953" lon="6.62538">
        <ele>81</ele>
        <time>2016-10-07T09:27:12Z</time>
      </trkpt>
      <trkpt lat="43.43961" lon="6.6256">
        <ele>82</ele>
        <time>2016-10-07T09:27:16Z</time>
      </trkpt>
      <trkpt lat="43.43963" lon="6.62588">
        <ele>85</ele>
        <time>2016-10-07T09:27:20Z</time>
      </trkpt>
      <trkpt lat="43.43959" lon="6.62596">
        <ele>86</ele>
        <time>2016-10-07T09:27:21Z</time>
      </trkpt>
      <trkpt lat="43.43954" lon="6.62624">
        <ele>87</ele>
        <time>2016-10-07T09:27:25Z</time>
      </trkpt>
      <trkpt lat="43.43965" lon="6.62687">
        <ele>88</ele>
        <time>2016-10-07T09:27:37Z</time>
      </trkpt>
      <trkpt lat="43.43972" lon="6.62702">
        <ele>88</ele>
        <time>2016-10-07T09:27:40Z</time>
      </trkpt>
      <trkpt lat="43.43984" lon="6.62715">
        <ele>86</ele>
        <time>2016-10-07T09:27:43Z</time>
      </trkpt>
      <trkpt lat="43.43996" lon="6.62732">
        <ele>84</ele>
        <time>2016-10-07T09:27:46Z</time>
      </trkpt>
      <trkpt lat="43.44008" lon="6.62765">
        <ele>77</ele>
        <time>2016-10-07T09:27:52Z</time>
      </trkpt>
      <trkpt lat="43.44042" lon="6.62786">
        <ele>74</ele>
        <time>2016-10-07T09:28:02Z</time>
      </trkpt>
      <trkpt lat="43.4407" lon="6.62792">
        <ele>72</ele>
        <time>2016-10-07T09:28:07Z</time>
      </trkpt>
      <trkpt lat="43.44079" lon="6.62786">
        <ele>71</ele>
        <time>2016-10-07T09:28:10Z</time>
      </trkpt>
      <trkpt lat="43.44076" lon="6.62776">
        <ele>71</ele>
        <time>2016-10-07T09:28:12Z</time>
      </trkpt>
      <trkpt lat="43.44064" lon="6.62757">
        <ele>71</ele>
        <time>2016-10-07T09:28:17Z</time>
      </trkpt>
      <trkpt lat="43.44056" lon="6.62751">
        <ele>72</ele>
        <time>2016-10-07T09:28:19Z</time>
      </trkpt>
      <trkpt lat="43.44049" lon="6.62739">
        <ele>71</ele>
        <time>2016-10-07T09:28:21Z</time>
      </trkpt>
      <trkpt lat="43.44039" lon="6.62705">
        <ele>71</ele>
        <time>2016-10-07T09:28:25Z</time>
      </trkpt>
      <trkpt lat="43.44025" lon="6.62672">
        <ele>71</ele>
        <time>2016-10-07T09:28:29Z</time>
      </trkpt>
      <trkpt lat="43.44024" lon="6.62662">
        <ele>69</ele>
        <time>2016-10-07T09:28:30Z</time>
      </trkpt>
      <trkpt lat="43.44032" lon="6.62626">
        <ele>66</ele>
        <time>2016-10-07T09:28:34Z</time>
      </trkpt>
      <trkpt lat="43.44034" lon="6.62582">
        <ele>65</ele>
        <time>2016-10-07T09:28:39Z</time>
      </trkpt>
      <trkpt lat="43.44038" lon="6.62566">
        <ele>64</ele>
        <time>2016-10-07T09:28:44Z</time>
      </trkpt>
      <trkpt lat="43.4404" lon="6.62564">
        <ele>63</ele>
        <time>2016-10-07T09:28:49Z</time>
      </trkpt>
      <trkpt lat="43.44066" lon="6.62463">
        <ele>54</ele>
        <time>2016-10-07T09:29:00Z</time>
      </trkpt>
      <trkpt lat="43.4408" lon="6.62389">
        <ele>41</ele>
        <time>2016-10-07T09:29:06Z</time>
      </trkpt>
      <trkpt lat="43.44079" lon="6.62372">
        <ele>38</ele>
        <time>2016-10-07T09:29:08Z</time>
      </trkpt>
      <trkpt lat="43.44073" lon="6.6236">
        <ele>37</ele>
        <time>2016-10-07T09:29:10Z</time>
      </trkpt>
      <trkpt lat="43.44044" lon="6.62341">
        <ele>38</ele>
        <time>2016-10-07T09:29:15Z</time>
      </trkpt>
      <trkpt lat="43.43986" lon="6.62317">
        <ele>31</ele>
        <time>2016-10-07T09:29:23Z</time>
      </trkpt>
      <trkpt lat="43.4397" lon="6.62321">
        <ele>31</ele>
        <time>2016-10-07T09:29:25Z</time>
      </trkpt>
      <trkpt lat="43.43957" lon="6.62329">
        <ele>31</ele>
        <time>2016-10-07T09:29:27Z</time>
      </trkpt>
      <trkpt lat="43.43929" lon="6.62314">
        <ele>32</ele>
        <time>2016-10-07T09:29:31Z</time>
      </trkpt>
      <trkpt lat="43.43899" lon="6.62312">
        <ele>32</ele>
        <time>2016-10-07T09:29:35Z</time>
      </trkpt>
      <trkpt lat="43.4388" lon="6.62303">
        <ele>31</ele>
        <time>2016-10-07T09:29:38Z</time>
      </trkpt>
      <trkpt lat="43.43815" lon="6.6229">
        <ele>28</ele>
        <time>2016-10-07T09:29:48Z</time>
      </trkpt>
      <trkpt lat="43.43772" lon="6.62287">
        <ele>27</ele>
        <time>2016-10-07T09:29:55Z</time>
      </trkpt>
      <trkpt lat="43.43751" lon="6.6228">
        <ele>27</ele>
        <time>2016-10-07T09:30:00Z</time>
      </trkpt>
      <trkpt lat="43.43737" lon="6.62271">
        <ele>27</ele>
        <time>2016-10-07T09:30:06Z</time>
      </trkpt>
      <trkpt lat="43.4371" lon="6.62261">
        <ele>28</ele>
        <time>2016-10-07T09:30:16Z</time>
      </trkpt>
      <trkpt lat="43.43668" lon="6.62237">
        <ele>30</ele>
        <time>2016-10-07T09:30:31Z</time>
      </trkpt>
      <trkpt lat="43.43647" lon="6.62232">
        <ele>31</ele>
        <time>2016-10-07T09:30:39Z</time>
      </trkpt>
      <trkpt lat="43.43629" lon="6.62239">
        <ele>32</ele>
        <time>2016-10-07T09:30:46Z</time>
      </trkpt>
      <trkpt lat="43.43614" lon="6.6224">
        <ele>32</ele>
        <time>2016-10-07T09:30:52Z</time>
      </trkpt>
      <trkpt lat="43.43554" lon="6.62272">
        <ele>38</ele>
        <time>2016-10-07T09:31:15Z</time>
      </trkpt>
      <trkpt lat="43.43525" lon="6.62296">
        <ele>39</ele>
        <time>2016-10-07T09:31:26Z</time>
      </trkpt>
      <trkpt lat="43.4346" lon="6.6232">
        <ele>38</ele>
        <time>2016-10-07T09:31:49Z</time>
      </trkpt>
      <trkpt lat="43.43438" lon="6.62336">
        <ele>43</ele>
        <time>2016-10-07T09:31:57Z</time>
      </trkpt>
      <trkpt lat="43.43416" lon="6.6237">
        <ele>44</ele>
        <time>2016-10-07T09:32:04Z</time>
      </trkpt>
      <trkpt lat="43.43411" lon="6.62372">
        <ele>45</ele>
        <time>2016-10-07T09:32:05Z</time>
      </trkpt>
      <trkpt lat="43.43408" lon="6.62365">
        <ele>44</ele>
        <time>2016-10-07T09:32:07Z</time>
      </trkpt>
      <trkpt lat="43.43409" lon="6.62347">
        <ele>41</ele>
        <time>2016-10-07T09:32:11Z</time>
      </trkpt>
      <trkpt lat="43.43404" lon="6.62324">
        <ele>37</ele>
        <time>2016-10-07T09:32:16Z</time>
      </trkpt>
      <trkpt lat="43.43331" lon="6.62281">
        <ele>40</ele>
        <time>2016-10-07T09:32:31Z</time>
      </trkpt>
      <trkpt lat="43.43311" lon="6.62296">
        <ele>42</ele>
        <time>2016-10-07T09:32:36Z</time>
      </trkpt>
      <trkpt lat="43.43305" lon="6.6229">
        <ele>42</ele>
        <time>2016-10-07T09:32:39Z</time>
      </trkpt>
      <trkpt lat="43.43304" lon="6.6227">
        <ele>40</ele>
        <time>2016-10-07T09:32:43Z</time>
      </trkpt>
      <trkpt lat="43.43298" lon="6.62263">
        <ele>40</ele>
        <time>2016-10-07T09:32:45Z</time>
      </trkpt>
      <trkpt lat="43.43291" lon="6.62263">
        <ele>41</ele>
        <time>2016-10-07T09:32:47Z</time>
      </trkpt>
      <trkpt lat="43.43265" lon="6.62283">
        <ele>42</ele>
        <time>2016-10-07T09:32:54Z</time>
      </trkpt>
      <trkpt lat="43.43254" lon="6.62271">
        <ele>41</ele>
        <time>2016-10-07T09:32:57Z</time>
      </trkpt>
      <trkpt lat="43.43188" lon="6.62256">
        <ele>51</ele>
        <time>2016-10-07T09:33:17Z</time>
      </trkpt>
      <trkpt lat="43.43173" lon="6.62247">
        <ele>50</ele>
        <time>2016-10-07T09:33:25Z</time>
      </trkpt>
      <trkpt lat="43.43147" lon="6.62221">
        <ele>56</ele>
        <time>2016-10-07T09:33:39Z</time>
      </trkpt>
      <trkpt lat="43.43117" lon="6.62218">
        <ele>58</ele>
        <time>2016-10-07T09:33:54Z</time>
      </trkpt>
      <trkpt lat="43.43108" lon="6.62222">
        <ele>59</ele>
        <time>2016-10-07T09:34:00Z</time>
      </trkpt>
      <trkpt lat="43.43098" lon="6.62232">
        <ele>59</ele>
        <time>2016-10-07T09:34:09Z</time>
      </trkpt>
      <trkpt lat="43.43079" lon="6.62238">
        <ele>63</ele>
        <time>2016-10-07T09:34:25Z</time>
      </trkpt>
      <trkpt lat="43.43017" lon="6.62248">
        <ele>69</ele>
        <time>2016-10-07T09:35:32Z</time>
      </trkpt>
      <trkpt lat="43.43014" lon="6.62249">
        <ele>70</ele>
        <time>2016-10-07T09:35:34Z</time>
      </trkpt>
      <trkpt lat="43.42963" lon="6.62244">
        <ele>79</ele>
        <time>2016-10-07T09:36:07Z</time>
      </trkpt>
      <trkpt lat="43.42926" lon="6.6223">
        <ele>83</ele>
        <time>2016-10-07T09:36:32Z</time>
      </trkpt>
      <trkpt lat="43.42896" lon="6.62209">
        <ele>93</ele>
        <time>2016-10-07T09:36:54Z</time>
      </trkpt>
      <trkpt lat="43.42886" lon="6.62195">
        <ele>93</ele>
        <time>2016-10-07T09:37:05Z</time>
      </trkpt>
      <trkpt lat="43.4287" lon="6.62187">
        <ele>94</ele>
        <time>2016-10-07T09:37:17Z</time>
      </trkpt>
      <trkpt lat="43.42819" lon="6.62156">
        <ele>99</ele>
        <time>2016-10-07T09:38:22Z</time>
      </trkpt>
      <trkpt lat="43.42774" lon="6.62147">
        <ele>105</ele>
        <time>2016-10-07T09:38:55Z</time>
      </trkpt>
      <trkpt lat="43.42763" lon="6.6214">
        <ele>105</ele>
        <time>2016-10-07T09:39:05Z</time>
      </trkpt>
      <trkpt lat="43.42735" lon="6.62136">
        <ele>114</ele>
        <time>2016-10-07T09:39:29Z</time>
      </trkpt>
      <trkpt lat="43.42731" lon="6.62141">
        <ele>115</ele>
        <time>2016-10-07T09:39:35Z</time>
      </trkpt>
      <trkpt lat="43.42719" lon="6.6214">
        <ele>116</ele>
        <time>2016-10-07T09:39:48Z</time>
      </trkpt>
      <trkpt lat="43.42697" lon="6.6214">
        <ele>118</ele>
        <time>2016-10-07T09:40:09Z</time>
      </trkpt>
      <trkpt lat="43.42687" lon="6.6214">
        <ele>119</ele>
        <time>2016-10-07T09:40:23Z</time>
      </trkpt>
      <trkpt lat="43.42681" lon="6.62137">
        <ele>120</ele>
        <time>2016-10-07T09:40:33Z</time>
      </trkpt>
      <trkpt lat="43.42677" lon="6.62129">
        <ele>119</ele>
        <time>2016-10-07T09:40:40Z</time>
      </trkpt>
      <trkpt lat="43.42673" lon="6.62117">
        <ele>118</ele>
        <time>2016-10-07T09:40:50Z</time>
      </trkpt>
      <trkpt lat="43.42657" lon="6.62105">
        <ele>125</ele>
        <time>2016-10-07T09:41:10Z</time>
      </trkpt>
      <trkpt lat="43.42646" lon="6.62107">
        <ele>126</ele>
        <time>2016-10-07T09:41:25Z</time>
      </trkpt>
      <trkpt lat="43.42623" lon="6.62114">
        <ele>128</ele>
        <time>2016-10-07T09:41:37Z</time>
      </trkpt>
      <trkpt lat="43.42569" lon="6.621">
        <ele>131</ele>
        <time>2016-10-07T09:41:53Z</time>
      </trkpt>
      <trkpt lat="43.42548" lon="6.62103">
        <ele>131</ele>
        <time>2016-10-07T09:41:59Z</time>
      </trkpt>
      <trkpt lat="43.42536" lon="6.62108">
        <ele>130</ele>
        <time>2016-10-07T09:42:02Z</time>
      </trkpt>
      <trkpt lat="43.42525" lon="6.62109">
        <ele>130</ele>
        <time>2016-10-07T09:42:04Z</time>
      </trkpt>
      <trkpt lat="43.42514" lon="6.62106">
        <ele>130</ele>
        <time>2016-10-07T09:42:06Z</time>
      </trkpt>
      <trkpt lat="43.42481" lon="6.62085">
        <ele>131</ele>
        <time>2016-10-07T09:42:12Z</time>
      </trkpt>
      <trkpt lat="43.42453" lon="6.62052">
        <ele>133</ele>
        <time>2016-10-07T09:42:19Z</time>
      </trkpt>
      <trkpt lat="43.42444" lon="6.62032">
        <ele>133</ele>
        <time>2016-10-07T09:42:24Z</time>
      </trkpt>
      <trkpt lat="43.42431" lon="6.62025">
        <ele>133</ele>
        <time>2016-10-07T09:42:30Z</time>
      </trkpt>
      <trkpt lat="43.42424" lon="6.6202">
        <ele>133</ele>
        <time>2016-10-07T09:42:42Z</time>
      </trkpt>
      <trkpt lat="43.42408" lon="6.62009">
        <ele>134</ele>
        <time>2016-10-07T09:42:49Z</time>
      </trkpt>
      <trkpt lat="43.42389" lon="6.62004">
        <ele>136</ele>
        <time>2016-10-07T09:42:56Z</time>
      </trkpt>
      <trkpt lat="43.42367" lon="6.62015">
        <ele>138</ele>
        <time>2016-10-07T09:43:04Z</time>
      </trkpt>
      <trkpt lat="43.42343" lon="6.62033">
        <ele>138</ele>
        <time>2016-10-07T09:43:12Z</time>
      </trkpt>
      <trkpt lat="43.42319" lon="6.62043">
        <ele>141</ele>
        <time>2016-10-07T09:43:19Z</time>
      </trkpt>
      <trkpt lat="43.42292" lon="6.62047">
        <ele>141</ele>
        <time>2016-10-07T09:43:26Z</time>
      </trkpt>
      <trkpt lat="43.42263" lon="6.62047">
        <ele>142</ele>
        <time>2016-10-07T09:43:33Z</time>
      </trkpt>
      <trkpt lat="43.4223" lon="6.62035">
        <ele>145</ele>
        <time>2016-10-07T09:43:44Z</time>
      </trkpt>
      <trkpt lat="43.42213" lon="6.62032">
        <ele>145</ele>
        <time>2016-10-07T09:43:55Z</time>
      </trkpt>
      <trkpt lat="43.42197" lon="6.62019">
        <ele>146</ele>
        <time>2016-10-07T09:44:06Z</time>
      </trkpt>
      <trkpt lat="43.42178" lon="6.6201">
        <ele>148</ele>
        <time>2016-10-07T09:44:17Z</time>
      </trkpt>
      <trkpt lat="43.42153" lon="6.62005">
        <ele>149</ele>
        <time>2016-10-07T09:44:27Z</time>
      </trkpt>
      <trkpt lat="43.4214" lon="6.62006">
        <ele>148</ele>
        <time>2016-10-07T09:44:30Z</time>
      </trkpt>
      <trkpt lat="43.42106" lon="6.61998">
        <ele>156</ele>
        <time>2016-10-07T09:44:39Z</time>
      </trkpt>
      <trkpt lat="43.42024" lon="6.61988">
        <ele>155</ele>
        <time>2016-10-07T09:45:01Z</time>
      </trkpt>
      <trkpt lat="43.42015" lon="6.61989">
        <ele>154</ele>
        <time>2016-10-07T09:45:04Z</time>
      </trkpt>
      <trkpt lat="43.42003" lon="6.61985">
        <ele>153</ele>
        <time>2016-10-07T09:45:08Z</time>
      </trkpt>
      <trkpt lat="43.41984" lon="6.62006">
        <ele>154</ele>
        <time>2016-10-07T09:45:19Z</time>
      </trkpt>
      <trkpt lat="43.41966" lon="6.62018">
        <ele>157</ele>
        <time>2016-10-07T09:45:26Z</time>
      </trkpt>
      <trkpt lat="43.41945" lon="6.62027">
        <ele>159</ele>
        <time>2016-10-07T09:45:35Z</time>
      </trkpt>
      <trkpt lat="43.41917" lon="6.62048">
        <ele>159</ele>
        <time>2016-10-07T09:45:49Z</time>
      </trkpt>
      <trkpt lat="43.41888" lon="6.62064">
        <ele>165</ele>
        <time>2016-10-07T09:46:00Z</time>
      </trkpt>
      <trkpt lat="43.41846" lon="6.62069">
        <ele>166</ele>
        <time>2016-10-07T09:46:14Z</time>
      </trkpt>
      <trkpt lat="43.41824" lon="6.62078">
        <ele>167</ele>
        <time>2016-10-07T09:46:22Z</time>
      </trkpt>
      <trkpt lat="43.41791" lon="6.62081">
        <ele>171</ele>
        <time>2016-10-07T09:46:33Z</time>
      </trkpt>
      <trkpt lat="43.41741" lon="6.62066">
        <ele>174</ele>
        <time>2016-10-07T09:46:57Z</time>
      </trkpt>
      <trkpt lat="43.41728" lon="6.62065">
        <ele>176</ele>
        <time>2016-10-07T09:47:05Z</time>
      </trkpt>
      <trkpt lat="43.41719" lon="6.62061">
        <ele>177</ele>
        <time>2016-10-07T09:47:11Z</time>
      </trkpt>
      <trkpt lat="43.41707" lon="6.62062">
        <ele>178</ele>
        <time>2016-10-07T09:47:18Z</time>
      </trkpt>
      <trkpt lat="43.41696" lon="6.62057">
        <ele>178</ele>
        <time>2016-10-07T09:47:25Z</time>
      </trkpt>
      <trkpt lat="43.41678" lon="6.62059">
        <ele>179</ele>
        <time>2016-10-07T09:47:33Z</time>
      </trkpt>
      <trkpt lat="43.41644" lon="6.62049">
        <ele>184</ele>
        <time>2016-10-07T09:47:52Z</time>
      </trkpt>
      <trkpt lat="43.4162" lon="6.62033">
        <ele>186</ele>
        <time>2016-10-07T09:48:07Z</time>
      </trkpt>
      <trkpt lat="43.41596" lon="6.62034">
        <ele>186</ele>
        <time>2016-10-07T09:48:24Z</time>
      </trkpt>
      <trkpt lat="43.41543" lon="6.62044">
        <ele>188</ele>
        <time>2016-10-07T09:48:53Z</time>
      </trkpt>
      <trkpt lat="43.41527" lon="6.62036">
        <ele>188</ele>
        <time>2016-10-07T09:49:06Z</time>
      </trkpt>
      <trkpt lat="43.41523" lon="6.62031">
        <ele>188</ele>
        <time>2016-10-07T09:49:12Z</time>
      </trkpt>
      <trkpt lat="43.41507" lon="6.62011">
        <ele>189</ele>
        <time>2016-10-07T09:50:38Z</time>
      </trkpt>
      <trkpt lat="43.41472" lon="6.61947">
        <ele>201</ele>
        <time>2016-10-07T09:50:57Z</time>
      </trkpt>
      <trkpt lat="43.41458" lon="6.61932">
        <ele>202</ele>
        <time>2016-10-07T09:51:04Z</time>
      </trkpt>
      <trkpt lat="43.41453" lon="6.61918">
        <ele>203</ele>
        <time>2016-10-07T09:51:08Z</time>
      </trkpt>
      <trkpt lat="43.41445" lon="6.61853">
        <ele>213</ele>
        <time>2016-10-07T09:51:24Z</time>
      </trkpt>
      <trkpt lat="43.41438" lon="6.61831">
        <ele>218</ele>
        <time>2016-10-07T09:51:31Z</time>
      </trkpt>
      <trkpt lat="43.41418" lon="6.61803">
        <ele>220</ele>
        <time>2016-10-07T09:51:44Z</time>
      </trkpt>
      <trkpt lat="43.41405" lon="6.61795">
        <ele>217</ele>
        <time>2016-10-07T09:51:53Z</time>
      </trkpt>
      <trkpt lat="43.41353" lon="6.61733">
        <ele>218</ele>
        <time>2016-10-07T09:52:24Z</time>
      </trkpt>
      <trkpt lat="43.41347" lon="6.61718">
        <ele>218</ele>
        <time>2016-10-07T09:52:30Z</time>
      </trkpt>
      <trkpt lat="43.4135" lon="6.61703">
        <ele>218</ele>
        <time>2016-10-07T09:52:35Z</time>
      </trkpt>
      <trkpt lat="43.41356" lon="6.61687">
        <ele>218</ele>
        <time>2016-10-07T09:52:42Z</time>
      </trkpt>
      <trkpt lat="43.41372" lon="6.61675">
        <ele>219</ele>
        <time>2016-10-07T09:52:52Z</time>
      </trkpt>
      <trkpt lat="43.41377" lon="6.61665">
        <ele>223</ele>
        <time>2016-10-07T09:52:57Z</time>
      </trkpt>
      <trkpt lat="43.41395" lon="6.61643">
        <ele>225</ele>
        <time>2016-10-07T09:53:12Z</time>
      </trkpt>
      <trkpt lat="43.41411" lon="6.61614">
        <ele>226</ele>
        <time>2016-10-07T09:53:27Z</time>
      </trkpt>
      <trkpt lat="43.41425" lon="6.61597">
        <ele>230</ele>
        <time>2016-10-07T09:53:34Z</time>
      </trkpt>
      <trkpt lat="43.41435" lon="6.61592">
        <ele>231</ele>
        <time>2016-10-07T09:53:39Z</time>
      </trkpt>
      <trkpt lat="43.41457" lon="6.61589">
        <ele>232</ele>
        <time>2016-10-07T09:53:53Z</time>
      </trkpt>
      <trkpt lat="43.41604" lon="6.6139">
        <ele>258</ele>
        <time>2016-10-07T09:59:17Z</time>
      </trkpt>
      <trkpt lat="43.41638" lon="6.6138">
        <ele>258</ele>
        <time>2016-10-07T09:59:35Z</time>
      </trkpt>
      <trkpt lat="43.41649" lon="6.61389">
        <ele>259</ele>
        <time>2016-10-07T09:59:41Z</time>
      </trkpt>
      <trkpt lat="43.41666" lon="6.61429">
        <ele>263</ele>
        <time>2016-10-07T09:59:59Z</time>
      </trkpt>
      <trkpt lat="43.41674" lon="6.61441">
        <ele>263</ele>
        <time>2016-10-07T10:00:04Z</time>
      </trkpt>
      <trkpt lat="43.41703" lon="6.61465">
        <ele>262</ele>
        <time>2016-10-07T10:00:17Z</time>
      </trkpt>
      <trkpt lat="43.41714" lon="6.61484">
        <ele>263</ele>
        <time>2016-10-07T10:00:23Z</time>
      </trkpt>
      <trkpt lat="43.41716" lon="6.61498">
        <ele>263</ele>
        <time>2016-10-07T10:00:28Z</time>
      </trkpt>
      <trkpt lat="43.41713" lon="6.61514">
        <ele>261</ele>
        <time>2016-10-07T10:00:34Z</time>
      </trkpt>
      <trkpt lat="43.41723" lon="6.61534">
        <ele>260</ele>
        <time>2016-10-07T10:00:42Z</time>
      </trkpt>
      <trkpt lat="43.41731" lon="6.61537">
        <ele>259</ele>
        <time>2016-10-07T10:00:45Z</time>
      </trkpt>
      <trkpt lat="43.41752" lon="6.61522">
        <ele>256</ele>
        <time>2016-10-07T10:00:53Z</time>
      </trkpt>
      <trkpt lat="43.41775" lon="6.61492">
        <ele>258</ele>
        <time>2016-10-07T10:01:00Z</time>
      </trkpt>
      <trkpt lat="43.41785" lon="6.61482">
        <ele>257</ele>
        <time>2016-10-07T10:01:02Z</time>
      </trkpt>
      <trkpt lat="43.41829" lon="6.6146">
        <ele>255</ele>
        <time>2016-10-07T10:01:09Z</time>
      </trkpt>
      <trkpt lat="43.41846" lon="6.61458">
        <ele>252</ele>
        <time>2016-10-07T10:01:12Z</time>
      </trkpt>
      <trkpt lat="43.41857" lon="6.61461">
        <ele>252</ele>
        <time>2016-10-07T10:01:14Z</time>
      </trkpt>
      <trkpt lat="43.41881" lon="6.61459">
        <ele>252</ele>
        <time>2016-10-07T10:01:19Z</time>
      </trkpt>
      <trkpt lat="43.41907" lon="6.6145">
        <ele>252</ele>
        <time>2016-10-07T10:01:23Z</time>
      </trkpt>
      <trkpt lat="43.41922" lon="6.6145">
        <ele>254</ele>
        <time>2016-10-07T10:01:25Z</time>
      </trkpt>
      <trkpt lat="43.41972" lon="6.61462">
        <ele>255</ele>
        <time>2016-10-07T10:01:36Z</time>
      </trkpt>
      <trkpt lat="43.41978" lon="6.61465">
        <ele>255</ele>
        <time>2016-10-07T10:01:39Z</time>
      </trkpt>
      <trkpt lat="43.41986" lon="6.61467">
        <ele>255</ele>
        <time>2016-10-07T10:01:43Z</time>
      </trkpt>
      <trkpt lat="43.42" lon="6.61467">
        <ele>256</ele>
        <time>2016-10-07T10:01:51Z</time>
      </trkpt>
      <trkpt lat="43.42005" lon="6.6147">
        <ele>261</ele>
        <time>2016-10-07T10:01:54Z</time>
      </trkpt>
      <trkpt lat="43.42015" lon="6.61468">
        <ele>261</ele>
        <time>2016-10-07T10:02:03Z</time>
      </trkpt>
      <trkpt lat="43.42049" lon="6.6147">
        <ele>263</ele>
        <time>2016-10-07T10:02:19Z</time>
      </trkpt>
      <trkpt lat="43.4207" lon="6.61482">
        <ele>265</ele>
        <time>2016-10-07T10:02:30Z</time>
      </trkpt>
      <trkpt lat="43.42088" lon="6.61488">
        <ele>270</ele>
        <time>2016-10-07T10:02:38Z</time>
      </trkpt>
      <trkpt lat="43.42117" lon="6.61503">
        <ele>272</ele>
        <time>2016-10-07T10:02:52Z</time>
      </trkpt>
      <trkpt lat="43.42126" lon="6.61515">
        <ele>272</ele>
        <time>2016-10-07T10:02:59Z</time>
      </trkpt>
      <trkpt lat="43.42135" lon="6.61541">
        <ele>272</ele>
        <time>2016-10-07T10:03:07Z</time>
      </trkpt>
      <trkpt lat="43.42147" lon="6.61548">
        <ele>273</ele>
        <time>2016-10-07T10:03:13Z</time>
      </trkpt>
      <trkpt lat="43.4216" lon="6.61545">
        <ele>273</ele>
        <time>2016-10-07T10:03:23Z</time>
      </trkpt>
      <trkpt lat="43.42175" lon="6.61535">
        <ele>274</ele>
        <time>2016-10-07T10:03:34Z</time>
      </trkpt>
      <trkpt lat="43.42194" lon="6.61515">
        <ele>275</ele>
        <time>2016-10-07T10:03:45Z</time>
      </trkpt>
      <trkpt lat="43.42211" lon="6.61487">
        <ele>280</ele>
        <time>2016-10-07T10:04:02Z</time>
      </trkpt>
      <trkpt lat="43.42225" lon="6.61478">
        <ele>280</ele>
        <time>2016-10-07T10:04:13Z</time>
      </trkpt>
      <trkpt lat="43.4223" lon="6.61466">
        <ele>281</ele>
        <time>2016-10-07T10:04:20Z</time>
      </trkpt>
      <trkpt lat="43.42223" lon="6.61451">
        <ele>281</ele>
        <time>2016-10-07T10:04:28Z</time>
      </trkpt>
      <trkpt lat="43.42218" lon="6.61411">
        <ele>280</ele>
        <time>2016-10-07T10:04:37Z</time>
      </trkpt>
      <trkpt lat="43.42221" lon="6.61361">
        <ele>279</ele>
        <time>2016-10-07T10:04:42Z</time>
      </trkpt>
      <trkpt lat="43.42238" lon="6.61332">
        <ele>276</ele>
        <time>2016-10-07T10:04:47Z</time>
      </trkpt>
      <trkpt lat="43.42238" lon="6.61326">
        <ele>275</ele>
        <time>2016-10-07T10:04:48Z</time>
      </trkpt>
      <trkpt lat="43.42233" lon="6.61313">
        <ele>274</ele>
        <time>2016-10-07T10:04:51Z</time>
      </trkpt>
      <trkpt lat="43.42231" lon="6.61301">
        <ele>272</ele>
        <time>2016-10-07T10:04:53Z</time>
      </trkpt>
      <trkpt lat="43.42237" lon="6.61278">
        <ele>271</ele>
        <time>2016-10-07T10:04:58Z</time>
      </trkpt>
      <trkpt lat="43.42246" lon="6.61257">
        <ele>268</ele>
        <time>2016-10-07T10:05:03Z</time>
      </trkpt>
      <trkpt lat="43.42242" lon="6.61238">
        <ele>264</ele>
        <time>2016-10-07T10:05:07Z</time>
      </trkpt>
      <trkpt lat="43.42246" lon="6.61227">
        <ele>262</ele>
        <time>2016-10-07T10:05:10Z</time>
      </trkpt>
      <trkpt lat="43.42257" lon="6.61216">
        <ele>256</ele>
        <time>2016-10-07T10:05:14Z</time>
      </trkpt>
      <trkpt lat="43.4226" lon="6.61178">
        <ele>252</ele>
        <time>2016-10-07T10:05:22Z</time>
      </trkpt>
      <trkpt lat="43.42263" lon="6.61174">
        <ele>252</ele>
        <time>2016-10-07T10:05:24Z</time>
      </trkpt>
      <trkpt lat="43.42274" lon="6.61169">
        <ele>252</ele>
        <time>2016-10-07T10:05:29Z</time>
      </trkpt>
      <trkpt lat="43.42275" lon="6.61164">
        <ele>245</ele>
        <time>2016-10-07T10:05:31Z</time>
      </trkpt>
      <trkpt lat="43.42266" lon="6.61154">
        <ele>245</ele>
        <time>2016-10-07T10:05:35Z</time>
      </trkpt>
      <trkpt lat="43.42257" lon="6.6115">
        <ele>246</ele>
        <time>2016-10-07T10:05:38Z</time>
      </trkpt>
      <trkpt lat="43.42251" lon="6.61134">
        <ele>244</ele>
        <time>2016-10-07T10:05:41Z</time>
      </trkpt>
      <trkpt lat="43.42249" lon="6.61109">
        <ele>243</ele>
        <time>2016-10-07T10:05:44Z</time>
      </trkpt>
      <trkpt lat="43.42253" lon="6.61082">
        <ele>239</ele>
        <time>2016-10-07T10:05:49Z</time>
      </trkpt>
      <trkpt lat="43.42262" lon="6.61065">
        <ele>236</ele>
        <time>2016-10-07T10:05:52Z</time>
      </trkpt>
      <trkpt lat="43.42273" lon="6.61055">
        <ele>234</ele>
        <time>2016-10-07T10:05:55Z</time>
      </trkpt>
      <trkpt lat="43.42281" lon="6.61057">
        <ele>234</ele>
        <time>2016-10-07T10:05:58Z</time>
      </trkpt>
      <trkpt lat="43.42282" lon="6.6108">
        <ele>235</ele>
        <time>2016-10-07T10:06:02Z</time>
      </trkpt>
      <trkpt lat="43.42293" lon="6.61109">
        <ele>240</ele>
        <time>2016-10-07T10:06:07Z</time>
      </trkpt>
      <trkpt lat="43.42317" lon="6.61135">
        <ele>240</ele>
        <time>2016-10-07T10:06:13Z</time>
      </trkpt>
      <trkpt lat="43.42342" lon="6.6117">
        <ele>240</ele>
        <time>2016-10-07T10:06:19Z</time>
      </trkpt>
      <trkpt lat="43.42396" lon="6.61263">
        <ele>243</ele>
        <time>2016-10-07T10:06:34Z</time>
      </trkpt>
      <trkpt lat="43.42402" lon="6.61301">
        <ele>246</ele>
        <time>2016-10-07T10:06:39Z</time>
      </trkpt>
      <trkpt lat="43.42409" lon="6.61318">
        <ele>245</ele>
        <time>2016-10-07T10:06:41Z</time>
      </trkpt>
      <trkpt lat="43.4242" lon="6.61333">
        <ele>241</ele>
        <time>2016-10-07T10:06:43Z</time>
      </trkpt>
      <trkpt lat="43.4245" lon="6.61356">
        <ele>240</ele>
        <time>2016-10-07T10:06:48Z</time>
      </trkpt>
      <trkpt lat="43.42468" lon="6.61383">
        <ele>240</ele>
        <time>2016-10-07T10:06:52Z</time>
      </trkpt>
      <trkpt lat="43.42501" lon="6.61425">
        <ele>235</ele>
        <time>2016-10-07T10:06:58Z</time>
      </trkpt>
      <trkpt lat="43.42515" lon="6.61438">
        <ele>235</ele>
        <time>2016-10-07T10:07:01Z</time>
      </trkpt>
      <trkpt lat="43.42514" lon="6.6145">
        <ele>236</ele>
        <time>2016-10-07T10:07:05Z</time>
      </trkpt>
      <trkpt lat="43.42509" lon="6.61459">
        <ele>236</ele>
        <time>2016-10-07T10:07:10Z</time>
      </trkpt>
      <trkpt lat="43.42513" lon="6.61467">
        <ele>237</ele>
        <time>2016-10-07T10:07:14Z</time>
      </trkpt>
      <trkpt lat="43.42537" lon="6.61463">
        <ele>236</ele>
        <time>2016-10-07T10:07:20Z</time>
      </trkpt>
      <trkpt lat="43.42554" lon="6.61466">
        <ele>235</ele>
        <time>2016-10-07T10:07:25Z</time>
      </trkpt>
      <trkpt lat="43.42562" lon="6.61471">
        <ele>235</ele>
        <time>2016-10-07T10:07:28Z</time>
      </trkpt>
      <trkpt lat="43.42574" lon="6.61472">
        <ele>235</ele>
        <time>2016-10-07T10:07:32Z</time>
      </trkpt>
      <trkpt lat="43.42592" lon="6.61498">
        <ele>234</ele>
        <time>2016-10-07T10:07:40Z</time>
      </trkpt>
      <trkpt lat="43.42596" lon="6.61529">
        <ele>233</ele>
        <time>2016-10-07T10:07:47Z</time>
      </trkpt>
      <trkpt lat="43.42614" lon="6.61553">
        <ele>231</ele>
        <time>2016-10-07T10:07:52Z</time>
      </trkpt>
      <trkpt lat="43.42634" lon="6.6157">
        <ele>229</ele>
        <time>2016-10-07T10:07:56Z</time>
      </trkpt>
      <trkpt lat="43.42651" lon="6.61571">
        <ele>226</ele>
        <time>2016-10-07T10:08:00Z</time>
      </trkpt>
      <trkpt lat="43.42671" lon="6.61567">
        <ele>219</ele>
        <time>2016-10-07T10:08:04Z</time>
      </trkpt>
      <trkpt lat="43.42696" lon="6.61553">
        <ele>218</ele>
        <time>2016-10-07T10:08:09Z</time>
      </trkpt>
      <trkpt lat="43.42732" lon="6.6154">
        <ele>216</ele>
        <time>2016-10-07T10:08:15Z</time>
      </trkpt>
      <trkpt lat="43.42768" lon="6.61548">
        <ele>200</ele>
        <time>2016-10-07T10:08:27Z</time>
      </trkpt>
      <trkpt lat="43.42779" lon="6.61558">
        <ele>198</ele>
        <time>2016-10-07T10:08:30Z</time>
      </trkpt>
      <trkpt lat="43.4278" lon="6.61564">
        <ele>198</ele>
        <time>2016-10-07T10:08:31Z</time>
      </trkpt>
      <trkpt lat="43.42798" lon="6.61589">
        <ele>188</ele>
        <time>2016-10-07T10:08:41Z</time>
      </trkpt>
      <trkpt lat="43.42798" lon="6.616">
        <ele>188</ele>
        <time>2016-10-07T10:08:46Z</time>
      </trkpt>
      <trkpt lat="43.42799" lon="6.61605">
        <ele>188</ele>
        <time>2016-10-07T10:08:48Z</time>
      </trkpt>
      <trkpt lat="43.42797" lon="6.61642">
        <ele>186</ele>
        <time>2016-10-07T10:08:59Z</time>
      </trkpt>
      <trkpt lat="43.42801" lon="6.61651">
        <ele>185</ele>
        <time>2016-10-07T10:09:01Z</time>
      </trkpt>
      <trkpt lat="43.42832" lon="6.61677">
        <ele>175</ele>
        <time>2016-10-07T10:09:09Z</time>
      </trkpt>
      <trkpt lat="43.42853" lon="6.61689">
        <ele>172</ele>
        <time>2016-10-07T10:09:12Z</time>
      </trkpt>
      <trkpt lat="43.42863" lon="6.61689">
        <ele>172</ele>
        <time>2016-10-07T10:09:14Z</time>
      </trkpt>
      <trkpt lat="43.42873" lon="6.61678">
        <ele>171</ele>
        <time>2016-10-07T10:09:17Z</time>
      </trkpt>
      <trkpt lat="43.4288" lon="6.61664">
        <ele>168</ele>
        <time>2016-10-07T10:09:20Z</time>
      </trkpt>
      <trkpt lat="43.42882" lon="6.61638">
        <ele>167</ele>
        <time>2016-10-07T10:09:25Z</time>
      </trkpt>
      <trkpt lat="43.42875" lon="6.61613">
        <ele>166</ele>
        <time>2016-10-07T10:09:29Z</time>
      </trkpt>
      <trkpt lat="43.42873" lon="6.61598">
        <ele>166</ele>
        <time>2016-10-07T10:09:31Z</time>
      </trkpt>
      <trkpt lat="43.42878" lon="6.61556">
        <ele>163</ele>
        <time>2016-10-07T10:09:38Z</time>
      </trkpt>
      <trkpt lat="43.42884" lon="6.6153">
        <ele>161</ele>
        <time>2016-10-07T10:09:42Z</time>
      </trkpt>
      <trkpt lat="43.42905" lon="6.61503">
        <ele>151</ele>
        <time>2016-10-07T10:09:48Z</time>
      </trkpt>
      <trkpt lat="43.42913" lon="6.61474">
        <ele>157</ele>
        <time>2016-10-07T10:09:52Z</time>
      </trkpt>
      <trkpt lat="43.42917" lon="6.61467">
        <ele>138</ele>
        <time>2016-10-07T10:09:53Z</time>
      </trkpt>
      <trkpt lat="43.42955" lon="6.61456">
        <ele>133</ele>
        <time>2016-10-07T10:10:03Z</time>
      </trkpt>
      <trkpt lat="43.42991" lon="6.6147">
        <ele>127</ele>
        <time>2016-10-07T10:10:11Z</time>
      </trkpt>
      <trkpt lat="43.43008" lon="6.6147">
        <ele>112</ele>
        <time>2016-10-07T10:10:15Z</time>
      </trkpt>
      <trkpt lat="43.43029" lon="6.61476">
        <ele>110</ele>
        <time>2016-10-07T10:10:20Z</time>
      </trkpt>
      <trkpt lat="43.43037" lon="6.61481">
        <ele>109</ele>
        <time>2016-10-07T10:10:22Z</time>
      </trkpt>
      <trkpt lat="43.43054" lon="6.61499">
        <ele>107</ele>
        <time>2016-10-07T10:10:26Z</time>
      </trkpt>
      <trkpt lat="43.43064" lon="6.61489">
        <ele>105</ele>
        <time>2016-10-07T10:10:28Z</time>
      </trkpt>
      <trkpt lat="43.43089" lon="6.6149">
        <ele>97</ele>
        <time>2016-10-07T10:10:32Z</time>
      </trkpt>
      <trkpt lat="43.43114" lon="6.61497">
        <ele>93</ele>
        <time>2016-10-07T10:10:36Z</time>
      </trkpt>
      <trkpt lat="43.4312" lon="6.61507">
        <ele>99</ele>
        <time>2016-10-07T10:10:38Z</time>
      </trkpt>
      <trkpt lat="43.43118" lon="6.61535">
        <ele>101</ele>
        <time>2016-10-07T10:10:42Z</time>
      </trkpt>
      <trkpt lat="43.4312" lon="6.61542">
        <ele>101</ele>
        <time>2016-10-07T10:10:43Z</time>
      </trkpt>
      <trkpt lat="43.43126" lon="6.61546">
        <ele>101</ele>
        <time>2016-10-07T10:10:44Z</time>
      </trkpt>
      <trkpt lat="43.43188" lon="6.61559">
        <ele>86</ele>
        <time>2016-10-07T10:10:53Z</time>
      </trkpt>
      <trkpt lat="43.432" lon="6.61567">
        <ele>85</ele>
        <time>2016-10-07T10:10:55Z</time>
      </trkpt>
      <trkpt lat="43.43208" lon="6.61578">
        <ele>84</ele>
        <time>2016-10-07T10:10:57Z</time>
      </trkpt>
      <trkpt lat="43.43231" lon="6.61627">
        <ele>90</ele>
        <time>2016-10-07T10:11:03Z</time>
      </trkpt>
      <trkpt lat="43.43246" lon="6.61671">
        <ele>87</ele>
        <time>2016-10-07T10:11:07Z</time>
      </trkpt>
      <trkpt lat="43.43251" lon="6.61695">
        <ele>75</ele>
        <time>2016-10-07T10:11:09Z</time>
      </trkpt>
      <trkpt lat="43.4325" lon="6.6175">
        <ele>84</ele>
        <time>2016-10-07T10:11:13Z</time>
      </trkpt>
      <trkpt lat="43.43252" lon="6.61778">
        <ele>75</ele>
        <time>2016-10-07T10:11:15Z</time>
      </trkpt>
      <trkpt lat="43.43256" lon="6.61791">
        <ele>74</ele>
        <time>2016-10-07T10:11:16Z</time>
      </trkpt>
      <trkpt lat="43.43266" lon="6.61808">
        <ele>73</ele>
        <time>2016-10-07T10:11:18Z</time>
      </trkpt>
      <trkpt lat="43.43268" lon="6.61817">
        <ele>74</ele>
        <time>2016-10-07T10:11:19Z</time>
      </trkpt>
      <trkpt lat="43.43261" lon="6.61845">
        <ele>75</ele>
        <time>2016-10-07T10:11:22Z</time>
      </trkpt>
      <trkpt lat="43.43255" lon="6.61852">
        <ele>75</ele>
        <time>2016-10-07T10:11:23Z</time>
      </trkpt>
      <trkpt lat="43.43242" lon="6.61875">
        <ele>88</ele>
        <time>2016-10-07T10:11:26Z</time>
      </trkpt>
      <trkpt lat="43.43249" lon="6.61907">
        <ele>83</ele>
        <time>2016-10-07T10:11:29Z</time>
      </trkpt>
      <trkpt lat="43.43267" lon="6.61928">
        <ele>72</ele>
        <time>2016-10-07T10:11:32Z</time>
      </trkpt>
      <trkpt lat="43.43312" lon="6.61961">
        <ele>64</ele>
        <time>2016-10-07T10:11:39Z</time>
      </trkpt>
      <trkpt lat="43.43318" lon="6.61971">
        <ele>63</ele>
        <time>2016-10-07T10:11:42Z</time>
      </trkpt>
      <trkpt lat="43.43316" lon="6.61981">
        <ele>62</ele>
        <time>2016-10-07T10:11:47Z</time>
      </trkpt>
      <trkpt lat="43.43321" lon="6.61986">
        <ele>60</ele>
        <time>2016-10-07T10:11:52Z</time>
      </trkpt>
      <trkpt lat="43.43324" lon="6.61997">
        <ele>57</ele>
        <time>2016-10-07T10:11:56Z</time>
      </trkpt>
      <trkpt lat="43.43322" lon="6.62002">
        <ele>55</ele>
        <time>2016-10-07T10:12:03Z</time>
      </trkpt>
      <trkpt lat="43.43325" lon="6.62008">
        <ele>55</ele>
        <time>2016-10-07T10:12:14Z</time>
      </trkpt>
      <trkpt lat="43.43326" lon="6.62013">
        <ele>55</ele>
        <time>2016-10-07T10:12:16Z</time>
      </trkpt>
      <trkpt lat="43.43326" lon="6.62025">
        <ele>55</ele>
        <time>2016-10-07T10:12:20Z</time>
      </trkpt>
      <trkpt lat="43.43335" lon="6.62042">
        <ele>44</ele>
        <time>2016-10-07T10:12:30Z</time>
      </trkpt>
      <trkpt lat="43.43336" lon="6.62052">
        <ele>43</ele>
        <time>2016-10-07T10:12:34Z</time>
      </trkpt>
      <trkpt lat="43.43338" lon="6.62053">
        <ele>43</ele>
        <time>2016-10-07T10:12:36Z</time>
      </trkpt>
      <trkpt lat="43.43361" lon="6.62032">
        <ele>45</ele>
        <time>2016-10-07T10:12:47Z</time>
      </trkpt>
      <trkpt lat="43.43379" lon="6.62009">
        <ele>44</ele>
        <time>2016-10-07T10:12:54Z</time>
      </trkpt>
      <trkpt lat="43.43393" lon="6.61985">
        <ele>46</ele>
        <time>2016-10-07T10:13:01Z</time>
      </trkpt>
      <trkpt lat="43.43401" lon="6.61956">
        <ele>47</ele>
        <time>2016-10-07T10:13:07Z</time>
      </trkpt>
      <trkpt lat="43.43405" lon="6.6192">
        <ele>45</ele>
        <time>2016-10-07T10:13:13Z</time>
      </trkpt>
      <trkpt lat="43.43394" lon="6.61836">
        <ele>50</ele>
        <time>2016-10-07T10:13:27Z</time>
      </trkpt>
      <trkpt lat="43.43375" lon="6.61794">
        <ele>53</ele>
        <time>2016-10-07T10:13:37Z</time>
      </trkpt>
      <trkpt lat="43.43371" lon="6.61788">
        <ele>53</ele>
        <time>2016-10-07T10:13:42Z</time>
      </trkpt>
      <trkpt lat="43.43369" lon="6.61774">
        <ele>53</ele>
        <time>2016-10-07T10:13:48Z</time>
      </trkpt>
      <trkpt lat="43.43379" lon="6.61752">
        <ele>52</ele>
        <time>2016-10-07T10:14:02Z</time>
      </trkpt>
      <trkpt lat="43.43376" lon="6.61742">
        <ele>53</ele>
        <time>2016-10-07T10:14:09Z</time>
      </trkpt>
      <trkpt lat="43.43368" lon="6.61737">
        <ele>53</ele>
        <time>2016-10-07T10:14:14Z</time>
      </trkpt>
      <trkpt lat="43.43363" lon="6.61719">
        <ele>53</ele>
        <time>2016-10-07T10:14:21Z</time>
      </trkpt>
      <trkpt lat="43.43363" lon="6.61679">
        <ele>53</ele>
        <time>2016-10-07T10:14:35Z</time>
      </trkpt>
      <trkpt lat="43.43356" lon="6.61667">
        <ele>54</ele>
        <time>2016-10-07T10:14:40Z</time>
      </trkpt>
      <trkpt lat="43.43356" lon="6.61654">
        <ele>54</ele>
        <time>2016-10-07T10:14:45Z</time>
      </trkpt>
      <trkpt lat="43.43361" lon="6.61638">
        <ele>54</ele>
        <time>2016-10-07T10:14:53Z</time>
      </trkpt>
      <trkpt lat="43.43362" lon="6.61616">
        <ele>54</ele>
        <time>2016-10-07T10:14:59Z</time>
      </trkpt>
      <trkpt lat="43.43356" lon="6.61595">
        <ele>54</ele>
        <time>2016-10-07T10:15:05Z</time>
      </trkpt>
      <trkpt lat="43.43356" lon="6.61543">
        <ele>53</ele>
        <time>2016-10-07T10:15:19Z</time>
      </trkpt>
      <trkpt lat="43.43351" lon="6.61517">
        <ele>52</ele>
        <time>2016-10-07T10:15:28Z</time>
      </trkpt>
      <trkpt lat="43.43351" lon="6.61454">
        <ele>51</ele>
        <time>2016-10-07T10:15:48Z</time>
      </trkpt>
      <trkpt lat="43.43357" lon="6.61437">
        <ele>52</ele>
        <time>2016-10-07T10:15:53Z</time>
      </trkpt>
      <trkpt lat="43.43359" lon="6.6142">
        <ele>51</ele>
        <time>2016-10-07T10:15:56Z</time>
      </trkpt>
      <trkpt lat="43.43349" lon="6.61326">
        <ele>56</ele>
        <time>2016-10-07T10:16:16Z</time>
      </trkpt>
      <trkpt lat="43.43343" lon="6.61311">
        <ele>57</ele>
        <time>2016-10-07T10:16:21Z</time>
      </trkpt>
      <trkpt lat="43.4334" lon="6.61275">
        <ele>58</ele>
        <time>2016-10-07T10:16:32Z</time>
      </trkpt>
      <trkpt lat="43.43337" lon="6.61263">
        <ele>57</ele>
        <time>2016-10-07T10:16:42Z</time>
      </trkpt>
      <trkpt lat="43.4333" lon="6.61236">
        <ele>57</ele>
        <time>2016-10-07T10:17:03Z</time>
      </trkpt>
      <trkpt lat="43.4333" lon="6.61208">
        <ele>59</ele>
        <time>2016-10-07T10:17:07Z</time>
      </trkpt>
      <trkpt lat="43.43334" lon="6.61197">
        <ele>60</ele>
        <time>2016-10-07T10:17:09Z</time>
      </trkpt>
      <trkpt lat="43.43331" lon="6.61179">
        <ele>58</ele>
        <time>2016-10-07T10:17:12Z</time>
      </trkpt>
      <trkpt lat="43.43325" lon="6.61166">
        <ele>58</ele>
        <time>2016-10-07T10:17:15Z</time>
      </trkpt>
      <trkpt lat="43.43309" lon="6.61149">
        <ele>61</ele>
        <time>2016-10-07T10:17:24Z</time>
      </trkpt>
      <trkpt lat="43.43305" lon="6.6115">
        <ele>61</ele>
        <time>2016-10-07T10:17:25Z</time>
      </trkpt>
      <trkpt lat="43.43258" lon="6.61108">
        <ele>62</ele>
        <time>2016-10-07T10:17:56Z</time>
      </trkpt>
      <trkpt lat="43.43256" lon="6.61106">
        <ele>62</ele>
        <time>2016-10-07T10:18:33Z</time>
      </trkpt>
      <trkpt lat="43.43253" lon="6.61069">
        <ele>63</ele>
        <time>2016-10-07T10:18:38Z</time>
      </trkpt>
      <trkpt lat="43.43247" lon="6.61056">
        <ele>65</ele>
        <time>2016-10-07T10:18:42Z</time>
      </trkpt>
      <trkpt lat="43.43236" lon="6.61018">
        <ele>64</ele>
        <time>2016-10-07T10:18:49Z</time>
      </trkpt>
      <trkpt lat="43.43236" lon="6.60996">
        <ele>63</ele>
        <time>2016-10-07T10:18:53Z</time>
      </trkpt>
      <trkpt lat="43.43235" lon="6.60981">
        <ele>64</ele>
        <time>2016-10-07T10:18:59Z</time>
      </trkpt>
      <trkpt lat="43.43223" lon="6.60921">
        <ele>65</ele>
        <time>2016-10-07T10:19:59Z</time>
      </trkpt>
      <trkpt lat="43.43223" lon="6.60916">
        <ele>65</ele>
        <time>2016-10-07T10:20:00Z</time>
      </trkpt>
      <trkpt lat="43.43206" lon="6.6088">
        <ele>66</ele>
        <time>2016-10-07T10:20:10Z</time>
      </trkpt>
      <trkpt lat="43.43172" lon="6.60824">
        <ele>67</ele>
        <time>2016-10-07T10:20:24Z</time>
      </trkpt>
      <trkpt lat="43.43155" lon="6.60804">
        <ele>67</ele>
        <time>2016-10-07T10:20:32Z</time>
      </trkpt>
      <trkpt lat="43.43137" lon="6.60757">
        <ele>67</ele>
        <time>2016-10-07T10:20:46Z</time>
      </trkpt>
      <trkpt lat="43.43124" lon="6.60744">
        <ele>66</ele>
        <time>2016-10-07T10:20:52Z</time>
      </trkpt>
      <trkpt lat="43.43105" lon="6.60749">
        <ele>66</ele>
        <time>2016-10-07T10:20:56Z</time>
      </trkpt>
      <trkpt lat="43.43088" lon="6.6075">
        <ele>66</ele>
        <time>2016-10-07T10:21:01Z</time>
      </trkpt>
      <trkpt lat="43.4307" lon="6.60741">
        <ele>65</ele>
        <time>2016-10-07T10:21:08Z</time>
      </trkpt>
      <trkpt lat="43.43035" lon="6.60717">
        <ele>66</ele>
        <time>2016-10-07T10:21:20Z</time>
      </trkpt>
      <trkpt lat="43.43022" lon="6.60716">
        <ele>66</ele>
        <time>2016-10-07T10:21:24Z</time>
      </trkpt>
      <trkpt lat="43.4301" lon="6.60723">
        <ele>66</ele>
        <time>2016-10-07T10:21:29Z</time>
      </trkpt>
      <trkpt lat="43.42999" lon="6.60733">
        <ele>68</ele>
        <time>2016-10-07T10:21:39Z</time>
      </trkpt>
      <trkpt lat="43.42998" lon="6.60736">
        <ele>68</ele>
        <time>2016-10-07T10:21:42Z</time>
      </trkpt>
      <trkpt lat="43.42983" lon="6.60773">
        <ele>71</ele>
        <time>2016-10-07T10:29:01Z</time>
      </trkpt>
      <trkpt lat="43.42984" lon="6.60824">
        <ele>73</ele>
        <time>2016-10-07T10:29:25Z</time>
      </trkpt>
      <trkpt lat="43.42991" lon="6.60841">
        <ele>76</ele>
        <time>2016-10-07T10:29:33Z</time>
      </trkpt>
      <trkpt lat="43.42996" lon="6.60847">
        <ele>76</ele>
        <time>2016-10-07T10:29:37Z</time>
      </trkpt>
      <trkpt lat="43.4301" lon="6.60894">
        <ele>79</ele>
        <time>2016-10-07T10:29:59Z</time>
      </trkpt>
      <trkpt lat="43.43014" lon="6.60919">
        <ele>83</ele>
        <time>2016-10-07T10:30:06Z</time>
      </trkpt>
      <trkpt lat="43.43021" lon="6.60947">
        <ele>84</ele>
        <time>2016-10-07T10:30:15Z</time>
      </trkpt>
      <trkpt lat="43.43036" lon="6.60968">
        <ele>85</ele>
        <time>2016-10-07T10:30:23Z</time>
      </trkpt>
      <trkpt lat="43.43046" lon="6.61005">
        <ele>89</ele>
        <time>2016-10-07T10:30:36Z</time>
      </trkpt>
      <trkpt lat="43.43067" lon="6.61044">
        <ele>89</ele>
        <time>2016-10-07T10:30:51Z</time>
      </trkpt>
      <trkpt lat="43.43069" lon="6.61059">
        <ele>89</ele>
        <time>2016-10-07T10:30:55Z</time>
      </trkpt>
      <trkpt lat="43.43062" lon="6.61095">
        <ele>93</ele>
        <time>2016-10-07T10:31:03Z</time>
      </trkpt>
      <trkpt lat="43.43073" lon="6.61122">
        <ele>94</ele>
        <time>2016-10-07T10:31:08Z</time>
      </trkpt>
      <trkpt lat="43.43092" lon="6.61132">
        <ele>86</ele>
        <time>2016-10-07T10:31:12Z</time>
      </trkpt>
      <trkpt lat="43.4311" lon="6.61151">
        <ele>86</ele>
        <time>2016-10-07T10:31:18Z</time>
      </trkpt>
      <trkpt lat="43.43129" lon="6.61178">
        <ele>88</ele>
        <time>2016-10-07T10:31:26Z</time>
      </trkpt>
      <trkpt lat="43.43135" lon="6.61215">
        <ele>89</ele>
        <time>2016-10-07T10:31:35Z</time>
      </trkpt>
      <trkpt lat="43.43129" lon="6.61248">
        <ele>90</ele>
        <time>2016-10-07T10:31:42Z</time>
      </trkpt>
      <trkpt lat="43.43094" lon="6.61322">
        <ele>95</ele>
        <time>2016-10-07T10:32:02Z</time>
      </trkpt>
      <trkpt lat="43.43076" lon="6.61348">
        <ele>102</ele>
        <time>2016-10-07T10:32:13Z</time>
      </trkpt>
      <trkpt lat="43.43057" lon="6.61367">
        <ele>105</ele>
        <time>2016-10-07T10:32:21Z</time>
      </trkpt>
      <trkpt lat="43.43048" lon="6.61396">
        <ele>106</ele>
        <time>2016-10-07T10:32:30Z</time>
      </trkpt>
      <trkpt lat="43.43052" lon="6.6142">
        <ele>106</ele>
        <time>2016-10-07T10:32:38Z</time>
      </trkpt>
      <trkpt lat="43.43051" lon="6.61425">
        <ele>106</ele>
        <time>2016-10-07T10:32:40Z</time>
      </trkpt>
      <trkpt lat="43.43046" lon="6.61431">
        <ele>107</ele>
        <time>2016-10-07T10:32:43Z</time>
      </trkpt>
      <trkpt lat="43.43037" lon="6.61427">
        <ele>109</ele>
        <time>2016-10-07T10:32:48Z</time>
      </trkpt>
      <trkpt lat="43.43031" lon="6.61412">
        <ele>109</ele>
        <time>2016-10-07T10:32:53Z</time>
      </trkpt>
      <trkpt lat="43.43018" lon="6.61396">
        <ele>110</ele>
        <time>2016-10-07T10:33:03Z</time>
      </trkpt>
      <trkpt lat="43.43011" lon="6.61378">
        <ele>110</ele>
        <time>2016-10-07T10:33:11Z</time>
      </trkpt>
      <trkpt lat="43.43006" lon="6.61331">
        <ele>115</ele>
        <time>2016-10-07T10:33:26Z</time>
      </trkpt>
      <trkpt lat="43.42983" lon="6.61288">
        <ele>127</ele>
        <time>2016-10-07T10:33:43Z</time>
      </trkpt>
      <trkpt lat="43.42979" lon="6.6127">
        <ele>126</ele>
        <time>2016-10-07T10:33:49Z</time>
      </trkpt>
      <trkpt lat="43.42977" lon="6.61248">
        <ele>120</ele>
        <time>2016-10-07T10:33:56Z</time>
      </trkpt>
      <trkpt lat="43.42959" lon="6.61206">
        <ele>122</ele>
        <time>2016-10-07T10:34:12Z</time>
      </trkpt>
      <trkpt lat="43.42945" lon="6.61187">
        <ele>123</ele>
        <time>2016-10-07T10:34:21Z</time>
      </trkpt>
      <trkpt lat="43.42935" lon="6.61187">
        <ele>124</ele>
        <time>2016-10-07T10:34:25Z</time>
      </trkpt>
      <trkpt lat="43.42914" lon="6.61178">
        <ele>134</ele>
        <time>2016-10-07T10:34:34Z</time>
      </trkpt>
      <trkpt lat="43.4289" lon="6.61145">
        <ele>129</ele>
        <time>2016-10-07T10:34:48Z</time>
      </trkpt>
      <trkpt lat="43.42873" lon="6.61128">
        <ele>130</ele>
        <time>2016-10-07T10:34:57Z</time>
      </trkpt>
      <trkpt lat="43.4286" lon="6.61126">
        <ele>131</ele>
        <time>2016-10-07T10:35:03Z</time>
      </trkpt>
      <trkpt lat="43.42838" lon="6.61117">
        <ele>131</ele>
        <time>2016-10-07T10:35:13Z</time>
      </trkpt>
      <trkpt lat="43.42825" lon="6.61106">
        <ele>137</ele>
        <time>2016-10-07T10:35:19Z</time>
      </trkpt>
      <trkpt lat="43.42812" lon="6.61091">
        <ele>136</ele>
        <time>2016-10-07T10:35:27Z</time>
      </trkpt>
      <trkpt lat="43.42798" lon="6.61086">
        <ele>137</ele>
        <time>2016-10-07T10:35:33Z</time>
      </trkpt>
      <trkpt lat="43.42749" lon="6.61107">
        <ele>141</ele>
        <time>2016-10-07T10:35:55Z</time>
      </trkpt>
      <trkpt lat="43.42737" lon="6.61118">
        <ele>144</ele>
        <time>2016-10-07T10:36:01Z</time>
      </trkpt>
      <trkpt lat="43.42722" lon="6.61143">
        <ele>149</ele>
        <time>2016-10-07T10:36:11Z</time>
      </trkpt>
      <trkpt lat="43.42713" lon="6.61149">
        <ele>149</ele>
        <time>2016-10-07T10:36:16Z</time>
      </trkpt>
      <trkpt lat="43.42696" lon="6.61144">
        <ele>149</ele>
        <time>2016-10-07T10:36:23Z</time>
      </trkpt>
      <trkpt lat="43.42673" lon="6.61123">
        <ele>147</ele>
        <time>2016-10-07T10:36:35Z</time>
      </trkpt>
      <trkpt lat="43.42657" lon="6.61117">
        <ele>152</ele>
        <time>2016-10-07T10:36:42Z</time>
      </trkpt>
      <trkpt lat="43.42628" lon="6.6112">
        <ele>155</ele>
        <time>2016-10-07T10:36:53Z</time>
      </trkpt>
      <trkpt lat="43.42615" lon="6.61117">
        <ele>156</ele>
        <time>2016-10-07T10:36:59Z</time>
      </trkpt>
      <trkpt lat="43.42568" lon="6.61079">
        <ele>158</ele>
        <time>2016-10-07T10:37:20Z</time>
      </trkpt>
      <trkpt lat="43.42553" lon="6.61062">
        <ele>163</ele>
        <time>2016-10-07T10:37:27Z</time>
      </trkpt>
      <trkpt lat="43.42552" lon="6.61035">
        <ele>162</ele>
        <time>2016-10-07T10:37:34Z</time>
      </trkpt>
      <trkpt lat="43.42537" lon="6.61006">
        <ele>165</ele>
        <time>2016-10-07T10:37:45Z</time>
      </trkpt>
      <trkpt lat="43.42546" lon="6.60971">
        <ele>161</ele>
        <time>2016-10-07T10:37:57Z</time>
      </trkpt>
      <trkpt lat="43.42547" lon="6.60938">
        <ele>161</ele>
        <time>2016-10-07T10:38:07Z</time>
      </trkpt>
      <trkpt lat="43.42537" lon="6.60894">
        <ele>164</ele>
        <time>2016-10-07T10:38:19Z</time>
      </trkpt>
      <trkpt lat="43.42542" lon="6.60874">
        <ele>162</ele>
        <time>2016-10-07T10:38:24Z</time>
      </trkpt>
      <trkpt lat="43.42543" lon="6.60802">
        <ele>155</ele>
        <time>2016-10-07T10:38:42Z</time>
      </trkpt>
      <trkpt lat="43.42532" lon="6.60786">
        <ele>156</ele>
        <time>2016-10-07T10:38:47Z</time>
      </trkpt>
      <trkpt lat="43.42523" lon="6.60778">
        <ele>156</ele>
        <time>2016-10-07T10:38:51Z</time>
      </trkpt>
      <trkpt lat="43.4249" lon="6.60769">
        <ele>169</ele>
        <time>2016-10-07T10:39:02Z</time>
      </trkpt>
      <trkpt lat="43.42453" lon="6.60745">
        <ele>159</ele>
        <time>2016-10-07T10:39:16Z</time>
      </trkpt>
      <trkpt lat="43.42429" lon="6.60738">
        <ele>165</ele>
        <time>2016-10-07T10:39:24Z</time>
      </trkpt>
      <trkpt lat="43.424" lon="6.60742">
        <ele>176</ele>
        <time>2016-10-07T10:39:34Z</time>
      </trkpt>
      <trkpt lat="43.42388" lon="6.6074">
        <ele>176</ele>
        <time>2016-10-07T10:39:39Z</time>
      </trkpt>
      <trkpt lat="43.42378" lon="6.60735">
        <ele>177</ele>
        <time>2016-10-07T10:39:44Z</time>
      </trkpt>
      <trkpt lat="43.42359" lon="6.60718">
        <ele>178</ele>
        <time>2016-10-07T10:39:54Z</time>
      </trkpt>
      <trkpt lat="43.42353" lon="6.60706">
        <ele>177</ele>
        <time>2016-10-07T10:39:58Z</time>
      </trkpt>
      <trkpt lat="43.42352" lon="6.60672">
        <ele>175</ele>
        <time>2016-10-07T10:40:10Z</time>
      </trkpt>
      <trkpt lat="43.42349" lon="6.60663">
        <ele>170</ele>
        <time>2016-10-07T10:40:14Z</time>
      </trkpt>
      <trkpt lat="43.42315" lon="6.60644">
        <ele>180</ele>
        <time>2016-10-07T10:40:33Z</time>
      </trkpt>
      <trkpt lat="43.42303" lon="6.60642">
        <ele>181</ele>
        <time>2016-10-07T10:40:39Z</time>
      </trkpt>
      <trkpt lat="43.42277" lon="6.60649">
        <ele>183</ele>
        <time>2016-10-07T10:40:52Z</time>
      </trkpt>
      <trkpt lat="43.42239" lon="6.60672">
        <ele>189</ele>
        <time>2016-10-07T10:41:11Z</time>
      </trkpt>
      <trkpt lat="43.4222" lon="6.6069">
        <ele>191</ele>
        <time>2016-10-07T10:41:18Z</time>
      </trkpt>
      <trkpt lat="43.42201" lon="6.6072">
        <ele>192</ele>
        <time>2016-10-07T10:41:27Z</time>
      </trkpt>
      <trkpt lat="43.42172" lon="6.60758">
        <ele>193</ele>
        <time>2016-10-07T10:41:38Z</time>
      </trkpt>
      <trkpt lat="43.42145" lon="6.60786">
        <ele>197</ele>
        <time>2016-10-07T10:41:48Z</time>
      </trkpt>
      <trkpt lat="43.42134" lon="6.60806">
        <ele>198</ele>
        <time>2016-10-07T10:41:53Z</time>
      </trkpt>
      <trkpt lat="43.42124" lon="6.60834">
        <ele>202</ele>
        <time>2016-10-07T10:42:00Z</time>
      </trkpt>
      <trkpt lat="43.42111" lon="6.60861">
        <ele>202</ele>
        <time>2016-10-07T10:42:07Z</time>
      </trkpt>
      <trkpt lat="43.42092" lon="6.60888">
        <ele>202</ele>
        <time>2016-10-07T10:42:15Z</time>
      </trkpt>
      <trkpt lat="43.42064" lon="6.60917">
        <ele>204</ele>
        <time>2016-10-07T10:42:26Z</time>
      </trkpt>
      <trkpt lat="43.42053" lon="6.60924">
        <ele>205</ele>
        <time>2016-10-07T10:42:30Z</time>
      </trkpt>
      <trkpt lat="43.42045" lon="6.60923">
        <ele>205</ele>
        <time>2016-10-07T10:42:33Z</time>
      </trkpt>
      <trkpt lat="43.42013" lon="6.60943">
        <ele>205</ele>
        <time>2016-10-07T10:42:47Z</time>
      </trkpt>
      <trkpt lat="43.42007" lon="6.60957">
        <ele>206</ele>
        <time>2016-10-07T10:42:53Z</time>
      </trkpt>
      <trkpt lat="43.41999" lon="6.60999">
        <ele>208</ele>
        <time>2016-10-07T10:43:17Z</time>
      </trkpt>
      <trkpt lat="43.41999" lon="6.61007">
        <ele>210</ele>
        <time>2016-10-07T10:43:21Z</time>
      </trkpt>
      <trkpt lat="43.41998" lon="6.61012">
        <ele>211</ele>
        <time>2016-10-07T10:43:25Z</time>
      </trkpt>
      <trkpt lat="43.4199" lon="6.61033">
        <ele>214</ele>
        <time>2016-10-07T10:43:46Z</time>
      </trkpt>
      <trkpt lat="43.41989" lon="6.61036">
        <ele>214</ele>
        <time>2016-10-07T10:43:47Z</time>
      </trkpt>
      <trkpt lat="43.41985" lon="6.61061">
        <ele>215</ele>
        <time>2016-10-07T10:43:56Z</time>
      </trkpt>
      <trkpt lat="43.41988" lon="6.61103">
        <ele>219</ele>
        <time>2016-10-07T10:44:12Z</time>
      </trkpt>
      <trkpt lat="43.41969" lon="6.61127">
        <ele>221</ele>
        <time>2016-10-07T10:44:26Z</time>
      </trkpt>
      <trkpt lat="43.41955" lon="6.61141">
        <ele>221</ele>
        <time>2016-10-07T10:44:36Z</time>
      </trkpt>
      <trkpt lat="43.41932" lon="6.61154">
        <ele>222</ele>
        <time>2016-10-07T10:44:51Z</time>
      </trkpt>
      <trkpt lat="43.41912" lon="6.61157">
        <ele>224</ele>
        <time>2016-10-07T10:45:01Z</time>
      </trkpt>
      <trkpt lat="43.41897" lon="6.61171">
        <ele>226</ele>
        <time>2016-10-07T10:45:19Z</time>
      </trkpt>
      <trkpt lat="43.41878" lon="6.61182">
        <ele>228</ele>
        <time>2016-10-07T10:45:41Z</time>
      </trkpt>
      <trkpt lat="43.41878" lon="6.61182">
        <ele>228</ele>
        <time>2016-10-07T10:45:42Z</time>
      </trkpt>
      <trkpt lat="43.41873" lon="6.6119">
        <ele>228</ele>
        <time>2016-10-07T10:48:30Z</time>
      </trkpt>
      <trkpt lat="43.41864" lon="6.61198">
        <ele>229</ele>
        <time>2016-10-07T10:48:34Z</time>
      </trkpt>
      <trkpt lat="43.41837" lon="6.61217">
        <ele>229</ele>
        <time>2016-10-07T10:48:47Z</time>
      </trkpt>
      <trkpt lat="43.41815" lon="6.61219">
        <ele>230</ele>
        <time>2016-10-07T10:48:55Z</time>
      </trkpt>
      <trkpt lat="43.41808" lon="6.61229">
        <ele>230</ele>
        <time>2016-10-07T10:49:02Z</time>
      </trkpt>
      <trkpt lat="43.41787" lon="6.61233">
        <ele>230</ele>
        <time>2016-10-07T10:49:13Z</time>
      </trkpt>
      <trkpt lat="43.41786" lon="6.61233">
        <ele>230</ele>
        <time>2016-10-07T10:49:15Z</time>
      </trkpt>
      <trkpt lat="43.41744" lon="6.61254">
        <ele>233</ele>
        <time>2016-10-07T10:50:13Z</time>
      </trkpt>
      <trkpt lat="43.41721" lon="6.61252">
        <ele>237</ele>
        <time>2016-10-07T10:50:24Z</time>
      </trkpt>
      <trkpt lat="43.41715" lon="6.61248">
        <ele>233</ele>
        <time>2016-10-07T10:50:27Z</time>
      </trkpt>
      <trkpt lat="43.41713" lon="6.61244">
        <ele>233</ele>
        <time>2016-10-07T10:50:29Z</time>
      </trkpt>
      <trkpt lat="43.41724" lon="6.61218">
        <ele>233</ele>
        <time>2016-10-07T10:50:36Z</time>
      </trkpt>
      <trkpt lat="43.41728" lon="6.61192">
        <ele>233</ele>
        <time>2016-10-07T10:50:42Z</time>
      </trkpt>
      <trkpt lat="43.41722" lon="6.61164">
        <ele>237</ele>
        <time>2016-10-07T10:50:49Z</time>
      </trkpt>
      <trkpt lat="43.41722" lon="6.61158">
        <ele>237</ele>
        <time>2016-10-07T10:50:51Z</time>
      </trkpt>
      <trkpt lat="43.41731" lon="6.6114">
        <ele>238</ele>
        <time>2016-10-07T10:51:01Z</time>
      </trkpt>
      <trkpt lat="43.41732" lon="6.61134">
        <ele>239</ele>
        <time>2016-10-07T10:51:04Z</time>
      </trkpt>
      <trkpt lat="43.41728" lon="6.61128">
        <ele>239</ele>
        <time>2016-10-07T10:51:07Z</time>
      </trkpt>
      <trkpt lat="43.41709" lon="6.61128">
        <ele>240</ele>
        <time>2016-10-07T10:51:19Z</time>
      </trkpt>
      <trkpt lat="43.41682" lon="6.61119">
        <ele>241</ele>
        <time>2016-10-07T10:51:34Z</time>
      </trkpt>
      <trkpt lat="43.41672" lon="6.61102">
        <ele>243</ele>
        <time>2016-10-07T10:51:42Z</time>
      </trkpt>
      <trkpt lat="43.41667" lon="6.61078">
        <ele>248</ele>
        <time>2016-10-07T10:51:51Z</time>
      </trkpt>
      <trkpt lat="43.41658" lon="6.6107">
        <ele>250</ele>
        <time>2016-10-07T10:51:56Z</time>
      </trkpt>
      <trkpt lat="43.41645" lon="6.61064">
        <ele>252</ele>
        <time>2016-10-07T10:52:04Z</time>
      </trkpt>
      <trkpt lat="43.41614" lon="6.61037">
        <ele>255</ele>
        <time>2016-10-07T10:52:24Z</time>
      </trkpt>
      <trkpt lat="43.41603" lon="6.61013">
        <ele>257</ele>
        <time>2016-10-07T10:52:38Z</time>
      </trkpt>
      <trkpt lat="43.41595" lon="6.6101">
        <ele>258</ele>
        <time>2016-10-07T10:52:45Z</time>
      </trkpt>
      <trkpt lat="43.41591" lon="6.61039">
        <ele>255</ele>
        <time>2016-10-07T10:52:58Z</time>
      </trkpt>
      <trkpt lat="43.41588" lon="6.61046">
        <ele>254</ele>
        <time>2016-10-07T10:53:01Z</time>
      </trkpt>
      <trkpt lat="43.41573" lon="6.61048">
        <ele>257</ele>
        <time>2016-10-07T10:53:09Z</time>
      </trkpt>
      <trkpt lat="43.41554" lon="6.6104">
        <ele>259</ele>
        <time>2016-10-07T10:53:19Z</time>
      </trkpt>
      <trkpt lat="43.41539" lon="6.61039">
        <ele>260</ele>
        <time>2016-10-07T10:53:26Z</time>
      </trkpt>
      <trkpt lat="43.41523" lon="6.61034">
        <ele>262</ele>
        <time>2016-10-07T10:53:33Z</time>
      </trkpt>
      <trkpt lat="43.415" lon="6.6102">
        <ele>266</ele>
        <time>2016-10-07T10:53:47Z</time>
      </trkpt>
      <trkpt lat="43.41477" lon="6.61027">
        <ele>268</ele>
        <time>2016-10-07T10:54:01Z</time>
      </trkpt>
      <trkpt lat="43.41443" lon="6.61021">
        <ele>270</ele>
        <time>2016-10-07T10:54:18Z</time>
      </trkpt>
      <trkpt lat="43.41372" lon="6.60998">
        <ele>281</ele>
        <time>2016-10-07T10:54:47Z</time>
      </trkpt>
      <trkpt lat="43.41337" lon="6.60979">
        <ele>280</ele>
        <time>2016-10-07T10:55:00Z</time>
      </trkpt>
      <trkpt lat="43.4132" lon="6.60965">
        <ele>284</ele>
        <time>2016-10-07T10:55:08Z</time>
      </trkpt>
      <trkpt lat="43.41302" lon="6.60942">
        <ele>286</ele>
        <time>2016-10-07T10:55:18Z</time>
      </trkpt>
      <trkpt lat="43.41276" lon="6.60892">
        <ele>291</ele>
        <time>2016-10-07T10:55:34Z</time>
      </trkpt>
      <trkpt lat="43.41255" lon="6.60879">
        <ele>292</ele>
        <time>2016-10-07T10:55:46Z</time>
      </trkpt>
      <trkpt lat="43.41231" lon="6.60878">
        <ele>295</ele>
        <time>2016-10-07T10:55:57Z</time>
      </trkpt>
      <trkpt lat="43.41218" lon="6.60868">
        <ele>296</ele>
        <time>2016-10-07T10:56:05Z</time>
      </trkpt>
      <trkpt lat="43.41206" lon="6.60853">
        <ele>297</ele>
        <time>2016-10-07T10:56:14Z</time>
      </trkpt>
      <trkpt lat="43.41178" lon="6.60838">
        <ele>298</ele>
        <time>2016-10-07T10:56:28Z</time>
      </trkpt>
      <trkpt lat="43.41164" lon="6.60826">
        <ele>303</ele>
        <time>2016-10-07T10:56:37Z</time>
      </trkpt>
      <trkpt lat="43.41152" lon="6.60826">
        <ele>306</ele>
        <time>2016-10-07T10:56:45Z</time>
      </trkpt>
      <trkpt lat="43.4115" lon="6.60833">
        <ele>306</ele>
        <time>2016-10-07T10:56:48Z</time>
      </trkpt>
      <trkpt lat="43.41158" lon="6.60859">
        <ele>307</ele>
        <time>2016-10-07T10:56:59Z</time>
      </trkpt>
      <trkpt lat="43.4116" lon="6.60877">
        <ele>308</ele>
        <time>2016-10-07T10:57:07Z</time>
      </trkpt>
      <trkpt lat="43.41173" lon="6.60903">
        <ele>302</ele>
        <time>2016-10-07T10:57:19Z</time>
      </trkpt>
      <trkpt lat="43.4119" lon="6.60927">
        <ele>302</ele>
        <time>2016-10-07T10:57:31Z</time>
      </trkpt>
      <trkpt lat="43.41222" lon="6.60997">
        <ele>300</ele>
        <time>2016-10-07T10:57:59Z</time>
      </trkpt>
      <trkpt lat="43.41222" lon="6.61014">
        <ele>303</ele>
        <time>2016-10-07T10:58:04Z</time>
      </trkpt>
      <trkpt lat="43.41236" lon="6.61042">
        <ele>303</ele>
        <time>2016-10-07T10:58:13Z</time>
      </trkpt>
      <trkpt lat="43.41253" lon="6.6105">
        <ele>294</ele>
        <time>2016-10-07T10:58:17Z</time>
      </trkpt>
      <trkpt lat="43.41271" lon="6.61079">
        <ele>295</ele>
        <time>2016-10-07T10:58:30Z</time>
      </trkpt>
      <trkpt lat="43.41268" lon="6.61092">
        <ele>297</ele>
        <time>2016-10-07T10:58:34Z</time>
      </trkpt>
      <trkpt lat="43.41261" lon="6.61097">
        <ele>297</ele>
        <time>2016-10-07T10:58:37Z</time>
      </trkpt>
      <trkpt lat="43.41254" lon="6.61094">
        <ele>299</ele>
        <time>2016-10-07T10:58:41Z</time>
      </trkpt>
      <trkpt lat="43.41239" lon="6.61081">
        <ele>304</ele>
        <time>2016-10-07T10:58:50Z</time>
      </trkpt>
      <trkpt lat="43.4122" lon="6.61074">
        <ele>305</ele>
        <time>2016-10-07T10:58:59Z</time>
      </trkpt>
      <trkpt lat="43.41201" lon="6.61078">
        <ele>306</ele>
        <time>2016-10-07T10:59:07Z</time>
      </trkpt>
      <trkpt lat="43.41153" lon="6.61069">
        <ele>309</ele>
        <time>2016-10-07T10:59:31Z</time>
      </trkpt>
      <trkpt lat="43.41113" lon="6.61052">
        <ele>309</ele>
        <time>2016-10-07T10:59:49Z</time>
      </trkpt>
      <trkpt lat="43.41102" lon="6.61042">
        <ele>310</ele>
        <time>2016-10-07T10:59:55Z</time>
      </trkpt>
      <trkpt lat="43.41085" lon="6.6102">
        <ele>313</ele>
        <time>2016-10-07T11:00:03Z</time>
      </trkpt>
      <trkpt lat="43.41073" lon="6.6099">
        <ele>311</ele>
        <time>2016-10-07T11:00:13Z</time>
      </trkpt>
      <trkpt lat="43.41063" lon="6.60916">
        <ele>315</ele>
        <time>2016-10-07T11:00:34Z</time>
      </trkpt>
      <trkpt lat="43.41053" lon="6.60883">
        <ele>313</ele>
        <time>2016-10-07T11:00:43Z</time>
      </trkpt>
      <trkpt lat="43.41041" lon="6.6085">
        <ele>314</ele>
        <time>2016-10-07T11:00:52Z</time>
      </trkpt>
      <trkpt lat="43.41026" lon="6.60822">
        <ele>320</ele>
        <time>2016-10-07T11:01:00Z</time>
      </trkpt>
      <trkpt lat="43.41005" lon="6.60798">
        <ele>322</ele>
        <time>2016-10-07T11:01:08Z</time>
      </trkpt>
      <trkpt lat="43.40972" lon="6.60788">
        <ele>323</ele>
        <time>2016-10-07T11:01:20Z</time>
      </trkpt>
      <trkpt lat="43.40949" lon="6.60765">
        <ele>326</ele>
        <time>2016-10-07T11:01:31Z</time>
      </trkpt>
      <trkpt lat="43.40936" lon="6.60763">
        <ele>327</ele>
        <time>2016-10-07T11:01:35Z</time>
      </trkpt>
      <trkpt lat="43.40894" lon="6.60785">
        <ele>323</ele>
        <time>2016-10-07T11:01:46Z</time>
      </trkpt>
      <trkpt lat="43.40858" lon="6.60793">
        <ele>321</ele>
        <time>2016-10-07T11:01:54Z</time>
      </trkpt>
      <trkpt lat="43.4084" lon="6.6078">
        <ele>324</ele>
        <time>2016-10-07T11:01:59Z</time>
      </trkpt>
      <trkpt lat="43.40793" lon="6.60738">
        <ele>339</ele>
        <time>2016-10-07T11:02:11Z</time>
      </trkpt>
      <trkpt lat="43.40773" lon="6.6071">
        <ele>341</ele>
        <time>2016-10-07T11:02:17Z</time>
      </trkpt>
      <trkpt lat="43.40743" lon="6.60697">
        <ele>342</ele>
        <time>2016-10-07T11:02:24Z</time>
      </trkpt>
      <trkpt lat="43.40693" lon="6.60683">
        <ele>343</ele>
        <time>2016-10-07T11:02:39Z</time>
      </trkpt>
      <trkpt lat="43.40651" lon="6.60663">
        <ele>351</ele>
        <time>2016-10-07T11:02:54Z</time>
      </trkpt>
      <trkpt lat="43.40641" lon="6.60661">
        <ele>353</ele>
        <time>2016-10-07T11:02:57Z</time>
      </trkpt>
      <trkpt lat="43.40635" lon="6.60671">
        <ele>351</ele>
        <time>2016-10-07T11:03:00Z</time>
      </trkpt>
      <trkpt lat="43.40638" lon="6.60685">
        <ele>351</ele>
        <time>2016-10-07T11:03:04Z</time>
      </trkpt>
      <trkpt lat="43.40655" lon="6.60708">
        <ele>351</ele>
        <time>2016-10-07T11:03:11Z</time>
      </trkpt>
      <trkpt lat="43.40704" lon="6.60759">
        <ele>340</ele>
        <time>2016-10-07T11:03:25Z</time>
      </trkpt>
      <trkpt lat="43.40723" lon="6.60772">
        <ele>337</ele>
        <time>2016-10-07T11:03:29Z</time>
      </trkpt>
      <trkpt lat="43.40726" lon="6.60782">
        <ele>337</ele>
        <time>2016-10-07T11:03:31Z</time>
      </trkpt>
      <trkpt lat="43.40743" lon="6.60906">
        <ele>337</ele>
        <time>2016-10-07T11:03:54Z</time>
      </trkpt>
      <trkpt lat="43.40781" lon="6.60958">
        <ele>323</ele>
        <time>2016-10-07T11:04:07Z</time>
      </trkpt>
      <trkpt lat="43.40779" lon="6.60976">
        <ele>324</ele>
        <time>2016-10-07T11:04:11Z</time>
      </trkpt>
      <trkpt lat="43.40755" lon="6.60974">
        <ele>325</ele>
        <time>2016-10-07T11:04:16Z</time>
      </trkpt>
      <trkpt lat="43.40733" lon="6.60964">
        <ele>340</ele>
        <time>2016-10-07T11:04:21Z</time>
      </trkpt>
      <trkpt lat="43.40713" lon="6.60966">
        <ele>343</ele>
        <time>2016-10-07T11:04:27Z</time>
      </trkpt>
      <trkpt lat="43.40717" lon="6.60995">
        <ele>341</ele>
        <time>2016-10-07T11:04:35Z</time>
      </trkpt>
      <trkpt lat="43.40696" lon="6.61029">
        <ele>341</ele>
        <time>2016-10-07T11:04:44Z</time>
      </trkpt>
      <trkpt lat="43.40689" lon="6.61061">
        <ele>343</ele>
        <time>2016-10-07T11:04:50Z</time>
      </trkpt>
      <trkpt lat="43.40689" lon="6.61094">
        <ele>343</ele>
        <time>2016-10-07T11:04:57Z</time>
      </trkpt>
      <trkpt lat="43.40706" lon="6.61142">
        <ele>338</ele>
        <time>2016-10-07T11:05:10Z</time>
      </trkpt>
      <trkpt lat="43.40708" lon="6.61161">
        <ele>338</ele>
        <time>2016-10-07T11:05:15Z</time>
      </trkpt>
      <trkpt lat="43.40713" lon="6.61172">
        <ele>334</ele>
        <time>2016-10-07T11:05:18Z</time>
      </trkpt>
      <trkpt lat="43.40715" lon="6.61195">
        <ele>333</ele>
        <time>2016-10-07T11:05:24Z</time>
      </trkpt>
      <trkpt lat="43.4071" lon="6.61222">
        <ele>333</ele>
        <time>2016-10-07T11:05:30Z</time>
      </trkpt>
      <trkpt lat="43.40699" lon="6.61236">
        <ele>334</ele>
        <time>2016-10-07T11:05:35Z</time>
      </trkpt>
      <trkpt lat="43.40681" lon="6.61242">
        <ele>337</ele>
        <time>2016-10-07T11:05:42Z</time>
      </trkpt>
      <trkpt lat="43.40635" lon="6.6124">
        <ele>351</ele>
        <time>2016-10-07T11:05:57Z</time>
      </trkpt>
      <trkpt lat="43.40599" lon="6.61265">
        <ele>341</ele>
        <time>2016-10-07T11:06:10Z</time>
      </trkpt>
      <trkpt lat="43.40559" lon="6.61259">
        <ele>346</ele>
        <time>2016-10-07T11:06:22Z</time>
      </trkpt>
      <trkpt lat="43.4054" lon="6.61247">
        <ele>357</ele>
        <time>2016-10-07T11:06:29Z</time>
      </trkpt>
      <trkpt lat="43.40514" lon="6.61219">
        <ele>359</ele>
        <time>2016-10-07T11:06:41Z</time>
      </trkpt>
      <trkpt lat="43.40494" lon="6.61217">
        <ele>362</ele>
        <time>2016-10-07T11:06:50Z</time>
      </trkpt>
      <trkpt lat="43.40463" lon="6.6119">
        <ele>367</ele>
        <time>2016-10-07T11:07:03Z</time>
      </trkpt>
      <trkpt lat="43.40457" lon="6.61193">
        <ele>368</ele>
        <time>2016-10-07T11:07:05Z</time>
      </trkpt>
      <trkpt lat="43.40454" lon="6.61209">
        <ele>367</ele>
        <time>2016-10-07T11:07:09Z</time>
      </trkpt>
      <trkpt lat="43.40459" lon="6.61268">
        <ele>360</ele>
        <time>2016-10-07T11:07:24Z</time>
      </trkpt>
      <trkpt lat="43.4045" lon="6.613">
        <ele>362</ele>
        <time>2016-10-07T11:07:31Z</time>
      </trkpt>
      <trkpt lat="43.40443" lon="6.61313">
        <ele>363</ele>
        <time>2016-10-07T11:07:35Z</time>
      </trkpt>
      <trkpt lat="43.40442" lon="6.61333">
        <ele>364</ele>
        <time>2016-10-07T11:07:41Z</time>
      </trkpt>
      <trkpt lat="43.40457" lon="6.61356">
        <ele>366</ele>
        <time>2016-10-07T11:07:50Z</time>
      </trkpt>
      <trkpt lat="43.40461" lon="6.61366">
        <ele>366</ele>
        <time>2016-10-07T11:07:53Z</time>
      </trkpt>
      <trkpt lat="43.40497" lon="6.61404">
        <ele>364</ele>
        <time>2016-10-07T11:08:08Z</time>
      </trkpt>
      <trkpt lat="43.40515" lon="6.6143">
        <ele>361</ele>
        <time>2016-10-07T11:08:17Z</time>
      </trkpt>
      <trkpt lat="43.40519" lon="6.61449">
        <ele>363</ele>
        <time>2016-10-07T11:08:22Z</time>
      </trkpt>
      <trkpt lat="43.40529" lon="6.61471">
        <ele>365</ele>
        <time>2016-10-07T11:08:28Z</time>
      </trkpt>
      <trkpt lat="43.40545" lon="6.61486">
        <ele>364</ele>
        <time>2016-10-07T11:08:35Z</time>
      </trkpt>
      <trkpt lat="43.40552" lon="6.61489">
        <ele>363</ele>
        <time>2016-10-07T11:08:37Z</time>
      </trkpt>
      <trkpt lat="43.40588" lon="6.61519">
        <ele>365</ele>
        <time>2016-10-07T11:08:51Z</time>
      </trkpt>
      <trkpt lat="43.40652" lon="6.61537">
        <ele>367</ele>
        <time>2016-10-07T11:09:13Z</time>
      </trkpt>
      <trkpt lat="43.40692" lon="6.61553">
        <ele>362</ele>
        <time>2016-10-07T11:09:26Z</time>
      </trkpt>
      <trkpt lat="43.40714" lon="6.61558">
        <ele>361</ele>
        <time>2016-10-07T11:09:33Z</time>
      </trkpt>
      <trkpt lat="43.40761" lon="6.6159">
        <ele>364</ele>
        <time>2016-10-07T11:09:51Z</time>
      </trkpt>
      <trkpt lat="43.40786" lon="6.61613">
        <ele>360</ele>
        <time>2016-10-07T11:10:01Z</time>
      </trkpt>
      <trkpt lat="43.40794" lon="6.61625">
        <ele>359</ele>
        <time>2016-10-07T11:10:05Z</time>
      </trkpt>
      <trkpt lat="43.40798" lon="6.61639">
        <ele>359</ele>
        <time>2016-10-07T11:10:09Z</time>
      </trkpt>
      <trkpt lat="43.40789" lon="6.61659">
        <ele>361</ele>
        <time>2016-10-07T11:10:15Z</time>
      </trkpt>
      <trkpt lat="43.40721" lon="6.61693">
        <ele>371</ele>
        <time>2016-10-07T11:10:40Z</time>
      </trkpt>
      <trkpt lat="43.40682" lon="6.61724">
        <ele>371</ele>
        <time>2016-10-07T11:10:55Z</time>
      </trkpt>
      <trkpt lat="43.40647" lon="6.61734">
        <ele>385</ele>
        <time>2016-10-07T11:11:09Z</time>
      </trkpt>
      <trkpt lat="43.40627" lon="6.61748">
        <ele>389</ele>
        <time>2016-10-07T11:11:18Z</time>
      </trkpt>
      <trkpt lat="43.40607" lon="6.61767">
        <ele>380</ele>
        <time>2016-10-07T11:11:26Z</time>
      </trkpt>
      <trkpt lat="43.40535" lon="6.61899">
        <ele>383</ele>
        <time>2016-10-07T11:12:06Z</time>
      </trkpt>
      <trkpt lat="43.40519" lon="6.61912">
        <ele>385</ele>
        <time>2016-10-07T11:12:11Z</time>
      </trkpt>
      <trkpt lat="43.40496" lon="6.6192">
        <ele>390</ele>
        <time>2016-10-07T11:12:17Z</time>
      </trkpt>
      <trkpt lat="43.4047" lon="6.61935">
        <ele>396</ele>
        <time>2016-10-07T11:12:24Z</time>
      </trkpt>
      <trkpt lat="43.40463" lon="6.61955">
        <ele>396</ele>
        <time>2016-10-07T11:12:28Z</time>
      </trkpt>
      <trkpt lat="43.40464" lon="6.62008">
        <ele>384</ele>
        <time>2016-10-07T11:12:40Z</time>
      </trkpt>
      <trkpt lat="43.40453" lon="6.6206">
        <ele>385</ele>
        <time>2016-10-07T11:12:53Z</time>
      </trkpt>
      <trkpt lat="43.40407" lon="6.62143">
        <ele>396</ele>
        <time>2016-10-07T11:13:18Z</time>
      </trkpt>
      <trkpt lat="43.40405" lon="6.62165">
        <ele>395</ele>
        <time>2016-10-07T11:13:28Z</time>
      </trkpt>
      <trkpt lat="43.40386" lon="6.62178">
        <ele>391</ele>
        <time>2016-10-07T11:21:09Z</time>
      </trkpt>
      <trkpt lat="43.40372" lon="6.62198">
        <ele>390</ele>
        <time>2016-10-07T11:21:15Z</time>
      </trkpt>
      <trkpt lat="43.40361" lon="6.62226">
        <ele>388</ele>
        <time>2016-10-07T11:21:21Z</time>
      </trkpt>
      <trkpt lat="43.40349" lon="6.62339">
        <ele>396</ele>
        <time>2016-10-07T11:21:37Z</time>
      </trkpt>
      <trkpt lat="43.40343" lon="6.62354">
        <ele>398</ele>
        <time>2016-10-07T11:21:39Z</time>
      </trkpt>
      <trkpt lat="43.40309" lon="6.62409">
        <ele>382</ele>
        <time>2016-10-07T11:21:47Z</time>
      </trkpt>
      <trkpt lat="43.4027" lon="6.62457">
        <ele>390</ele>
        <time>2016-10-07T11:21:55Z</time>
      </trkpt>
      <trkpt lat="43.40213" lon="6.62507">
        <ele>389</ele>
        <time>2016-10-07T11:22:05Z</time>
      </trkpt>
      <trkpt lat="43.40106" lon="6.62593">
        <ele>380</ele>
        <time>2016-10-07T11:22:23Z</time>
      </trkpt>
      <trkpt lat="43.40081" lon="6.62621">
        <ele>365</ele>
        <time>2016-10-07T11:22:28Z</time>
      </trkpt>
      <trkpt lat="43.40045" lon="6.62675">
        <ele>378</ele>
        <time>2016-10-07T11:22:36Z</time>
      </trkpt>
      <trkpt lat="43.4" lon="6.62731">
        <ele>377</ele>
        <time>2016-10-07T11:22:44Z</time>
      </trkpt>
      <trkpt lat="43.39986" lon="6.62757">
        <ele>369</ele>
        <time>2016-10-07T11:22:47Z</time>
      </trkpt>
      <trkpt lat="43.39984" lon="6.62767">
        <ele>368</ele>
        <time>2016-10-07T11:22:48Z</time>
      </trkpt>
      <trkpt lat="43.39967" lon="6.62805">
        <ele>367</ele>
        <time>2016-10-07T11:22:52Z</time>
      </trkpt>
      <trkpt lat="43.39922" lon="6.62875">
        <ele>375</ele>
        <time>2016-10-07T11:23:00Z</time>
      </trkpt>
      <trkpt lat="43.3987" lon="6.62965">
        <ele>361</ele>
        <time>2016-10-07T11:23:09Z</time>
      </trkpt>
      <trkpt lat="43.39863" lon="6.62988">
        <ele>359</ele>
        <time>2016-10-07T11:23:11Z</time>
      </trkpt>
      <trkpt lat="43.39846" lon="6.63074">
        <ele>365</ele>
        <time>2016-10-07T11:23:18Z</time>
      </trkpt>
      <trkpt lat="43.39816" lon="6.63161">
        <ele>354</ele>
        <time>2016-10-07T11:23:26Z</time>
      </trkpt>
      <trkpt lat="43.39811" lon="6.63183">
        <ele>357</ele>
        <time>2016-10-07T11:23:28Z</time>
      </trkpt>
      <trkpt lat="43.39765" lon="6.63284">
        <ele>356</ele>
        <time>2016-10-07T11:23:38Z</time>
      </trkpt>
      <trkpt lat="43.39746" lon="6.63306">
        <ele>339</ele>
        <time>2016-10-07T11:23:41Z</time>
      </trkpt>
      <trkpt lat="43.39737" lon="6.63323">
        <ele>342</ele>
        <time>2016-10-07T11:23:43Z</time>
      </trkpt>
      <trkpt lat="43.39728" lon="6.6336">
        <ele>342</ele>
        <time>2016-10-07T11:23:47Z</time>
      </trkpt>
      <trkpt lat="43.39727" lon="6.63383">
        <ele>341</ele>
        <time>2016-10-07T11:23:55Z</time>
      </trkpt>
      <trkpt lat="43.39722" lon="6.63392">
        <ele>341</ele>
        <time>2016-10-07T11:23:58Z</time>
      </trkpt>
      <trkpt lat="43.39687" lon="6.63414">
        <ele>337</ele>
        <time>2016-10-07T11:24:08Z</time>
      </trkpt>
      <trkpt lat="43.39669" lon="6.63442">
        <ele>337</ele>
        <time>2016-10-07T11:24:14Z</time>
      </trkpt>
      <trkpt lat="43.39668" lon="6.63448">
        <ele>337</ele>
        <time>2016-10-07T11:24:15Z</time>
      </trkpt>
      <trkpt lat="43.39637" lon="6.63474">
        <ele>327</ele>
        <time>2016-10-07T11:24:23Z</time>
      </trkpt>
      <trkpt lat="43.39626" lon="6.63488">
        <ele>326</ele>
        <time>2016-10-07T11:24:26Z</time>
      </trkpt>
      <trkpt lat="43.39615" lon="6.63491">
        <ele>325</ele>
        <time>2016-10-07T11:24:28Z</time>
      </trkpt>
      <trkpt lat="43.39603" lon="6.63506">
        <ele>322</ele>
        <time>2016-10-07T11:24:32Z</time>
      </trkpt>
      <trkpt lat="43.39588" lon="6.63512">
        <ele>321</ele>
        <time>2016-10-07T11:24:35Z</time>
      </trkpt>
      <trkpt lat="43.39548" lon="6.63518">
        <ele>311</ele>
        <time>2016-10-07T11:24:43Z</time>
      </trkpt>
      <trkpt lat="43.3953" lon="6.6351">
        <ele>309</ele>
        <time>2016-10-07T11:24:47Z</time>
      </trkpt>
      <trkpt lat="43.39511" lon="6.63523">
        <ele>307</ele>
        <time>2016-10-07T11:24:51Z</time>
      </trkpt>
      <trkpt lat="43.39475" lon="6.63532">
        <ele>294</ele>
        <time>2016-10-07T11:24:56Z</time>
      </trkpt>
      <trkpt lat="43.39464" lon="6.6354">
        <ele>292</ele>
        <time>2016-10-07T11:24:58Z</time>
      </trkpt>
      <trkpt lat="43.39443" lon="6.6357">
        <ele>289</ele>
        <time>2016-10-07T11:25:06Z</time>
      </trkpt>
      <trkpt lat="43.39424" lon="6.63582">
        <ele>285</ele>
        <time>2016-10-07T11:25:11Z</time>
      </trkpt>
      <trkpt lat="43.39416" lon="6.63603">
        <ele>274</ele>
        <time>2016-10-07T11:25:15Z</time>
      </trkpt>
      <trkpt lat="43.39407" lon="6.6364">
        <ele>270</ele>
        <time>2016-10-07T11:25:19Z</time>
      </trkpt>
      <trkpt lat="43.39394" lon="6.6367">
        <ele>266</ele>
        <time>2016-10-07T11:25:25Z</time>
      </trkpt>
      <trkpt lat="43.39395" lon="6.63687">
        <ele>265</ele>
        <time>2016-10-07T11:25:29Z</time>
      </trkpt>
      <trkpt lat="43.39383" lon="6.63689">
        <ele>263</ele>
        <time>2016-10-07T11:25:33Z</time>
      </trkpt>
      <trkpt lat="43.3938" lon="6.63692">
        <ele>262</ele>
        <time>2016-10-07T11:25:35Z</time>
      </trkpt>
      <trkpt lat="43.39366" lon="6.63722">
        <ele>259</ele>
        <time>2016-10-07T11:25:45Z</time>
      </trkpt>
      <trkpt lat="43.39365" lon="6.63731">
        <ele>259</ele>
        <time>2016-10-07T11:25:48Z</time>
      </trkpt>
      <trkpt lat="43.39337" lon="6.63749">
        <ele>254</ele>
        <time>2016-10-07T11:25:54Z</time>
      </trkpt>
      <trkpt lat="43.39328" lon="6.63772">
        <ele>241</ele>
        <time>2016-10-07T11:25:59Z</time>
      </trkpt>
      <trkpt lat="43.39323" lon="6.63776">
        <ele>239</ele>
        <time>2016-10-07T11:26:01Z</time>
      </trkpt>
      <trkpt lat="43.39311" lon="6.63773">
        <ele>238</ele>
        <time>2016-10-07T11:26:04Z</time>
      </trkpt>
      <trkpt lat="43.39293" lon="6.63756">
        <ele>235</ele>
        <time>2016-10-07T11:26:13Z</time>
      </trkpt>
      <trkpt lat="43.39289" lon="6.63759">
        <ele>234</ele>
        <time>2016-10-07T11:26:15Z</time>
      </trkpt>
      <trkpt lat="43.39283" lon="6.6377">
        <ele>232</ele>
        <time>2016-10-07T11:26:18Z</time>
      </trkpt>
      <trkpt lat="43.39281" lon="6.63779">
        <ele>232</ele>
        <time>2016-10-07T11:26:20Z</time>
      </trkpt>
      <trkpt lat="43.39282" lon="6.63808">
        <ele>230</ele>
        <time>2016-10-07T11:26:27Z</time>
      </trkpt>
      <trkpt lat="43.39277" lon="6.63824">
        <ele>229</ele>
        <time>2016-10-07T11:26:31Z</time>
      </trkpt>
      <trkpt lat="43.39277" lon="6.63835">
        <ele>221</ele>
        <time>2016-10-07T11:26:33Z</time>
      </trkpt>
      <trkpt lat="43.39271" lon="6.63861">
        <ele>220</ele>
        <time>2016-10-07T11:26:37Z</time>
      </trkpt>
      <trkpt lat="43.39262" lon="6.63885">
        <ele>218</ele>
        <time>2016-10-07T11:26:41Z</time>
      </trkpt>
      <trkpt lat="43.39261" lon="6.63898">
        <ele>217</ele>
        <time>2016-10-07T11:26:43Z</time>
      </trkpt>
      <trkpt lat="43.39256" lon="6.63908">
        <ele>216</ele>
        <time>2016-10-07T11:26:45Z</time>
      </trkpt>
      <trkpt lat="43.39234" lon="6.63911">
        <ele>212</ele>
        <time>2016-10-07T11:26:48Z</time>
      </trkpt>
      <trkpt lat="43.39216" lon="6.63917">
        <ele>211</ele>
        <time>2016-10-07T11:26:50Z</time>
      </trkpt>
      <trkpt lat="43.39133" lon="6.6396">
        <ele>207</ele>
        <time>2016-10-07T11:27:11Z</time>
      </trkpt>
      <trkpt lat="43.39102" lon="6.63972">
        <ele>208</ele>
        <time>2016-10-07T11:27:23Z</time>
      </trkpt>
      <trkpt lat="43.39077" lon="6.63996">
        <ele>209</ele>
        <time>2016-10-07T11:27:32Z</time>
      </trkpt>
      <trkpt lat="43.39066" lon="6.64002">
        <ele>208</ele>
        <time>2016-10-07T11:27:35Z</time>
      </trkpt>
      <trkpt lat="43.39034" lon="6.64009">
        <ele>204</ele>
        <time>2016-10-07T11:27:42Z</time>
      </trkpt>
      <trkpt lat="43.39025" lon="6.64003">
        <ele>204</ele>
        <time>2016-10-07T11:27:45Z</time>
      </trkpt>
      <trkpt lat="43.39007" lon="6.64004">
        <ele>203</ele>
        <time>2016-10-07T11:27:49Z</time>
      </trkpt>
      <trkpt lat="43.39003" lon="6.64009">
        <ele>203</ele>
        <time>2016-10-07T11:27:50Z</time>
      </trkpt>
      <trkpt lat="43.38987" lon="6.64017">
        <ele>199</ele>
        <time>2016-10-07T11:27:53Z</time>
      </trkpt>
      <trkpt lat="43.38963" lon="6.64021">
        <ele>196</ele>
        <time>2016-10-07T11:27:57Z</time>
      </trkpt>
      <trkpt lat="43.38955" lon="6.64027">
        <ele>196</ele>
        <time>2016-10-07T11:27:59Z</time>
      </trkpt>
      <trkpt lat="43.38954" lon="6.64031">
        <ele>196</ele>
        <time>2016-10-07T11:28:00Z</time>
      </trkpt>
      <trkpt lat="43.38943" lon="6.64034">
        <ele>195</ele>
        <time>2016-10-07T11:28:05Z</time>
      </trkpt>
      <trkpt lat="43.38942" lon="6.64027">
        <ele>194</ele>
        <time>2016-10-07T11:28:07Z</time>
      </trkpt>
      <trkpt lat="43.38946" lon="6.64016">
        <ele>194</ele>
        <time>2016-10-07T11:28:09Z</time>
      </trkpt>
      <trkpt lat="43.38952" lon="6.64007">
        <ele>195</ele>
        <time>2016-10-07T11:28:11Z</time>
      </trkpt>
      <trkpt lat="43.38992" lon="6.63975">
        <ele>192</ele>
        <time>2016-10-07T11:28:20Z</time>
      </trkpt>
      <trkpt lat="43.3902" lon="6.63946">
        <ele>197</ele>
        <time>2016-10-07T11:28:27Z</time>
      </trkpt>
      <trkpt lat="43.39033" lon="6.6393">
        <ele>197</ele>
        <time>2016-10-07T11:28:32Z</time>
      </trkpt>
      <trkpt lat="43.39032" lon="6.63913">
        <ele>188</ele>
        <time>2016-10-07T11:28:38Z</time>
      </trkpt>
      <trkpt lat="43.39017" lon="6.63885">
        <ele>186</ele>
        <time>2016-10-07T11:28:44Z</time>
      </trkpt>
      <trkpt lat="43.39008" lon="6.63876">
        <ele>185</ele>
        <time>2016-10-07T11:28:46Z</time>
      </trkpt>
      <trkpt lat="43.38992" lon="6.63871">
        <ele>175</ele>
        <time>2016-10-07T11:28:51Z</time>
      </trkpt>
      <trkpt lat="43.38967" lon="6.63851">
        <ele>173</ele>
        <time>2016-10-07T11:28:58Z</time>
      </trkpt>
      <trkpt lat="43.38958" lon="6.63837">
        <ele>171</ele>
        <time>2016-10-07T11:29:04Z</time>
      </trkpt>
      <trkpt lat="43.38948" lon="6.63802">
        <ele>166</ele>
        <time>2016-10-07T11:29:09Z</time>
      </trkpt>
      <trkpt lat="43.38932" lon="6.63782">
        <ele>165</ele>
        <time>2016-10-07T11:29:13Z</time>
      </trkpt>
      <trkpt lat="43.38898" lon="6.63749">
        <ele>157</ele>
        <time>2016-10-07T11:29:21Z</time>
      </trkpt>
      <trkpt lat="43.38894" lon="6.63739">
        <ele>156</ele>
        <time>2016-10-07T11:29:23Z</time>
      </trkpt>
      <trkpt lat="43.38883" lon="6.63721">
        <ele>154</ele>
        <time>2016-10-07T11:29:27Z</time>
      </trkpt>
      <trkpt lat="43.38879" lon="6.63706">
        <ele>154</ele>
        <time>2016-10-07T11:29:30Z</time>
      </trkpt>
      <trkpt lat="43.38844" lon="6.63667">
        <ele>149</ele>
        <time>2016-10-07T11:29:39Z</time>
      </trkpt>
      <trkpt lat="43.38837" lon="6.63663">
        <ele>148</ele>
        <time>2016-10-07T11:29:42Z</time>
      </trkpt>
      <trkpt lat="43.38817" lon="6.63644">
        <ele>144</ele>
        <time>2016-10-07T11:29:46Z</time>
      </trkpt>
      <trkpt lat="43.38802" lon="6.63623">
        <ele>144</ele>
        <time>2016-10-07T11:29:52Z</time>
      </trkpt>
      <trkpt lat="43.38774" lon="6.63542">
        <ele>145</ele>
        <time>2016-10-07T11:30:05Z</time>
      </trkpt>
      <trkpt lat="43.38775" lon="6.63531">
        <ele>145</ele>
        <time>2016-10-07T11:30:08Z</time>
      </trkpt>
      <trkpt lat="43.38784" lon="6.63502">
        <ele>146</ele>
        <time>2016-10-07T11:30:18Z</time>
      </trkpt>
      <trkpt lat="43.38785" lon="6.63491">
        <ele>143</ele>
        <time>2016-10-07T11:30:22Z</time>
      </trkpt>
      <trkpt lat="43.38778" lon="6.63485">
        <ele>143</ele>
        <time>2016-10-07T11:30:24Z</time>
      </trkpt>
      <trkpt lat="43.38759" lon="6.63482">
        <ele>142</ele>
        <time>2016-10-07T11:30:27Z</time>
      </trkpt>
      <trkpt lat="43.38752" lon="6.63483">
        <ele>142</ele>
        <time>2016-10-07T11:30:28Z</time>
      </trkpt>
      <trkpt lat="43.38722" lon="6.63507">
        <ele>135</ele>
        <time>2016-10-07T11:30:35Z</time>
      </trkpt>
      <trkpt lat="43.38671" lon="6.63478">
        <ele>128</ele>
        <time>2016-10-07T11:30:43Z</time>
      </trkpt>
      <trkpt lat="43.38658" lon="6.63458">
        <ele>120</ele>
        <time>2016-10-07T11:30:46Z</time>
      </trkpt>
      <trkpt lat="43.3864" lon="6.634">
        <ele>116</ele>
        <time>2016-10-07T11:30:52Z</time>
      </trkpt>
      <trkpt lat="43.38636" lon="6.63394">
        <ele>115</ele>
        <time>2016-10-07T11:30:53Z</time>
      </trkpt>
      <trkpt lat="43.38626" lon="6.63389">
        <ele>114</ele>
        <time>2016-10-07T11:30:55Z</time>
      </trkpt>
      <trkpt lat="43.38607" lon="6.63403">
        <ele>113</ele>
        <time>2016-10-07T11:30:59Z</time>
      </trkpt>
      <trkpt lat="43.38595" lon="6.63397">
        <ele>112</ele>
        <time>2016-10-07T11:31:01Z</time>
      </trkpt>
      <trkpt lat="43.38564" lon="6.63393">
        <ele>110</ele>
        <time>2016-10-07T11:31:06Z</time>
      </trkpt>
      <trkpt lat="43.38553" lon="6.63383">
        <ele>110</ele>
        <time>2016-10-07T11:31:08Z</time>
      </trkpt>
      <trkpt lat="43.38547" lon="6.63383">
        <ele>110</ele>
        <time>2016-10-07T11:31:09Z</time>
      </trkpt>
      <trkpt lat="43.38501" lon="6.63427">
        <ele>106</ele>
        <time>2016-10-07T11:31:16Z</time>
      </trkpt>
      <trkpt lat="43.38474" lon="6.63466">
        <ele>105</ele>
        <time>2016-10-07T11:31:21Z</time>
      </trkpt>
      <trkpt lat="43.38431" lon="6.63509">
        <ele>102</ele>
        <time>2016-10-07T11:31:27Z</time>
      </trkpt>
      <trkpt lat="43.38421" lon="6.63528">
        <ele>103</ele>
        <time>2016-10-07T11:31:29Z</time>
      </trkpt>
      <trkpt lat="43.38419" lon="6.63548">
        <ele>103</ele>
        <time>2016-10-07T11:31:31Z</time>
      </trkpt>
      <trkpt lat="43.38409" lon="6.63578">
        <ele>100</ele>
        <time>2016-10-07T11:31:34Z</time>
      </trkpt>
      <trkpt lat="43.38368" lon="6.63638">
        <ele>99</ele>
        <time>2016-10-07T11:31:42Z</time>
      </trkpt>
      <trkpt lat="43.38351" lon="6.6365">
        <ele>97</ele>
        <time>2016-10-07T11:31:46Z</time>
      </trkpt>
      <trkpt lat="43.38343" lon="6.6365">
        <ele>96</ele>
        <time>2016-10-07T11:31:49Z</time>
      </trkpt>
      <trkpt lat="43.38326" lon="6.63664">
        <ele>95</ele>
        <time>2016-10-07T11:31:58Z</time>
      </trkpt>
      <trkpt lat="43.3829" lon="6.63707">
        <ele>94</ele>
        <time>2016-10-07T11:32:18Z</time>
      </trkpt>
      <trkpt lat="43.38262" lon="6.63718">
        <ele>94</ele>
        <time>2016-10-07T11:32:28Z</time>
      </trkpt>
      <trkpt lat="43.38241" lon="6.63711">
        <ele>95</ele>
        <time>2016-10-07T11:32:33Z</time>
      </trkpt>
      <trkpt lat="43.38193" lon="6.63678">
        <ele>95</ele>
        <time>2016-10-07T11:32:45Z</time>
      </trkpt>
      <trkpt lat="43.38183" lon="6.63663">
        <ele>96</ele>
        <time>2016-10-07T11:32:48Z</time>
      </trkpt>
      <trkpt lat="43.38168" lon="6.63637">
        <ele>97</ele>
        <time>2016-10-07T11:32:53Z</time>
      </trkpt>
      <trkpt lat="43.3816" lon="6.63608">
        <ele>98</ele>
        <time>2016-10-07T11:32:57Z</time>
      </trkpt>
      <trkpt lat="43.38151" lon="6.63599">
        <ele>99</ele>
        <time>2016-10-07T11:32:59Z</time>
      </trkpt>
      <trkpt lat="43.38144" lon="6.63598">
        <ele>99</ele>
        <time>2016-10-07T11:33:00Z</time>
      </trkpt>
      <trkpt lat="43.38139" lon="6.63602">
        <ele>99</ele>
        <time>2016-10-07T11:33:02Z</time>
      </trkpt>
      <trkpt lat="43.38137" lon="6.63622">
        <ele>99</ele>
        <time>2016-10-07T11:33:06Z</time>
      </trkpt>
      <trkpt lat="43.38138" lon="6.63673">
        <ele>100</ele>
        <time>2016-10-07T11:33:14Z</time>
      </trkpt>
      <trkpt lat="43.38146" lon="6.63709">
        <ele>101</ele>
        <time>2016-10-07T11:33:20Z</time>
      </trkpt>
      <trkpt lat="43.38159" lon="6.63745">
        <ele>99</ele>
        <time>2016-10-07T11:33:30Z</time>
      </trkpt>
      <trkpt lat="43.38189" lon="6.638">
        <ele>102</ele>
        <time>2016-10-07T11:33:53Z</time>
      </trkpt>
      <trkpt lat="43.38213" lon="6.63833">
        <ele>101</ele>
        <time>2016-10-07T11:34:08Z</time>
      </trkpt>
      <trkpt lat="43.38213" lon="6.63842">
        <ele>111</ele>
        <time>2016-10-07T11:34:11Z</time>
      </trkpt>
      <trkpt lat="43.3821" lon="6.63843">
        <ele>112</ele>
        <time>2016-10-07T11:34:13Z</time>
      </trkpt>
      <trkpt lat="43.38177" lon="6.6382">
        <ele>108</ele>
        <time>2016-10-07T11:34:34Z</time>
      </trkpt>
      <trkpt lat="43.38163" lon="6.63817">
        <ele>115</ele>
        <time>2016-10-07T11:34:41Z</time>
      </trkpt>
      <trkpt lat="43.38148" lon="6.63808">
        <ele>115</ele>
        <time>2016-10-07T11:34:49Z</time>
      </trkpt>
      <trkpt lat="43.38106" lon="6.63797">
        <ele>118</ele>
        <time>2016-10-07T11:35:14Z</time>
      </trkpt>
      <trkpt lat="43.38085" lon="6.63787">
        <ele>118</ele>
        <time>2016-10-07T11:35:26Z</time>
      </trkpt>
      <trkpt lat="43.38071" lon="6.63775">
        <ele>127</ele>
        <time>2016-10-07T11:35:37Z</time>
      </trkpt>
      <trkpt lat="43.38062" lon="6.63772">
        <ele>127</ele>
        <time>2016-10-07T11:35:43Z</time>
      </trkpt>
      <trkpt lat="43.38045" lon="6.63773">
        <ele>130</ele>
        <time>2016-10-07T11:35:52Z</time>
      </trkpt>
      <trkpt lat="43.38036" lon="6.63767">
        <ele>130</ele>
        <time>2016-10-07T11:35:56Z</time>
      </trkpt>
      <trkpt lat="43.38016" lon="6.6376">
        <ele>131</ele>
        <time>2016-10-07T11:36:07Z</time>
      </trkpt>
      <trkpt lat="43.38004" lon="6.63752">
        <ele>130</ele>
        <time>2016-10-07T11:36:14Z</time>
      </trkpt>
      <trkpt lat="43.37994" lon="6.6375">
        <ele>129</ele>
        <time>2016-10-07T11:36:18Z</time>
      </trkpt>
      <trkpt lat="43.37897" lon="6.63767">
        <ele>146</ele>
        <time>2016-10-07T11:37:06Z</time>
      </trkpt>
      <trkpt lat="43.37867" lon="6.63764">
        <ele>149</ele>
        <time>2016-10-07T11:37:18Z</time>
      </trkpt>
      <trkpt lat="43.3785" lon="6.63758">
        <ele>148</ele>
        <time>2016-10-07T11:37:26Z</time>
      </trkpt>
      <trkpt lat="43.37811" lon="6.63757">
        <ele>155</ele>
        <time>2016-10-07T11:37:45Z</time>
      </trkpt>
      <trkpt lat="43.37795" lon="6.63747">
        <ele>149</ele>
        <time>2016-10-07T11:37:55Z</time>
      </trkpt>
      <trkpt lat="43.37764" lon="6.63744">
        <ele>153</ele>
        <time>2016-10-07T11:38:13Z</time>
      </trkpt>
      <trkpt lat="43.37753" lon="6.63737">
        <ele>154</ele>
        <time>2016-10-07T11:38:20Z</time>
      </trkpt>
      <trkpt lat="43.37752" lon="6.63721">
        <ele>151</ele>
        <time>2016-10-07T11:38:26Z</time>
      </trkpt>
      <trkpt lat="43.3774" lon="6.63693">
        <ele>160</ele>
        <time>2016-10-07T11:38:36Z</time>
      </trkpt>
      <trkpt lat="43.37708" lon="6.63639">
        <ele>159</ele>
        <time>2016-10-07T11:38:51Z</time>
      </trkpt>
      <trkpt lat="43.37703" lon="6.63613">
        <ele>160</ele>
        <time>2016-10-07T11:38:56Z</time>
      </trkpt>
      <trkpt lat="43.37711" lon="6.63601">
        <ele>158</ele>
        <time>2016-10-07T11:38:59Z</time>
      </trkpt>
      <trkpt lat="43.37726" lon="6.6357">
        <ele>156</ele>
        <time>2016-10-07T11:39:06Z</time>
      </trkpt>
      <trkpt lat="43.37722" lon="6.63533">
        <ele>158</ele>
        <time>2016-10-07T11:39:12Z</time>
      </trkpt>
      <trkpt lat="43.37729" lon="6.63506">
        <ele>156</ele>
        <time>2016-10-07T11:39:17Z</time>
      </trkpt>
      <trkpt lat="43.37736" lon="6.63466">
        <ele>159</ele>
        <time>2016-10-07T11:39:24Z</time>
      </trkpt>
      <trkpt lat="43.37735" lon="6.63441">
        <ele>159</ele>
        <time>2016-10-07T11:39:30Z</time>
      </trkpt>
      <trkpt lat="43.37721" lon="6.63407">
        <ele>159</ele>
        <time>2016-10-07T11:39:43Z</time>
      </trkpt>
      <trkpt lat="43.37719" lon="6.63387">
        <ele>159</ele>
        <time>2016-10-07T11:39:50Z</time>
      </trkpt>
      <trkpt lat="43.37711" lon="6.63364">
        <ele>159</ele>
        <time>2016-10-07T11:39:59Z</time>
      </trkpt>
      <trkpt lat="43.37699" lon="6.63359">
        <ele>160</ele>
        <time>2016-10-07T11:40:05Z</time>
      </trkpt>
      <trkpt lat="43.3768" lon="6.63364">
        <ele>161</ele>
        <time>2016-10-07T11:40:15Z</time>
      </trkpt>
      <trkpt lat="43.37663" lon="6.63365">
        <ele>167</ele>
        <time>2016-10-07T11:40:22Z</time>
      </trkpt>
      <trkpt lat="43.37644" lon="6.63369">
        <ele>168</ele>
        <time>2016-10-07T11:40:30Z</time>
      </trkpt>
      <trkpt lat="43.37643" lon="6.63374">
        <ele>168</ele>
        <time>2016-10-07T11:40:33Z</time>
      </trkpt>
      <trkpt lat="43.37664" lon="6.63395">
        <ele>170</ele>
        <time>2016-10-07T11:40:45Z</time>
      </trkpt>
      <trkpt lat="43.37676" lon="6.63416">
        <ele>168</ele>
        <time>2016-10-07T11:40:54Z</time>
      </trkpt>
      <trkpt lat="43.37679" lon="6.63429">
        <ele>167</ele>
        <time>2016-10-07T11:40:58Z</time>
      </trkpt>
      <trkpt lat="43.37677" lon="6.6348">
        <ele>168</ele>
        <time>2016-10-07T11:41:15Z</time>
      </trkpt>
      <trkpt lat="43.37671" lon="6.63503">
        <ele>172</ele>
        <time>2016-10-07T11:41:21Z</time>
      </trkpt>
      <trkpt lat="43.37634" lon="6.63572">
        <ele>179</ele>
        <time>2016-10-07T11:41:42Z</time>
      </trkpt>
      <trkpt lat="43.37611" lon="6.63599">
        <ele>184</ele>
        <time>2016-10-07T11:41:53Z</time>
      </trkpt>
      <trkpt lat="43.37605" lon="6.63615">
        <ele>184</ele>
        <time>2016-10-07T11:41:58Z</time>
      </trkpt>
      <trkpt lat="43.37607" lon="6.6364">
        <ele>185</ele>
        <time>2016-10-07T11:42:09Z</time>
      </trkpt>
      <trkpt lat="43.37615" lon="6.6367">
        <ele>190</ele>
        <time>2016-10-07T11:42:21Z</time>
      </trkpt>
      <trkpt lat="43.37627" lon="6.63695">
        <ele>188</ele>
        <time>2016-10-07T11:42:32Z</time>
      </trkpt>
      <trkpt lat="43.37634" lon="6.63724">
        <ele>189</ele>
        <time>2016-10-07T11:42:45Z</time>
      </trkpt>
      <trkpt lat="43.37622" lon="6.63757">
        <ele>201</ele>
        <time>2016-10-07T11:42:59Z</time>
      </trkpt>
      <trkpt lat="43.37629" lon="6.63776">
        <ele>201</ele>
        <time>2016-10-07T11:43:09Z</time>
      </trkpt>
      <trkpt lat="43.3766" lon="6.63834">
        <ele>203</ele>
        <time>2016-10-07T11:43:39Z</time>
      </trkpt>
      <trkpt lat="43.37668" lon="6.63859">
        <ele>199</ele>
        <time>2016-10-07T11:43:50Z</time>
      </trkpt>
      <trkpt lat="43.3767" lon="6.63882">
        <ele>200</ele>
        <time>2016-10-07T11:44:00Z</time>
      </trkpt>
      <trkpt lat="43.37681" lon="6.63919">
        <ele>205</ele>
        <time>2016-10-07T11:44:19Z</time>
      </trkpt>
      <trkpt lat="43.37686" lon="6.63926">
        <ele>204</ele>
        <time>2016-10-07T11:44:25Z</time>
      </trkpt>
      <trkpt lat="43.3772" lon="6.63944">
        <ele>199</ele>
        <time>2016-10-07T11:44:37Z</time>
      </trkpt>
      <trkpt lat="43.37734" lon="6.63946">
        <ele>199</ele>
        <time>2016-10-07T11:44:40Z</time>
      </trkpt>
      <trkpt lat="43.37748" lon="6.63953">
        <ele>198</ele>
        <time>2016-10-07T11:44:44Z</time>
      </trkpt>
      <trkpt lat="43.37749" lon="6.63956">
        <ele>198</ele>
        <time>2016-10-07T11:44:45Z</time>
      </trkpt>
      <trkpt lat="43.37727" lon="6.63999">
        <ele>196</ele>
        <time>2016-10-07T11:44:54Z</time>
      </trkpt>
      <trkpt lat="43.37695" lon="6.64012">
        <ele>190</ele>
        <time>2016-10-07T11:45:03Z</time>
      </trkpt>
      <trkpt lat="43.37672" lon="6.64027">
        <ele>190</ele>
        <time>2016-10-07T11:45:10Z</time>
      </trkpt>
      <trkpt lat="43.37672" lon="6.64032">
        <ele>189</ele>
        <time>2016-10-07T11:45:12Z</time>
      </trkpt>
      <trkpt lat="43.37682" lon="6.64041">
        <ele>187</ele>
        <time>2016-10-07T11:45:16Z</time>
      </trkpt>
      <trkpt lat="43.37685" lon="6.64054">
        <ele>185</ele>
        <time>2016-10-07T11:45:21Z</time>
      </trkpt>
      <trkpt lat="43.37656" lon="6.64089">
        <ele>179</ele>
        <time>2016-10-07T11:45:29Z</time>
      </trkpt>
      <trkpt lat="43.37638" lon="6.64097">
        <ele>177</ele>
        <time>2016-10-07T11:45:32Z</time>
      </trkpt>
      <trkpt lat="43.3763" lon="6.64108">
        <ele>177</ele>
        <time>2016-10-07T11:45:35Z</time>
      </trkpt>
      <trkpt lat="43.3763" lon="6.64112">
        <ele>176</ele>
        <time>2016-10-07T11:45:36Z</time>
      </trkpt>
      <trkpt lat="43.37636" lon="6.64117">
        <ele>175</ele>
        <time>2016-10-07T11:45:38Z</time>
      </trkpt>
      <trkpt lat="43.37676" lon="6.64117">
        <ele>166</ele>
        <time>2016-10-07T11:45:44Z</time>
      </trkpt>
      <trkpt lat="43.37699" lon="6.64099">
        <ele>167</ele>
        <time>2016-10-07T11:45:48Z</time>
      </trkpt>
      <trkpt lat="43.37724" lon="6.64096">
        <ele>165</ele>
        <time>2016-10-07T11:45:52Z</time>
      </trkpt>
      <trkpt lat="43.37735" lon="6.64098">
        <ele>166</ele>
        <time>2016-10-07T11:45:54Z</time>
      </trkpt>
      <trkpt lat="43.37759" lon="6.64087">
        <ele>164</ele>
        <time>2016-10-07T11:45:58Z</time>
      </trkpt>
      <trkpt lat="43.37772" lon="6.64084">
        <ele>159</ele>
        <time>2016-10-07T11:46:00Z</time>
      </trkpt>
      <trkpt lat="43.37785" lon="6.64086">
        <ele>156</ele>
        <time>2016-10-07T11:46:02Z</time>
      </trkpt>
      <trkpt lat="43.37817" lon="6.64078">
        <ele>166</ele>
        <time>2016-10-07T11:46:07Z</time>
      </trkpt>
      <trkpt lat="43.3783" lon="6.64079">
        <ele>162</ele>
        <time>2016-10-07T11:46:09Z</time>
      </trkpt>
      <trkpt lat="43.37854" lon="6.64068">
        <ele>164</ele>
        <time>2016-10-07T11:46:13Z</time>
      </trkpt>
      <trkpt lat="43.37866" lon="6.64069">
        <ele>164</ele>
        <time>2016-10-07T11:46:15Z</time>
      </trkpt>
      <trkpt lat="43.37874" lon="6.64074">
        <ele>163</ele>
        <time>2016-10-07T11:46:17Z</time>
      </trkpt>
      <trkpt lat="43.37889" lon="6.64077">
        <ele>162</ele>
        <time>2016-10-07T11:46:22Z</time>
      </trkpt>
      <trkpt lat="43.37902" lon="6.64075">
        <ele>160</ele>
        <time>2016-10-07T11:46:25Z</time>
      </trkpt>
      <trkpt lat="43.37927" lon="6.64086">
        <ele>148</ele>
        <time>2016-10-07T11:46:30Z</time>
      </trkpt>
      <trkpt lat="43.37945" lon="6.64089">
        <ele>145</ele>
        <time>2016-10-07T11:46:34Z</time>
      </trkpt>
      <trkpt lat="43.3796" lon="6.64096">
        <ele>144</ele>
        <time>2016-10-07T11:46:37Z</time>
      </trkpt>
      <trkpt lat="43.38019" lon="6.64141">
        <ele>139</ele>
        <time>2016-10-07T11:46:49Z</time>
      </trkpt>
      <trkpt lat="43.38044" lon="6.64164">
        <ele>138</ele>
        <time>2016-10-07T11:46:54Z</time>
      </trkpt>
      <trkpt lat="43.38057" lon="6.64184">
        <ele>126</ele>
        <time>2016-10-07T11:46:58Z</time>
      </trkpt>
      <trkpt lat="43.38063" lon="6.64204">
        <ele>124</ele>
        <time>2016-10-07T11:47:03Z</time>
      </trkpt>
      <trkpt lat="43.38066" lon="6.64234">
        <ele>121</ele>
        <time>2016-10-07T11:47:12Z</time>
      </trkpt>
      <trkpt lat="43.38064" lon="6.64257">
        <ele>113</ele>
        <time>2016-10-07T11:47:21Z</time>
      </trkpt>
      <trkpt lat="43.38067" lon="6.64266">
        <ele>112</ele>
        <time>2016-10-07T11:47:25Z</time>
      </trkpt>
      <trkpt lat="43.38089" lon="6.6428">
        <ele>109</ele>
        <time>2016-10-07T11:47:36Z</time>
      </trkpt>
      <trkpt lat="43.38103" lon="6.64275">
        <ele>109</ele>
        <time>2016-10-07T11:47:41Z</time>
      </trkpt>
      <trkpt lat="43.38125" lon="6.6426">
        <ele>107</ele>
        <time>2016-10-07T11:47:49Z</time>
      </trkpt>
      <trkpt lat="43.38139" lon="6.64265">
        <ele>106</ele>
        <time>2016-10-07T11:47:52Z</time>
      </trkpt>
      <trkpt lat="43.38156" lon="6.64257">
        <ele>106</ele>
        <time>2016-10-07T11:47:55Z</time>
      </trkpt>
      <trkpt lat="43.38171" lon="6.64243">
        <ele>106</ele>
        <time>2016-10-07T11:47:58Z</time>
      </trkpt>
      <trkpt lat="43.38188" lon="6.64235">
        <ele>106</ele>
        <time>2016-10-07T11:48:03Z</time>
      </trkpt>
      <trkpt lat="43.38201" lon="6.64218">
        <ele>107</ele>
        <time>2016-10-07T11:48:07Z</time>
      </trkpt>
      <trkpt lat="43.38212" lon="6.64221">
        <ele>106</ele>
        <time>2016-10-07T11:48:09Z</time>
      </trkpt>
      <trkpt lat="43.38221" lon="6.64231">
        <ele>105</ele>
        <time>2016-10-07T11:48:11Z</time>
      </trkpt>
      <trkpt lat="43.38224" lon="6.64238">
        <ele>105</ele>
        <time>2016-10-07T11:48:12Z</time>
      </trkpt>
      <trkpt lat="43.38221" lon="6.64273">
        <ele>102</ele>
        <time>2016-10-07T11:48:16Z</time>
      </trkpt>
      <trkpt lat="43.38227" lon="6.64291">
        <ele>102</ele>
        <time>2016-10-07T11:48:19Z</time>
      </trkpt>
      <trkpt lat="43.38215" lon="6.64321">
        <ele>101</ele>
        <time>2016-10-07T11:48:24Z</time>
      </trkpt>
      <trkpt lat="43.38211" lon="6.64326">
        <ele>101</ele>
        <time>2016-10-07T11:48:25Z</time>
      </trkpt>
      <trkpt lat="43.38182" lon="6.64339">
        <ele>96</ele>
        <time>2016-10-07T11:48:29Z</time>
      </trkpt>
      <trkpt lat="43.38155" lon="6.64363">
        <ele>93</ele>
        <time>2016-10-07T11:48:33Z</time>
      </trkpt>
      <trkpt lat="43.38136" lon="6.6441">
        <ele>91</ele>
        <time>2016-10-07T11:48:38Z</time>
      </trkpt>
      <trkpt lat="43.38119" lon="6.64435">
        <ele>86</ele>
        <time>2016-10-07T11:48:41Z</time>
      </trkpt>
      <trkpt lat="43.38113" lon="6.6444">
        <ele>86</ele>
        <time>2016-10-07T11:48:42Z</time>
      </trkpt>
      <trkpt lat="43.38099" lon="6.64438">
        <ele>86</ele>
        <time>2016-10-07T11:48:44Z</time>
      </trkpt>
      <trkpt lat="43.38086" lon="6.64426">
        <ele>86</ele>
        <time>2016-10-07T11:48:46Z</time>
      </trkpt>
      <trkpt lat="43.38063" lon="6.64418">
        <ele>86</ele>
        <time>2016-10-07T11:48:49Z</time>
      </trkpt>
      <trkpt lat="43.38048" lon="6.64425">
        <ele>86</ele>
        <time>2016-10-07T11:48:51Z</time>
      </trkpt>
      <trkpt lat="43.38024" lon="6.64451">
        <ele>86</ele>
        <time>2016-10-07T11:48:55Z</time>
      </trkpt>
      <trkpt lat="43.3801" lon="6.64456">
        <ele>86</ele>
        <time>2016-10-07T11:48:57Z</time>
      </trkpt>
      <trkpt lat="43.37936" lon="6.64442">
        <ele>86</ele>
        <time>2016-10-07T11:49:08Z</time>
      </trkpt>
      <trkpt lat="43.3786" lon="6.64461">
        <ele>88</ele>
        <time>2016-10-07T11:49:23Z</time>
      </trkpt>
      <trkpt lat="43.37805" lon="6.64501">
        <ele>91</ele>
        <time>2016-10-07T11:49:38Z</time>
      </trkpt>
      <trkpt lat="43.37764" lon="6.6452">
        <ele>93</ele>
        <time>2016-10-07T11:49:51Z</time>
      </trkpt>
      <trkpt lat="43.37751" lon="6.64543">
        <ele>92</ele>
        <time>2016-10-07T11:50:01Z</time>
      </trkpt>
      <trkpt lat="43.37748" lon="6.64558">
        <ele>94</ele>
        <time>2016-10-07T11:50:08Z</time>
      </trkpt>
      <trkpt lat="43.37732" lon="6.6458">
        <ele>93</ele>
        <time>2016-10-07T11:50:18Z</time>
      </trkpt>
      <trkpt lat="43.37713" lon="6.64589">
        <ele>94</ele>
        <time>2016-10-07T11:50:24Z</time>
      </trkpt>
      <trkpt lat="43.3769" lon="6.64595">
        <ele>95</ele>
        <time>2016-10-07T11:50:32Z</time>
      </trkpt>
      <trkpt lat="43.37677" lon="6.64594">
        <ele>94</ele>
        <time>2016-10-07T11:50:38Z</time>
      </trkpt>
      <trkpt lat="43.37632" lon="6.64574">
        <ele>100</ele>
        <time>2016-10-07T11:50:53Z</time>
      </trkpt>
      <trkpt lat="43.37613" lon="6.64575">
        <ele>100</ele>
        <time>2016-10-07T11:50:57Z</time>
      </trkpt>
      <trkpt lat="43.37587" lon="6.64584">
        <ele>97</ele>
        <time>2016-10-07T11:51:03Z</time>
      </trkpt>
      <trkpt lat="43.37556" lon="6.64605">
        <ele>99</ele>
        <time>2016-10-07T11:51:10Z</time>
      </trkpt>
      <trkpt lat="43.37488" lon="6.64661">
        <ele>103</ele>
        <time>2016-10-07T11:51:28Z</time>
      </trkpt>
      <trkpt lat="43.37466" lon="6.64676">
        <ele>103</ele>
        <time>2016-10-07T11:51:34Z</time>
      </trkpt>
      <trkpt lat="43.37376" lon="6.64756">
        <ele>106</ele>
        <time>2016-10-07T11:51:57Z</time>
      </trkpt>
      <trkpt lat="43.37353" lon="6.64764">
        <ele>106</ele>
        <time>2016-10-07T11:52:02Z</time>
      </trkpt>
      <trkpt lat="43.37328" lon="6.64763">
        <ele>106</ele>
        <time>2016-10-07T11:52:08Z</time>
      </trkpt>
      <trkpt lat="43.37308" lon="6.64768">
        <ele>108</ele>
        <time>2016-10-07T11:52:13Z</time>
      </trkpt>
      <trkpt lat="43.37282" lon="6.64768">
        <ele>109</ele>
        <time>2016-10-07T11:52:18Z</time>
      </trkpt>
      <trkpt lat="43.37264" lon="6.64753">
        <ele>107</ele>
        <time>2016-10-07T11:52:23Z</time>
      </trkpt>
      <trkpt lat="43.37226" lon="6.64693">
        <ele>107</ele>
        <time>2016-10-07T11:52:36Z</time>
      </trkpt>
      <trkpt lat="43.37222" lon="6.64691">
        <ele>107</ele>
        <time>2016-10-07T11:52:37Z</time>
      </trkpt>
      <trkpt lat="43.37181" lon="6.647">
        <ele>108</ele>
        <time>2016-10-07T11:52:47Z</time>
      </trkpt>
      <trkpt lat="43.37151" lon="6.64719">
        <ele>110</ele>
        <time>2016-10-07T11:52:56Z</time>
      </trkpt>
      <trkpt lat="43.37098" lon="6.64743">
        <ele>109</ele>
        <time>2016-10-07T11:53:09Z</time>
      </trkpt>
      <trkpt lat="43.37069" lon="6.64762">
        <ele>109</ele>
        <time>2016-10-07T11:53:17Z</time>
      </trkpt>
      <trkpt lat="43.37036" lon="6.64772">
        <ele>111</ele>
        <time>2016-10-07T11:53:25Z</time>
      </trkpt>
      <trkpt lat="43.37011" lon="6.6477">
        <ele>110</ele>
        <time>2016-10-07T11:53:31Z</time>
      </trkpt>
      <trkpt lat="43.36966" lon="6.64757">
        <ele>111</ele>
        <time>2016-10-07T11:53:42Z</time>
      </trkpt>
      <trkpt lat="43.36945" lon="6.64758">
        <ele>112</ele>
        <time>2016-10-07T11:53:47Z</time>
      </trkpt>
      <trkpt lat="43.36922" lon="6.64765">
        <ele>112</ele>
        <time>2016-10-07T11:53:53Z</time>
      </trkpt>
      <trkpt lat="43.36891" lon="6.64782">
        <ele>116</ele>
        <time>2016-10-07T11:54:02Z</time>
      </trkpt>
      <trkpt lat="43.3688" lon="6.64801">
        <ele>116</ele>
        <time>2016-10-07T11:54:07Z</time>
      </trkpt>
      <trkpt lat="43.36866" lon="6.64854">
        <ele>120</ele>
        <time>2016-10-07T11:54:20Z</time>
      </trkpt>
      <trkpt lat="43.36855" lon="6.64862">
        <ele>121</ele>
        <time>2016-10-07T11:54:25Z</time>
      </trkpt>
      <trkpt lat="43.36771" lon="6.64881">
        <ele>125</ele>
        <time>2016-10-07T11:54:49Z</time>
      </trkpt>
      <trkpt lat="43.36745" lon="6.64879">
        <ele>125</ele>
        <time>2016-10-07T11:54:56Z</time>
      </trkpt>
      <trkpt lat="43.367" lon="6.64892">
        <ele>125</ele>
        <time>2016-10-07T11:55:10Z</time>
      </trkpt>
      <trkpt lat="43.36628" lon="6.64927">
        <ele>126</ele>
        <time>2016-10-07T11:55:33Z</time>
      </trkpt>
      <trkpt lat="43.36589" lon="6.64953">
        <ele>126</ele>
        <time>2016-10-07T11:55:43Z</time>
      </trkpt>
      <trkpt lat="43.36573" lon="6.64971">
        <ele>126</ele>
        <time>2016-10-07T11:55:50Z</time>
      </trkpt>
      <trkpt lat="43.36569" lon="6.64982">
        <ele>127</ele>
        <time>2016-10-07T11:55:54Z</time>
      </trkpt>
      <trkpt lat="43.36568" lon="6.65031">
        <ele>131</ele>
        <time>2016-10-07T11:56:05Z</time>
      </trkpt>
      <trkpt lat="43.36577" lon="6.65097">
        <ele>133</ele>
        <time>2016-10-07T11:56:18Z</time>
      </trkpt>
      <trkpt lat="43.36585" lon="6.65132">
        <ele>139</ele>
        <time>2016-10-07T11:56:25Z</time>
      </trkpt>
      <trkpt lat="43.3659" lon="6.65188">
        <ele>139</ele>
        <time>2016-10-07T11:56:38Z</time>
      </trkpt>
      <trkpt lat="43.36584" lon="6.65274">
        <ele>141</ele>
        <time>2016-10-07T11:56:56Z</time>
      </trkpt>
      <trkpt lat="43.36585" lon="6.65295">
        <ele>142</ele>
        <time>2016-10-07T11:57:01Z</time>
      </trkpt>
      <trkpt lat="43.36596" lon="6.65327">
        <ele>141</ele>
        <time>2016-10-07T11:57:09Z</time>
      </trkpt>
      <trkpt lat="43.36599" lon="6.65365">
        <ele>144</ele>
        <time>2016-10-07T11:57:16Z</time>
      </trkpt>
      <trkpt lat="43.36597" lon="6.65393">
        <ele>144</ele>
        <time>2016-10-07T11:57:22Z</time>
      </trkpt>
      <trkpt lat="43.36601" lon="6.65468">
        <ele>147</ele>
        <time>2016-10-07T11:57:35Z</time>
      </trkpt>
      <trkpt lat="43.36609" lon="6.65489">
        <ele>147</ele>
        <time>2016-10-07T11:57:41Z</time>
      </trkpt>
      <trkpt lat="43.36617" lon="6.65528">
        <ele>149</ele>
        <time>2016-10-07T11:57:55Z</time>
      </trkpt>
      <trkpt lat="43.36613" lon="6.65551">
        <ele>149</ele>
        <time>2016-10-07T11:58:01Z</time>
      </trkpt>
      <trkpt lat="43.36613" lon="6.6558">
        <ele>149</ele>
        <time>2016-10-07T11:58:07Z</time>
      </trkpt>
      <trkpt lat="43.36618" lon="6.656">
        <ele>149</ele>
        <time>2016-10-07T11:58:12Z</time>
      </trkpt>
      <trkpt lat="43.36635" lon="6.65641">
        <ele>149</ele>
        <time>2016-10-07T11:58:27Z</time>
      </trkpt>
      <trkpt lat="43.36639" lon="6.65661">
        <ele>149</ele>
        <time>2016-10-07T11:58:34Z</time>
      </trkpt>
      <trkpt lat="43.36679" lon="6.65742">
        <ele>156</ele>
        <time>2016-10-07T11:59:03Z</time>
      </trkpt>
      <trkpt lat="43.36683" lon="6.65763">
        <ele>156</ele>
        <time>2016-10-07T11:59:12Z</time>
      </trkpt>
      <trkpt lat="43.36681" lon="6.65776">
        <ele>156</ele>
        <time>2016-10-07T11:59:16Z</time>
      </trkpt>
      <trkpt lat="43.36671" lon="6.65799">
        <ele>157</ele>
        <time>2016-10-07T11:59:24Z</time>
      </trkpt>
      <trkpt lat="43.3666" lon="6.65813">
        <ele>157</ele>
        <time>2016-10-07T11:59:30Z</time>
      </trkpt>
      <trkpt lat="43.3665" lon="6.65842">
        <ele>160</ele>
        <time>2016-10-07T11:59:39Z</time>
      </trkpt>
      <trkpt lat="43.3665" lon="6.65859">
        <ele>162</ele>
        <time>2016-10-07T11:59:43Z</time>
      </trkpt>
      <trkpt lat="43.36658" lon="6.6587">
        <ele>163</ele>
        <time>2016-10-07T11:59:47Z</time>
      </trkpt>
      <trkpt lat="43.36666" lon="6.6587">
        <ele>163</ele>
        <time>2016-10-07T11:59:51Z</time>
      </trkpt>
      <trkpt lat="43.36697" lon="6.65856">
        <ele>160</ele>
        <time>2016-10-07T12:00:06Z</time>
      </trkpt>
      <trkpt lat="43.36704" lon="6.65857">
        <ele>160</ele>
        <time>2016-10-07T12:00:10Z</time>
      </trkpt>
      <trkpt lat="43.36712" lon="6.65863">
        <ele>161</ele>
        <time>2016-10-07T12:00:15Z</time>
      </trkpt>
      <trkpt lat="43.36725" lon="6.65891">
        <ele>162</ele>
        <time>2016-10-07T12:00:28Z</time>
      </trkpt>
      <trkpt lat="43.36749" lon="6.65981">
        <ele>170</ele>
        <time>2016-10-07T12:01:09Z</time>
      </trkpt>
      <trkpt lat="43.36754" lon="6.66011">
        <ele>172</ele>
        <time>2016-10-07T12:01:20Z</time>
      </trkpt>
      <trkpt lat="43.36762" lon="6.66039">
        <ele>172</ele>
        <time>2016-10-07T12:01:32Z</time>
      </trkpt>
      <trkpt lat="43.36761" lon="6.66061">
        <ele>174</ele>
        <time>2016-10-07T12:01:40Z</time>
      </trkpt>
      <trkpt lat="43.36758" lon="6.66077">
        <ele>176</ele>
        <time>2016-10-07T12:01:45Z</time>
      </trkpt>
      <trkpt lat="43.36762" lon="6.66114">
        <ele>172</ele>
        <time>2016-10-07T12:01:58Z</time>
      </trkpt>
      <trkpt lat="43.36761" lon="6.66129">
        <ele>172</ele>
        <time>2016-10-07T12:02:04Z</time>
      </trkpt>
      <trkpt lat="43.36747" lon="6.6615">
        <ele>181</ele>
        <time>2016-10-07T12:02:13Z</time>
      </trkpt>
      <trkpt lat="43.36718" lon="6.66209">
        <ele>185</ele>
        <time>2016-10-07T12:02:40Z</time>
      </trkpt>
      <trkpt lat="43.36707" lon="6.66244">
        <ele>186</ele>
        <time>2016-10-07T12:02:58Z</time>
      </trkpt>
      <trkpt lat="43.36699" lon="6.66247">
        <ele>187</ele>
        <time>2016-10-07T12:04:05Z</time>
      </trkpt>
      <trkpt lat="43.36694" lon="6.66267">
        <ele>187</ele>
        <time>2016-10-07T12:04:13Z</time>
      </trkpt>
      <trkpt lat="43.36696" lon="6.66273">
        <ele>187</ele>
        <time>2016-10-07T12:04:16Z</time>
      </trkpt>
      <trkpt lat="43.36692" lon="6.6628">
        <ele>187</ele>
        <time>2016-10-07T12:04:20Z</time>
      </trkpt>
      <trkpt lat="43.36681" lon="6.66285">
        <ele>187</ele>
        <time>2016-10-07T12:04:25Z</time>
      </trkpt>
      <trkpt lat="43.36673" lon="6.66292">
        <ele>187</ele>
        <time>2016-10-07T12:04:28Z</time>
      </trkpt>
      <trkpt lat="43.3667" lon="6.66302">
        <ele>187</ele>
        <time>2016-10-07T12:04:30Z</time>
      </trkpt>
      <trkpt lat="43.3667" lon="6.66373">
        <ele>185</ele>
        <time>2016-10-07T12:04:39Z</time>
      </trkpt>
      <trkpt lat="43.36677" lon="6.66392">
        <ele>185</ele>
        <time>2016-10-07T12:04:44Z</time>
      </trkpt>
      <trkpt lat="43.3668" lon="6.66424">
        <ele>181</ele>
        <time>2016-10-07T12:04:59Z</time>
      </trkpt>
      <trkpt lat="43.36684" lon="6.66436">
        <ele>180</ele>
        <time>2016-10-07T12:05:05Z</time>
      </trkpt>
      <trkpt lat="43.36685" lon="6.66444">
        <ele>179</ele>
        <time>2016-10-07T12:05:10Z</time>
      </trkpt>
      <trkpt lat="43.36692" lon="6.66485">
        <ele>176</ele>
        <time>2016-10-07T12:05:48Z</time>
      </trkpt>
      <trkpt lat="43.36693" lon="6.66494">
        <ele>175</ele>
        <time>2016-10-07T12:05:52Z</time>
      </trkpt>
      <trkpt lat="43.36693" lon="6.66498">
        <ele>175</ele>
        <time>2016-10-07T12:05:53Z</time>
      </trkpt>
      <trkpt lat="43.36697" lon="6.66516">
        <ele>168</ele>
        <time>2016-10-07T12:06:02Z</time>
      </trkpt>
      <trkpt lat="43.36697" lon="6.66524">
        <ele>167</ele>
        <time>2016-10-07T12:06:07Z</time>
      </trkpt>
      <trkpt lat="43.36707" lon="6.66564">
        <ele>164</ele>
        <time>2016-10-07T12:06:18Z</time>
      </trkpt>
      <trkpt lat="43.36709" lon="6.66589">
        <ele>157</ele>
        <time>2016-10-07T12:06:26Z</time>
      </trkpt>
      <trkpt lat="43.36716" lon="6.66598">
        <ele>156</ele>
        <time>2016-10-07T12:06:31Z</time>
      </trkpt>
      <trkpt lat="43.36726" lon="6.66631">
        <ele>153</ele>
        <time>2016-10-07T12:06:43Z</time>
      </trkpt>
      <trkpt lat="43.36736" lon="6.66687">
        <ele>142</ele>
        <time>2016-10-07T12:06:55Z</time>
      </trkpt>
      <trkpt lat="43.36737" lon="6.66709">
        <ele>140</ele>
        <time>2016-10-07T12:06:58Z</time>
      </trkpt>
      <trkpt lat="43.36731" lon="6.66798">
        <ele>128</ele>
        <time>2016-10-07T12:07:12Z</time>
      </trkpt>
      <trkpt lat="43.36733" lon="6.66805">
        <ele>128</ele>
        <time>2016-10-07T12:07:13Z</time>
      </trkpt>
      <trkpt lat="43.36735" lon="6.66839">
        <ele>123</ele>
        <time>2016-10-07T12:07:18Z</time>
      </trkpt>
      <trkpt lat="43.36728" lon="6.66855">
        <ele>123</ele>
        <time>2016-10-07T12:07:21Z</time>
      </trkpt>
      <trkpt lat="43.36718" lon="6.66864">
        <ele>124</ele>
        <time>2016-10-07T12:07:24Z</time>
      </trkpt>
      <trkpt lat="43.36702" lon="6.66864">
        <ele>125</ele>
        <time>2016-10-07T12:07:31Z</time>
      </trkpt>
      <trkpt lat="43.36703" lon="6.66865">
        <ele>125</ele>
        <time>2016-10-07T12:07:32Z</time>
      </trkpt>
      <trkpt lat="43.36707" lon="6.66889">
        <ele>125</ele>
        <time>2016-10-07T12:08:45Z</time>
      </trkpt>
      <trkpt lat="43.36708" lon="6.66898">
        <ele>124</ele>
        <time>2016-10-07T12:08:47Z</time>
      </trkpt>
      <trkpt lat="43.36709" lon="6.66928">
        <ele>123</ele>
        <time>2016-10-07T12:08:53Z</time>
      </trkpt>
      <trkpt lat="43.36698" lon="6.66993">
        <ele>125</ele>
        <time>2016-10-07T12:09:04Z</time>
      </trkpt>
      <trkpt lat="43.36696" lon="6.67031">
        <ele>121</ele>
        <time>2016-10-07T12:09:07Z</time>
      </trkpt>
      <trkpt lat="43.36689" lon="6.67061">
        <ele>120</ele>
        <time>2016-10-07T12:09:10Z</time>
      </trkpt>
      <trkpt lat="43.36689" lon="6.67081">
        <ele>120</ele>
        <time>2016-10-07T12:09:13Z</time>
      </trkpt>
      <trkpt lat="43.367" lon="6.67126">
        <ele>113</ele>
        <time>2016-10-07T12:09:20Z</time>
      </trkpt>
      <trkpt lat="43.36701" lon="6.67144">
        <ele>112</ele>
        <time>2016-10-07T12:09:22Z</time>
      </trkpt>
      <trkpt lat="43.36696" lon="6.67201">
        <ele>109</ele>
        <time>2016-10-07T12:09:28Z</time>
      </trkpt>
      <trkpt lat="43.36693" lon="6.67208">
        <ele>109</ele>
        <time>2016-10-07T12:09:29Z</time>
      </trkpt>
      <trkpt lat="43.3668" lon="6.67217">
        <ele>109</ele>
        <time>2016-10-07T12:09:32Z</time>
      </trkpt>
      <trkpt lat="43.36671" lon="6.67226">
        <ele>109</ele>
        <time>2016-10-07T12:09:35Z</time>
      </trkpt>
      <trkpt lat="43.36663" lon="6.67249">
        <ele>112</ele>
        <time>2016-10-07T12:09:38Z</time>
      </trkpt>
      <trkpt lat="43.36664" lon="6.6727">
        <ele>115</ele>
        <time>2016-10-07T12:09:41Z</time>
      </trkpt>
      <trkpt lat="43.36657" lon="6.67297">
        <ele>116</ele>
        <time>2016-10-07T12:09:45Z</time>
      </trkpt>
      <trkpt lat="43.36661" lon="6.67309">
        <ele>116</ele>
        <time>2016-10-07T12:09:47Z</time>
      </trkpt>
      <trkpt lat="43.36686" lon="6.6733">
        <ele>109</ele>
        <time>2016-10-07T12:09:56Z</time>
      </trkpt>
      <trkpt lat="43.36696" lon="6.67342">
        <ele>112</ele>
        <time>2016-10-07T12:10:01Z</time>
      </trkpt>
      <trkpt lat="43.36704" lon="6.67356">
        <ele>113</ele>
        <time>2016-10-07T12:10:05Z</time>
      </trkpt>
      <trkpt lat="43.36708" lon="6.67376">
        <ele>114</ele>
        <time>2016-10-07T12:10:10Z</time>
      </trkpt>
      <trkpt lat="43.36709" lon="6.67409">
        <ele>115</ele>
        <time>2016-10-07T12:10:17Z</time>
      </trkpt>
      <trkpt lat="43.3673" lon="6.67483">
        <ele>120</ele>
        <time>2016-10-07T12:10:30Z</time>
      </trkpt>
      <trkpt lat="43.36746" lon="6.6752">
        <ele>121</ele>
        <time>2016-10-07T12:10:37Z</time>
      </trkpt>
      <trkpt lat="43.36766" lon="6.67579">
        <ele>122</ele>
        <time>2016-10-07T12:10:49Z</time>
      </trkpt>
      <trkpt lat="43.36768" lon="6.67597">
        <ele>127</ele>
        <time>2016-10-07T12:10:54Z</time>
      </trkpt>
      <trkpt lat="43.36765" lon="6.67619">
        <ele>129</ele>
        <time>2016-10-07T12:11:02Z</time>
      </trkpt>
      <trkpt lat="43.36754" lon="6.67651">
        <ele>129</ele>
        <time>2016-10-07T12:11:14Z</time>
      </trkpt>
      <trkpt lat="43.36752" lon="6.67668">
        <ele>127</ele>
        <time>2016-10-07T12:11:22Z</time>
      </trkpt>
      <trkpt lat="43.36753" lon="6.67679">
        <ele>133</ele>
        <time>2016-10-07T12:11:28Z</time>
      </trkpt>
      <trkpt lat="43.36749" lon="6.67685">
        <ele>132</ele>
        <time>2016-10-07T12:11:31Z</time>
      </trkpt>
      <trkpt lat="43.36747" lon="6.67699">
        <ele>135</ele>
        <time>2016-10-07T12:11:39Z</time>
      </trkpt>
      <trkpt lat="43.36753" lon="6.67733">
        <ele>140</ele>
        <time>2016-10-07T12:11:56Z</time>
      </trkpt>
      <trkpt lat="43.36759" lon="6.67756">
        <ele>144</ele>
        <time>2016-10-07T12:12:06Z</time>
      </trkpt>
      <trkpt lat="43.36768" lon="6.67825">
        <ele>153</ele>
        <time>2016-10-07T12:12:41Z</time>
      </trkpt>
      <trkpt lat="43.36764" lon="6.67874">
        <ele>159</ele>
        <time>2016-10-07T12:13:11Z</time>
      </trkpt>
      <trkpt lat="43.36765" lon="6.67893">
        <ele>159</ele>
        <time>2016-10-07T12:13:22Z</time>
      </trkpt>
      <trkpt lat="43.36773" lon="6.67929">
        <ele>159</ele>
        <time>2016-10-07T12:13:44Z</time>
      </trkpt>
      <trkpt lat="43.36754" lon="6.67984">
        <ele>156</ele>
        <time>2016-10-07T12:14:06Z</time>
      </trkpt>
      <trkpt lat="43.36743" lon="6.67995">
        <ele>157</ele>
        <time>2016-10-07T12:14:11Z</time>
      </trkpt>
      <trkpt lat="43.36716" lon="6.67999">
        <ele>164</ele>
        <time>2016-10-07T12:14:19Z</time>
      </trkpt>
      <trkpt lat="43.36702" lon="6.68013">
        <ele>163</ele>
        <time>2016-10-07T12:14:24Z</time>
      </trkpt>
      <trkpt lat="43.36697" lon="6.68037">
        <ele>163</ele>
        <time>2016-10-07T12:14:29Z</time>
      </trkpt>
      <trkpt lat="43.36703" lon="6.68064">
        <ele>162</ele>
        <time>2016-10-07T12:14:35Z</time>
      </trkpt>
      <trkpt lat="43.36723" lon="6.68113">
        <ele>154</ele>
        <time>2016-10-07T12:14:45Z</time>
      </trkpt>
      <trkpt lat="43.36723" lon="6.6814">
        <ele>153</ele>
        <time>2016-10-07T12:14:49Z</time>
      </trkpt>
      <trkpt lat="43.36717" lon="6.68159">
        <ele>153</ele>
        <time>2016-10-07T12:14:52Z</time>
      </trkpt>
      <trkpt lat="43.36704" lon="6.68186">
        <ele>150</ele>
        <time>2016-10-07T12:14:57Z</time>
      </trkpt>
      <trkpt lat="43.36652" lon="6.68238">
        <ele>152</ele>
        <time>2016-10-07T12:15:09Z</time>
      </trkpt>
      <trkpt lat="43.36646" lon="6.68252">
        <ele>144</ele>
        <time>2016-10-07T12:15:14Z</time>
      </trkpt>
      <trkpt lat="43.36645" lon="6.68253">
        <ele>144</ele>
        <time>2016-10-07T12:16:33Z</time>
      </trkpt>
      <trkpt lat="43.36604" lon="6.68218">
        <ele>154</ele>
        <time>2016-10-07T12:16:44Z</time>
      </trkpt>
      <trkpt lat="43.36593" lon="6.68213">
        <ele>154</ele>
        <time>2016-10-07T12:16:46Z</time>
      </trkpt>
      <trkpt lat="43.36569" lon="6.68196">
        <ele>153</ele>
        <time>2016-10-07T12:16:51Z</time>
      </trkpt>
      <trkpt lat="43.36556" lon="6.68182">
        <ele>153</ele>
        <time>2016-10-07T12:16:54Z</time>
      </trkpt>
      <trkpt lat="43.36539" lon="6.68148">
        <ele>164</ele>
        <time>2016-10-07T12:17:00Z</time>
      </trkpt>
      <trkpt lat="43.36532" lon="6.68139">
        <ele>164</ele>
        <time>2016-10-07T12:17:02Z</time>
      </trkpt>
      <trkpt lat="43.36481" lon="6.68126">
        <ele>166</ele>
        <time>2016-10-07T12:17:11Z</time>
      </trkpt>
      <trkpt lat="43.36458" lon="6.68116">
        <ele>169</ele>
        <time>2016-10-07T12:17:15Z</time>
      </trkpt>
      <trkpt lat="43.36452" lon="6.68116">
        <ele>169</ele>
        <time>2016-10-07T12:17:16Z</time>
      </trkpt>
      <trkpt lat="43.36441" lon="6.6813">
        <ele>169</ele>
        <time>2016-10-07T12:17:19Z</time>
      </trkpt>
      <trkpt lat="43.3644" lon="6.68152">
        <ele>168</ele>
        <time>2016-10-07T12:17:22Z</time>
      </trkpt>
      <trkpt lat="43.3645" lon="6.68284">
        <ele>151</ele>
        <time>2016-10-07T12:17:39Z</time>
      </trkpt>
      <trkpt lat="43.36437" lon="6.68314">
        <ele>150</ele>
        <time>2016-10-07T12:17:43Z</time>
      </trkpt>
      <trkpt lat="43.36423" lon="6.68331">
        <ele>153</ele>
        <time>2016-10-07T12:17:46Z</time>
      </trkpt>
      <trkpt lat="43.36398" lon="6.68345">
        <ele>153</ele>
        <time>2016-10-07T12:17:50Z</time>
      </trkpt>
      <trkpt lat="43.36373" lon="6.68354">
        <ele>154</ele>
        <time>2016-10-07T12:17:54Z</time>
      </trkpt>
      <trkpt lat="43.36358" lon="6.68369">
        <ele>154</ele>
        <time>2016-10-07T12:17:57Z</time>
      </trkpt>
      <trkpt lat="43.36344" lon="6.68403">
        <ele>152</ele>
        <time>2016-10-07T12:18:02Z</time>
      </trkpt>
      <trkpt lat="43.36338" lon="6.68434">
        <ele>150</ele>
        <time>2016-10-07T12:18:10Z</time>
      </trkpt>
      <trkpt lat="43.36342" lon="6.68446">
        <ele>151</ele>
        <time>2016-10-07T12:18:20Z</time>
      </trkpt>
      <trkpt lat="43.36372" lon="6.68478">
        <ele>151</ele>
        <time>2016-10-07T12:18:40Z</time>
      </trkpt>
      <trkpt lat="43.36406" lon="6.68531">
        <ele>160</ele>
        <time>2016-10-07T12:18:59Z</time>
      </trkpt>
      <trkpt lat="43.36433" lon="6.68545">
        <ele>154</ele>
        <time>2016-10-07T12:19:11Z</time>
      </trkpt>
      <trkpt lat="43.36454" lon="6.68568">
        <ele>154</ele>
        <time>2016-10-07T12:19:20Z</time>
      </trkpt>
      <trkpt lat="43.36519" lon="6.68703">
        <ele>148</ele>
        <time>2016-10-07T12:19:42Z</time>
      </trkpt>
      <trkpt lat="43.36523" lon="6.68742">
        <ele>150</ele>
        <time>2016-10-07T12:19:48Z</time>
      </trkpt>
      <trkpt lat="43.3652" lon="6.68765">
        <ele>147</ele>
        <time>2016-10-07T12:19:52Z</time>
      </trkpt>
      <trkpt lat="43.36505" lon="6.68799">
        <ele>143</ele>
        <time>2016-10-07T12:19:59Z</time>
      </trkpt>
      <trkpt lat="43.36476" lon="6.68806">
        <ele>155</ele>
        <time>2016-10-07T12:20:08Z</time>
      </trkpt>
      <trkpt lat="43.3645" lon="6.68831">
        <ele>155</ele>
        <time>2016-10-07T12:20:15Z</time>
      </trkpt>
      <trkpt lat="43.36441" lon="6.68836">
        <ele>143</ele>
        <time>2016-10-07T12:20:17Z</time>
      </trkpt>
      <trkpt lat="43.36405" lon="6.68832">
        <ele>158</ele>
        <time>2016-10-07T12:20:26Z</time>
      </trkpt>
      <trkpt lat="43.3638" lon="6.68843">
        <ele>154</ele>
        <time>2016-10-07T12:20:40Z</time>
      </trkpt>
      <trkpt lat="43.36371" lon="6.68855">
        <ele>154</ele>
        <time>2016-10-07T12:20:46Z</time>
      </trkpt>
      <trkpt lat="43.36353" lon="6.68902">
        <ele>153</ele>
        <time>2016-10-07T12:21:01Z</time>
      </trkpt>
      <trkpt lat="43.36329" lon="6.68936">
        <ele>155</ele>
        <time>2016-10-07T12:21:14Z</time>
      </trkpt>
      <trkpt lat="43.36299" lon="6.68958">
        <ele>155</ele>
        <time>2016-10-07T12:21:22Z</time>
      </trkpt>
      <trkpt lat="43.36288" lon="6.68997">
        <ele>156</ele>
        <time>2016-10-07T12:21:39Z</time>
      </trkpt>
      <trkpt lat="43.36281" lon="6.69023">
        <ele>157</ele>
        <time>2016-10-07T12:24:16Z</time>
      </trkpt>
      <trkpt lat="43.36261" lon="6.69085">
        <ele>169</ele>
        <time>2016-10-07T12:24:31Z</time>
      </trkpt>
      <trkpt lat="43.36258" lon="6.69134">
        <ele>166</ele>
        <time>2016-10-07T12:24:45Z</time>
      </trkpt>
      <trkpt lat="43.36243" lon="6.69231">
        <ele>196</ele>
        <time>2016-10-07T12:25:12Z</time>
      </trkpt>
      <trkpt lat="43.36244" lon="6.69263">
        <ele>199</ele>
        <time>2016-10-07T12:25:22Z</time>
      </trkpt>
      <trkpt lat="43.36288" lon="6.6931">
        <ele>186</ele>
        <time>2016-10-07T12:25:41Z</time>
      </trkpt>
      <trkpt lat="43.36301" lon="6.69333">
        <ele>185</ele>
        <time>2016-10-07T12:25:50Z</time>
      </trkpt>
      <trkpt lat="43.36327" lon="6.69387">
        <ele>195</ele>
        <time>2016-10-07T12:26:16Z</time>
      </trkpt>
      <trkpt lat="43.36333" lon="6.6941">
        <ele>195</ele>
        <time>2016-10-07T12:26:25Z</time>
      </trkpt>
      <trkpt lat="43.36331" lon="6.69446">
        <ele>196</ele>
        <time>2016-10-07T12:26:41Z</time>
      </trkpt>
      <trkpt lat="43.36322" lon="6.69471">
        <ele>196</ele>
        <time>2016-10-07T12:26:56Z</time>
      </trkpt>
      <trkpt lat="43.36318" lon="6.69475">
        <ele>196</ele>
        <time>2016-10-07T12:27:00Z</time>
      </trkpt>
      <trkpt lat="43.36295" lon="6.69441">
        <ele>199</ele>
        <time>2016-10-07T12:27:22Z</time>
      </trkpt>
      <trkpt lat="43.36272" lon="6.69413">
        <ele>203</ele>
        <time>2016-10-07T12:27:47Z</time>
      </trkpt>
      <trkpt lat="43.36257" lon="6.69386">
        <ele>202</ele>
        <time>2016-10-07T12:28:04Z</time>
      </trkpt>
      <trkpt lat="43.36248" lon="6.6938">
        <ele>211</ele>
        <time>2016-10-07T12:28:10Z</time>
      </trkpt>
      <trkpt lat="43.36233" lon="6.69375">
        <ele>211</ele>
        <time>2016-10-07T12:28:21Z</time>
      </trkpt>
      <trkpt lat="43.36217" lon="6.69362">
        <ele>211</ele>
        <time>2016-10-07T12:28:34Z</time>
      </trkpt>
      <trkpt lat="43.3618" lon="6.69314">
        <ele>215</ele>
        <time>2016-10-07T12:29:04Z</time>
      </trkpt>
      <trkpt lat="43.36155" lon="6.69303">
        <ele>225</ele>
        <time>2016-10-07T12:29:26Z</time>
      </trkpt>
      <trkpt lat="43.36096" lon="6.69243">
        <ele>230</ele>
        <time>2016-10-07T12:31:05Z</time>
      </trkpt>
      <trkpt lat="43.36071" lon="6.69252">
        <ele>232</ele>
        <time>2016-10-07T12:31:16Z</time>
      </trkpt>
      <trkpt lat="43.36057" lon="6.69274">
        <ele>230</ele>
        <time>2016-10-07T12:31:21Z</time>
      </trkpt>
      <trkpt lat="43.36024" lon="6.69293">
        <ele>228</ele>
        <time>2016-10-07T12:31:29Z</time>
      </trkpt>
      <trkpt lat="43.36007" lon="6.69292">
        <ele>228</ele>
        <time>2016-10-07T12:31:32Z</time>
      </trkpt>
      <trkpt lat="43.35948" lon="6.69302">
        <ele>221</ele>
        <time>2016-10-07T12:31:42Z</time>
      </trkpt>
      <trkpt lat="43.35902" lon="6.6932">
        <ele>216</ele>
        <time>2016-10-07T12:31:48Z</time>
      </trkpt>
      <trkpt lat="43.35862" lon="6.69347">
        <ele>210</ele>
        <time>2016-10-07T12:31:54Z</time>
      </trkpt>
      <trkpt lat="43.3585" lon="6.69358">
        <ele>209</ele>
        <time>2016-10-07T12:31:56Z</time>
      </trkpt>
      <trkpt lat="43.35832" lon="6.69387">
        <ele>203</ele>
        <time>2016-10-07T12:32:00Z</time>
      </trkpt>
      <trkpt lat="43.35826" lon="6.69409">
        <ele>203</ele>
        <time>2016-10-07T12:32:03Z</time>
      </trkpt>
      <trkpt lat="43.35805" lon="6.69464">
        <ele>197</ele>
        <time>2016-10-07T12:32:10Z</time>
      </trkpt>
      <trkpt lat="43.35797" lon="6.69503">
        <ele>194</ele>
        <time>2016-10-07T12:32:20Z</time>
      </trkpt>
      <trkpt lat="43.358" lon="6.69553">
        <ele>191</ele>
        <time>2016-10-07T12:32:31Z</time>
      </trkpt>
      <trkpt lat="43.35791" lon="6.6958">
        <ele>192</ele>
        <time>2016-10-07T12:32:35Z</time>
      </trkpt>
      <trkpt lat="43.35789" lon="6.69595">
        <ele>187</ele>
        <time>2016-10-07T12:32:37Z</time>
      </trkpt>
      <trkpt lat="43.35772" lon="6.69636">
        <ele>187</ele>
        <time>2016-10-07T12:32:42Z</time>
      </trkpt>
      <trkpt lat="43.35761" lon="6.69684">
        <ele>183</ele>
        <time>2016-10-07T12:32:48Z</time>
      </trkpt>
      <trkpt lat="43.3576" lon="6.69707">
        <ele>178</ele>
        <time>2016-10-07T12:32:51Z</time>
      </trkpt>
      <trkpt lat="43.35755" lon="6.69722">
        <ele>178</ele>
        <time>2016-10-07T12:32:53Z</time>
      </trkpt>
      <trkpt lat="43.3574" lon="6.69725">
        <ele>191</ele>
        <time>2016-10-07T12:32:56Z</time>
      </trkpt>
      <trkpt lat="43.35725" lon="6.69718">
        <ele>194</ele>
        <time>2016-10-07T12:32:59Z</time>
      </trkpt>
      <trkpt lat="43.35715" lon="6.69718">
        <ele>195</ele>
        <time>2016-10-07T12:33:01Z</time>
      </trkpt>
      <trkpt lat="43.35697" lon="6.69734">
        <ele>196</ele>
        <time>2016-10-07T12:33:06Z</time>
      </trkpt>
      <trkpt lat="43.35681" lon="6.69756">
        <ele>190</ele>
        <time>2016-10-07T12:33:12Z</time>
      </trkpt>
      <trkpt lat="43.35667" lon="6.6978">
        <ele>186</ele>
        <time>2016-10-07T12:33:18Z</time>
      </trkpt>
      <trkpt lat="43.35632" lon="6.69867">
        <ele>179</ele>
        <time>2016-10-07T12:33:30Z</time>
      </trkpt>
      <trkpt lat="43.35613" lon="6.69902">
        <ele>179</ele>
        <time>2016-10-07T12:33:34Z</time>
      </trkpt>
      <trkpt lat="43.356" lon="6.69936">
        <ele>174</ele>
        <time>2016-10-07T12:33:38Z</time>
      </trkpt>
      <trkpt lat="43.35584" lon="6.70007">
        <ele>173</ele>
        <time>2016-10-07T12:33:45Z</time>
      </trkpt>
      <trkpt lat="43.3557" lon="6.70058">
        <ele>173</ele>
        <time>2016-10-07T12:33:51Z</time>
      </trkpt>
      <trkpt lat="43.35578" lon="6.70087">
        <ele>178</ele>
        <time>2016-10-07T12:33:56Z</time>
      </trkpt>
      <trkpt lat="43.35604" lon="6.70144">
        <ele>173</ele>
        <time>2016-10-07T12:34:06Z</time>
      </trkpt>
      <trkpt lat="43.35628" lon="6.70214">
        <ele>173</ele>
        <time>2016-10-07T12:34:15Z</time>
      </trkpt>
      <trkpt lat="43.35645" lon="6.70254">
        <ele>172</ele>
        <time>2016-10-07T12:34:20Z</time>
      </trkpt>
      <trkpt lat="43.35653" lon="6.70283">
        <ele>174</ele>
        <time>2016-10-07T12:34:23Z</time>
      </trkpt>
      <trkpt lat="43.35694" lon="6.70353">
        <ele>162</ele>
        <time>2016-10-07T12:34:32Z</time>
      </trkpt>
      <trkpt lat="43.35699" lon="6.70373">
        <ele>161</ele>
        <time>2016-10-07T12:34:34Z</time>
      </trkpt>
      <trkpt lat="43.35698" lon="6.70414">
        <ele>162</ele>
        <time>2016-10-07T12:34:38Z</time>
      </trkpt>
      <trkpt lat="43.35705" lon="6.70443">
        <ele>163</ele>
        <time>2016-10-07T12:34:41Z</time>
      </trkpt>
      <trkpt lat="43.35724" lon="6.70469">
        <ele>162</ele>
        <time>2016-10-07T12:34:48Z</time>
      </trkpt>
      <trkpt lat="43.35735" lon="6.70479">
        <ele>161</ele>
        <time>2016-10-07T12:34:51Z</time>
      </trkpt>
      <trkpt lat="43.35767" lon="6.70481">
        <ele>148</ele>
        <time>2016-10-07T12:34:59Z</time>
      </trkpt>
      <trkpt lat="43.35778" lon="6.70486">
        <ele>146</ele>
        <time>2016-10-07T12:35:01Z</time>
      </trkpt>
      <trkpt lat="43.35793" lon="6.70498">
        <ele>144</ele>
        <time>2016-10-07T12:35:04Z</time>
      </trkpt>
      <trkpt lat="43.35813" lon="6.70524">
        <ele>146</ele>
        <time>2016-10-07T12:35:11Z</time>
      </trkpt>
      <trkpt lat="43.35851" lon="6.70558">
        <ele>133</ele>
        <time>2016-10-07T12:35:23Z</time>
      </trkpt>
      <trkpt lat="43.35886" lon="6.70563">
        <ele>129</ele>
        <time>2016-10-07T12:35:31Z</time>
      </trkpt>
      <trkpt lat="43.35918" lon="6.70594">
        <ele>121</ele>
        <time>2016-10-07T12:35:40Z</time>
      </trkpt>
      <trkpt lat="43.35926" lon="6.70591">
        <ele>121</ele>
        <time>2016-10-07T12:35:42Z</time>
      </trkpt>
      <trkpt lat="43.35938" lon="6.70579">
        <ele>118</ele>
        <time>2016-10-07T12:35:46Z</time>
      </trkpt>
      <trkpt lat="43.35945" lon="6.70576">
        <ele>116</ele>
        <time>2016-10-07T12:35:48Z</time>
      </trkpt>
      <trkpt lat="43.35951" lon="6.70578">
        <ele>115</ele>
        <time>2016-10-07T12:35:50Z</time>
      </trkpt>
      <trkpt lat="43.35959" lon="6.70586">
        <ele>116</ele>
        <time>2016-10-07T12:35:55Z</time>
      </trkpt>
      <trkpt lat="43.35961" lon="6.70582">
        <ele>114</ele>
        <time>2016-10-07T12:35:58Z</time>
      </trkpt>
      <trkpt lat="43.35959" lon="6.70576">
        <ele>114</ele>
        <time>2016-10-07T12:36:02Z</time>
      </trkpt>
      <trkpt lat="43.35927" lon="6.70554">
        <ele>117</ele>
        <time>2016-10-07T12:36:23Z</time>
      </trkpt>
      <trkpt lat="43.35897" lon="6.70525">
        <ele>127</ele>
        <time>2016-10-07T12:36:43Z</time>
      </trkpt>
      <trkpt lat="43.35857" lon="6.70509">
        <ele>132</ele>
        <time>2016-10-07T12:37:04Z</time>
      </trkpt>
      <trkpt lat="43.35829" lon="6.70478">
        <ele>139</ele>
        <time>2016-10-07T12:37:22Z</time>
      </trkpt>
      <trkpt lat="43.358" lon="6.70456">
        <ele>140</ele>
        <time>2016-10-07T12:37:38Z</time>
      </trkpt>
      <trkpt lat="43.35772" lon="6.70448">
        <ele>143</ele>
        <time>2016-10-07T12:37:53Z</time>
      </trkpt>
      <trkpt lat="43.35761" lon="6.7044">
        <ele>144</ele>
        <time>2016-10-07T12:37:59Z</time>
      </trkpt>
      <trkpt lat="43.35742" lon="6.70409">
        <ele>151</ele>
        <time>2016-10-07T12:38:14Z</time>
      </trkpt>
      <trkpt lat="43.3574" lon="6.70385">
        <ele>155</ele>
        <time>2016-10-07T12:38:22Z</time>
      </trkpt>
      <trkpt lat="43.35746" lon="6.70344">
        <ele>149</ele>
        <time>2016-10-07T12:38:34Z</time>
      </trkpt>
      <trkpt lat="43.35745" lon="6.70324">
        <ele>148</ele>
        <time>2016-10-07T12:38:40Z</time>
      </trkpt>
      <trkpt lat="43.35738" lon="6.70307">
        <ele>151</ele>
        <time>2016-10-07T12:38:47Z</time>
      </trkpt>
      <trkpt lat="43.35726" lon="6.70292">
        <ele>152</ele>
        <time>2016-10-07T12:38:54Z</time>
      </trkpt>
      <trkpt lat="43.35702" lon="6.70271">
        <ele>155</ele>
        <time>2016-10-07T12:39:07Z</time>
      </trkpt>
      <trkpt lat="43.35694" lon="6.70259">
        <ele>157</ele>
        <time>2016-10-07T12:39:12Z</time>
      </trkpt>
      <trkpt lat="43.3568" lon="6.70225">
        <ele>155</ele>
        <time>2016-10-07T12:39:23Z</time>
      </trkpt>
      <trkpt lat="43.35675" lon="6.70202">
        <ele>154</ele>
        <time>2016-10-07T12:39:29Z</time>
      </trkpt>
      <trkpt lat="43.35679" lon="6.70174">
        <ele>155</ele>
        <time>2016-10-07T12:39:35Z</time>
      </trkpt>
      <trkpt lat="43.35673" lon="6.70119">
        <ele>149</ele>
        <time>2016-10-07T12:39:44Z</time>
      </trkpt>
      <trkpt lat="43.35653" lon="6.70088">
        <ele>160</ele>
        <time>2016-10-07T12:39:51Z</time>
      </trkpt>
      <trkpt lat="43.35642" lon="6.70059">
        <ele>163</ele>
        <time>2016-10-07T12:39:57Z</time>
      </trkpt>
      <trkpt lat="43.35645" lon="6.70038">
        <ele>164</ele>
        <time>2016-10-07T12:40:01Z</time>
      </trkpt>
      <trkpt lat="43.35677" lon="6.69975">
        <ele>153</ele>
        <time>2016-10-07T12:40:12Z</time>
      </trkpt>
      <trkpt lat="43.35681" lon="6.69951">
        <ele>154</ele>
        <time>2016-10-07T12:40:16Z</time>
      </trkpt>
      <trkpt lat="43.35679" lon="6.6993">
        <ele>158</ele>
        <time>2016-10-07T12:40:20Z</time>
      </trkpt>
      <trkpt lat="43.35681" lon="6.69921">
        <ele>160</ele>
        <time>2016-10-07T12:40:22Z</time>
      </trkpt>
      <trkpt lat="43.35695" lon="6.69901">
        <ele>163</ele>
        <time>2016-10-07T12:40:27Z</time>
      </trkpt>
      <trkpt lat="43.3572" lon="6.69887">
        <ele>159</ele>
        <time>2016-10-07T12:40:31Z</time>
      </trkpt>
      <trkpt lat="43.35731" lon="6.69873">
        <ele>160</ele>
        <time>2016-10-07T12:40:33Z</time>
      </trkpt>
      <trkpt lat="43.35747" lon="6.69833">
        <ele>162</ele>
        <time>2016-10-07T12:40:38Z</time>
      </trkpt>
      <trkpt lat="43.35759" lon="6.69828">
        <ele>160</ele>
        <time>2016-10-07T12:40:40Z</time>
      </trkpt>
      <trkpt lat="43.35793" lon="6.69836">
        <ele>147</ele>
        <time>2016-10-07T12:40:45Z</time>
      </trkpt>
      <trkpt lat="43.35835" lon="6.69863">
        <ele>133</ele>
        <time>2016-10-07T12:40:51Z</time>
      </trkpt>
      <trkpt lat="43.35861" lon="6.69885">
        <ele>128</ele>
        <time>2016-10-07T12:40:55Z</time>
      </trkpt>
      <trkpt lat="43.35872" lon="6.69882">
        <ele>128</ele>
        <time>2016-10-07T12:40:57Z</time>
      </trkpt>
      <trkpt lat="43.3588" lon="6.69869">
        <ele>128</ele>
        <time>2016-10-07T12:40:59Z</time>
      </trkpt>
      <trkpt lat="43.35883" lon="6.69835">
        <ele>128</ele>
        <time>2016-10-07T12:41:03Z</time>
      </trkpt>
      <trkpt lat="43.35882" lon="6.69796">
        <ele>134</ele>
        <time>2016-10-07T12:41:07Z</time>
      </trkpt>
      <trkpt lat="43.35887" lon="6.69751">
        <ele>134</ele>
        <time>2016-10-07T12:41:11Z</time>
      </trkpt>
      <trkpt lat="43.35886" lon="6.69728">
        <ele>139</ele>
        <time>2016-10-07T12:41:13Z</time>
      </trkpt>
      <trkpt lat="43.35882" lon="6.69692">
        <ele>142</ele>
        <time>2016-10-07T12:41:17Z</time>
      </trkpt>
      <trkpt lat="43.35885" lon="6.69678">
        <ele>141</ele>
        <time>2016-10-07T12:41:19Z</time>
      </trkpt>
      <trkpt lat="43.35915" lon="6.69679">
        <ele>135</ele>
        <time>2016-10-07T12:41:24Z</time>
      </trkpt>
      <trkpt lat="43.35927" lon="6.69668">
        <ele>130</ele>
        <time>2016-10-07T12:41:26Z</time>
      </trkpt>
      <trkpt lat="43.35941" lon="6.69637">
        <ele>141</ele>
        <time>2016-10-07T12:41:30Z</time>
      </trkpt>
      <trkpt lat="43.3595" lon="6.69641">
        <ele>141</ele>
        <time>2016-10-07T12:41:32Z</time>
      </trkpt>
      <trkpt lat="43.35954" lon="6.69653">
        <ele>140</ele>
        <time>2016-10-07T12:41:34Z</time>
      </trkpt>
      <trkpt lat="43.35958" lon="6.69708">
        <ele>129</ele>
        <time>2016-10-07T12:41:41Z</time>
      </trkpt>
      <trkpt lat="43.35974" lon="6.69748">
        <ele>127</ele>
        <time>2016-10-07T12:41:46Z</time>
      </trkpt>
      <trkpt lat="43.35978" lon="6.69777">
        <ele>120</ele>
        <time>2016-10-07T12:41:49Z</time>
      </trkpt>
      <trkpt lat="43.35987" lon="6.69804">
        <ele>117</ele>
        <time>2016-10-07T12:41:52Z</time>
      </trkpt>
      <trkpt lat="43.36007" lon="6.69831">
        <ele>115</ele>
        <time>2016-10-07T12:41:56Z</time>
      </trkpt>
      <trkpt lat="43.36042" lon="6.69899">
        <ele>113</ele>
        <time>2016-10-07T12:42:04Z</time>
      </trkpt>
      <trkpt lat="43.3605" lon="6.69937">
        <ele>103</ele>
        <time>2016-10-07T12:42:08Z</time>
      </trkpt>
      <trkpt lat="43.36061" lon="6.69961">
        <ele>102</ele>
        <time>2016-10-07T12:42:11Z</time>
      </trkpt>
      <trkpt lat="43.36069" lon="6.70011">
        <ele>95</ele>
        <time>2016-10-07T12:42:16Z</time>
      </trkpt>
      <trkpt lat="43.36086" lon="6.70044">
        <ele>101</ele>
        <time>2016-10-07T12:42:20Z</time>
      </trkpt>
      <trkpt lat="43.36096" lon="6.70082">
        <ele>95</ele>
        <time>2016-10-07T12:42:24Z</time>
      </trkpt>
      <trkpt lat="43.36121" lon="6.70146">
        <ele>85</ele>
        <time>2016-10-07T12:42:31Z</time>
      </trkpt>
      <trkpt lat="43.36126" lon="6.70152">
        <ele>85</ele>
        <time>2016-10-07T12:42:32Z</time>
      </trkpt>
      <trkpt lat="43.36146" lon="6.70162">
        <ele>85</ele>
        <time>2016-10-07T12:42:35Z</time>
      </trkpt>
      <trkpt lat="43.36159" lon="6.70163">
        <ele>83</ele>
        <time>2016-10-07T12:42:37Z</time>
      </trkpt>
      <trkpt lat="43.36189" lon="6.70145">
        <ele>93</ele>
        <time>2016-10-07T12:42:42Z</time>
      </trkpt>
      <trkpt lat="43.36194" lon="6.70146">
        <ele>93</ele>
        <time>2016-10-07T12:42:43Z</time>
      </trkpt>
      <trkpt lat="43.36208" lon="6.7016">
        <ele>93</ele>
        <time>2016-10-07T12:42:46Z</time>
      </trkpt>
      <trkpt lat="43.36217" lon="6.70189">
        <ele>79</ele>
        <time>2016-10-07T12:42:50Z</time>
      </trkpt>
      <trkpt lat="43.36233" lon="6.7021">
        <ele>78</ele>
        <time>2016-10-07T12:42:54Z</time>
      </trkpt>
      <trkpt lat="43.36246" lon="6.70263">
        <ele>67</ele>
        <time>2016-10-07T12:43:03Z</time>
      </trkpt>
      <trkpt lat="43.36247" lon="6.70281">
        <ele>63</ele>
        <time>2016-10-07T12:43:06Z</time>
      </trkpt>
      <trkpt lat="43.36255" lon="6.70295">
        <ele>66</ele>
        <time>2016-10-07T12:43:09Z</time>
      </trkpt>
      <trkpt lat="43.36268" lon="6.70308">
        <ele>65</ele>
        <time>2016-10-07T12:43:12Z</time>
      </trkpt>
      <trkpt lat="43.36283" lon="6.70308">
        <ele>66</ele>
        <time>2016-10-07T12:43:15Z</time>
      </trkpt>
      <trkpt lat="43.36296" lon="6.70299">
        <ele>67</ele>
        <time>2016-10-07T12:43:18Z</time>
      </trkpt>
      <trkpt lat="43.3631" lon="6.70277">
        <ele>69</ele>
        <time>2016-10-07T12:43:23Z</time>
      </trkpt>
      <trkpt lat="43.36313" lon="6.70275">
        <ele>70</ele>
        <time>2016-10-07T12:43:24Z</time>
      </trkpt>
      <trkpt lat="43.36334" lon="6.70295">
        <ele>71</ele>
        <time>2016-10-07T12:43:31Z</time>
      </trkpt>
      <trkpt lat="43.36337" lon="6.70304">
        <ele>70</ele>
        <time>2016-10-07T12:43:33Z</time>
      </trkpt>
      <trkpt lat="43.3634" lon="6.7038">
        <ele>60</ele>
        <time>2016-10-07T12:43:47Z</time>
      </trkpt>
      <trkpt lat="43.36333" lon="6.70423">
        <ele>52</ele>
        <time>2016-10-07T12:43:53Z</time>
      </trkpt>
      <trkpt lat="43.3633" lon="6.70486">
        <ele>44</ele>
        <time>2016-10-07T12:44:01Z</time>
      </trkpt>
      <trkpt lat="43.36334" lon="6.70499">
        <ele>43</ele>
        <time>2016-10-07T12:44:03Z</time>
      </trkpt>
      <trkpt lat="43.36338" lon="6.70502">
        <ele>42</ele>
        <time>2016-10-07T12:44:04Z</time>
      </trkpt>
      <trkpt lat="43.36357" lon="6.70506">
        <ele>39</ele>
        <time>2016-10-07T12:44:08Z</time>
      </trkpt>
      <trkpt lat="43.36384" lon="6.70516">
        <ele>39</ele>
        <time>2016-10-07T12:44:14Z</time>
      </trkpt>
      <trkpt lat="43.36397" lon="6.70511">
        <ele>40</ele>
        <time>2016-10-07T12:44:17Z</time>
      </trkpt>
      <trkpt lat="43.36418" lon="6.70517">
        <ele>39</ele>
        <time>2016-10-07T12:44:22Z</time>
      </trkpt>
      <trkpt lat="43.36446" lon="6.70514">
        <ele>37</ele>
        <time>2016-10-07T12:44:26Z</time>
      </trkpt>
      <trkpt lat="43.36472" lon="6.70499">
        <ele>42</ele>
        <time>2016-10-07T12:44:30Z</time>
      </trkpt>
      <trkpt lat="43.3648" lon="6.70485">
        <ele>42</ele>
        <time>2016-10-07T12:44:32Z</time>
      </trkpt>
      <trkpt lat="43.36486" lon="6.70475">
        <ele>42</ele>
        <time>2016-10-07T12:44:34Z</time>
      </trkpt>
      <trkpt lat="43.36494" lon="6.70478">
        <ele>41</ele>
        <time>2016-10-07T12:44:36Z</time>
      </trkpt>
      <trkpt lat="43.36503" lon="6.70489">
        <ele>36</ele>
        <time>2016-10-07T12:44:39Z</time>
      </trkpt>
      <trkpt lat="43.36518" lon="6.7049">
        <ele>37</ele>
        <time>2016-10-07T12:44:43Z</time>
      </trkpt>
      <trkpt lat="43.36533" lon="6.70501">
        <ele>31</ele>
        <time>2016-10-07T12:44:46Z</time>
      </trkpt>
      <trkpt lat="43.36551" lon="6.705">
        <ele>31</ele>
        <time>2016-10-07T12:44:49Z</time>
      </trkpt>
      <trkpt lat="43.36567" lon="6.70492">
        <ele>35</ele>
        <time>2016-10-07T12:44:52Z</time>
      </trkpt>
      <trkpt lat="43.36575" lon="6.70498">
        <ele>34</ele>
        <time>2016-10-07T12:44:54Z</time>
      </trkpt>
      <trkpt lat="43.36577" lon="6.7051">
        <ele>31</ele>
        <time>2016-10-07T12:44:56Z</time>
      </trkpt>
      <trkpt lat="43.36571" lon="6.70529">
        <ele>30</ele>
        <time>2016-10-07T12:44:58Z</time>
      </trkpt>
      <trkpt lat="43.36567" lon="6.70558">
        <ele>28</ele>
        <time>2016-10-07T12:45:01Z</time>
      </trkpt>
      <trkpt lat="43.36573" lon="6.70584">
        <ele>24</ele>
        <time>2016-10-07T12:45:04Z</time>
      </trkpt>
      <trkpt lat="43.36584" lon="6.70612">
        <ele>23</ele>
        <time>2016-10-07T12:45:08Z</time>
      </trkpt>
      <trkpt lat="43.36603" lon="6.70626">
        <ele>23</ele>
        <time>2016-10-07T12:45:12Z</time>
      </trkpt>
      <trkpt lat="43.36642" lon="6.7067">
        <ele>21</ele>
        <time>2016-10-07T12:45:20Z</time>
      </trkpt>
      <trkpt lat="43.36648" lon="6.7067">
        <ele>21</ele>
        <time>2016-10-07T12:45:21Z</time>
      </trkpt>
      <trkpt lat="43.36673" lon="6.70658">
        <ele>22</ele>
        <time>2016-10-07T12:45:26Z</time>
      </trkpt>
      <trkpt lat="43.36687" lon="6.70657">
        <ele>21</ele>
        <time>2016-10-07T12:45:28Z</time>
      </trkpt>
      <trkpt lat="43.36698" lon="6.70664">
        <ele>20</ele>
        <time>2016-10-07T12:45:30Z</time>
      </trkpt>
      <trkpt lat="43.36715" lon="6.707">
        <ele>18</ele>
        <time>2016-10-07T12:45:35Z</time>
      </trkpt>
      <trkpt lat="43.3672" lon="6.70705">
        <ele>18</ele>
        <time>2016-10-07T12:45:37Z</time>
      </trkpt>
      <trkpt lat="43.36724" lon="6.70703">
        <ele>18</ele>
        <time>2016-10-07T12:45:39Z</time>
      </trkpt>
      <trkpt lat="43.36729" lon="6.70644">
        <ele>18</ele>
        <time>2016-10-07T12:45:48Z</time>
      </trkpt>
      <trkpt lat="43.36739" lon="6.70625">
        <ele>18</ele>
        <time>2016-10-07T12:45:51Z</time>
      </trkpt>
      <trkpt lat="43.36754" lon="6.70629">
        <ele>15</ele>
        <time>2016-10-07T12:45:53Z</time>
      </trkpt>
      <trkpt lat="43.36772" lon="6.70648">
        <ele>15</ele>
        <time>2016-10-07T12:45:57Z</time>
      </trkpt>
      <trkpt lat="43.36778" lon="6.70648">
        <ele>15</ele>
        <time>2016-10-07T12:45:58Z</time>
      </trkpt>
      <trkpt lat="43.36781" lon="6.70645">
        <ele>14</ele>
        <time>2016-10-07T12:45:59Z</time>
      </trkpt>
      <trkpt lat="43.36795" lon="6.70606">
        <ele>14</ele>
        <time>2016-10-07T12:46:05Z</time>
      </trkpt>
      <trkpt lat="43.36796" lon="6.70591">
        <ele>14</ele>
        <time>2016-10-07T12:46:07Z</time>
      </trkpt>
      <trkpt lat="43.36791" lon="6.70565">
        <ele>15</ele>
        <time>2016-10-07T12:46:11Z</time>
      </trkpt>
      <trkpt lat="43.36797" lon="6.7055">
        <ele>15</ele>
        <time>2016-10-07T12:46:14Z</time>
      </trkpt>
      <trkpt lat="43.36793" lon="6.7053">
        <ele>16</ele>
        <time>2016-10-07T12:46:17Z</time>
      </trkpt>
      <trkpt lat="43.3679" lon="6.70481">
        <ele>18</ele>
        <time>2016-10-07T12:46:24Z</time>
      </trkpt>
      <trkpt lat="43.36798" lon="6.70435">
        <ele>18</ele>
        <time>2016-10-07T12:46:31Z</time>
      </trkpt>
      <trkpt lat="43.36802" lon="6.70424">
        <ele>17</ele>
        <time>2016-10-07T12:46:33Z</time>
      </trkpt>
      <trkpt lat="43.36808" lon="6.70421">
        <ele>17</ele>
        <time>2016-10-07T12:46:35Z</time>
      </trkpt>
      <trkpt lat="43.36836" lon="6.70435">
        <ele>18</ele>
        <time>2016-10-07T12:46:44Z</time>
      </trkpt>
      <trkpt lat="43.36854" lon="6.70454">
        <ele>20</ele>
        <time>2016-10-07T12:46:53Z</time>
      </trkpt>
      <trkpt lat="43.36872" lon="6.70486">
        <ele>21</ele>
        <time>2016-10-07T12:47:05Z</time>
      </trkpt>
      <trkpt lat="43.36877" lon="6.70499">
        <ele>22</ele>
        <time>2016-10-07T12:47:09Z</time>
      </trkpt>
      <trkpt lat="43.36886" lon="6.70554">
        <ele>23</ele>
        <time>2016-10-07T12:47:35Z</time>
      </trkpt>
      <trkpt lat="43.3689" lon="6.70556">
        <ele>23</ele>
        <time>2016-10-07T12:47:39Z</time>
      </trkpt>
      <trkpt lat="43.36899" lon="6.70548">
        <ele>24</ele>
        <time>2016-10-07T12:47:47Z</time>
      </trkpt>
      <trkpt lat="43.369" lon="6.70547">
        <ele>24</ele>
        <time>2016-10-07T12:47:50Z</time>
      </trkpt>
      <trkpt lat="43.36913" lon="6.70541">
        <ele>25</ele>
        <time>2016-10-07T12:49:13Z</time>
      </trkpt>
      <trkpt lat="43.36938" lon="6.70525">
        <ele>37</ele>
        <time>2016-10-07T12:49:23Z</time>
      </trkpt>
      <trkpt lat="43.37" lon="6.70477">
        <ele>52</ele>
        <time>2016-10-07T12:49:41Z</time>
      </trkpt>
      <trkpt lat="43.37048" lon="6.70417">
        <ele>56</ele>
        <time>2016-10-07T12:50:08Z</time>
      </trkpt>
      <trkpt lat="43.37085" lon="6.70357">
        <ele>63</ele>
        <time>2016-10-07T12:50:30Z</time>
      </trkpt>
      <trkpt lat="43.37097" lon="6.70335">
        <ele>61</ele>
        <time>2016-10-07T12:50:35Z</time>
      </trkpt>
      <trkpt lat="43.37114" lon="6.70289">
        <ele>59</ele>
        <time>2016-10-07T12:50:43Z</time>
      </trkpt>
      <trkpt lat="43.3713" lon="6.70225">
        <ele>55</ele>
        <time>2016-10-07T12:50:59Z</time>
      </trkpt>
      <trkpt lat="43.3714" lon="6.70203">
        <ele>55</ele>
        <time>2016-10-07T12:51:07Z</time>
      </trkpt>
      <trkpt lat="43.3715" lon="6.70192">
        <ele>55</ele>
        <time>2016-10-07T12:51:13Z</time>
      </trkpt>
      <trkpt lat="43.37207" lon="6.70166">
        <ele>62</ele>
        <time>2016-10-07T12:51:42Z</time>
      </trkpt>
      <trkpt lat="43.37275" lon="6.70155">
        <ele>76</ele>
        <time>2016-10-07T12:52:26Z</time>
      </trkpt>
      <trkpt lat="43.37298" lon="6.70143">
        <ele>78</ele>
        <time>2016-10-07T12:52:40Z</time>
      </trkpt>
      <trkpt lat="43.37308" lon="6.70129">
        <ele>79</ele>
        <time>2016-10-07T12:52:51Z</time>
      </trkpt>
      <trkpt lat="43.37322" lon="6.701">
        <ele>80</ele>
        <time>2016-10-07T12:53:18Z</time>
      </trkpt>
      <trkpt lat="43.37417" lon="6.70034">
        <ele>106</ele>
        <time>2016-10-07T12:56:09Z</time>
      </trkpt>
      <trkpt lat="43.37418" lon="6.70033">
        <ele>106</ele>
        <time>2016-10-07T12:56:10Z</time>
      </trkpt>
      <trkpt lat="43.37426" lon="6.70024">
        <ele>106</ele>
        <time>2016-10-07T12:56:20Z</time>
      </trkpt>
      <trkpt lat="43.37432" lon="6.70019">
        <ele>106</ele>
        <time>2016-10-07T12:56:33Z</time>
      </trkpt>
      <trkpt lat="43.37482" lon="6.69953">
        <ele>112</ele>
        <time>2016-10-07T12:57:02Z</time>
      </trkpt>
      <trkpt lat="43.37497" lon="6.69941">
        <ele>112</ele>
        <time>2016-10-07T12:57:09Z</time>
      </trkpt>
      <trkpt lat="43.37508" lon="6.6994">
        <ele>117</ele>
        <time>2016-10-07T12:57:13Z</time>
      </trkpt>
      <trkpt lat="43.37513" lon="6.69943">
        <ele>117</ele>
        <time>2016-10-07T12:57:15Z</time>
      </trkpt>
      <trkpt lat="43.37523" lon="6.6996">
        <ele>117</ele>
        <time>2016-10-07T12:57:21Z</time>
      </trkpt>
      <trkpt lat="43.37536" lon="6.69989">
        <ele>117</ele>
        <time>2016-10-07T12:57:31Z</time>
      </trkpt>
      <trkpt lat="43.37552" lon="6.70001">
        <ele>113</ele>
        <time>2016-10-07T12:57:39Z</time>
      </trkpt>
      <trkpt lat="43.37567" lon="6.70002">
        <ele>115</ele>
        <time>2016-10-07T12:57:45Z</time>
      </trkpt>
      <trkpt lat="43.37604" lon="6.69995">
        <ele>121</ele>
        <time>2016-10-07T12:58:00Z</time>
      </trkpt>
      <trkpt lat="43.3762" lon="6.69982">
        <ele>121</ele>
        <time>2016-10-07T12:58:05Z</time>
      </trkpt>
      <trkpt lat="43.37654" lon="6.69973">
        <ele>121</ele>
        <time>2016-10-07T12:58:13Z</time>
      </trkpt>
      <trkpt lat="43.37679" lon="6.69959">
        <ele>124</ele>
        <time>2016-10-07T12:58:19Z</time>
      </trkpt>
      <trkpt lat="43.3771" lon="6.6993">
        <ele>127</ele>
        <time>2016-10-07T12:58:30Z</time>
      </trkpt>
      <trkpt lat="43.37715" lon="6.69929">
        <ele>128</ele>
        <time>2016-10-07T12:58:35Z</time>
      </trkpt>
      <trkpt lat="43.37727" lon="6.69946">
        <ele>126</ele>
        <time>2016-10-07T12:58:44Z</time>
      </trkpt>
      <trkpt lat="43.37728" lon="6.69956">
        <ele>125</ele>
        <time>2016-10-07T12:58:49Z</time>
      </trkpt>
      <trkpt lat="43.37755" lon="6.6999">
        <ele>123</ele>
        <time>2016-10-07T12:59:32Z</time>
      </trkpt>
      <trkpt lat="43.37809" lon="6.70024">
        <ele>121</ele>
        <time>2016-10-07T13:00:08Z</time>
      </trkpt>
      <trkpt lat="43.37846" lon="6.7003">
        <ele>127</ele>
        <time>2016-10-07T13:00:35Z</time>
      </trkpt>
      <trkpt lat="43.37864" lon="6.70044">
        <ele>125</ele>
        <time>2016-10-07T13:00:44Z</time>
      </trkpt>
      <trkpt lat="43.37881" lon="6.70062">
        <ele>124</ele>
        <time>2016-10-07T13:00:50Z</time>
      </trkpt>
      <trkpt lat="43.3789" lon="6.70075">
        <ele>124</ele>
        <time>2016-10-07T13:00:53Z</time>
      </trkpt>
      <trkpt lat="43.37927" lon="6.70191">
        <ele>129</ele>
        <time>2016-10-07T13:01:31Z</time>
      </trkpt>
      <trkpt lat="43.37931" lon="6.70199">
        <ele>130</ele>
        <time>2016-10-07T13:01:34Z</time>
      </trkpt>
      <trkpt lat="43.37945" lon="6.70209">
        <ele>131</ele>
        <time>2016-10-07T13:01:44Z</time>
      </trkpt>
      <trkpt lat="43.37957" lon="6.70225">
        <ele>132</ele>
        <time>2016-10-07T13:03:56Z</time>
      </trkpt>
      <trkpt lat="43.37965" lon="6.70223">
        <ele>133</ele>
        <time>2016-10-07T13:03:58Z</time>
      </trkpt>
      <trkpt lat="43.38011" lon="6.70228">
        <ele>138</ele>
        <time>2016-10-07T13:04:07Z</time>
      </trkpt>
      <trkpt lat="43.38076" lon="6.70252">
        <ele>142</ele>
        <time>2016-10-07T13:04:18Z</time>
      </trkpt>
      <trkpt lat="43.38153" lon="6.70307">
        <ele>137</ele>
        <time>2016-10-07T13:04:29Z</time>
      </trkpt>
      <trkpt lat="43.38165" lon="6.70321">
        <ele>138</ele>
        <time>2016-10-07T13:04:31Z</time>
      </trkpt>
      <trkpt lat="43.3818" lon="6.70333">
        <ele>133</ele>
        <time>2016-10-07T13:04:33Z</time>
      </trkpt>
      <trkpt lat="43.38207" lon="6.70345">
        <ele>133</ele>
        <time>2016-10-07T13:04:37Z</time>
      </trkpt>
      <trkpt lat="43.38227" lon="6.70371">
        <ele>132</ele>
        <time>2016-10-07T13:04:41Z</time>
      </trkpt>
      <trkpt lat="43.38242" lon="6.70383">
        <ele>131</ele>
        <time>2016-10-07T13:04:43Z</time>
      </trkpt>
      <trkpt lat="43.38248" lon="6.70393">
        <ele>131</ele>
        <time>2016-10-07T13:04:44Z</time>
      </trkpt>
      <trkpt lat="43.38272" lon="6.70406">
        <ele>125</ele>
        <time>2016-10-07T13:04:47Z</time>
      </trkpt>
      <trkpt lat="43.38287" lon="6.70418">
        <ele>127</ele>
        <time>2016-10-07T13:04:49Z</time>
      </trkpt>
      <trkpt lat="43.383" lon="6.70436">
        <ele>126</ele>
        <time>2016-10-07T13:04:52Z</time>
      </trkpt>
      <trkpt lat="43.38345" lon="6.70474">
        <ele>121</ele>
        <time>2016-10-07T13:05:00Z</time>
      </trkpt>
      <trkpt lat="43.38364" lon="6.70506">
        <ele>121</ele>
        <time>2016-10-07T13:05:04Z</time>
      </trkpt>
      <trkpt lat="43.38394" lon="6.70511">
        <ele>117</ele>
        <time>2016-10-07T13:05:10Z</time>
      </trkpt>
      <trkpt lat="43.38418" lon="6.70533">
        <ele>108</ele>
        <time>2016-10-07T13:05:17Z</time>
      </trkpt>
      <trkpt lat="43.38427" lon="6.7055">
        <ele>107</ele>
        <time>2016-10-07T13:05:20Z</time>
      </trkpt>
      <trkpt lat="43.38441" lon="6.70571">
        <ele>107</ele>
        <time>2016-10-07T13:05:23Z</time>
      </trkpt>
      <trkpt lat="43.38456" lon="6.70578">
        <ele>105</ele>
        <time>2016-10-07T13:05:25Z</time>
      </trkpt>
      <trkpt lat="43.38488" lon="6.70581">
        <ele>101</ele>
        <time>2016-10-07T13:05:30Z</time>
      </trkpt>
      <trkpt lat="43.38545" lon="6.70675">
        <ele>103</ele>
        <time>2016-10-07T13:05:45Z</time>
      </trkpt>
      <trkpt lat="43.38554" lon="6.70686">
        <ele>103</ele>
        <time>2016-10-07T13:05:47Z</time>
      </trkpt>
      <trkpt lat="43.38557" lon="6.7069">
        <ele>103</ele>
        <time>2016-10-07T13:05:50Z</time>
      </trkpt>
      <trkpt lat="43.38565" lon="6.70702">
        <ele>103</ele>
        <time>2016-10-07T13:06:02Z</time>
      </trkpt>
      <trkpt lat="43.38573" lon="6.70716">
        <ele>104</ele>
        <time>2016-10-07T13:06:14Z</time>
      </trkpt>
      <trkpt lat="43.38589" lon="6.70725">
        <ele>104</ele>
        <time>2016-10-07T13:06:26Z</time>
      </trkpt>
      <trkpt lat="43.38642" lon="6.70735">
        <ele>103</ele>
        <time>2016-10-07T13:06:54Z</time>
      </trkpt>
      <trkpt lat="43.38661" lon="6.70733">
        <ele>103</ele>
        <time>2016-10-07T13:07:02Z</time>
      </trkpt>
      <trkpt lat="43.38667" lon="6.70727">
        <ele>102</ele>
        <time>2016-10-07T13:07:05Z</time>
      </trkpt>
      <trkpt lat="43.38684" lon="6.70721">
        <ele>101</ele>
        <time>2016-10-07T13:07:12Z</time>
      </trkpt>
      <trkpt lat="43.38704" lon="6.70715">
        <ele>100</ele>
        <time>2016-10-07T13:08:10Z</time>
      </trkpt>
      <trkpt lat="43.3873" lon="6.70709">
        <ele>99</ele>
        <time>2016-10-07T13:08:15Z</time>
      </trkpt>
      <trkpt lat="43.3876" lon="6.70691">
        <ele>97</ele>
        <time>2016-10-07T13:08:22Z</time>
      </trkpt>
      <trkpt lat="43.38771" lon="6.70688">
        <ele>97</ele>
        <time>2016-10-07T13:08:24Z</time>
      </trkpt>
      <trkpt lat="43.38799" lon="6.70673">
        <ele>97</ele>
        <time>2016-10-07T13:08:29Z</time>
      </trkpt>
      <trkpt lat="43.38825" lon="6.70669">
        <ele>96</ele>
        <time>2016-10-07T13:08:34Z</time>
      </trkpt>
      <trkpt lat="43.38861" lon="6.70649">
        <ele>93</ele>
        <time>2016-10-07T13:08:42Z</time>
      </trkpt>
      <trkpt lat="43.38878" lon="6.70622">
        <ele>93</ele>
        <time>2016-10-07T13:08:49Z</time>
      </trkpt>
      <trkpt lat="43.38885" lon="6.70607">
        <ele>93</ele>
        <time>2016-10-07T13:08:59Z</time>
      </trkpt>
      <trkpt lat="43.38888" lon="6.70601">
        <ele>93</ele>
        <time>2016-10-07T13:09:03Z</time>
      </trkpt>
      <trkpt lat="43.38894" lon="6.70598">
        <ele>94</ele>
        <time>2016-10-07T13:09:10Z</time>
      </trkpt>
      <trkpt lat="43.38904" lon="6.70598">
        <ele>94</ele>
        <time>2016-10-07T13:09:18Z</time>
      </trkpt>
      <trkpt lat="43.38917" lon="6.70591">
        <ele>94</ele>
        <time>2016-10-07T13:09:26Z</time>
      </trkpt>
      <trkpt lat="43.3893" lon="6.70575">
        <ele>91</ele>
        <time>2016-10-07T13:09:32Z</time>
      </trkpt>
      <trkpt lat="43.3895" lon="6.7056">
        <ele>87</ele>
        <time>2016-10-07T13:09:37Z</time>
      </trkpt>
      <trkpt lat="43.38969" lon="6.70567">
        <ele>85</ele>
        <time>2016-10-07T13:09:44Z</time>
      </trkpt>
      <trkpt lat="43.38977" lon="6.70575">
        <ele>84</ele>
        <time>2016-10-07T13:09:49Z</time>
      </trkpt>
      <trkpt lat="43.3898" lon="6.70571">
        <ele>84</ele>
        <time>2016-10-07T13:09:51Z</time>
      </trkpt>
      <trkpt lat="43.38983" lon="6.70549">
        <ele>84</ele>
        <time>2016-10-07T13:09:56Z</time>
      </trkpt>
      <trkpt lat="43.39002" lon="6.70524">
        <ele>72</ele>
        <time>2016-10-07T13:10:03Z</time>
      </trkpt>
      <trkpt lat="43.39026" lon="6.70531">
        <ele>69</ele>
        <time>2016-10-07T13:10:11Z</time>
      </trkpt>
      <trkpt lat="43.39031" lon="6.70527">
        <ele>69</ele>
        <time>2016-10-07T13:10:14Z</time>
      </trkpt>
      <trkpt lat="43.39029" lon="6.70511">
        <ele>69</ele>
        <time>2016-10-07T13:10:22Z</time>
      </trkpt>
      <trkpt lat="43.39034" lon="6.7051">
        <ele>68</ele>
        <time>2016-10-07T13:10:29Z</time>
      </trkpt>
      <trkpt lat="43.39039" lon="6.70515">
        <ele>67</ele>
        <time>2016-10-07T13:10:31Z</time>
      </trkpt>
      <trkpt lat="43.39048" lon="6.70518">
        <ele>66</ele>
        <time>2016-10-07T13:10:34Z</time>
      </trkpt>
      <trkpt lat="43.39055" lon="6.70528">
        <ele>65</ele>
        <time>2016-10-07T13:10:36Z</time>
      </trkpt>
      <trkpt lat="43.39056" lon="6.70562">
        <ele>66</ele>
        <time>2016-10-07T13:10:40Z</time>
      </trkpt>
      <trkpt lat="43.39066" lon="6.70578">
        <ele>63</ele>
        <time>2016-10-07T13:10:42Z</time>
      </trkpt>
      <trkpt lat="43.3909" lon="6.70598">
        <ele>57</ele>
        <time>2016-10-07T13:10:46Z</time>
      </trkpt>
      <trkpt lat="43.39108" lon="6.70601">
        <ele>56</ele>
        <time>2016-10-07T13:10:50Z</time>
      </trkpt>
      <trkpt lat="43.39122" lon="6.70619">
        <ele>55</ele>
        <time>2016-10-07T13:10:53Z</time>
      </trkpt>
      <trkpt lat="43.39125" lon="6.70628">
        <ele>55</ele>
        <time>2016-10-07T13:10:54Z</time>
      </trkpt>
      <trkpt lat="43.39125" lon="6.70644">
        <ele>56</ele>
        <time>2016-10-07T13:10:56Z</time>
      </trkpt>
      <trkpt lat="43.3912" lon="6.70667">
        <ele>59</ele>
        <time>2016-10-07T13:10:59Z</time>
      </trkpt>
      <trkpt lat="43.39121" lon="6.70675">
        <ele>59</ele>
        <time>2016-10-07T13:11:00Z</time>
      </trkpt>
      <trkpt lat="43.39126" lon="6.7068">
        <ele>59</ele>
        <time>2016-10-07T13:11:01Z</time>
      </trkpt>
      <trkpt lat="43.39135" lon="6.70679">
        <ele>58</ele>
        <time>2016-10-07T13:11:03Z</time>
      </trkpt>
      <trkpt lat="43.39143" lon="6.70672">
        <ele>57</ele>
        <time>2016-10-07T13:11:05Z</time>
      </trkpt>
      <trkpt lat="43.39185" lon="6.70671">
        <ele>51</ele>
        <time>2016-10-07T13:11:15Z</time>
      </trkpt>
      <trkpt lat="43.39217" lon="6.70683">
        <ele>50</ele>
        <time>2016-10-07T13:11:27Z</time>
      </trkpt>
      <trkpt lat="43.39245" lon="6.70697">
        <ele>50</ele>
        <time>2016-10-07T13:11:39Z</time>
      </trkpt>
      <trkpt lat="43.39265" lon="6.70697">
        <ele>46</ele>
        <time>2016-10-07T13:11:52Z</time>
      </trkpt>
      <trkpt lat="43.39269" lon="6.70687">
        <ele>45</ele>
        <time>2016-10-07T13:11:56Z</time>
      </trkpt>
      <trkpt lat="43.39269" lon="6.70682">
        <ele>45</ele>
        <time>2016-10-07T13:11:57Z</time>
      </trkpt>
      <trkpt lat="43.39264" lon="6.70679">
        <ele>45</ele>
        <time>2016-10-07T13:11:58Z</time>
      </trkpt>
      <trkpt lat="43.39258" lon="6.70667">
        <ele>45</ele>
        <time>2016-10-07T13:12:01Z</time>
      </trkpt>
      <trkpt lat="43.39261" lon="6.70658">
        <ele>45</ele>
        <time>2016-10-07T13:12:03Z</time>
      </trkpt>
      <trkpt lat="43.39271" lon="6.70658">
        <ele>46</ele>
        <time>2016-10-07T13:12:08Z</time>
      </trkpt>
      <trkpt lat="43.39281" lon="6.70657">
        <ele>46</ele>
        <time>2016-10-07T13:14:12Z</time>
      </trkpt>
      <trkpt lat="43.39289" lon="6.70657">
        <ele>46</ele>
        <time>2016-10-07T13:14:14Z</time>
      </trkpt>
      <trkpt lat="43.39351" lon="6.70675">
        <ele>44</ele>
        <time>2016-10-07T13:14:24Z</time>
      </trkpt>
      <trkpt lat="43.39365" lon="6.70675">
        <ele>44</ele>
        <time>2016-10-07T13:14:27Z</time>
      </trkpt>
      <trkpt lat="43.39392" lon="6.70682">
        <ele>46</ele>
        <time>2016-10-07T13:14:36Z</time>
      </trkpt>
      <trkpt lat="43.39429" lon="6.70677">
        <ele>49</ele>
        <time>2016-10-07T13:14:47Z</time>
      </trkpt>
      <trkpt lat="43.39445" lon="6.70681">
        <ele>48</ele>
        <time>2016-10-07T13:14:53Z</time>
      </trkpt>
      <trkpt lat="43.39458" lon="6.7068">
        <ele>48</ele>
        <time>2016-10-07T13:15:00Z</time>
      </trkpt>
      <trkpt lat="43.3946" lon="6.70676">
        <ele>48</ele>
        <time>2016-10-07T13:15:02Z</time>
      </trkpt>
      <trkpt lat="43.39458" lon="6.7067">
        <ele>48</ele>
        <time>2016-10-07T13:15:06Z</time>
      </trkpt>
      <trkpt lat="43.39489" lon="6.70664">
        <ele>57</ele>
        <time>2016-10-07T13:15:17Z</time>
      </trkpt>
      <trkpt lat="43.39496" lon="6.70659">
        <ele>57</ele>
        <time>2016-10-07T13:15:21Z</time>
      </trkpt>
      <trkpt lat="43.39496" lon="6.70641">
        <ele>59</ele>
        <time>2016-10-07T13:15:26Z</time>
      </trkpt>
      <trkpt lat="43.39512" lon="6.70606">
        <ele>61</ele>
        <time>2016-10-07T13:15:36Z</time>
      </trkpt>
      <trkpt lat="43.39524" lon="6.70595">
        <ele>61</ele>
        <time>2016-10-07T13:15:41Z</time>
      </trkpt>
      <trkpt lat="43.39536" lon="6.70598">
        <ele>59</ele>
        <time>2016-10-07T13:15:45Z</time>
      </trkpt>
      <trkpt lat="43.39542" lon="6.70609">
        <ele>58</ele>
        <time>2016-10-07T13:15:49Z</time>
      </trkpt>
      <trkpt lat="43.39548" lon="6.70629">
        <ele>57</ele>
        <time>2016-10-07T13:15:55Z</time>
      </trkpt>
      <trkpt lat="43.39551" lon="6.70631">
        <ele>57</ele>
        <time>2016-10-07T13:15:57Z</time>
      </trkpt>
      <trkpt lat="43.39565" lon="6.7062">
        <ele>57</ele>
        <time>2016-10-07T13:16:02Z</time>
      </trkpt>
      <trkpt lat="43.39573" lon="6.70597">
        <ele>57</ele>
        <time>2016-10-07T13:16:07Z</time>
      </trkpt>
      <trkpt lat="43.39573" lon="6.70597">
        <ele>57</ele>
        <time>2016-10-07T13:16:08Z</time>
      </trkpt>
      <trkpt lat="43.3958" lon="6.70604">
        <ele>57</ele>
        <time>2016-10-07T13:16:34Z</time>
      </trkpt>
      <trkpt lat="43.39598" lon="6.70628">
        <ele>57</ele>
        <time>2016-10-07T13:16:38Z</time>
      </trkpt>
      <trkpt lat="43.39604" lon="6.70643">
        <ele>57</ele>
        <time>2016-10-07T13:16:42Z</time>
      </trkpt>
      <trkpt lat="43.39605" lon="6.70661">
        <ele>56</ele>
        <time>2016-10-07T13:16:48Z</time>
      </trkpt>
      <trkpt lat="43.3961" lon="6.70676">
        <ele>54</ele>
        <time>2016-10-07T13:16:54Z</time>
      </trkpt>
      <trkpt lat="43.39617" lon="6.70681">
        <ele>54</ele>
        <time>2016-10-07T13:16:58Z</time>
      </trkpt>
      <trkpt lat="43.39651" lon="6.70671">
        <ele>58</ele>
        <time>2016-10-07T13:17:20Z</time>
      </trkpt>
      <trkpt lat="43.39662" lon="6.70661">
        <ele>61</ele>
        <time>2016-10-07T13:17:29Z</time>
      </trkpt>
      <trkpt lat="43.39666" lon="6.70653">
        <ele>61</ele>
        <time>2016-10-07T13:17:32Z</time>
      </trkpt>
      <trkpt lat="43.39677" lon="6.70647">
        <ele>63</ele>
        <time>2016-10-07T13:17:35Z</time>
      </trkpt>
      <trkpt lat="43.39703" lon="6.70642">
        <ele>63</ele>
        <time>2016-10-07T13:17:41Z</time>
      </trkpt>
      <trkpt lat="43.39736" lon="6.70655">
        <ele>63</ele>
        <time>2016-10-07T13:17:50Z</time>
      </trkpt>
      <trkpt lat="43.39739" lon="6.70653">
        <ele>63</ele>
        <time>2016-10-07T13:17:51Z</time>
      </trkpt>
      <trkpt lat="43.39744" lon="6.70645">
        <ele>63</ele>
        <time>2016-10-07T13:17:53Z</time>
      </trkpt>
      <trkpt lat="43.39748" lon="6.70627">
        <ele>64</ele>
        <time>2016-10-07T13:17:56Z</time>
      </trkpt>
      <trkpt lat="43.39765" lon="6.70596">
        <ele>63</ele>
        <time>2016-10-07T13:18:03Z</time>
      </trkpt>
      <trkpt lat="43.39777" lon="6.70565">
        <ele>66</ele>
        <time>2016-10-07T13:18:09Z</time>
      </trkpt>
      <trkpt lat="43.39797" lon="6.70543">
        <ele>66</ele>
        <time>2016-10-07T13:18:15Z</time>
      </trkpt>
      <trkpt lat="43.39803" lon="6.7052">
        <ele>67</ele>
        <time>2016-10-07T13:18:20Z</time>
      </trkpt>
      <trkpt lat="43.39812" lon="6.70505">
        <ele>67</ele>
        <time>2016-10-07T13:18:24Z</time>
      </trkpt>
      <trkpt lat="43.39821" lon="6.70482">
        <ele>71</ele>
        <time>2016-10-07T13:18:29Z</time>
      </trkpt>
      <trkpt lat="43.39828" lon="6.70479">
        <ele>71</ele>
        <time>2016-10-07T13:18:33Z</time>
      </trkpt>
      <trkpt lat="43.39854" lon="6.70507">
        <ele>67</ele>
        <time>2016-10-07T13:18:54Z</time>
      </trkpt>
      <trkpt lat="43.3987" lon="6.70549">
        <ele>66</ele>
        <time>2016-10-07T13:19:04Z</time>
      </trkpt>
      <trkpt lat="43.39887" lon="6.7057">
        <ele>65</ele>
        <time>2016-10-07T13:19:09Z</time>
      </trkpt>
      <trkpt lat="43.39904" lon="6.70584">
        <ele>62</ele>
        <time>2016-10-07T13:19:14Z</time>
      </trkpt>
      <trkpt lat="43.39924" lon="6.70585">
        <ele>62</ele>
        <time>2016-10-07T13:19:20Z</time>
      </trkpt>
      <trkpt lat="43.39936" lon="6.70575">
        <ele>65</ele>
        <time>2016-10-07T13:19:26Z</time>
      </trkpt>
      <trkpt lat="43.39953" lon="6.70554">
        <ele>65</ele>
        <time>2016-10-07T13:19:34Z</time>
      </trkpt>
      <trkpt lat="43.39965" lon="6.7055">
        <ele>65</ele>
        <time>2016-10-07T13:19:38Z</time>
      </trkpt>
      <trkpt lat="43.39985" lon="6.70534">
        <ele>65</ele>
        <time>2016-10-07T13:19:44Z</time>
      </trkpt>
      <trkpt lat="43.39988" lon="6.705">
        <ele>70</ele>
        <time>2016-10-07T13:19:50Z</time>
      </trkpt>
      <trkpt lat="43.39987" lon="6.70498">
        <ele>70</ele>
        <time>2016-10-07T13:19:52Z</time>
      </trkpt>
      <trkpt lat="43.39988" lon="6.70493">
        <ele>70</ele>
        <time>2016-10-07T13:20:08Z</time>
      </trkpt>
      <trkpt lat="43.39993" lon="6.70461">
        <ele>73</ele>
        <time>2016-10-07T13:20:15Z</time>
      </trkpt>
      <trkpt lat="43.40003" lon="6.70439">
        <ele>71</ele>
        <time>2016-10-07T13:20:19Z</time>
      </trkpt>
      <trkpt lat="43.40004" lon="6.70427">
        <ele>73</ele>
        <time>2016-10-07T13:20:21Z</time>
      </trkpt>
      <trkpt lat="43.40011" lon="6.7042">
        <ele>73</ele>
        <time>2016-10-07T13:20:23Z</time>
      </trkpt>
      <trkpt lat="43.40015" lon="6.7042">
        <ele>72</ele>
        <time>2016-10-07T13:20:24Z</time>
      </trkpt>
      <trkpt lat="43.4002" lon="6.70424">
        <ele>71</ele>
        <time>2016-10-07T13:20:25Z</time>
      </trkpt>
      <trkpt lat="43.40032" lon="6.70425">
        <ele>69</ele>
        <time>2016-10-07T13:20:31Z</time>
      </trkpt>
      <trkpt lat="43.40035" lon="6.70425">
        <ele>69</ele>
        <time>2016-10-07T13:20:46Z</time>
      </trkpt>
      <trkpt lat="43.40049" lon="6.70415">
        <ele>73</ele>
        <time>2016-10-07T13:20:54Z</time>
      </trkpt>
      <trkpt lat="43.40068" lon="6.70421">
        <ele>66</ele>
        <time>2016-10-07T13:20:59Z</time>
      </trkpt>
      <trkpt lat="43.40083" lon="6.70449">
        <ele>66</ele>
        <time>2016-10-07T13:21:05Z</time>
      </trkpt>
      <trkpt lat="43.40088" lon="6.70469">
        <ele>62</ele>
        <time>2016-10-07T13:21:10Z</time>
      </trkpt>
      <trkpt lat="43.40092" lon="6.70464">
        <ele>62</ele>
        <time>2016-10-07T13:21:12Z</time>
      </trkpt>
      <trkpt lat="43.401" lon="6.7047">
        <ele>62</ele>
        <time>2016-10-07T13:21:16Z</time>
      </trkpt>
      <trkpt lat="43.40107" lon="6.70494">
        <ele>61</ele>
        <time>2016-10-07T13:21:22Z</time>
      </trkpt>
      <trkpt lat="43.40116" lon="6.70516">
        <ele>60</ele>
        <time>2016-10-07T13:21:28Z</time>
      </trkpt>
      <trkpt lat="43.40117" lon="6.70537">
        <ele>59</ele>
        <time>2016-10-07T13:21:32Z</time>
      </trkpt>
      <trkpt lat="43.4012" lon="6.70541">
        <ele>59</ele>
        <time>2016-10-07T13:21:33Z</time>
      </trkpt>
      <trkpt lat="43.4013" lon="6.70541">
        <ele>59</ele>
        <time>2016-10-07T13:21:37Z</time>
      </trkpt>
      <trkpt lat="43.40142" lon="6.7057">
        <ele>59</ele>
        <time>2016-10-07T13:21:48Z</time>
      </trkpt>
      <trkpt lat="43.40155" lon="6.70588">
        <ele>57</ele>
        <time>2016-10-07T13:21:54Z</time>
      </trkpt>
      <trkpt lat="43.40171" lon="6.7063">
        <ele>54</ele>
        <time>2016-10-07T13:22:02Z</time>
      </trkpt>
      <trkpt lat="43.40185" lon="6.70643">
        <ele>53</ele>
        <time>2016-10-07T13:22:06Z</time>
      </trkpt>
      <trkpt lat="43.40189" lon="6.70659">
        <ele>53</ele>
        <time>2016-10-07T13:22:09Z</time>
      </trkpt>
      <trkpt lat="43.40204" lon="6.70699">
        <ele>50</ele>
        <time>2016-10-07T13:22:19Z</time>
      </trkpt>
      <trkpt lat="43.40211" lon="6.7071">
        <ele>50</ele>
        <time>2016-10-07T13:22:24Z</time>
      </trkpt>
      <trkpt lat="43.40213" lon="6.70719">
        <ele>50</ele>
        <time>2016-10-07T13:22:26Z</time>
      </trkpt>
      <trkpt lat="43.40209" lon="6.7076">
        <ele>48</ele>
        <time>2016-10-07T13:22:33Z</time>
      </trkpt>
      <trkpt lat="43.402" lon="6.70802">
        <ele>47</ele>
        <time>2016-10-07T13:22:39Z</time>
      </trkpt>
      <trkpt lat="43.40179" lon="6.70837">
        <ele>43</ele>
        <time>2016-10-07T13:22:45Z</time>
      </trkpt>
      <trkpt lat="43.40153" lon="6.70872">
        <ele>36</ele>
        <time>2016-10-07T13:22:52Z</time>
      </trkpt>
      <trkpt lat="43.40148" lon="6.7089">
        <ele>35</ele>
        <time>2016-10-07T13:22:54Z</time>
      </trkpt>
      <trkpt lat="43.40147" lon="6.70911">
        <ele>35</ele>
        <time>2016-10-07T13:22:57Z</time>
      </trkpt>
      <trkpt lat="43.40135" lon="6.7097">
        <ele>26</ele>
        <time>2016-10-07T13:23:08Z</time>
      </trkpt>
      <trkpt lat="43.40137" lon="6.71029">
        <ele>18</ele>
        <time>2016-10-07T13:23:18Z</time>
      </trkpt>
      <trkpt lat="43.4014" lon="6.71044">
        <ele>18</ele>
        <time>2016-10-07T13:23:21Z</time>
      </trkpt>
      <trkpt lat="43.40145" lon="6.71091">
        <ele>11</ele>
        <time>2016-10-07T13:23:28Z</time>
      </trkpt>
      <trkpt lat="43.40139" lon="6.71137">
        <ele>9</ele>
        <time>2016-10-07T13:23:33Z</time>
      </trkpt>
      <trkpt lat="43.40148" lon="6.71195">
        <ele>5</ele>
        <time>2016-10-07T13:23:38Z</time>
      </trkpt>
      <trkpt lat="43.40149" lon="6.71226">
        <ele>5</ele>
        <time>2016-10-07T13:23:41Z</time>
      </trkpt>
      <trkpt lat="43.40147" lon="6.71263">
        <ele>3</ele>
        <time>2016-10-07T13:23:46Z</time>
      </trkpt>
      <trkpt lat="43.40053" lon="6.7134">
        <ele>2</ele>
        <time>2016-10-07T13:24:11Z</time>
      </trkpt>
      <trkpt lat="43.39996" lon="6.71447">
        <ele>3</ele>
        <time>2016-10-07T13:24:29Z</time>
      </trkpt>
      <trkpt lat="43.39979" lon="6.71485">
        <ele>3</ele>
        <time>2016-10-07T13:24:35Z</time>
      </trkpt>
      <trkpt lat="43.3998" lon="6.71512">
        <ele>4</ele>
        <time>2016-10-07T13:24:39Z</time>
      </trkpt>
      <trkpt lat="43.3999" lon="6.71569">
        <ele>5</ele>
        <time>2016-10-07T13:24:47Z</time>
      </trkpt>
      <trkpt lat="43.39989" lon="6.71596">
        <ele>6</ele>
        <time>2016-10-07T13:24:51Z</time>
      </trkpt>
      <trkpt lat="43.39978" lon="6.71621">
        <ele>8</ele>
        <time>2016-10-07T13:24:56Z</time>
      </trkpt>
      <trkpt lat="43.39979" lon="6.71634">
        <ele>8</ele>
        <time>2016-10-07T13:25:00Z</time>
      </trkpt>
      <trkpt lat="43.39979" lon="6.71635">
        <ele>8</ele>
        <time>2016-10-07T13:25:01Z</time>
      </trkpt>
      <trkpt lat="43.39986" lon="6.71658">
        <ele>6</ele>
        <time>2016-10-07T13:25:58Z</time>
      </trkpt>
      <trkpt lat="43.39988" lon="6.71663">
        <ele>6</ele>
        <time>2016-10-07T13:25:59Z</time>
      </trkpt>
      <trkpt lat="43.39986" lon="6.71697">
        <ele>7</ele>
        <time>2016-10-07T13:26:03Z</time>
      </trkpt>
      <trkpt lat="43.39955" lon="6.71761">
        <ele>7</ele>
        <time>2016-10-07T13:26:15Z</time>
      </trkpt>
      <trkpt lat="43.39936" lon="6.71793">
        <ele>8</ele>
        <time>2016-10-07T13:26:23Z</time>
      </trkpt>
      <trkpt lat="43.39918" lon="6.71813">
        <ele>8</ele>
        <time>2016-10-07T13:26:28Z</time>
      </trkpt>
      <trkpt lat="43.39891" lon="6.71834">
        <ele>9</ele>
        <time>2016-10-07T13:26:34Z</time>
      </trkpt>
      <trkpt lat="43.3985" lon="6.71856">
        <ele>10</ele>
        <time>2016-10-07T13:26:43Z</time>
      </trkpt>
      <trkpt lat="43.39709" lon="6.71895">
        <ele>11</ele>
        <time>2016-10-07T13:27:11Z</time>
      </trkpt>
      <trkpt lat="43.39705" lon="6.71899">
        <ele>11</ele>
        <time>2016-10-07T13:27:12Z</time>
      </trkpt>
      <trkpt lat="43.39702" lon="6.71913">
        <ele>11</ele>
        <time>2016-10-07T13:27:14Z</time>
      </trkpt>
      <trkpt lat="43.3969" lon="6.71992">
        <ele>9</ele>
        <time>2016-10-07T13:27:23Z</time>
      </trkpt>
      <trkpt lat="43.39677" lon="6.72055">
        <ele>10</ele>
        <time>2016-10-07T13:27:31Z</time>
      </trkpt>
      <trkpt lat="43.39616" lon="6.72449">
        <ele>5</ele>
        <time>2016-10-07T13:28:19Z</time>
      </trkpt>
      <trkpt lat="43.3961" lon="6.725">
        <ele>6</ele>
        <time>2016-10-07T13:28:25Z</time>
      </trkpt>
      <trkpt lat="43.39601" lon="6.72548">
        <ele>6</ele>
        <time>2016-10-07T13:28:31Z</time>
      </trkpt>
      <trkpt lat="43.39584" lon="6.72609">
        <ele>5</ele>
        <time>2016-10-07T13:28:39Z</time>
      </trkpt>
      <trkpt lat="43.39579" lon="6.72614">
        <ele>5</ele>
        <time>2016-10-07T13:28:40Z</time>
      </trkpt>
      <trkpt lat="43.39565" lon="6.72615">
        <ele>5</ele>
        <time>2016-10-07T13:28:42Z</time>
      </trkpt>
      <trkpt lat="43.395" lon="6.72593">
        <ele>4</ele>
        <time>2016-10-07T13:28:53Z</time>
      </trkpt>
      <trkpt lat="43.39367" lon="6.72636">
        <ele>3</ele>
        <time>2016-10-07T13:29:16Z</time>
      </trkpt>
      <trkpt lat="43.3934" lon="6.72657">
        <ele>3</ele>
        <time>2016-10-07T13:29:21Z</time>
      </trkpt>
      <trkpt lat="43.39323" lon="6.72665">
        <ele>3</ele>
        <time>2016-10-07T13:29:24Z</time>
      </trkpt>
      <trkpt lat="43.39257" lon="6.72667">
        <ele>6</ele>
        <time>2016-10-07T13:29:36Z</time>
      </trkpt>
      <trkpt lat="43.39247" lon="6.72673">
        <ele>7</ele>
        <time>2016-10-07T13:29:38Z</time>
      </trkpt>
      <trkpt lat="43.39242" lon="6.72692">
        <ele>9</ele>
        <time>2016-10-07T13:29:41Z</time>
      </trkpt>
      <trkpt lat="43.39253" lon="6.72707">
        <ele>6</ele>
        <time>2016-10-07T13:29:44Z</time>
      </trkpt>
      <trkpt lat="43.39272" lon="6.72721">
        <ele>6</ele>
        <time>2016-10-07T13:29:48Z</time>
      </trkpt>
      <trkpt lat="43.39286" lon="6.72749">
        <ele>5</ele>
        <time>2016-10-07T13:29:54Z</time>
      </trkpt>
      <trkpt lat="43.39279" lon="6.72767">
        <ele>7</ele>
        <time>2016-10-07T13:30:01Z</time>
      </trkpt>
      <trkpt lat="43.39274" lon="6.72784">
        <ele>7</ele>
        <time>2016-10-07T13:30:12Z</time>
      </trkpt>
      <trkpt lat="43.39274" lon="6.72785">
        <ele>7</ele>
        <time>2016-10-07T13:30:13Z</time>
      </trkpt>
      <trkpt lat="43.39272" lon="6.72798">
        <ele>7</ele>
        <time>2016-10-07T13:30:20Z</time>
      </trkpt>
      <trkpt lat="43.39265" lon="6.72822">
        <ele>7</ele>
        <time>2016-10-07T13:30:27Z</time>
      </trkpt>
      <trkpt lat="43.39252" lon="6.72849">
        <ele>7</ele>
        <time>2016-10-07T13:30:34Z</time>
      </trkpt>
      <trkpt lat="43.39243" lon="6.72862">
        <ele>8</ele>
        <time>2016-10-07T13:30:40Z</time>
      </trkpt>
      <trkpt lat="43.39243" lon="6.72861">
        <ele>8</ele>
        <time>2016-10-07T13:30:42Z</time>
      </trkpt>
      <trkpt lat="43.3923" lon="6.72841">
        <ele>8</ele>
        <time>2016-10-07T13:31:01Z</time>
      </trkpt>
      <trkpt lat="43.39227" lon="6.72826">
        <ele>9</ele>
        <time>2016-10-07T13:31:14Z</time>
      </trkpt>
      <trkpt lat="43.39219" lon="6.72816">
        <ele>10</ele>
        <time>2016-10-07T13:31:25Z</time>
      </trkpt>
      <trkpt lat="43.3919" lon="6.72806">
        <ele>11</ele>
        <time>2016-10-07T13:31:37Z</time>
      </trkpt>
      <trkpt lat="43.39169" lon="6.72808">
        <ele>12</ele>
        <time>2016-10-07T13:31:42Z</time>
      </trkpt>
      <trkpt lat="43.39147" lon="6.72813">
        <ele>15</ele>
        <time>2016-10-07T13:31:49Z</time>
      </trkpt>
      <trkpt lat="43.39067" lon="6.72882">
        <ele>16</ele>
        <time>2016-10-07T13:32:17Z</time>
      </trkpt>
      <trkpt lat="43.39029" lon="6.72866">
        <ele>18</ele>
        <time>2016-10-07T13:32:30Z</time>
      </trkpt>
      <trkpt lat="43.38994" lon="6.72841">
        <ele>20</ele>
        <time>2016-10-07T13:32:42Z</time>
      </trkpt>
      <trkpt lat="43.38987" lon="6.72839">
        <ele>20</ele>
        <time>2016-10-07T13:32:44Z</time>
      </trkpt>
      <trkpt lat="43.38945" lon="6.72809">
        <ele>22</ele>
        <time>2016-10-07T13:32:58Z</time>
      </trkpt>
      <trkpt lat="43.38921" lon="6.72796">
        <ele>22</ele>
        <time>2016-10-07T13:33:05Z</time>
      </trkpt>
      <trkpt lat="43.389" lon="6.72788">
        <ele>22</ele>
        <time>2016-10-07T13:33:11Z</time>
      </trkpt>
      <trkpt lat="43.38888" lon="6.72793">
        <ele>21</ele>
        <time>2016-10-07T13:33:14Z</time>
      </trkpt>
      <trkpt lat="43.38875" lon="6.72817">
        <ele>21</ele>
        <time>2016-10-07T13:33:18Z</time>
      </trkpt>
      <trkpt lat="43.38829" lon="6.72949">
        <ele>11</ele>
        <time>2016-10-07T13:33:31Z</time>
      </trkpt>
      <trkpt lat="43.38803" lon="6.73011">
        <ele>9</ele>
        <time>2016-10-07T13:33:38Z</time>
      </trkpt>
      <trkpt lat="43.38799" lon="6.73014">
        <ele>9</ele>
        <time>2016-10-07T13:33:42Z</time>
      </trkpt>
      <trkpt lat="43.388" lon="6.73022">
        <ele>9</ele>
        <time>2016-10-07T13:33:52Z</time>
      </trkpt>
      <trkpt lat="43.38809" lon="6.73032">
        <ele>9</ele>
        <time>2016-10-07T13:33:56Z</time>
      </trkpt>
      <trkpt lat="43.38812" lon="6.73046">
        <ele>9</ele>
        <time>2016-10-07T13:33:59Z</time>
      </trkpt>
      <trkpt lat="43.38826" lon="6.73058">
        <ele>9</ele>
        <time>2016-10-07T13:34:05Z</time>
      </trkpt>
      <trkpt lat="43.38833" lon="6.73042">
        <ele>9</ele>
        <time>2016-10-07T13:34:11Z</time>
      </trkpt>
      <trkpt lat="43.38835" lon="6.73027">
        <ele>11</ele>
        <time>2016-10-07T13:34:16Z</time>
      </trkpt>
      <trkpt lat="43.38843" lon="6.73017">
        <ele>11</ele>
        <time>2016-10-07T13:34:22Z</time>
      </trkpt>
      <trkpt lat="43.38845" lon="6.73019">
        <ele>11</ele>
        <time>2016-10-07T13:34:24Z</time>
      </trkpt>
      <trkpt lat="43.38857" lon="6.73042">
        <ele>10</ele>
        <time>2016-10-07T13:34:48Z</time>
      </trkpt>
      <trkpt lat="43.38864" lon="6.73051">
        <ele>10</ele>
        <time>2016-10-07T13:34:52Z</time>
      </trkpt>
      <trkpt lat="43.38879" lon="6.73053">
        <ele>10</ele>
        <time>2016-10-07T13:34:57Z</time>
      </trkpt>
      <trkpt lat="43.38907" lon="6.73067">
        <ele>8</ele>
        <time>2016-10-07T13:35:06Z</time>
      </trkpt>
      <trkpt lat="43.38914" lon="6.73065">
        <ele>8</ele>
        <time>2016-10-07T13:35:08Z</time>
      </trkpt>
      <trkpt lat="43.38922" lon="6.73057">
        <ele>9</ele>
        <time>2016-10-07T13:35:11Z</time>
      </trkpt>
      <trkpt lat="43.38932" lon="6.73063">
        <ele>9</ele>
        <time>2016-10-07T13:35:15Z</time>
      </trkpt>
      <trkpt lat="43.38932" lon="6.73074">
        <ele>8</ele>
        <time>2016-10-07T13:35:23Z</time>
      </trkpt>
      <trkpt lat="43.38939" lon="6.73112">
        <ele>7</ele>
        <time>2016-10-07T13:35:59Z</time>
      </trkpt>
      <trkpt lat="43.38943" lon="6.73114">
        <ele>7</ele>
        <time>2016-10-07T13:36:01Z</time>
      </trkpt>
      <trkpt lat="43.38971" lon="6.73167">
        <ele>6</ele>
        <time>2016-10-07T13:36:20Z</time>
      </trkpt>
      <trkpt lat="43.38972" lon="6.73181">
        <ele>6</ele>
        <time>2016-10-07T13:36:28Z</time>
      </trkpt>
      <trkpt lat="43.38981" lon="6.73184">
        <ele>6</ele>
        <time>2016-10-07T13:36:46Z</time>
      </trkpt>
      <trkpt lat="43.38984" lon="6.73184">
        <ele>6</ele>
        <time>2016-10-07T13:36:47Z</time>
      </trkpt>
      <trkpt lat="43.39009" lon="6.73209">
        <ele>6</ele>
        <time>2016-10-07T13:36:57Z</time>
      </trkpt>
      <trkpt lat="43.3902" lon="6.73207">
        <ele>6</ele>
        <time>2016-10-07T13:37:01Z</time>
      </trkpt>
      <trkpt lat="43.39034" lon="6.732">
        <ele>6</ele>
        <time>2016-10-07T13:37:06Z</time>
      </trkpt>
      <trkpt lat="43.39043" lon="6.73184">
        <ele>5</ele>
        <time>2016-10-07T13:37:14Z</time>
      </trkpt>
      <trkpt lat="43.39048" lon="6.73183">
        <ele>5</ele>
        <time>2016-10-07T13:37:20Z</time>
      </trkpt>
      <trkpt lat="43.39057" lon="6.73184">
        <ele>5</ele>
        <time>2016-10-07T13:37:24Z</time>
      </trkpt>
      <trkpt lat="43.3907" lon="6.73193">
        <ele>5</ele>
        <time>2016-10-07T13:37:30Z</time>
      </trkpt>
      <trkpt lat="43.39085" lon="6.73192">
        <ele>4</ele>
        <time>2016-10-07T13:37:36Z</time>
      </trkpt>
      <trkpt lat="43.39094" lon="6.73185">
        <ele>4</ele>
        <time>2016-10-07T13:37:39Z</time>
      </trkpt>
      <trkpt lat="43.39113" lon="6.7316">
        <ele>5</ele>
        <time>2016-10-07T13:37:44Z</time>
      </trkpt>
      <trkpt lat="43.39117" lon="6.7315">
        <ele>5</ele>
        <time>2016-10-07T13:37:46Z</time>
      </trkpt>
      <trkpt lat="43.39112" lon="6.73099">
        <ele>6</ele>
        <time>2016-10-07T13:37:55Z</time>
      </trkpt>
      <trkpt lat="43.39124" lon="6.73048">
        <ele>7</ele>
        <time>2016-10-07T13:38:03Z</time>
      </trkpt>
      <trkpt lat="43.39137" lon="6.73025">
        <ele>6</ele>
        <time>2016-10-07T13:38:06Z</time>
      </trkpt>
      <trkpt lat="43.39152" lon="6.72991">
        <ele>6</ele>
        <time>2016-10-07T13:38:10Z</time>
      </trkpt>
      <trkpt lat="43.39181" lon="6.72951">
        <ele>6</ele>
        <time>2016-10-07T13:38:16Z</time>
      </trkpt>
      <trkpt lat="43.39208" lon="6.72924">
        <ele>6</ele>
        <time>2016-10-07T13:38:22Z</time>
      </trkpt>
      <trkpt lat="43.39217" lon="6.72923">
        <ele>6</ele>
        <time>2016-10-07T13:38:25Z</time>
      </trkpt>
      <trkpt lat="43.39223" lon="6.72919">
        <ele>6</ele>
        <time>2016-10-07T13:38:31Z</time>
      </trkpt>
      <trkpt lat="43.3923" lon="6.72915">
        <ele>9</ele>
        <time>2016-10-07T13:38:37Z</time>
      </trkpt>
      <trkpt lat="43.39232" lon="6.72915">
        <ele>9</ele>
        <time>2016-10-07T13:38:38Z</time>
      </trkpt>
      <trkpt lat="43.39245" lon="6.72875">
        <ele>8</ele>
        <time>2016-10-07T13:38:48Z</time>
      </trkpt>
      <trkpt lat="43.39265" lon="6.72835">
        <ele>7</ele>
        <time>2016-10-07T13:38:56Z</time>
      </trkpt>
      <trkpt lat="43.39286" lon="6.72763">
        <ele>6</ele>
        <time>2016-10-07T13:39:18Z</time>
      </trkpt>
      <trkpt lat="43.39289" lon="6.72759">
        <ele>6</ele>
        <time>2016-10-07T13:39:20Z</time>
      </trkpt>
      <trkpt lat="43.3929" lon="6.72757">
        <ele>6</ele>
        <time>2016-10-07T13:39:21Z</time>
      </trkpt>
      <trkpt lat="43.39302" lon="6.72757">
        <ele>5</ele>
        <time>2016-10-07T13:39:25Z</time>
      </trkpt>
      <trkpt lat="43.39361" lon="6.72782">
        <ele>2</ele>
        <time>2016-10-07T13:39:38Z</time>
      </trkpt>
      <trkpt lat="43.3939" lon="6.7278">
        <ele>2</ele>
        <time>2016-10-07T13:39:46Z</time>
      </trkpt>
      <trkpt lat="43.39518" lon="6.72829">
        <ele>3</ele>
        <time>2016-10-07T13:40:11Z</time>
      </trkpt>
      <trkpt lat="43.39924" lon="6.72973">
        <ele>2</ele>
        <time>2016-10-07T13:41:18Z</time>
      </trkpt>
      <trkpt lat="43.39978" lon="6.7298">
        <ele>3</ele>
        <time>2016-10-07T13:41:27Z</time>
      </trkpt>
      <trkpt lat="43.40183" lon="6.72992">
        <ele>2</ele>
        <time>2016-10-07T13:42:01Z</time>
      </trkpt>
      <trkpt lat="43.40223" lon="6.7299">
        <ele>2</ele>
        <time>2016-10-07T13:42:08Z</time>
      </trkpt>
      <trkpt lat="43.40273" lon="6.72979">
        <ele>2</ele>
        <time>2016-10-07T13:42:16Z</time>
      </trkpt>
      <trkpt lat="43.40323" lon="6.72962">
        <ele>2</ele>
        <time>2016-10-07T13:42:24Z</time>
      </trkpt>
      <trkpt lat="43.40406" lon="6.72911">
        <ele>3</ele>
        <time>2016-10-07T13:42:37Z</time>
      </trkpt>
      <trkpt lat="43.4044" lon="6.72881">
        <ele>3</ele>
        <time>2016-10-07T13:42:43Z</time>
      </trkpt>
      <trkpt lat="43.40833" lon="6.7249">
        <ele>2</ele>
        <time>2016-10-07T13:43:52Z</time>
      </trkpt>
      <trkpt lat="43.4091" lon="6.7242">
        <ele>3</ele>
        <time>2016-10-07T13:44:06Z</time>
      </trkpt>
      <trkpt lat="43.4099" lon="6.7241">
        <ele>3</ele>
        <time>2016-10-07T13:44:18Z</time>
      </trkpt>
      <trkpt lat="43.4103" lon="6.72416">
        <ele>3</ele>
        <time>2016-10-07T13:44:24Z</time>
      </trkpt>
      <trkpt lat="43.4105" lon="6.72424">
        <ele>3</ele>
        <time>2016-10-07T13:44:27Z</time>
      </trkpt>
      <trkpt lat="43.41061" lon="6.72433">
        <ele>3</ele>
        <time>2016-10-07T13:44:29Z</time>
      </trkpt>
      <trkpt lat="43.41074" lon="6.7244">
        <ele>3</ele>
        <time>2016-10-07T13:44:32Z</time>
      </trkpt>
      <trkpt lat="43.41085" lon="6.72438">
        <ele>3</ele>
        <time>2016-10-07T13:44:35Z</time>
      </trkpt>
      <trkpt lat="43.41154" lon="6.72468">
        <ele>3</ele>
        <time>2016-10-07T13:44:51Z</time>
      </trkpt>
      <trkpt lat="43.4115" lon="6.72483">
        <ele>3</ele>
        <time>2016-10-07T13:44:55Z</time>
      </trkpt>
      <trkpt lat="43.41147" lon="6.72514">
        <ele>4</ele>
        <time>2016-10-07T13:45:05Z</time>
      </trkpt>
      <trkpt lat="43.41151" lon="6.72539">
        <ele>5</ele>
        <time>2016-10-07T13:45:10Z</time>
      </trkpt>
      <trkpt lat="43.41129" lon="6.72583">
        <ele>5</ele>
        <time>2016-10-07T13:45:20Z</time>
      </trkpt>
      <trkpt lat="43.41135" lon="6.72601">
        <ele>6</ele>
        <time>2016-10-07T13:45:23Z</time>
      </trkpt>
      <trkpt lat="43.41178" lon="6.72651">
        <ele>7</ele>
        <time>2016-10-07T13:45:33Z</time>
      </trkpt>
      <trkpt lat="43.41198" lon="6.72687">
        <ele>8</ele>
        <time>2016-10-07T13:45:38Z</time>
      </trkpt>
      <trkpt lat="43.41204" lon="6.72712">
        <ele>8</ele>
        <time>2016-10-07T13:45:41Z</time>
      </trkpt>
      <trkpt lat="43.41195" lon="6.7275">
        <ele>7</ele>
        <time>2016-10-07T13:45:46Z</time>
      </trkpt>
      <trkpt lat="43.41182" lon="6.72778">
        <ele>6</ele>
        <time>2016-10-07T13:45:50Z</time>
      </trkpt>
      <trkpt lat="43.41182" lon="6.7282">
        <ele>5</ele>
        <time>2016-10-07T13:45:55Z</time>
      </trkpt>
      <trkpt lat="43.4122" lon="6.72854">
        <ele>4</ele>
        <time>2016-10-07T13:46:03Z</time>
      </trkpt>
      <trkpt lat="43.41237" lon="6.72877">
        <ele>4</ele>
        <time>2016-10-07T13:46:07Z</time>
      </trkpt>
      <trkpt lat="43.41243" lon="6.72892">
        <ele>4</ele>
        <time>2016-10-07T13:46:09Z</time>
      </trkpt>
      <trkpt lat="43.41252" lon="6.72969">
        <ele>3</ele>
        <time>2016-10-07T13:46:19Z</time>
      </trkpt>
      <trkpt lat="43.41255" lon="6.72975">
        <ele>3</ele>
        <time>2016-10-07T13:46:20Z</time>
      </trkpt>
      <trkpt lat="43.4125" lon="6.73005">
        <ele>3</ele>
        <time>2016-10-07T13:46:25Z</time>
      </trkpt>
      <trkpt lat="43.41189" lon="6.73081">
        <ele>2</ele>
        <time>2016-10-07T13:46:38Z</time>
      </trkpt>
      <trkpt lat="43.41168" lon="6.73128">
        <ele>3</ele>
        <time>2016-10-07T13:46:46Z</time>
      </trkpt>
      <trkpt lat="43.41176" lon="6.73144">
        <ele>3</ele>
        <time>2016-10-07T13:46:49Z</time>
      </trkpt>
      <trkpt lat="43.41219" lon="6.73195">
        <ele>4</ele>
        <time>2016-10-07T13:47:01Z</time>
      </trkpt>
      <trkpt lat="43.41211" lon="6.73221">
        <ele>4</ele>
        <time>2016-10-07T13:47:05Z</time>
      </trkpt>
      <trkpt lat="43.41193" lon="6.73249">
        <ele>4</ele>
        <time>2016-10-07T13:47:09Z</time>
      </trkpt>
      <trkpt lat="43.41149" lon="6.7334">
        <ele>1</ele>
        <time>2016-10-07T13:47:20Z</time>
      </trkpt>
      <trkpt lat="43.41114" lon="6.73451">
        <ele>2</ele>
        <time>2016-10-07T13:47:32Z</time>
      </trkpt>
      <trkpt lat="43.41122" lon="6.73472">
        <ele>2</ele>
        <time>2016-10-07T13:47:35Z</time>
      </trkpt>
      <trkpt lat="43.41188" lon="6.73524">
        <ele>3</ele>
        <time>2016-10-07T13:47:47Z</time>
      </trkpt>
      <trkpt lat="43.41208" lon="6.73534">
        <ele>3</ele>
        <time>2016-10-07T13:47:51Z</time>
      </trkpt>
      <trkpt lat="43.41227" lon="6.73523">
        <ele>3</ele>
        <time>2016-10-07T13:47:55Z</time>
      </trkpt>
      <trkpt lat="43.41257" lon="6.7348">
        <ele>3</ele>
        <time>2016-10-07T13:48:09Z</time>
      </trkpt>
      <trkpt lat="43.41269" lon="6.73477">
        <ele>3</ele>
        <time>2016-10-07T13:48:11Z</time>
      </trkpt>
      <trkpt lat="43.41461" lon="6.73527">
        <ele>1</ele>
        <time>2016-10-07T13:48:45Z</time>
      </trkpt>
      <trkpt lat="43.41533" lon="6.73542">
        <ele>1</ele>
        <time>2016-10-07T13:48:58Z</time>
      </trkpt>
      <trkpt lat="43.41574" lon="6.73553">
        <ele>1</ele>
        <time>2016-10-07T13:49:06Z</time>
      </trkpt>
      <trkpt lat="43.41594" lon="6.73569">
        <ele>1</ele>
        <time>2016-10-07T13:49:11Z</time>
      </trkpt>
      <trkpt lat="43.41601" lon="6.73596">
        <ele>1</ele>
        <time>2016-10-07T13:49:15Z</time>
      </trkpt>
      <trkpt lat="43.41639" lon="6.7368">
        <ele>1</ele>
        <time>2016-10-07T13:49:27Z</time>
      </trkpt>
      <trkpt lat="43.41634" lon="6.737">
        <ele>1</ele>
        <time>2016-10-07T13:49:30Z</time>
      </trkpt>
      <trkpt lat="43.41572" lon="6.73741">
        <ele>1</ele>
        <time>2016-10-07T13:49:41Z</time>
      </trkpt>
      <trkpt lat="43.41562" lon="6.7376">
        <ele>1</ele>
        <time>2016-10-07T13:49:44Z</time>
      </trkpt>
      <trkpt lat="43.41551" lon="6.73807">
        <ele>1</ele>
        <time>2016-10-07T13:49:50Z</time>
      </trkpt>
      <trkpt lat="43.41551" lon="6.73815">
        <ele>1</ele>
        <time>2016-10-07T13:49:51Z</time>
      </trkpt>
      <trkpt lat="43.41557" lon="6.73828">
        <ele>1</ele>
        <time>2016-10-07T13:49:53Z</time>
      </trkpt>
      <trkpt lat="43.41605" lon="6.73867">
        <ele>1</ele>
        <time>2016-10-07T13:50:05Z</time>
      </trkpt>
      <trkpt lat="43.41607" lon="6.73866">
        <ele>1</ele>
        <time>2016-10-07T13:50:08Z</time>
      </trkpt>
      <trkpt lat="43.41648" lon="6.7388">
        <ele>1</ele>
        <time>2016-10-07T14:00:44Z</time>
      </trkpt>
      <trkpt lat="43.41642" lon="6.73878">
        <ele>1</ele>
        <time>2016-10-07T14:00:52Z</time>
      </trkpt>
      <trkpt lat="43.41888" lon="6.74063">
        <ele>2</ele>
        <time>2016-10-07T15:19:19Z</time>
      </trkpt>
      <trkpt lat="43.41874" lon="6.74072">
        <ele>2</ele>
        <time>2016-10-07T15:19:27Z</time>
      </trkpt>
      <trkpt lat="43.41855" lon="6.74076">
        <ele>2</ele>
        <time>2016-10-07T15:19:42Z</time>
      </trkpt>
      <trkpt lat="43.41841" lon="6.74075">
        <ele>2</ele>
        <time>2016-10-07T15:19:50Z</time>
      </trkpt>
      <trkpt lat="43.41819" lon="6.74064">
        <ele>1</ele>
        <time>2016-10-07T15:20:12Z</time>
      </trkpt>
      <trkpt lat="43.41805" lon="6.7405">
        <ele>1</ele>
        <time>2016-10-07T15:20:26Z</time>
      </trkpt>
      <trkpt lat="43.41804" lon="6.74051">
        <ele>1</ele>
        <time>2016-10-07T15:20:28Z</time>
      </trkpt>
      <trkpt lat="43.41793" lon="6.73986">
        <ele>1</ele>
        <time>2016-10-07T15:21:32Z</time>
      </trkpt>
      <trkpt lat="43.41786" lon="6.73985">
        <ele>1</ele>
        <time>2016-10-07T15:21:38Z</time>
      </trkpt>
      <trkpt lat="43.41736" lon="6.73956">
        <ele>2</ele>
        <time>2016-10-07T15:22:22Z</time>
      </trkpt>
      <trkpt lat="43.41724" lon="6.73945">
        <ele>2</ele>
        <time>2016-10-07T15:22:36Z</time>
      </trkpt>
      <trkpt lat="43.41723" lon="6.73944">
        <ele>2</ele>
        <time>2016-10-07T15:22:39Z</time>
      </trkpt>
      <trkpt lat="43.41644" lon="6.73907">
        <ele>2</ele>
        <time>2016-10-07T15:24:25Z</time>
      </trkpt>
      <trkpt lat="43.4163" lon="6.73899">
        <ele>1</ele>
        <time>2016-10-07T15:24:42Z</time>
      </trkpt>
      <trkpt lat="43.4163" lon="6.73899">
        <ele>1</ele>
        <time>2016-10-07T15:24:43Z</time>
      </trkpt>
      <trkpt lat="43.41651" lon="6.73908">
        <ele>2</ele>
        <time>2016-10-07T15:26:01Z</time>
      </trkpt>
      <trkpt lat="43.41654" lon="6.7389">
        <ele>1</ele>
        <time>2016-10-07T15:26:14Z</time>
      </trkpt>
      <trkpt lat="43.41641" lon="6.73876">
        <ele>1</ele>
        <time>2016-10-07T15:26:31Z</time>
      </trkpt>
      <trkpt lat="43.4164" lon="6.73867">
        <ele>1</ele>
        <time>2016-10-07T15:26:37Z</time>
      </trkpt>
      <trkpt lat="43.41631" lon="6.73847">
        <ele>1</ele>
        <time>2016-10-07T15:26:55Z</time>
      </trkpt>
      <trkpt lat="43.41622" lon="6.7385">
        <ele>1</ele>
        <time>2016-10-07T15:27:04Z</time>
      </trkpt>
    </trkseg>
  </trk>
</gpx>